<?xml version="1.0" encoding="UTF-8" standalone="no" ?>
<gpx xmlns="http://www.topografix.com/GPX/1/1" xmlns:xsi="http://www.w3.org/2001/XMLSchema-instance" xsi:schemaLocation="http://www.topografix.com/GPX/1/1 http://www.topografix.com/GPX/1/1/gpx.xsd" version="1.1" creator="VisuGPX - https://www.visugpx.com">
  <metadata>
    <name>13-Me-Vauvenargues</name>
    <desc><![CDATA[13-Me-Vauvenargues : lac du Bimont - Ste Victoire
2022-05-11]]></desc>
  </metadata>
  <trk>
    <name><![CDATA[2022-05-11-Me-vauvenargues]]></name>
    <extensions>
      <line xmlns="http://www.topografix.com/GPX/gpx_style/0/2">
        <width>4</width>
      </line>
    </extensions>
    <trkseg>
      <trkpt lat="43.54133" lon="5.532">
        <ele>358.8</ele>
        <time>2022-05-11T07:57:48.000Z</time>
      </trkpt>
      <trkpt lat="43.54129" lon="5.5321">
        <ele>357.8</ele>
        <time>2022-05-11T07:59:11.000Z</time>
      </trkpt>
      <trkpt lat="43.54128" lon="5.5321">
        <ele>357.7</ele>
        <time>2022-05-11T07:59:12.000Z</time>
      </trkpt>
      <trkpt lat="43.54125" lon="5.53221">
        <ele>358.1</ele>
        <time>2022-05-11T07:59:36.000Z</time>
      </trkpt>
      <trkpt lat="43.54128" lon="5.53224">
        <ele>357.7</ele>
        <time>2022-05-11T07:59:43.000Z</time>
      </trkpt>
      <trkpt lat="43.5413" lon="5.53229">
        <ele>357.9</ele>
        <time>2022-05-11T07:59:47.000Z</time>
      </trkpt>
      <trkpt lat="43.54132" lon="5.53233">
        <ele>358.1</ele>
        <time>2022-05-11T07:59:50.000Z</time>
      </trkpt>
      <trkpt lat="43.54135" lon="5.53237">
        <ele>358.3</ele>
        <time>2022-05-11T07:59:54.000Z</time>
      </trkpt>
      <trkpt lat="43.54138" lon="5.53242">
        <ele>358.1</ele>
        <time>2022-05-11T07:59:58.000Z</time>
      </trkpt>
      <trkpt lat="43.54141" lon="5.53245">
        <ele>357.9</ele>
        <time>2022-05-11T08:00:03.000Z</time>
      </trkpt>
      <trkpt lat="43.54144" lon="5.53248">
        <ele>357.8</ele>
        <time>2022-05-11T08:00:06.000Z</time>
      </trkpt>
      <trkpt lat="43.54147" lon="5.53252">
        <ele>358</ele>
        <time>2022-05-11T08:00:09.000Z</time>
      </trkpt>
      <trkpt lat="43.54149" lon="5.53256">
        <ele>358.1</ele>
        <time>2022-05-11T08:00:14.000Z</time>
      </trkpt>
      <trkpt lat="43.54149" lon="5.53257">
        <ele>358.1</ele>
        <time>2022-05-11T08:00:15.000Z</time>
      </trkpt>
      <trkpt lat="43.54151" lon="5.53266">
        <ele>358</ele>
        <time>2022-05-11T08:00:21.000Z</time>
      </trkpt>
      <trkpt lat="43.54153" lon="5.53271">
        <ele>357.8</ele>
        <time>2022-05-11T08:00:25.000Z</time>
      </trkpt>
      <trkpt lat="43.54154" lon="5.53276">
        <ele>358</ele>
        <time>2022-05-11T08:00:28.000Z</time>
      </trkpt>
      <trkpt lat="43.54156" lon="5.53281">
        <ele>358.1</ele>
        <time>2022-05-11T08:00:31.000Z</time>
      </trkpt>
      <trkpt lat="43.54156" lon="5.53286">
        <ele>358</ele>
        <time>2022-05-11T08:00:34.000Z</time>
      </trkpt>
      <trkpt lat="43.54157" lon="5.5329">
        <ele>358.1</ele>
        <time>2022-05-11T08:00:37.000Z</time>
      </trkpt>
      <trkpt lat="43.54159" lon="5.53295">
        <ele>357.9</ele>
        <time>2022-05-11T08:00:40.000Z</time>
      </trkpt>
      <trkpt lat="43.5416" lon="5.53301">
        <ele>358</ele>
        <time>2022-05-11T08:00:43.000Z</time>
      </trkpt>
      <trkpt lat="43.5416" lon="5.53306">
        <ele>358.1</ele>
        <time>2022-05-11T08:00:47.000Z</time>
      </trkpt>
      <trkpt lat="43.54159" lon="5.53311">
        <ele>358.3</ele>
        <time>2022-05-11T08:00:52.000Z</time>
      </trkpt>
      <trkpt lat="43.54159" lon="5.53316">
        <ele>358.3</ele>
        <time>2022-05-11T08:00:57.000Z</time>
      </trkpt>
      <trkpt lat="43.54158" lon="5.53322">
        <ele>358.6</ele>
        <time>2022-05-11T08:01:02.000Z</time>
      </trkpt>
      <trkpt lat="43.54158" lon="5.53327">
        <ele>358.6</ele>
        <time>2022-05-11T08:01:05.000Z</time>
      </trkpt>
      <trkpt lat="43.54158" lon="5.53332">
        <ele>358.6</ele>
        <time>2022-05-11T08:01:08.000Z</time>
      </trkpt>
      <trkpt lat="43.54159" lon="5.53337">
        <ele>358.7</ele>
        <time>2022-05-11T08:01:12.000Z</time>
      </trkpt>
      <trkpt lat="43.5416" lon="5.53342">
        <ele>358.7</ele>
        <time>2022-05-11T08:01:17.000Z</time>
      </trkpt>
      <trkpt lat="43.5416" lon="5.53343">
        <ele>358.7</ele>
        <time>2022-05-11T08:01:18.000Z</time>
      </trkpt>
      <trkpt lat="43.54161" lon="5.53353">
        <ele>359.3</ele>
        <time>2022-05-11T08:01:29.000Z</time>
      </trkpt>
      <trkpt lat="43.54162" lon="5.53358">
        <ele>359.3</ele>
        <time>2022-05-11T08:01:33.000Z</time>
      </trkpt>
      <trkpt lat="43.54162" lon="5.53364">
        <ele>359.4</ele>
        <time>2022-05-11T08:01:36.000Z</time>
      </trkpt>
      <trkpt lat="43.5416" lon="5.53369">
        <ele>359.8</ele>
        <time>2022-05-11T08:01:41.000Z</time>
      </trkpt>
      <trkpt lat="43.54159" lon="5.53374">
        <ele>359.7</ele>
        <time>2022-05-11T08:01:45.000Z</time>
      </trkpt>
      <trkpt lat="43.54157" lon="5.53379">
        <ele>359.7</ele>
        <time>2022-05-11T08:01:50.000Z</time>
      </trkpt>
      <trkpt lat="43.54159" lon="5.53385">
        <ele>359.5</ele>
        <time>2022-05-11T08:01:58.000Z</time>
      </trkpt>
      <trkpt lat="43.54157" lon="5.5339">
        <ele>359.1</ele>
        <time>2022-05-11T08:02:05.000Z</time>
      </trkpt>
      <trkpt lat="43.54156" lon="5.53395">
        <ele>359.1</ele>
        <time>2022-05-11T08:02:10.000Z</time>
      </trkpt>
      <trkpt lat="43.54154" lon="5.53401">
        <ele>359</ele>
        <time>2022-05-11T08:02:15.000Z</time>
      </trkpt>
      <trkpt lat="43.54152" lon="5.53406">
        <ele>359.1</ele>
        <time>2022-05-11T08:02:18.000Z</time>
      </trkpt>
      <trkpt lat="43.54151" lon="5.53408">
        <ele>359.1</ele>
        <time>2022-05-11T08:02:19.000Z</time>
      </trkpt>
      <trkpt lat="43.54149" lon="5.53415">
        <ele>359.1</ele>
        <time>2022-05-11T08:02:23.000Z</time>
      </trkpt>
      <trkpt lat="43.54147" lon="5.5342">
        <ele>359.4</ele>
        <time>2022-05-11T08:02:26.000Z</time>
      </trkpt>
      <trkpt lat="43.54145" lon="5.53424">
        <ele>359.5</ele>
        <time>2022-05-11T08:02:29.000Z</time>
      </trkpt>
      <trkpt lat="43.54143" lon="5.53428">
        <ele>359.4</ele>
        <time>2022-05-11T08:02:32.000Z</time>
      </trkpt>
      <trkpt lat="43.5414" lon="5.53431">
        <ele>359.3</ele>
        <time>2022-05-11T08:02:35.000Z</time>
      </trkpt>
      <trkpt lat="43.54137" lon="5.53435">
        <ele>359.5</ele>
        <time>2022-05-11T08:02:38.000Z</time>
      </trkpt>
      <trkpt lat="43.54136" lon="5.5344">
        <ele>359.3</ele>
        <time>2022-05-11T08:02:42.000Z</time>
      </trkpt>
      <trkpt lat="43.54134" lon="5.53444">
        <ele>359.6</ele>
        <time>2022-05-11T08:02:46.000Z</time>
      </trkpt>
      <trkpt lat="43.54131" lon="5.53448">
        <ele>359.3</ele>
        <time>2022-05-11T08:02:52.000Z</time>
      </trkpt>
      <trkpt lat="43.54126" lon="5.53449">
        <ele>359.4</ele>
        <time>2022-05-11T08:02:56.000Z</time>
      </trkpt>
      <trkpt lat="43.54123" lon="5.53451">
        <ele>359.6</ele>
        <time>2022-05-11T08:03:01.000Z</time>
      </trkpt>
      <trkpt lat="43.54119" lon="5.53453">
        <ele>359.6</ele>
        <time>2022-05-11T08:03:27.000Z</time>
      </trkpt>
      <trkpt lat="43.54119" lon="5.53453">
        <ele>359.5</ele>
        <time>2022-05-11T08:03:28.000Z</time>
      </trkpt>
      <trkpt lat="43.54112" lon="5.53455">
        <ele>359.5</ele>
        <time>2022-05-11T08:04:01.000Z</time>
      </trkpt>
      <trkpt lat="43.54117" lon="5.53454">
        <ele>359.2</ele>
        <time>2022-05-11T08:04:53.000Z</time>
      </trkpt>
      <trkpt lat="43.54118" lon="5.53454">
        <ele>359.1</ele>
        <time>2022-05-11T08:04:54.000Z</time>
      </trkpt>
      <trkpt lat="43.54124" lon="5.53454">
        <ele>359.2</ele>
        <time>2022-05-11T08:05:00.000Z</time>
      </trkpt>
      <trkpt lat="43.54128" lon="5.53456">
        <ele>359.3</ele>
        <time>2022-05-11T08:05:04.000Z</time>
      </trkpt>
      <trkpt lat="43.54131" lon="5.53461">
        <ele>359.4</ele>
        <time>2022-05-11T08:05:08.000Z</time>
      </trkpt>
      <trkpt lat="43.54132" lon="5.53466">
        <ele>359.4</ele>
        <time>2022-05-11T08:05:12.000Z</time>
      </trkpt>
      <trkpt lat="43.54134" lon="5.53472">
        <ele>359.3</ele>
        <time>2022-05-11T08:05:16.000Z</time>
      </trkpt>
      <trkpt lat="43.54135" lon="5.53476">
        <ele>359.3</ele>
        <time>2022-05-11T08:05:19.000Z</time>
      </trkpt>
      <trkpt lat="43.54136" lon="5.53482">
        <ele>359.2</ele>
        <time>2022-05-11T08:05:22.000Z</time>
      </trkpt>
      <trkpt lat="43.54137" lon="5.53487">
        <ele>359.1</ele>
        <time>2022-05-11T08:05:25.000Z</time>
      </trkpt>
      <trkpt lat="43.54138" lon="5.53493">
        <ele>359</ele>
        <time>2022-05-11T08:05:29.000Z</time>
      </trkpt>
      <trkpt lat="43.5414" lon="5.53497">
        <ele>359</ele>
        <time>2022-05-11T08:05:32.000Z</time>
      </trkpt>
      <trkpt lat="43.54141" lon="5.53502">
        <ele>359</ele>
        <time>2022-05-11T08:05:35.000Z</time>
      </trkpt>
      <trkpt lat="43.54143" lon="5.53508">
        <ele>358.8</ele>
        <time>2022-05-11T08:05:39.000Z</time>
      </trkpt>
      <trkpt lat="43.54144" lon="5.53513">
        <ele>358.6</ele>
        <time>2022-05-11T08:05:42.000Z</time>
      </trkpt>
      <trkpt lat="43.54145" lon="5.53518">
        <ele>358.3</ele>
        <time>2022-05-11T08:05:45.000Z</time>
      </trkpt>
      <trkpt lat="43.54147" lon="5.53523">
        <ele>358</ele>
        <time>2022-05-11T08:05:48.000Z</time>
      </trkpt>
      <trkpt lat="43.54148" lon="5.53527">
        <ele>357.8</ele>
        <time>2022-05-11T08:05:51.000Z</time>
      </trkpt>
      <trkpt lat="43.54149" lon="5.53532">
        <ele>357.6</ele>
        <time>2022-05-11T08:05:54.000Z</time>
      </trkpt>
      <trkpt lat="43.54149" lon="5.53534">
        <ele>357.6</ele>
        <time>2022-05-11T08:05:55.000Z</time>
      </trkpt>
      <trkpt lat="43.54149" lon="5.53542">
        <ele>357.3</ele>
        <time>2022-05-11T08:06:00.000Z</time>
      </trkpt>
      <trkpt lat="43.54148" lon="5.53548">
        <ele>357</ele>
        <time>2022-05-11T08:06:04.000Z</time>
      </trkpt>
      <trkpt lat="43.54146" lon="5.53552">
        <ele>356.7</ele>
        <time>2022-05-11T08:06:08.000Z</time>
      </trkpt>
      <trkpt lat="43.54144" lon="5.53557">
        <ele>356.4</ele>
        <time>2022-05-11T08:06:12.000Z</time>
      </trkpt>
      <trkpt lat="43.54143" lon="5.53563">
        <ele>354.2</ele>
        <time>2022-05-11T08:07:16.000Z</time>
      </trkpt>
      <trkpt lat="43.54143" lon="5.53563">
        <ele>354.2</ele>
        <time>2022-05-11T08:07:17.000Z</time>
      </trkpt>
      <trkpt lat="43.54142" lon="5.53573">
        <ele>353.8</ele>
        <time>2022-05-11T08:07:32.000Z</time>
      </trkpt>
      <trkpt lat="43.54141" lon="5.53578">
        <ele>353.5</ele>
        <time>2022-05-11T08:07:46.000Z</time>
      </trkpt>
      <trkpt lat="43.54139" lon="5.53582">
        <ele>353.7</ele>
        <time>2022-05-11T08:07:50.000Z</time>
      </trkpt>
      <trkpt lat="43.54138" lon="5.53588">
        <ele>353.6</ele>
        <time>2022-05-11T08:07:54.000Z</time>
      </trkpt>
      <trkpt lat="43.54135" lon="5.53593">
        <ele>353.2</ele>
        <time>2022-05-11T08:07:58.000Z</time>
      </trkpt>
      <trkpt lat="43.54133" lon="5.53597">
        <ele>353.1</ele>
        <time>2022-05-11T08:08:02.000Z</time>
      </trkpt>
      <trkpt lat="43.5413" lon="5.53601">
        <ele>353.1</ele>
        <time>2022-05-11T08:08:05.000Z</time>
      </trkpt>
      <trkpt lat="43.54127" lon="5.53604">
        <ele>353</ele>
        <time>2022-05-11T08:08:08.000Z</time>
      </trkpt>
      <trkpt lat="43.54124" lon="5.53607">
        <ele>353</ele>
        <time>2022-05-11T08:08:11.000Z</time>
      </trkpt>
      <trkpt lat="43.54121" lon="5.53611">
        <ele>353</ele>
        <time>2022-05-11T08:08:15.000Z</time>
      </trkpt>
      <trkpt lat="43.54118" lon="5.53614">
        <ele>353</ele>
        <time>2022-05-11T08:08:19.000Z</time>
      </trkpt>
      <trkpt lat="43.54117" lon="5.53614">
        <ele>353</ele>
        <time>2022-05-11T08:08:20.000Z</time>
      </trkpt>
      <trkpt lat="43.54111" lon="5.53621">
        <ele>352.9</ele>
        <time>2022-05-11T08:08:29.000Z</time>
      </trkpt>
      <trkpt lat="43.54108" lon="5.53625">
        <ele>353</ele>
        <time>2022-05-11T08:08:36.000Z</time>
      </trkpt>
      <trkpt lat="43.54105" lon="5.53626">
        <ele>353</ele>
        <time>2022-05-11T08:08:41.000Z</time>
      </trkpt>
      <trkpt lat="43.54101" lon="5.53627">
        <ele>352.9</ele>
        <time>2022-05-11T08:08:44.000Z</time>
      </trkpt>
      <trkpt lat="43.54097" lon="5.5363">
        <ele>352.9</ele>
        <time>2022-05-11T08:08:48.000Z</time>
      </trkpt>
      <trkpt lat="43.54094" lon="5.53632">
        <ele>353.2</ele>
        <time>2022-05-11T08:08:54.000Z</time>
      </trkpt>
      <trkpt lat="43.5409" lon="5.53635">
        <ele>353.1</ele>
        <time>2022-05-11T08:08:58.000Z</time>
      </trkpt>
      <trkpt lat="43.54086" lon="5.53636">
        <ele>353.2</ele>
        <time>2022-05-11T08:09:02.000Z</time>
      </trkpt>
      <trkpt lat="43.54083" lon="5.53638">
        <ele>353.6</ele>
        <time>2022-05-11T08:09:06.000Z</time>
      </trkpt>
      <trkpt lat="43.54079" lon="5.53641">
        <ele>353.5</ele>
        <time>2022-05-11T08:09:10.000Z</time>
      </trkpt>
      <trkpt lat="43.54076" lon="5.53643">
        <ele>353.5</ele>
        <time>2022-05-11T08:09:13.000Z</time>
      </trkpt>
      <trkpt lat="43.54072" lon="5.53644">
        <ele>353.5</ele>
        <time>2022-05-11T08:09:16.000Z</time>
      </trkpt>
      <trkpt lat="43.54068" lon="5.53647">
        <ele>353.3</ele>
        <time>2022-05-11T08:09:20.000Z</time>
      </trkpt>
      <trkpt lat="43.54067" lon="5.53647">
        <ele>353.3</ele>
        <time>2022-05-11T08:09:21.000Z</time>
      </trkpt>
      <trkpt lat="43.54061" lon="5.53649">
        <ele>353.3</ele>
        <time>2022-05-11T08:09:26.000Z</time>
      </trkpt>
      <trkpt lat="43.54058" lon="5.5365">
        <ele>353.3</ele>
        <time>2022-05-11T08:09:29.000Z</time>
      </trkpt>
      <trkpt lat="43.54053" lon="5.53651">
        <ele>353.3</ele>
        <time>2022-05-11T08:09:33.000Z</time>
      </trkpt>
      <trkpt lat="43.5405" lon="5.53651">
        <ele>353.5</ele>
        <time>2022-05-11T08:09:36.000Z</time>
      </trkpt>
      <trkpt lat="43.54046" lon="5.53654">
        <ele>353.6</ele>
        <time>2022-05-11T08:09:40.000Z</time>
      </trkpt>
      <trkpt lat="43.54042" lon="5.53654">
        <ele>353.5</ele>
        <time>2022-05-11T08:09:44.000Z</time>
      </trkpt>
      <trkpt lat="43.54039" lon="5.53653">
        <ele>353.4</ele>
        <time>2022-05-11T08:09:47.000Z</time>
      </trkpt>
      <trkpt lat="43.54035" lon="5.53656">
        <ele>353</ele>
        <time>2022-05-11T08:09:51.000Z</time>
      </trkpt>
      <trkpt lat="43.54032" lon="5.53652">
        <ele>352.7</ele>
        <time>2022-05-11T08:09:56.000Z</time>
      </trkpt>
      <trkpt lat="43.54027" lon="5.5365">
        <ele>352.6</ele>
        <time>2022-05-11T08:10:07.000Z</time>
      </trkpt>
      <trkpt lat="43.54023" lon="5.53651">
        <ele>352.7</ele>
        <time>2022-05-11T08:10:18.000Z</time>
      </trkpt>
      <trkpt lat="43.5402" lon="5.5365">
        <ele>352.8</ele>
        <time>2022-05-11T08:10:26.000Z</time>
      </trkpt>
      <trkpt lat="43.54018" lon="5.5365">
        <ele>352.8</ele>
        <time>2022-05-11T08:10:27.000Z</time>
      </trkpt>
      <trkpt lat="43.54011" lon="5.53651">
        <ele>352.8</ele>
        <time>2022-05-11T08:10:33.000Z</time>
      </trkpt>
      <trkpt lat="43.54008" lon="5.5365">
        <ele>352.7</ele>
        <time>2022-05-11T08:10:36.000Z</time>
      </trkpt>
      <trkpt lat="43.54004" lon="5.53649">
        <ele>352.7</ele>
        <time>2022-05-11T08:10:39.000Z</time>
      </trkpt>
      <trkpt lat="43.54" lon="5.53648">
        <ele>352.7</ele>
        <time>2022-05-11T08:10:42.000Z</time>
      </trkpt>
      <trkpt lat="43.53996" lon="5.53646">
        <ele>352.7</ele>
        <time>2022-05-11T08:10:45.000Z</time>
      </trkpt>
      <trkpt lat="43.53993" lon="5.53645">
        <ele>352.5</ele>
        <time>2022-05-11T08:10:48.000Z</time>
      </trkpt>
      <trkpt lat="43.53989" lon="5.53643">
        <ele>352.4</ele>
        <time>2022-05-11T08:10:51.000Z</time>
      </trkpt>
      <trkpt lat="43.53985" lon="5.53641">
        <ele>352.4</ele>
        <time>2022-05-11T08:10:54.000Z</time>
      </trkpt>
      <trkpt lat="43.53982" lon="5.53639">
        <ele>352.4</ele>
        <time>2022-05-11T08:10:57.000Z</time>
      </trkpt>
      <trkpt lat="43.53978" lon="5.53637">
        <ele>352.5</ele>
        <time>2022-05-11T08:11:00.000Z</time>
      </trkpt>
      <trkpt lat="43.53975" lon="5.53635">
        <ele>352.5</ele>
        <time>2022-05-11T08:11:03.000Z</time>
      </trkpt>
      <trkpt lat="43.53972" lon="5.53632">
        <ele>352.4</ele>
        <time>2022-05-11T08:11:06.000Z</time>
      </trkpt>
      <trkpt lat="43.53971" lon="5.53626">
        <ele>352.9</ele>
        <time>2022-05-11T08:11:48.000Z</time>
      </trkpt>
      <trkpt lat="43.53971" lon="5.53626">
        <ele>352.9</ele>
        <time>2022-05-11T08:11:49.000Z</time>
      </trkpt>
      <trkpt lat="43.53964" lon="5.53621">
        <ele>352.7</ele>
        <time>2022-05-11T08:12:09.000Z</time>
      </trkpt>
      <trkpt lat="43.53959" lon="5.53619">
        <ele>352.6</ele>
        <time>2022-05-11T08:12:14.000Z</time>
      </trkpt>
      <trkpt lat="43.53956" lon="5.53616">
        <ele>352.6</ele>
        <time>2022-05-11T08:12:18.000Z</time>
      </trkpt>
      <trkpt lat="43.53952" lon="5.53614">
        <ele>352.5</ele>
        <time>2022-05-11T08:12:22.000Z</time>
      </trkpt>
      <trkpt lat="43.53948" lon="5.53611">
        <ele>352.3</ele>
        <time>2022-05-11T08:12:26.000Z</time>
      </trkpt>
      <trkpt lat="43.53945" lon="5.53607">
        <ele>352.7</ele>
        <time>2022-05-11T08:12:44.000Z</time>
      </trkpt>
      <trkpt lat="43.53941" lon="5.53606">
        <ele>353</ele>
        <time>2022-05-11T08:13:07.000Z</time>
      </trkpt>
      <trkpt lat="43.5394" lon="5.53606">
        <ele>353</ele>
        <time>2022-05-11T08:13:08.000Z</time>
      </trkpt>
      <trkpt lat="43.53947" lon="5.53614">
        <ele>352.5</ele>
        <time>2022-05-11T08:13:23.000Z</time>
      </trkpt>
      <trkpt lat="43.53948" lon="5.5362">
        <ele>352.4</ele>
        <time>2022-05-11T08:13:38.000Z</time>
      </trkpt>
      <trkpt lat="43.53946" lon="5.53625">
        <ele>352.3</ele>
        <time>2022-05-11T08:13:47.000Z</time>
      </trkpt>
      <trkpt lat="43.53946" lon="5.53631">
        <ele>353.4</ele>
        <time>2022-05-11T08:13:59.000Z</time>
      </trkpt>
      <trkpt lat="43.53943" lon="5.53636">
        <ele>354.1</ele>
        <time>2022-05-11T08:14:10.000Z</time>
      </trkpt>
      <trkpt lat="43.53943" lon="5.53636">
        <ele>354.2</ele>
        <time>2022-05-11T08:14:11.000Z</time>
      </trkpt>
      <trkpt lat="43.5394" lon="5.53646">
        <ele>356.1</ele>
        <time>2022-05-11T08:14:33.000Z</time>
      </trkpt>
      <trkpt lat="43.53938" lon="5.53651">
        <ele>356.8</ele>
        <time>2022-05-11T08:14:41.000Z</time>
      </trkpt>
      <trkpt lat="43.53937" lon="5.53657">
        <ele>356.7</ele>
        <time>2022-05-11T08:14:50.000Z</time>
      </trkpt>
      <trkpt lat="43.53937" lon="5.53663">
        <ele>356.9</ele>
        <time>2022-05-11T08:14:56.000Z</time>
      </trkpt>
      <trkpt lat="43.53935" lon="5.53668">
        <ele>356.9</ele>
        <time>2022-05-11T08:15:02.000Z</time>
      </trkpt>
      <trkpt lat="43.53932" lon="5.53672">
        <ele>357.1</ele>
        <time>2022-05-11T08:15:08.000Z</time>
      </trkpt>
      <trkpt lat="43.5393" lon="5.53677">
        <ele>358.3</ele>
        <time>2022-05-11T08:15:22.000Z</time>
      </trkpt>
      <trkpt lat="43.5393" lon="5.53677">
        <ele>358.3</ele>
        <time>2022-05-11T08:15:23.000Z</time>
      </trkpt>
      <trkpt lat="43.53926" lon="5.53687">
        <ele>359.2</ele>
        <time>2022-05-11T08:15:40.000Z</time>
      </trkpt>
      <trkpt lat="43.53926" lon="5.53693">
        <ele>359.4</ele>
        <time>2022-05-11T08:16:35.000Z</time>
      </trkpt>
      <trkpt lat="43.53925" lon="5.53694">
        <ele>359.5</ele>
        <time>2022-05-11T08:16:36.000Z</time>
      </trkpt>
      <trkpt lat="43.53919" lon="5.537">
        <ele>359.8</ele>
        <time>2022-05-11T08:16:49.000Z</time>
      </trkpt>
      <trkpt lat="43.53916" lon="5.53705">
        <ele>360.4</ele>
        <time>2022-05-11T08:16:55.000Z</time>
      </trkpt>
      <trkpt lat="43.53913" lon="5.53709">
        <ele>360.7</ele>
        <time>2022-05-11T08:17:01.000Z</time>
      </trkpt>
      <trkpt lat="43.53911" lon="5.53713">
        <ele>361.1</ele>
        <time>2022-05-11T08:17:06.000Z</time>
      </trkpt>
      <trkpt lat="43.53908" lon="5.53716">
        <ele>361.7</ele>
        <time>2022-05-11T08:17:11.000Z</time>
      </trkpt>
      <trkpt lat="43.53906" lon="5.53721">
        <ele>362.5</ele>
        <time>2022-05-11T08:17:17.000Z</time>
      </trkpt>
      <trkpt lat="43.53904" lon="5.53726">
        <ele>362.6</ele>
        <time>2022-05-11T08:17:21.000Z</time>
      </trkpt>
      <trkpt lat="43.53902" lon="5.53731">
        <ele>362.5</ele>
        <time>2022-05-11T08:17:26.000Z</time>
      </trkpt>
      <trkpt lat="43.539" lon="5.53736">
        <ele>362.8</ele>
        <time>2022-05-11T08:17:32.000Z</time>
      </trkpt>
      <trkpt lat="43.53897" lon="5.5374">
        <ele>363.3</ele>
        <time>2022-05-11T08:17:38.000Z</time>
      </trkpt>
      <trkpt lat="43.53897" lon="5.53741">
        <ele>363.4</ele>
        <time>2022-05-11T08:17:39.000Z</time>
      </trkpt>
      <trkpt lat="43.53893" lon="5.5375">
        <ele>363.8</ele>
        <time>2022-05-11T08:17:50.000Z</time>
      </trkpt>
      <trkpt lat="43.5389" lon="5.53754">
        <ele>364</ele>
        <time>2022-05-11T08:17:56.000Z</time>
      </trkpt>
      <trkpt lat="43.53886" lon="5.53757">
        <ele>364.5</ele>
        <time>2022-05-11T08:18:02.000Z</time>
      </trkpt>
      <trkpt lat="43.53882" lon="5.53755">
        <ele>365.1</ele>
        <time>2022-05-11T08:18:15.000Z</time>
      </trkpt>
      <trkpt lat="43.53878" lon="5.53756">
        <ele>366.2</ele>
        <time>2022-05-11T08:18:35.000Z</time>
      </trkpt>
      <trkpt lat="43.53875" lon="5.53761">
        <ele>366.1</ele>
        <time>2022-05-11T08:18:44.000Z</time>
      </trkpt>
      <trkpt lat="43.53875" lon="5.53762">
        <ele>366.1</ele>
        <time>2022-05-11T08:18:45.000Z</time>
      </trkpt>
      <trkpt lat="43.5387" lon="5.53768">
        <ele>366.2</ele>
        <time>2022-05-11T08:18:56.000Z</time>
      </trkpt>
      <trkpt lat="43.53867" lon="5.53773">
        <ele>366.4</ele>
        <time>2022-05-11T08:19:00.000Z</time>
      </trkpt>
      <trkpt lat="43.53864" lon="5.53777">
        <ele>366.7</ele>
        <time>2022-05-11T08:19:05.000Z</time>
      </trkpt>
      <trkpt lat="43.53862" lon="5.53782">
        <ele>367</ele>
        <time>2022-05-11T08:19:09.000Z</time>
      </trkpt>
      <trkpt lat="43.5386" lon="5.53787">
        <ele>367.1</ele>
        <time>2022-05-11T08:19:13.000Z</time>
      </trkpt>
      <trkpt lat="43.53857" lon="5.53791">
        <ele>367.2</ele>
        <time>2022-05-11T08:19:16.000Z</time>
      </trkpt>
      <trkpt lat="43.53855" lon="5.53796">
        <ele>367.3</ele>
        <time>2022-05-11T08:19:20.000Z</time>
      </trkpt>
      <trkpt lat="43.53853" lon="5.538">
        <ele>367.2</ele>
        <time>2022-05-11T08:19:23.000Z</time>
      </trkpt>
      <trkpt lat="43.5385" lon="5.53804">
        <ele>367.2</ele>
        <time>2022-05-11T08:19:27.000Z</time>
      </trkpt>
      <trkpt lat="43.53848" lon="5.53808">
        <ele>367.3</ele>
        <time>2022-05-11T08:19:30.000Z</time>
      </trkpt>
      <trkpt lat="43.53845" lon="5.53812">
        <ele>367.3</ele>
        <time>2022-05-11T08:19:33.000Z</time>
      </trkpt>
      <trkpt lat="43.53843" lon="5.53816">
        <ele>367.8</ele>
        <time>2022-05-11T08:19:37.000Z</time>
      </trkpt>
      <trkpt lat="43.53841" lon="5.53821">
        <ele>368.1</ele>
        <time>2022-05-11T08:19:41.000Z</time>
      </trkpt>
      <trkpt lat="43.53838" lon="5.53825">
        <ele>368</ele>
        <time>2022-05-11T08:19:44.000Z</time>
      </trkpt>
      <trkpt lat="43.53836" lon="5.53829">
        <ele>368.2</ele>
        <time>2022-05-11T08:19:48.000Z</time>
      </trkpt>
      <trkpt lat="43.53835" lon="5.5383">
        <ele>368.2</ele>
        <time>2022-05-11T08:19:49.000Z</time>
      </trkpt>
      <trkpt lat="43.53829" lon="5.53837">
        <ele>368.2</ele>
        <time>2022-05-11T08:19:55.000Z</time>
      </trkpt>
      <trkpt lat="43.53827" lon="5.5384">
        <ele>368.4</ele>
        <time>2022-05-11T08:19:58.000Z</time>
      </trkpt>
      <trkpt lat="43.53823" lon="5.53844">
        <ele>368.3</ele>
        <time>2022-05-11T08:20:02.000Z</time>
      </trkpt>
      <trkpt lat="43.53821" lon="5.53847">
        <ele>368.3</ele>
        <time>2022-05-11T08:20:06.000Z</time>
      </trkpt>
      <trkpt lat="43.53817" lon="5.5385">
        <ele>368.3</ele>
        <time>2022-05-11T08:20:10.000Z</time>
      </trkpt>
      <trkpt lat="43.53814" lon="5.53854">
        <ele>368.3</ele>
        <time>2022-05-11T08:20:15.000Z</time>
      </trkpt>
      <trkpt lat="43.53812" lon="5.53857">
        <ele>368.3</ele>
        <time>2022-05-11T08:20:18.000Z</time>
      </trkpt>
      <trkpt lat="43.53809" lon="5.53861">
        <ele>368.2</ele>
        <time>2022-05-11T08:20:21.000Z</time>
      </trkpt>
      <trkpt lat="43.53807" lon="5.53865">
        <ele>368.2</ele>
        <time>2022-05-11T08:20:24.000Z</time>
      </trkpt>
      <trkpt lat="43.53804" lon="5.5387">
        <ele>368.2</ele>
        <time>2022-05-11T08:20:28.000Z</time>
      </trkpt>
      <trkpt lat="43.53803" lon="5.53875">
        <ele>368.3</ele>
        <time>2022-05-11T08:20:32.000Z</time>
      </trkpt>
      <trkpt lat="43.53802" lon="5.5388">
        <ele>368.1</ele>
        <time>2022-05-11T08:20:36.000Z</time>
      </trkpt>
      <trkpt lat="43.538" lon="5.53885">
        <ele>368.1</ele>
        <time>2022-05-11T08:20:41.000Z</time>
      </trkpt>
      <trkpt lat="43.53799" lon="5.5389">
        <ele>368.3</ele>
        <time>2022-05-11T08:20:45.000Z</time>
      </trkpt>
      <trkpt lat="43.53798" lon="5.53895">
        <ele>368.5</ele>
        <time>2022-05-11T08:20:48.000Z</time>
      </trkpt>
      <trkpt lat="43.53796" lon="5.539">
        <ele>368.7</ele>
        <time>2022-05-11T08:20:52.000Z</time>
      </trkpt>
      <trkpt lat="43.53796" lon="5.53901">
        <ele>368.7</ele>
        <time>2022-05-11T08:20:53.000Z</time>
      </trkpt>
      <trkpt lat="43.53791" lon="5.53908">
        <ele>369.1</ele>
        <time>2022-05-11T08:21:01.000Z</time>
      </trkpt>
      <trkpt lat="43.53788" lon="5.53912">
        <ele>369.5</ele>
        <time>2022-05-11T08:21:06.000Z</time>
      </trkpt>
      <trkpt lat="43.53786" lon="5.53917">
        <ele>369.7</ele>
        <time>2022-05-11T08:21:11.000Z</time>
      </trkpt>
      <trkpt lat="43.53784" lon="5.53922">
        <ele>370.4</ele>
        <time>2022-05-11T08:21:16.000Z</time>
      </trkpt>
      <trkpt lat="43.5378" lon="5.53924">
        <ele>370.8</ele>
        <time>2022-05-11T08:21:20.000Z</time>
      </trkpt>
      <trkpt lat="43.53777" lon="5.53927">
        <ele>370.9</ele>
        <time>2022-05-11T08:21:24.000Z</time>
      </trkpt>
      <trkpt lat="43.53774" lon="5.53931">
        <ele>370.8</ele>
        <time>2022-05-11T08:21:28.000Z</time>
      </trkpt>
      <trkpt lat="43.53771" lon="5.53935">
        <ele>371.2</ele>
        <time>2022-05-11T08:21:33.000Z</time>
      </trkpt>
      <trkpt lat="43.53768" lon="5.53938">
        <ele>371.4</ele>
        <time>2022-05-11T08:21:37.000Z</time>
      </trkpt>
      <trkpt lat="43.53765" lon="5.53942">
        <ele>371.6</ele>
        <time>2022-05-11T08:21:41.000Z</time>
      </trkpt>
      <trkpt lat="43.53762" lon="5.53945">
        <ele>372.4</ele>
        <time>2022-05-11T08:21:46.000Z</time>
      </trkpt>
      <trkpt lat="43.53758" lon="5.53947">
        <ele>373</ele>
        <time>2022-05-11T08:21:50.000Z</time>
      </trkpt>
      <trkpt lat="43.53755" lon="5.5395">
        <ele>373.5</ele>
        <time>2022-05-11T08:21:54.000Z</time>
      </trkpt>
      <trkpt lat="43.53754" lon="5.53951">
        <ele>373.7</ele>
        <time>2022-05-11T08:21:55.000Z</time>
      </trkpt>
      <trkpt lat="43.53748" lon="5.53957">
        <ele>374.4</ele>
        <time>2022-05-11T08:22:00.000Z</time>
      </trkpt>
      <trkpt lat="43.53745" lon="5.5396">
        <ele>374.6</ele>
        <time>2022-05-11T08:22:03.000Z</time>
      </trkpt>
      <trkpt lat="43.53741" lon="5.53963">
        <ele>374.5</ele>
        <time>2022-05-11T08:22:07.000Z</time>
      </trkpt>
      <trkpt lat="43.53738" lon="5.53966">
        <ele>374.5</ele>
        <time>2022-05-11T08:22:11.000Z</time>
      </trkpt>
      <trkpt lat="43.53735" lon="5.53968">
        <ele>374.6</ele>
        <time>2022-05-11T08:22:14.000Z</time>
      </trkpt>
      <trkpt lat="43.53732" lon="5.53973">
        <ele>374.8</ele>
        <time>2022-05-11T08:22:19.000Z</time>
      </trkpt>
      <trkpt lat="43.53728" lon="5.53975">
        <ele>375.2</ele>
        <time>2022-05-11T08:22:23.000Z</time>
      </trkpt>
      <trkpt lat="43.53725" lon="5.53978">
        <ele>375.4</ele>
        <time>2022-05-11T08:22:27.000Z</time>
      </trkpt>
      <trkpt lat="43.53722" lon="5.53981">
        <ele>375.3</ele>
        <time>2022-05-11T08:22:30.000Z</time>
      </trkpt>
      <trkpt lat="43.53719" lon="5.53984">
        <ele>375.4</ele>
        <time>2022-05-11T08:22:33.000Z</time>
      </trkpt>
      <trkpt lat="43.53717" lon="5.53989">
        <ele>375.2</ele>
        <time>2022-05-11T08:22:38.000Z</time>
      </trkpt>
      <trkpt lat="43.53713" lon="5.53993">
        <ele>375.2</ele>
        <time>2022-05-11T08:22:42.000Z</time>
      </trkpt>
      <trkpt lat="43.53711" lon="5.53997">
        <ele>375.1</ele>
        <time>2022-05-11T08:22:45.000Z</time>
      </trkpt>
      <trkpt lat="43.53709" lon="5.54002">
        <ele>374.7</ele>
        <time>2022-05-11T08:22:50.000Z</time>
      </trkpt>
      <trkpt lat="43.53708" lon="5.54008">
        <ele>374.3</ele>
        <time>2022-05-11T08:22:56.000Z</time>
      </trkpt>
      <trkpt lat="43.53707" lon="5.54008">
        <ele>374.2</ele>
        <time>2022-05-11T08:22:57.000Z</time>
      </trkpt>
      <trkpt lat="43.53707" lon="5.54018">
        <ele>374</ele>
        <time>2022-05-11T08:23:04.000Z</time>
      </trkpt>
      <trkpt lat="43.53707" lon="5.54023">
        <ele>374.1</ele>
        <time>2022-05-11T08:23:08.000Z</time>
      </trkpt>
      <trkpt lat="43.53706" lon="5.54029">
        <ele>374.1</ele>
        <time>2022-05-11T08:23:12.000Z</time>
      </trkpt>
      <trkpt lat="43.53706" lon="5.54033">
        <ele>373.8</ele>
        <time>2022-05-11T08:23:16.000Z</time>
      </trkpt>
      <trkpt lat="43.53707" lon="5.54038">
        <ele>373.7</ele>
        <time>2022-05-11T08:23:19.000Z</time>
      </trkpt>
      <trkpt lat="43.53707" lon="5.54044">
        <ele>373.8</ele>
        <time>2022-05-11T08:23:23.000Z</time>
      </trkpt>
      <trkpt lat="43.53707" lon="5.5405">
        <ele>373.8</ele>
        <time>2022-05-11T08:23:28.000Z</time>
      </trkpt>
      <trkpt lat="43.53706" lon="5.54056">
        <ele>373.4</ele>
        <time>2022-05-11T08:23:33.000Z</time>
      </trkpt>
      <trkpt lat="43.53705" lon="5.54061">
        <ele>373.1</ele>
        <time>2022-05-11T08:23:38.000Z</time>
      </trkpt>
      <trkpt lat="43.53706" lon="5.54067">
        <ele>372.9</ele>
        <time>2022-05-11T08:23:44.000Z</time>
      </trkpt>
      <trkpt lat="43.53705" lon="5.54072">
        <ele>372.3</ele>
        <time>2022-05-11T08:23:52.000Z</time>
      </trkpt>
      <trkpt lat="43.53703" lon="5.54078">
        <ele>371.2</ele>
        <time>2022-05-11T08:24:01.000Z</time>
      </trkpt>
      <trkpt lat="43.53703" lon="5.54078">
        <ele>371.2</ele>
        <time>2022-05-11T08:24:02.000Z</time>
      </trkpt>
      <trkpt lat="43.53701" lon="5.54088">
        <ele>369.6</ele>
        <time>2022-05-11T08:24:19.000Z</time>
      </trkpt>
      <trkpt lat="43.53698" lon="5.54093">
        <ele>368.5</ele>
        <time>2022-05-11T08:24:33.000Z</time>
      </trkpt>
      <trkpt lat="43.53694" lon="5.54096">
        <ele>368</ele>
        <time>2022-05-11T08:24:45.000Z</time>
      </trkpt>
      <trkpt lat="43.53693" lon="5.54101">
        <ele>366.8</ele>
        <time>2022-05-11T08:25:07.000Z</time>
      </trkpt>
      <trkpt lat="43.53692" lon="5.54102">
        <ele>366.7</ele>
        <time>2022-05-11T08:25:08.000Z</time>
      </trkpt>
      <trkpt lat="43.53689" lon="5.54112">
        <ele>364.9</ele>
        <time>2022-05-11T08:25:30.000Z</time>
      </trkpt>
      <trkpt lat="43.53687" lon="5.54117">
        <ele>363.9</ele>
        <time>2022-05-11T08:25:37.000Z</time>
      </trkpt>
      <trkpt lat="43.53685" lon="5.54121">
        <ele>363.1</ele>
        <time>2022-05-11T08:25:43.000Z</time>
      </trkpt>
      <trkpt lat="43.53682" lon="5.54125">
        <ele>362.4</ele>
        <time>2022-05-11T08:25:48.000Z</time>
      </trkpt>
      <trkpt lat="43.53679" lon="5.54129">
        <ele>361.6</ele>
        <time>2022-05-11T08:25:52.000Z</time>
      </trkpt>
      <trkpt lat="43.53677" lon="5.54134">
        <ele>361.2</ele>
        <time>2022-05-11T08:25:56.000Z</time>
      </trkpt>
      <trkpt lat="43.53673" lon="5.54138">
        <ele>361.5</ele>
        <time>2022-05-11T08:26:10.000Z</time>
      </trkpt>
      <trkpt lat="43.53673" lon="5.54138">
        <ele>361.5</ele>
        <time>2022-05-11T08:26:11.000Z</time>
      </trkpt>
      <trkpt lat="43.53669" lon="5.54149">
        <ele>359</ele>
        <time>2022-05-11T08:26:40.000Z</time>
      </trkpt>
      <trkpt lat="43.53669" lon="5.54155">
        <ele>358.4</ele>
        <time>2022-05-11T08:26:54.000Z</time>
      </trkpt>
      <trkpt lat="43.53666" lon="5.54159">
        <ele>357.9</ele>
        <time>2022-05-11T08:27:00.000Z</time>
      </trkpt>
      <trkpt lat="43.53663" lon="5.54163">
        <ele>357.7</ele>
        <time>2022-05-11T08:27:05.000Z</time>
      </trkpt>
      <trkpt lat="43.5366" lon="5.54168">
        <ele>357.5</ele>
        <time>2022-05-11T08:27:10.000Z</time>
      </trkpt>
      <trkpt lat="43.53658" lon="5.54173">
        <ele>357</ele>
        <time>2022-05-11T08:27:17.000Z</time>
      </trkpt>
      <trkpt lat="43.53658" lon="5.54174">
        <ele>356.8</ele>
        <time>2022-05-11T08:27:18.000Z</time>
      </trkpt>
      <trkpt lat="43.53658" lon="5.54183">
        <ele>356.1</ele>
        <time>2022-05-11T08:27:26.000Z</time>
      </trkpt>
      <trkpt lat="43.5366" lon="5.54188">
        <ele>356</ele>
        <time>2022-05-11T08:27:30.000Z</time>
      </trkpt>
      <trkpt lat="43.53662" lon="5.54193">
        <ele>355.6</ele>
        <time>2022-05-11T08:27:34.000Z</time>
      </trkpt>
      <trkpt lat="43.53664" lon="5.54198">
        <ele>355.1</ele>
        <time>2022-05-11T08:27:38.000Z</time>
      </trkpt>
      <trkpt lat="43.53665" lon="5.54203">
        <ele>354.6</ele>
        <time>2022-05-11T08:27:41.000Z</time>
      </trkpt>
      <trkpt lat="43.53666" lon="5.54208">
        <ele>354.4</ele>
        <time>2022-05-11T08:27:44.000Z</time>
      </trkpt>
      <trkpt lat="43.53666" lon="5.54214">
        <ele>354.2</ele>
        <time>2022-05-11T08:27:48.000Z</time>
      </trkpt>
      <trkpt lat="43.53667" lon="5.54219">
        <ele>354.1</ele>
        <time>2022-05-11T08:27:52.000Z</time>
      </trkpt>
      <trkpt lat="43.53669" lon="5.54225">
        <ele>353.7</ele>
        <time>2022-05-11T08:27:57.000Z</time>
      </trkpt>
      <trkpt lat="43.53669" lon="5.54231">
        <ele>353.2</ele>
        <time>2022-05-11T08:28:04.000Z</time>
      </trkpt>
      <trkpt lat="43.5367" lon="5.54236">
        <ele>352.5</ele>
        <time>2022-05-11T08:28:12.000Z</time>
      </trkpt>
      <trkpt lat="43.5367" lon="5.54241">
        <ele>351.9</ele>
        <time>2022-05-11T08:28:22.000Z</time>
      </trkpt>
      <trkpt lat="43.5367" lon="5.54242">
        <ele>351.7</ele>
        <time>2022-05-11T08:28:23.000Z</time>
      </trkpt>
      <trkpt lat="43.53667" lon="5.54252">
        <ele>351</ele>
        <time>2022-05-11T08:28:32.000Z</time>
      </trkpt>
      <trkpt lat="43.53669" lon="5.54256">
        <ele>350.8</ele>
        <time>2022-05-11T08:28:36.000Z</time>
      </trkpt>
      <trkpt lat="43.5367" lon="5.54261">
        <ele>350.6</ele>
        <time>2022-05-11T08:28:39.000Z</time>
      </trkpt>
      <trkpt lat="43.53671" lon="5.54266">
        <ele>350.5</ele>
        <time>2022-05-11T08:28:42.000Z</time>
      </trkpt>
      <trkpt lat="43.53672" lon="5.54271">
        <ele>350.4</ele>
        <time>2022-05-11T08:28:46.000Z</time>
      </trkpt>
      <trkpt lat="43.53671" lon="5.54276">
        <ele>350.3</ele>
        <time>2022-05-11T08:28:50.000Z</time>
      </trkpt>
      <trkpt lat="43.53671" lon="5.54282">
        <ele>350.3</ele>
        <time>2022-05-11T08:28:54.000Z</time>
      </trkpt>
      <trkpt lat="43.5367" lon="5.54286">
        <ele>350.2</ele>
        <time>2022-05-11T08:28:58.000Z</time>
      </trkpt>
      <trkpt lat="43.53669" lon="5.54292">
        <ele>350.4</ele>
        <time>2022-05-11T08:29:03.000Z</time>
      </trkpt>
      <trkpt lat="43.53667" lon="5.54296">
        <ele>350.5</ele>
        <time>2022-05-11T08:29:07.000Z</time>
      </trkpt>
      <trkpt lat="43.53666" lon="5.54302">
        <ele>350.8</ele>
        <time>2022-05-11T08:29:11.000Z</time>
      </trkpt>
      <trkpt lat="43.53664" lon="5.54307">
        <ele>351.1</ele>
        <time>2022-05-11T08:29:15.000Z</time>
      </trkpt>
      <trkpt lat="43.53663" lon="5.54312">
        <ele>351.4</ele>
        <time>2022-05-11T08:29:19.000Z</time>
      </trkpt>
      <trkpt lat="43.53662" lon="5.54317">
        <ele>351.7</ele>
        <time>2022-05-11T08:29:23.000Z</time>
      </trkpt>
      <trkpt lat="43.53662" lon="5.54318">
        <ele>351.7</ele>
        <time>2022-05-11T08:29:24.000Z</time>
      </trkpt>
      <trkpt lat="43.5366" lon="5.54328">
        <ele>352.5</ele>
        <time>2022-05-11T08:29:31.000Z</time>
      </trkpt>
      <trkpt lat="43.53658" lon="5.54332">
        <ele>352.7</ele>
        <time>2022-05-11T08:29:36.000Z</time>
      </trkpt>
      <trkpt lat="43.53657" lon="5.54337">
        <ele>353.3</ele>
        <time>2022-05-11T08:29:42.000Z</time>
      </trkpt>
      <trkpt lat="43.53658" lon="5.54343">
        <ele>354</ele>
        <time>2022-05-11T08:29:48.000Z</time>
      </trkpt>
      <trkpt lat="43.53661" lon="5.54346">
        <ele>354.5</ele>
        <time>2022-05-11T08:29:53.000Z</time>
      </trkpt>
      <trkpt lat="43.53663" lon="5.5435">
        <ele>354.8</ele>
        <time>2022-05-11T08:29:56.000Z</time>
      </trkpt>
      <trkpt lat="43.53664" lon="5.54356">
        <ele>355.1</ele>
        <time>2022-05-11T08:30:01.000Z</time>
      </trkpt>
      <trkpt lat="43.53667" lon="5.54361">
        <ele>355.4</ele>
        <time>2022-05-11T08:30:05.000Z</time>
      </trkpt>
      <trkpt lat="43.5367" lon="5.54365">
        <ele>355.6</ele>
        <time>2022-05-11T08:30:09.000Z</time>
      </trkpt>
      <trkpt lat="43.53672" lon="5.5437">
        <ele>356</ele>
        <time>2022-05-11T08:30:13.000Z</time>
      </trkpt>
      <trkpt lat="43.53674" lon="5.54375">
        <ele>356.6</ele>
        <time>2022-05-11T08:30:17.000Z</time>
      </trkpt>
      <trkpt lat="43.53676" lon="5.5438">
        <ele>357</ele>
        <time>2022-05-11T08:30:22.000Z</time>
      </trkpt>
      <trkpt lat="43.53679" lon="5.54384">
        <ele>357.6</ele>
        <time>2022-05-11T08:30:27.000Z</time>
      </trkpt>
      <trkpt lat="43.53679" lon="5.54384">
        <ele>357.8</ele>
        <time>2022-05-11T08:30:28.000Z</time>
      </trkpt>
      <trkpt lat="43.53685" lon="5.54389">
        <ele>358.4</ele>
        <time>2022-05-11T08:30:37.000Z</time>
      </trkpt>
      <trkpt lat="43.53687" lon="5.54395">
        <ele>358.7</ele>
        <time>2022-05-11T08:30:41.000Z</time>
      </trkpt>
      <trkpt lat="43.53688" lon="5.544">
        <ele>359.4</ele>
        <time>2022-05-11T08:30:48.000Z</time>
      </trkpt>
      <trkpt lat="43.53691" lon="5.54403">
        <ele>359.9</ele>
        <time>2022-05-11T08:30:55.000Z</time>
      </trkpt>
      <trkpt lat="43.53694" lon="5.54407">
        <ele>360.6</ele>
        <time>2022-05-11T08:31:01.000Z</time>
      </trkpt>
      <trkpt lat="43.53696" lon="5.54412">
        <ele>360.9</ele>
        <time>2022-05-11T08:31:04.000Z</time>
      </trkpt>
      <trkpt lat="43.53698" lon="5.54416">
        <ele>361.3</ele>
        <time>2022-05-11T08:31:09.000Z</time>
      </trkpt>
      <trkpt lat="43.53699" lon="5.54421">
        <ele>361.8</ele>
        <time>2022-05-11T08:31:13.000Z</time>
      </trkpt>
      <trkpt lat="43.53701" lon="5.54426">
        <ele>362.4</ele>
        <time>2022-05-11T08:31:18.000Z</time>
      </trkpt>
      <trkpt lat="43.53703" lon="5.54431">
        <ele>363.1</ele>
        <time>2022-05-11T08:31:24.000Z</time>
      </trkpt>
      <trkpt lat="43.53705" lon="5.54436">
        <ele>363.6</ele>
        <time>2022-05-11T08:31:28.000Z</time>
      </trkpt>
      <trkpt lat="43.53705" lon="5.54438">
        <ele>363.7</ele>
        <time>2022-05-11T08:31:29.000Z</time>
      </trkpt>
      <trkpt lat="43.53708" lon="5.54446">
        <ele>364.7</ele>
        <time>2022-05-11T08:31:38.000Z</time>
      </trkpt>
      <trkpt lat="43.5371" lon="5.54451">
        <ele>365.2</ele>
        <time>2022-05-11T08:31:43.000Z</time>
      </trkpt>
      <trkpt lat="43.53711" lon="5.54457">
        <ele>365.5</ele>
        <time>2022-05-11T08:31:48.000Z</time>
      </trkpt>
      <trkpt lat="43.53712" lon="5.54463">
        <ele>365.8</ele>
        <time>2022-05-11T08:31:54.000Z</time>
      </trkpt>
      <trkpt lat="43.53713" lon="5.54468">
        <ele>366.3</ele>
        <time>2022-05-11T08:32:00.000Z</time>
      </trkpt>
      <trkpt lat="43.53714" lon="5.54473">
        <ele>366.7</ele>
        <time>2022-05-11T08:32:05.000Z</time>
      </trkpt>
      <trkpt lat="43.53715" lon="5.54479">
        <ele>367.6</ele>
        <time>2022-05-11T08:32:12.000Z</time>
      </trkpt>
      <trkpt lat="43.53713" lon="5.54484">
        <ele>367.8</ele>
        <time>2022-05-11T08:32:16.000Z</time>
      </trkpt>
      <trkpt lat="43.53712" lon="5.5449">
        <ele>368.7</ele>
        <time>2022-05-11T08:32:23.000Z</time>
      </trkpt>
      <trkpt lat="43.53715" lon="5.54494">
        <ele>369.4</ele>
        <time>2022-05-11T08:32:34.000Z</time>
      </trkpt>
      <trkpt lat="43.53716" lon="5.54494">
        <ele>369.5</ele>
        <time>2022-05-11T08:32:35.000Z</time>
      </trkpt>
      <trkpt lat="43.5372" lon="5.54503">
        <ele>370.9</ele>
        <time>2022-05-11T08:32:47.000Z</time>
      </trkpt>
      <trkpt lat="43.53721" lon="5.54509">
        <ele>371.6</ele>
        <time>2022-05-11T08:32:53.000Z</time>
      </trkpt>
      <trkpt lat="43.53721" lon="5.54514">
        <ele>372.2</ele>
        <time>2022-05-11T08:32:59.000Z</time>
      </trkpt>
      <trkpt lat="43.53722" lon="5.5452">
        <ele>373.1</ele>
        <time>2022-05-11T08:33:07.000Z</time>
      </trkpt>
      <trkpt lat="43.53721" lon="5.54526">
        <ele>374.6</ele>
        <time>2022-05-11T08:33:16.000Z</time>
      </trkpt>
      <trkpt lat="43.53721" lon="5.54532">
        <ele>375.4</ele>
        <time>2022-05-11T08:33:22.000Z</time>
      </trkpt>
      <trkpt lat="43.53721" lon="5.54537">
        <ele>375.7</ele>
        <time>2022-05-11T08:33:26.000Z</time>
      </trkpt>
      <trkpt lat="43.53721" lon="5.54543">
        <ele>376.1</ele>
        <time>2022-05-11T08:33:30.000Z</time>
      </trkpt>
      <trkpt lat="43.53721" lon="5.54548">
        <ele>376.4</ele>
        <time>2022-05-11T08:33:34.000Z</time>
      </trkpt>
      <trkpt lat="43.53722" lon="5.54553">
        <ele>376.7</ele>
        <time>2022-05-11T08:33:39.000Z</time>
      </trkpt>
      <trkpt lat="43.53723" lon="5.54554">
        <ele>376.9</ele>
        <time>2022-05-11T08:33:40.000Z</time>
      </trkpt>
      <trkpt lat="43.53726" lon="5.54564">
        <ele>378.4</ele>
        <time>2022-05-11T08:33:50.000Z</time>
      </trkpt>
      <trkpt lat="43.53728" lon="5.54569">
        <ele>379</ele>
        <time>2022-05-11T08:33:54.000Z</time>
      </trkpt>
      <trkpt lat="43.53731" lon="5.54573">
        <ele>379.6</ele>
        <time>2022-05-11T08:34:00.000Z</time>
      </trkpt>
      <trkpt lat="43.53734" lon="5.54575">
        <ele>380</ele>
        <time>2022-05-11T08:34:05.000Z</time>
      </trkpt>
      <trkpt lat="43.53738" lon="5.54577">
        <ele>380.1</ele>
        <time>2022-05-11T08:34:11.000Z</time>
      </trkpt>
      <trkpt lat="43.53741" lon="5.54581">
        <ele>381.1</ele>
        <time>2022-05-11T08:34:19.000Z</time>
      </trkpt>
      <trkpt lat="43.53742" lon="5.54586">
        <ele>382.1</ele>
        <time>2022-05-11T08:34:26.000Z</time>
      </trkpt>
      <trkpt lat="43.53744" lon="5.54591">
        <ele>382.9</ele>
        <time>2022-05-11T08:34:32.000Z</time>
      </trkpt>
      <trkpt lat="43.53748" lon="5.54596">
        <ele>383.8</ele>
        <time>2022-05-11T08:34:40.000Z</time>
      </trkpt>
      <trkpt lat="43.53748" lon="5.54596">
        <ele>383.9</ele>
        <time>2022-05-11T08:34:41.000Z</time>
      </trkpt>
      <trkpt lat="43.53752" lon="5.54606">
        <ele>384.8</ele>
        <time>2022-05-11T08:34:52.000Z</time>
      </trkpt>
      <trkpt lat="43.53755" lon="5.5461">
        <ele>385.5</ele>
        <time>2022-05-11T08:34:57.000Z</time>
      </trkpt>
      <trkpt lat="43.53758" lon="5.54615">
        <ele>386.3</ele>
        <time>2022-05-11T08:35:03.000Z</time>
      </trkpt>
      <trkpt lat="43.53759" lon="5.54621">
        <ele>387</ele>
        <time>2022-05-11T08:35:08.000Z</time>
      </trkpt>
      <trkpt lat="43.53762" lon="5.54625">
        <ele>387.9</ele>
        <time>2022-05-11T08:35:16.000Z</time>
      </trkpt>
      <trkpt lat="43.53766" lon="5.54626">
        <ele>388.7</ele>
        <time>2022-05-11T08:35:20.000Z</time>
      </trkpt>
      <trkpt lat="43.53769" lon="5.5463">
        <ele>390.2</ele>
        <time>2022-05-11T08:35:28.000Z</time>
      </trkpt>
      <trkpt lat="43.53772" lon="5.54634">
        <ele>391.7</ele>
        <time>2022-05-11T08:35:44.000Z</time>
      </trkpt>
      <trkpt lat="43.53772" lon="5.54635">
        <ele>391.7</ele>
        <time>2022-05-11T08:35:45.000Z</time>
      </trkpt>
      <trkpt lat="43.53774" lon="5.54644">
        <ele>392</ele>
        <time>2022-05-11T08:35:53.000Z</time>
      </trkpt>
      <trkpt lat="43.53775" lon="5.54649">
        <ele>392.3</ele>
        <time>2022-05-11T08:35:57.000Z</time>
      </trkpt>
      <trkpt lat="43.53776" lon="5.54655">
        <ele>392.6</ele>
        <time>2022-05-11T08:36:02.000Z</time>
      </trkpt>
      <trkpt lat="43.53777" lon="5.54661">
        <ele>393</ele>
        <time>2022-05-11T08:36:08.000Z</time>
      </trkpt>
      <trkpt lat="43.53778" lon="5.54666">
        <ele>393.7</ele>
        <time>2022-05-11T08:36:13.000Z</time>
      </trkpt>
      <trkpt lat="43.53779" lon="5.54672">
        <ele>394.3</ele>
        <time>2022-05-11T08:36:18.000Z</time>
      </trkpt>
      <trkpt lat="43.53779" lon="5.54678">
        <ele>395</ele>
        <time>2022-05-11T08:36:23.000Z</time>
      </trkpt>
      <trkpt lat="43.53779" lon="5.54683">
        <ele>396.1</ele>
        <time>2022-05-11T08:36:30.000Z</time>
      </trkpt>
      <trkpt lat="43.53781" lon="5.54689">
        <ele>398.2</ele>
        <time>2022-05-11T08:36:49.000Z</time>
      </trkpt>
      <trkpt lat="43.53781" lon="5.5469">
        <ele>398.3</ele>
        <time>2022-05-11T08:36:50.000Z</time>
      </trkpt>
      <trkpt lat="43.53784" lon="5.547">
        <ele>399.3</ele>
        <time>2022-05-11T08:37:02.000Z</time>
      </trkpt>
      <trkpt lat="43.53785" lon="5.54706">
        <ele>400.2</ele>
        <time>2022-05-11T08:37:11.000Z</time>
      </trkpt>
      <trkpt lat="43.53784" lon="5.54712">
        <ele>401.3</ele>
        <time>2022-05-11T08:37:21.000Z</time>
      </trkpt>
      <trkpt lat="43.53785" lon="5.54718">
        <ele>402.9</ele>
        <time>2022-05-11T08:37:34.000Z</time>
      </trkpt>
      <trkpt lat="43.53788" lon="5.54722">
        <ele>403.6</ele>
        <time>2022-05-11T08:37:42.000Z</time>
      </trkpt>
      <trkpt lat="43.5379" lon="5.54727">
        <ele>405.6</ele>
        <time>2022-05-11T08:37:56.000Z</time>
      </trkpt>
      <trkpt lat="43.5379" lon="5.54728">
        <ele>405.7</ele>
        <time>2022-05-11T08:37:57.000Z</time>
      </trkpt>
      <trkpt lat="43.53792" lon="5.54739">
        <ele>408.8</ele>
        <time>2022-05-11T08:38:19.000Z</time>
      </trkpt>
      <trkpt lat="43.53795" lon="5.54744">
        <ele>409.7</ele>
        <time>2022-05-11T08:38:26.000Z</time>
      </trkpt>
      <trkpt lat="43.53795" lon="5.5475">
        <ele>410.4</ele>
        <time>2022-05-11T08:38:37.000Z</time>
      </trkpt>
      <trkpt lat="43.53795" lon="5.54756">
        <ele>412.1</ele>
        <time>2022-05-11T08:38:58.000Z</time>
      </trkpt>
      <trkpt lat="43.53795" lon="5.54756">
        <ele>412.1</ele>
        <time>2022-05-11T08:38:59.000Z</time>
      </trkpt>
      <trkpt lat="43.53796" lon="5.54767">
        <ele>413.5</ele>
        <time>2022-05-11T08:39:14.000Z</time>
      </trkpt>
      <trkpt lat="43.53797" lon="5.54773">
        <ele>414.5</ele>
        <time>2022-05-11T08:39:22.000Z</time>
      </trkpt>
      <trkpt lat="43.53796" lon="5.54779">
        <ele>415.9</ele>
        <time>2022-05-11T08:39:42.000Z</time>
      </trkpt>
      <trkpt lat="43.53796" lon="5.54785">
        <ele>417.2</ele>
        <time>2022-05-11T08:39:56.000Z</time>
      </trkpt>
      <trkpt lat="43.53793" lon="5.5479">
        <ele>417.9</ele>
        <time>2022-05-11T08:40:06.000Z</time>
      </trkpt>
      <trkpt lat="43.53793" lon="5.5479">
        <ele>418</ele>
        <time>2022-05-11T08:40:07.000Z</time>
      </trkpt>
      <trkpt lat="43.53791" lon="5.54801">
        <ele>419.8</ele>
        <time>2022-05-11T08:40:26.000Z</time>
      </trkpt>
      <trkpt lat="43.53793" lon="5.54806">
        <ele>420.5</ele>
        <time>2022-05-11T08:40:33.000Z</time>
      </trkpt>
      <trkpt lat="43.53793" lon="5.54812">
        <ele>421.8</ele>
        <time>2022-05-11T08:40:43.000Z</time>
      </trkpt>
      <trkpt lat="43.53793" lon="5.54818">
        <ele>422.5</ele>
        <time>2022-05-11T08:40:53.000Z</time>
      </trkpt>
      <trkpt lat="43.53794" lon="5.54824">
        <ele>423.5</ele>
        <time>2022-05-11T08:41:18.000Z</time>
      </trkpt>
      <trkpt lat="43.53794" lon="5.54824">
        <ele>423.5</ele>
        <time>2022-05-11T08:41:19.000Z</time>
      </trkpt>
      <trkpt lat="43.53798" lon="5.54827">
        <ele>423.6</ele>
        <time>2022-05-11T08:43:22.000Z</time>
      </trkpt>
      <trkpt lat="43.53798" lon="5.54828">
        <ele>423.7</ele>
        <time>2022-05-11T08:43:23.000Z</time>
      </trkpt>
      <trkpt lat="43.538" lon="5.54839">
        <ele>424.2</ele>
        <time>2022-05-11T08:43:40.000Z</time>
      </trkpt>
      <trkpt lat="43.53801" lon="5.54845">
        <ele>424.7</ele>
        <time>2022-05-11T08:44:04.000Z</time>
      </trkpt>
      <trkpt lat="43.53805" lon="5.54848">
        <ele>424.5</ele>
        <time>2022-05-11T08:44:10.000Z</time>
      </trkpt>
      <trkpt lat="43.53808" lon="5.54851">
        <ele>424.3</ele>
        <time>2022-05-11T08:44:16.000Z</time>
      </trkpt>
      <trkpt lat="43.53812" lon="5.54854">
        <ele>425</ele>
        <time>2022-05-11T08:44:22.000Z</time>
      </trkpt>
      <trkpt lat="43.53815" lon="5.54856">
        <ele>425.6</ele>
        <time>2022-05-11T08:44:28.000Z</time>
      </trkpt>
      <trkpt lat="43.53816" lon="5.54857">
        <ele>425.7</ele>
        <time>2022-05-11T08:44:29.000Z</time>
      </trkpt>
      <trkpt lat="43.53822" lon="5.54864">
        <ele>426.9</ele>
        <time>2022-05-11T08:44:41.000Z</time>
      </trkpt>
      <trkpt lat="43.53825" lon="5.54867">
        <ele>427.2</ele>
        <time>2022-05-11T08:44:48.000Z</time>
      </trkpt>
      <trkpt lat="43.53829" lon="5.54869">
        <ele>427.7</ele>
        <time>2022-05-11T08:44:54.000Z</time>
      </trkpt>
      <trkpt lat="43.53833" lon="5.54872">
        <ele>428.3</ele>
        <time>2022-05-11T08:45:00.000Z</time>
      </trkpt>
      <trkpt lat="43.53836" lon="5.54877">
        <ele>428.8</ele>
        <time>2022-05-11T08:45:06.000Z</time>
      </trkpt>
      <trkpt lat="43.53839" lon="5.54881">
        <ele>429.4</ele>
        <time>2022-05-11T08:45:14.000Z</time>
      </trkpt>
      <trkpt lat="43.53842" lon="5.54883">
        <ele>429.8</ele>
        <time>2022-05-11T08:45:19.000Z</time>
      </trkpt>
      <trkpt lat="43.53846" lon="5.54885">
        <ele>430.3</ele>
        <time>2022-05-11T08:45:24.000Z</time>
      </trkpt>
      <trkpt lat="43.5385" lon="5.54888">
        <ele>431.1</ele>
        <time>2022-05-11T08:45:29.000Z</time>
      </trkpt>
      <trkpt lat="43.53851" lon="5.54889">
        <ele>431.2</ele>
        <time>2022-05-11T08:45:30.000Z</time>
      </trkpt>
      <trkpt lat="43.53854" lon="5.54898">
        <ele>432.6</ele>
        <time>2022-05-11T08:45:42.000Z</time>
      </trkpt>
      <trkpt lat="43.53857" lon="5.54903">
        <ele>433.3</ele>
        <time>2022-05-11T08:45:52.000Z</time>
      </trkpt>
      <trkpt lat="43.53859" lon="5.54908">
        <ele>433.6</ele>
        <time>2022-05-11T08:45:58.000Z</time>
      </trkpt>
      <trkpt lat="43.53861" lon="5.54913">
        <ele>433.8</ele>
        <time>2022-05-11T08:46:03.000Z</time>
      </trkpt>
      <trkpt lat="43.53862" lon="5.54919">
        <ele>434.6</ele>
        <time>2022-05-11T08:46:10.000Z</time>
      </trkpt>
      <trkpt lat="43.53862" lon="5.54925">
        <ele>435.2</ele>
        <time>2022-05-11T08:46:16.000Z</time>
      </trkpt>
      <trkpt lat="43.53864" lon="5.54929">
        <ele>436.1</ele>
        <time>2022-05-11T08:46:23.000Z</time>
      </trkpt>
      <trkpt lat="43.53866" lon="5.54934">
        <ele>436.8</ele>
        <time>2022-05-11T08:46:28.000Z</time>
      </trkpt>
      <trkpt lat="43.53868" lon="5.54938">
        <ele>437.3</ele>
        <time>2022-05-11T08:46:34.000Z</time>
      </trkpt>
      <trkpt lat="43.53869" lon="5.54939">
        <ele>437.4</ele>
        <time>2022-05-11T08:46:35.000Z</time>
      </trkpt>
      <trkpt lat="43.53871" lon="5.54948">
        <ele>438.5</ele>
        <time>2022-05-11T08:46:47.000Z</time>
      </trkpt>
      <trkpt lat="43.53871" lon="5.54953">
        <ele>439</ele>
        <time>2022-05-11T08:46:52.000Z</time>
      </trkpt>
      <trkpt lat="43.53874" lon="5.54958">
        <ele>439.4</ele>
        <time>2022-05-11T08:46:57.000Z</time>
      </trkpt>
      <trkpt lat="43.53876" lon="5.54964">
        <ele>439.9</ele>
        <time>2022-05-11T08:47:03.000Z</time>
      </trkpt>
      <trkpt lat="43.53875" lon="5.54969">
        <ele>440.7</ele>
        <time>2022-05-11T08:47:09.000Z</time>
      </trkpt>
      <trkpt lat="43.53876" lon="5.54975">
        <ele>442.1</ele>
        <time>2022-05-11T08:47:17.000Z</time>
      </trkpt>
      <trkpt lat="43.53878" lon="5.54979">
        <ele>442.9</ele>
        <time>2022-05-11T08:47:23.000Z</time>
      </trkpt>
      <trkpt lat="43.5388" lon="5.54984">
        <ele>443.7</ele>
        <time>2022-05-11T08:47:30.000Z</time>
      </trkpt>
      <trkpt lat="43.53882" lon="5.54989">
        <ele>444.3</ele>
        <time>2022-05-11T08:47:36.000Z</time>
      </trkpt>
      <trkpt lat="43.53883" lon="5.5499">
        <ele>444.4</ele>
        <time>2022-05-11T08:47:37.000Z</time>
      </trkpt>
      <trkpt lat="43.53889" lon="5.54996">
        <ele>445.4</ele>
        <time>2022-05-11T08:47:48.000Z</time>
      </trkpt>
      <trkpt lat="43.53889" lon="5.55002">
        <ele>446.4</ele>
        <time>2022-05-11T08:47:56.000Z</time>
      </trkpt>
      <trkpt lat="43.53889" lon="5.55008">
        <ele>447.8</ele>
        <time>2022-05-11T08:48:09.000Z</time>
      </trkpt>
      <trkpt lat="43.53891" lon="5.55014">
        <ele>448.1</ele>
        <time>2022-05-11T08:48:17.000Z</time>
      </trkpt>
      <trkpt lat="43.53892" lon="5.5502">
        <ele>449.8</ele>
        <time>2022-05-11T08:48:36.000Z</time>
      </trkpt>
      <trkpt lat="43.53894" lon="5.55025">
        <ele>450.3</ele>
        <time>2022-05-11T08:48:43.000Z</time>
      </trkpt>
      <trkpt lat="43.53894" lon="5.55025">
        <ele>450.4</ele>
        <time>2022-05-11T08:48:44.000Z</time>
      </trkpt>
      <trkpt lat="43.53896" lon="5.55036">
        <ele>451.1</ele>
        <time>2022-05-11T08:49:01.000Z</time>
      </trkpt>
      <trkpt lat="43.53898" lon="5.55041">
        <ele>452.2</ele>
        <time>2022-05-11T08:49:09.000Z</time>
      </trkpt>
      <trkpt lat="43.53899" lon="5.55047">
        <ele>453.5</ele>
        <time>2022-05-11T08:49:20.000Z</time>
      </trkpt>
      <trkpt lat="43.539" lon="5.55052">
        <ele>454.2</ele>
        <time>2022-05-11T08:49:29.000Z</time>
      </trkpt>
      <trkpt lat="43.53901" lon="5.55057">
        <ele>454.6</ele>
        <time>2022-05-11T08:49:35.000Z</time>
      </trkpt>
      <trkpt lat="43.53904" lon="5.55062">
        <ele>455.4</ele>
        <time>2022-05-11T08:49:41.000Z</time>
      </trkpt>
      <trkpt lat="43.53907" lon="5.55067">
        <ele>456</ele>
        <time>2022-05-11T08:49:48.000Z</time>
      </trkpt>
      <trkpt lat="43.53907" lon="5.55068">
        <ele>456.1</ele>
        <time>2022-05-11T08:49:49.000Z</time>
      </trkpt>
      <trkpt lat="43.5391" lon="5.55076">
        <ele>456.7</ele>
        <time>2022-05-11T08:49:57.000Z</time>
      </trkpt>
      <trkpt lat="43.53912" lon="5.55081">
        <ele>456.9</ele>
        <time>2022-05-11T08:50:02.000Z</time>
      </trkpt>
      <trkpt lat="43.53914" lon="5.55086">
        <ele>457.8</ele>
        <time>2022-05-11T08:50:10.000Z</time>
      </trkpt>
      <trkpt lat="43.53913" lon="5.55091">
        <ele>458.9</ele>
        <time>2022-05-11T08:50:21.000Z</time>
      </trkpt>
      <trkpt lat="43.53912" lon="5.55097">
        <ele>459.8</ele>
        <time>2022-05-11T08:50:28.000Z</time>
      </trkpt>
      <trkpt lat="43.53915" lon="5.55101">
        <ele>460.5</ele>
        <time>2022-05-11T08:50:33.000Z</time>
      </trkpt>
      <trkpt lat="43.53917" lon="5.55107">
        <ele>460.9</ele>
        <time>2022-05-11T08:50:38.000Z</time>
      </trkpt>
      <trkpt lat="43.53917" lon="5.55113">
        <ele>461</ele>
        <time>2022-05-11T08:50:44.000Z</time>
      </trkpt>
      <trkpt lat="43.53918" lon="5.55118">
        <ele>461.7</ele>
        <time>2022-05-11T08:50:51.000Z</time>
      </trkpt>
      <trkpt lat="43.53917" lon="5.55119">
        <ele>461.8</ele>
        <time>2022-05-11T08:50:52.000Z</time>
      </trkpt>
      <trkpt lat="43.53914" lon="5.55127">
        <ele>463.4</ele>
        <time>2022-05-11T08:51:04.000Z</time>
      </trkpt>
      <trkpt lat="43.53912" lon="5.55133">
        <ele>463.9</ele>
        <time>2022-05-11T08:51:10.000Z</time>
      </trkpt>
      <trkpt lat="43.5391" lon="5.55138">
        <ele>464.6</ele>
        <time>2022-05-11T08:51:17.000Z</time>
      </trkpt>
      <trkpt lat="43.5391" lon="5.55144">
        <ele>464.9</ele>
        <time>2022-05-11T08:51:24.000Z</time>
      </trkpt>
      <trkpt lat="43.5391" lon="5.5515">
        <ele>465.6</ele>
        <time>2022-05-11T08:51:31.000Z</time>
      </trkpt>
      <trkpt lat="43.5391" lon="5.55156">
        <ele>466.4</ele>
        <time>2022-05-11T08:51:37.000Z</time>
      </trkpt>
      <trkpt lat="43.5391" lon="5.55161">
        <ele>466.9</ele>
        <time>2022-05-11T08:51:42.000Z</time>
      </trkpt>
      <trkpt lat="43.5391" lon="5.55167">
        <ele>466.9</ele>
        <time>2022-05-11T08:51:48.000Z</time>
      </trkpt>
      <trkpt lat="43.5391" lon="5.55172">
        <ele>467</ele>
        <time>2022-05-11T08:51:52.000Z</time>
      </trkpt>
      <trkpt lat="43.5391" lon="5.55174">
        <ele>467</ele>
        <time>2022-05-11T08:51:53.000Z</time>
      </trkpt>
      <trkpt lat="43.5391" lon="5.55184">
        <ele>467.5</ele>
        <time>2022-05-11T08:52:01.000Z</time>
      </trkpt>
      <trkpt lat="43.5391" lon="5.5519">
        <ele>467.8</ele>
        <time>2022-05-11T08:52:08.000Z</time>
      </trkpt>
      <trkpt lat="43.53911" lon="5.55196">
        <ele>468</ele>
        <time>2022-05-11T08:52:48.000Z</time>
      </trkpt>
      <trkpt lat="43.53912" lon="5.55201">
        <ele>468</ele>
        <time>2022-05-11T08:52:56.000Z</time>
      </trkpt>
      <trkpt lat="43.53912" lon="5.55202">
        <ele>468</ele>
        <time>2022-05-11T08:52:57.000Z</time>
      </trkpt>
      <trkpt lat="43.53916" lon="5.5521">
        <ele>468</ele>
        <time>2022-05-11T08:53:07.000Z</time>
      </trkpt>
      <trkpt lat="43.53918" lon="5.55215">
        <ele>467.8</ele>
        <time>2022-05-11T08:53:13.000Z</time>
      </trkpt>
      <trkpt lat="43.53921" lon="5.5522">
        <ele>467.7</ele>
        <time>2022-05-11T08:53:18.000Z</time>
      </trkpt>
      <trkpt lat="43.53922" lon="5.55225">
        <ele>467.7</ele>
        <time>2022-05-11T08:53:23.000Z</time>
      </trkpt>
      <trkpt lat="43.53923" lon="5.55231">
        <ele>467.6</ele>
        <time>2022-05-11T08:53:29.000Z</time>
      </trkpt>
      <trkpt lat="43.53925" lon="5.55235">
        <ele>467.6</ele>
        <time>2022-05-11T08:53:36.000Z</time>
      </trkpt>
      <trkpt lat="43.53927" lon="5.5524">
        <ele>467.3</ele>
        <time>2022-05-11T08:53:50.000Z</time>
      </trkpt>
      <trkpt lat="43.53928" lon="5.55246">
        <ele>467.7</ele>
        <time>2022-05-11T08:54:07.000Z</time>
      </trkpt>
      <trkpt lat="43.53928" lon="5.55246">
        <ele>467.8</ele>
        <time>2022-05-11T08:54:08.000Z</time>
      </trkpt>
      <trkpt lat="43.53927" lon="5.55257">
        <ele>468.4</ele>
        <time>2022-05-11T08:54:26.000Z</time>
      </trkpt>
      <trkpt lat="43.53927" lon="5.55263">
        <ele>469.6</ele>
        <time>2022-05-11T08:54:46.000Z</time>
      </trkpt>
      <trkpt lat="43.53929" lon="5.55268">
        <ele>470.2</ele>
        <time>2022-05-11T08:54:56.000Z</time>
      </trkpt>
      <trkpt lat="43.53928" lon="5.55274">
        <ele>471.5</ele>
        <time>2022-05-11T08:55:07.000Z</time>
      </trkpt>
      <trkpt lat="43.53926" lon="5.55279">
        <ele>472.4</ele>
        <time>2022-05-11T08:55:18.000Z</time>
      </trkpt>
      <trkpt lat="43.53926" lon="5.55279">
        <ele>472.4</ele>
        <time>2022-05-11T08:55:19.000Z</time>
      </trkpt>
      <trkpt lat="43.5392" lon="5.55287">
        <ele>473.2</ele>
        <time>2022-05-11T08:55:56.000Z</time>
      </trkpt>
      <trkpt lat="43.53918" lon="5.55292">
        <ele>473.6</ele>
        <time>2022-05-11T08:56:10.000Z</time>
      </trkpt>
      <trkpt lat="43.53916" lon="5.55298">
        <ele>474.4</ele>
        <time>2022-05-11T08:56:20.000Z</time>
      </trkpt>
      <trkpt lat="43.53916" lon="5.55298">
        <ele>474.5</ele>
        <time>2022-05-11T08:56:21.000Z</time>
      </trkpt>
      <trkpt lat="43.5392" lon="5.55307">
        <ele>476</ele>
        <time>2022-05-11T08:56:37.000Z</time>
      </trkpt>
      <trkpt lat="43.53921" lon="5.55313">
        <ele>477</ele>
        <time>2022-05-11T08:56:50.000Z</time>
      </trkpt>
      <trkpt lat="43.5392" lon="5.55319">
        <ele>477.9</ele>
        <time>2022-05-11T08:57:03.000Z</time>
      </trkpt>
      <trkpt lat="43.53919" lon="5.55324">
        <ele>478.5</ele>
        <time>2022-05-11T08:57:12.000Z</time>
      </trkpt>
      <trkpt lat="43.53919" lon="5.5533">
        <ele>479.4</ele>
        <time>2022-05-11T08:57:18.000Z</time>
      </trkpt>
      <trkpt lat="43.53918" lon="5.55336">
        <ele>480.5</ele>
        <time>2022-05-11T08:57:28.000Z</time>
      </trkpt>
      <trkpt lat="43.53918" lon="5.55336">
        <ele>480.6</ele>
        <time>2022-05-11T08:57:29.000Z</time>
      </trkpt>
      <trkpt lat="43.53913" lon="5.55344">
        <ele>482.8</ele>
        <time>2022-05-11T08:57:57.000Z</time>
      </trkpt>
      <trkpt lat="43.53909" lon="5.55347">
        <ele>483.6</ele>
        <time>2022-05-11T08:58:10.000Z</time>
      </trkpt>
      <trkpt lat="43.53906" lon="5.55351">
        <ele>484</ele>
        <time>2022-05-11T08:58:24.000Z</time>
      </trkpt>
      <trkpt lat="43.53902" lon="5.55353">
        <ele>484.7</ele>
        <time>2022-05-11T08:58:32.000Z</time>
      </trkpt>
      <trkpt lat="43.53902" lon="5.55353">
        <ele>484.8</ele>
        <time>2022-05-11T08:58:33.000Z</time>
      </trkpt>
      <trkpt lat="43.53896" lon="5.55361">
        <ele>486.7</ele>
        <time>2022-05-11T08:59:02.000Z</time>
      </trkpt>
      <trkpt lat="43.53892" lon="5.55365">
        <ele>487.3</ele>
        <time>2022-05-11T08:59:16.000Z</time>
      </trkpt>
      <trkpt lat="43.53888" lon="5.55367">
        <ele>487.7</ele>
        <time>2022-05-11T08:59:24.000Z</time>
      </trkpt>
      <trkpt lat="43.53888" lon="5.55372">
        <ele>488.5</ele>
        <time>2022-05-11T08:59:41.000Z</time>
      </trkpt>
      <trkpt lat="43.53887" lon="5.55373">
        <ele>488.6</ele>
        <time>2022-05-11T08:59:42.000Z</time>
      </trkpt>
      <trkpt lat="43.53881" lon="5.55378">
        <ele>490.1</ele>
        <time>2022-05-11T08:59:59.000Z</time>
      </trkpt>
      <trkpt lat="43.53877" lon="5.5538">
        <ele>490.5</ele>
        <time>2022-05-11T09:00:05.000Z</time>
      </trkpt>
      <trkpt lat="43.53875" lon="5.55385">
        <ele>491.4</ele>
        <time>2022-05-11T09:00:20.000Z</time>
      </trkpt>
      <trkpt lat="43.53872" lon="5.5539">
        <ele>491.9</ele>
        <time>2022-05-11T09:00:29.000Z</time>
      </trkpt>
      <trkpt lat="43.53872" lon="5.55396">
        <ele>494.1</ele>
        <time>2022-05-11T09:00:48.000Z</time>
      </trkpt>
      <trkpt lat="43.53872" lon="5.55396">
        <ele>494.3</ele>
        <time>2022-05-11T09:00:49.000Z</time>
      </trkpt>
      <trkpt lat="43.53868" lon="5.55405">
        <ele>496.2</ele>
        <time>2022-05-11T09:01:15.000Z</time>
      </trkpt>
      <trkpt lat="43.53865" lon="5.55409">
        <ele>496.6</ele>
        <time>2022-05-11T09:01:21.000Z</time>
      </trkpt>
      <trkpt lat="43.53861" lon="5.55412">
        <ele>497.1</ele>
        <time>2022-05-11T09:01:30.000Z</time>
      </trkpt>
      <trkpt lat="43.53859" lon="5.55417">
        <ele>497.6</ele>
        <time>2022-05-11T09:01:37.000Z</time>
      </trkpt>
      <trkpt lat="43.53856" lon="5.55421">
        <ele>498.4</ele>
        <time>2022-05-11T09:01:44.000Z</time>
      </trkpt>
      <trkpt lat="43.53854" lon="5.55426">
        <ele>499.7</ele>
        <time>2022-05-11T09:01:57.000Z</time>
      </trkpt>
      <trkpt lat="43.53854" lon="5.55427">
        <ele>499.8</ele>
        <time>2022-05-11T09:01:58.000Z</time>
      </trkpt>
      <trkpt lat="43.5385" lon="5.55437">
        <ele>503.6</ele>
        <time>2022-05-11T09:02:26.000Z</time>
      </trkpt>
      <trkpt lat="43.53849" lon="5.55442">
        <ele>505.2</ele>
        <time>2022-05-11T09:02:39.000Z</time>
      </trkpt>
      <trkpt lat="43.5385" lon="5.55448">
        <ele>506.9</ele>
        <time>2022-05-11T09:02:54.000Z</time>
      </trkpt>
      <trkpt lat="43.53849" lon="5.55454">
        <ele>508.5</ele>
        <time>2022-05-11T09:03:13.000Z</time>
      </trkpt>
      <trkpt lat="43.53849" lon="5.55454">
        <ele>508.6</ele>
        <time>2022-05-11T09:03:14.000Z</time>
      </trkpt>
      <trkpt lat="43.53843" lon="5.55462">
        <ele>511.7</ele>
        <time>2022-05-11T09:03:37.000Z</time>
      </trkpt>
      <trkpt lat="43.53841" lon="5.55467">
        <ele>514.1</ele>
        <time>2022-05-11T09:03:53.000Z</time>
      </trkpt>
      <trkpt lat="43.53838" lon="5.55473">
        <ele>515.7</ele>
        <time>2022-05-11T09:04:15.000Z</time>
      </trkpt>
      <trkpt lat="43.53838" lon="5.55473">
        <ele>515.9</ele>
        <time>2022-05-11T09:04:16.000Z</time>
      </trkpt>
      <trkpt lat="43.53835" lon="5.55483">
        <ele>519.8</ele>
        <time>2022-05-11T09:04:54.000Z</time>
      </trkpt>
      <trkpt lat="43.53838" lon="5.55488">
        <ele>521</ele>
        <time>2022-05-11T09:06:33.000Z</time>
      </trkpt>
      <trkpt lat="43.53838" lon="5.55489">
        <ele>521.1</ele>
        <time>2022-05-11T09:06:34.000Z</time>
      </trkpt>
      <trkpt lat="43.53835" lon="5.55498">
        <ele>524.6</ele>
        <time>2022-05-11T09:07:07.000Z</time>
      </trkpt>
      <trkpt lat="43.53836" lon="5.55505">
        <ele>525.3</ele>
        <time>2022-05-11T09:07:20.000Z</time>
      </trkpt>
      <trkpt lat="43.53837" lon="5.5551">
        <ele>526.2</ele>
        <time>2022-05-11T09:07:32.000Z</time>
      </trkpt>
      <trkpt lat="43.53836" lon="5.55516">
        <ele>527.5</ele>
        <time>2022-05-11T09:07:45.000Z</time>
      </trkpt>
      <trkpt lat="43.53836" lon="5.55517">
        <ele>527.7</ele>
        <time>2022-05-11T09:07:46.000Z</time>
      </trkpt>
      <trkpt lat="43.53832" lon="5.55526">
        <ele>529.9</ele>
        <time>2022-05-11T09:08:08.000Z</time>
      </trkpt>
      <trkpt lat="43.5383" lon="5.55531">
        <ele>531.1</ele>
        <time>2022-05-11T09:08:17.000Z</time>
      </trkpt>
      <trkpt lat="43.53828" lon="5.55536">
        <ele>532.6</ele>
        <time>2022-05-11T09:08:27.000Z</time>
      </trkpt>
      <trkpt lat="43.53828" lon="5.55541">
        <ele>533.8</ele>
        <time>2022-05-11T09:08:36.000Z</time>
      </trkpt>
      <trkpt lat="43.53827" lon="5.55547">
        <ele>534.4</ele>
        <time>2022-05-11T09:08:42.000Z</time>
      </trkpt>
      <trkpt lat="43.53826" lon="5.55553">
        <ele>535.5</ele>
        <time>2022-05-11T09:08:52.000Z</time>
      </trkpt>
      <trkpt lat="43.53826" lon="5.55554">
        <ele>535.6</ele>
        <time>2022-05-11T09:08:53.000Z</time>
      </trkpt>
      <trkpt lat="43.53824" lon="5.55564">
        <ele>537.2</ele>
        <time>2022-05-11T09:09:09.000Z</time>
      </trkpt>
      <trkpt lat="43.53822" lon="5.5557">
        <ele>537.9</ele>
        <time>2022-05-11T09:09:19.000Z</time>
      </trkpt>
      <trkpt lat="43.5382" lon="5.55575">
        <ele>539.7</ele>
        <time>2022-05-11T09:09:42.000Z</time>
      </trkpt>
      <trkpt lat="43.53818" lon="5.5558">
        <ele>539.2</ele>
        <time>2022-05-11T09:09:52.000Z</time>
      </trkpt>
      <trkpt lat="43.53815" lon="5.55585">
        <ele>538.9</ele>
        <time>2022-05-11T09:10:01.000Z</time>
      </trkpt>
      <trkpt lat="43.53815" lon="5.55585">
        <ele>538.8</ele>
        <time>2022-05-11T09:10:02.000Z</time>
      </trkpt>
      <trkpt lat="43.53822" lon="5.55576">
        <ele>539.7</ele>
        <time>2022-05-11T09:10:46.000Z</time>
      </trkpt>
      <trkpt lat="43.53823" lon="5.55582">
        <ele>542</ele>
        <time>2022-05-11T09:11:16.000Z</time>
      </trkpt>
      <trkpt lat="43.53823" lon="5.55582">
        <ele>542.1</ele>
        <time>2022-05-11T09:11:17.000Z</time>
      </trkpt>
      <trkpt lat="43.53829" lon="5.5559">
        <ele>544.6</ele>
        <time>2022-05-11T09:11:39.000Z</time>
      </trkpt>
      <trkpt lat="43.53833" lon="5.55593">
        <ele>546.8</ele>
        <time>2022-05-11T09:11:56.000Z</time>
      </trkpt>
      <trkpt lat="43.53837" lon="5.5559">
        <ele>548.2</ele>
        <time>2022-05-11T09:12:09.000Z</time>
      </trkpt>
      <trkpt lat="43.5384" lon="5.55594">
        <ele>547.8</ele>
        <time>2022-05-11T09:12:51.000Z</time>
      </trkpt>
      <trkpt lat="43.5384" lon="5.55594">
        <ele>547.8</ele>
        <time>2022-05-11T09:12:52.000Z</time>
      </trkpt>
      <trkpt lat="43.53839" lon="5.556">
        <ele>548.3</ele>
        <time>2022-05-11T09:15:47.000Z</time>
      </trkpt>
      <trkpt lat="43.53839" lon="5.556">
        <ele>548.4</ele>
        <time>2022-05-11T09:15:48.000Z</time>
      </trkpt>
      <trkpt lat="43.53839" lon="5.55612">
        <ele>550.7</ele>
        <time>2022-05-11T09:16:18.000Z</time>
      </trkpt>
      <trkpt lat="43.53838" lon="5.55617">
        <ele>551.4</ele>
        <time>2022-05-11T09:16:28.000Z</time>
      </trkpt>
      <trkpt lat="43.53838" lon="5.55623">
        <ele>553.9</ele>
        <time>2022-05-11T09:17:12.000Z</time>
      </trkpt>
      <trkpt lat="43.53838" lon="5.55623">
        <ele>553.9</ele>
        <time>2022-05-11T09:17:13.000Z</time>
      </trkpt>
      <trkpt lat="43.53839" lon="5.55635">
        <ele>555.2</ele>
        <time>2022-05-11T09:17:34.000Z</time>
      </trkpt>
      <trkpt lat="43.5384" lon="5.55641">
        <ele>556.5</ele>
        <time>2022-05-11T09:17:45.000Z</time>
      </trkpt>
      <trkpt lat="43.53839" lon="5.55647">
        <ele>557.6</ele>
        <time>2022-05-11T09:17:57.000Z</time>
      </trkpt>
      <trkpt lat="43.5384" lon="5.55653">
        <ele>558.2</ele>
        <time>2022-05-11T09:18:06.000Z</time>
      </trkpt>
      <trkpt lat="43.5384" lon="5.55659">
        <ele>558.8</ele>
        <time>2022-05-11T09:18:14.000Z</time>
      </trkpt>
      <trkpt lat="43.5384" lon="5.55659">
        <ele>558.9</ele>
        <time>2022-05-11T09:18:15.000Z</time>
      </trkpt>
      <trkpt lat="43.5384" lon="5.55671">
        <ele>561.6</ele>
        <time>2022-05-11T09:18:58.000Z</time>
      </trkpt>
      <trkpt lat="43.5384" lon="5.55677">
        <ele>562.9</ele>
        <time>2022-05-11T09:19:18.000Z</time>
      </trkpt>
      <trkpt lat="43.5384" lon="5.55677">
        <ele>563</ele>
        <time>2022-05-11T09:19:19.000Z</time>
      </trkpt>
      <trkpt lat="43.53843" lon="5.55688">
        <ele>563.6</ele>
        <time>2022-05-11T09:19:57.000Z</time>
      </trkpt>
      <trkpt lat="43.53844" lon="5.55694">
        <ele>564.2</ele>
        <time>2022-05-11T09:20:12.000Z</time>
      </trkpt>
      <trkpt lat="43.53846" lon="5.55699">
        <ele>564.4</ele>
        <time>2022-05-11T09:20:18.000Z</time>
      </trkpt>
      <trkpt lat="43.53848" lon="5.55703">
        <ele>564.3</ele>
        <time>2022-05-11T09:20:23.000Z</time>
      </trkpt>
      <trkpt lat="43.53849" lon="5.55704">
        <ele>564.3</ele>
        <time>2022-05-11T09:20:24.000Z</time>
      </trkpt>
      <trkpt lat="43.53853" lon="5.55712">
        <ele>564.7</ele>
        <time>2022-05-11T09:20:34.000Z</time>
      </trkpt>
      <trkpt lat="43.53856" lon="5.55716">
        <ele>564.5</ele>
        <time>2022-05-11T09:20:44.000Z</time>
      </trkpt>
      <trkpt lat="43.5386" lon="5.5572">
        <ele>564.3</ele>
        <time>2022-05-11T09:20:50.000Z</time>
      </trkpt>
      <trkpt lat="43.53862" lon="5.55725">
        <ele>564.3</ele>
        <time>2022-05-11T09:20:58.000Z</time>
      </trkpt>
      <trkpt lat="43.53866" lon="5.55727">
        <ele>564.3</ele>
        <time>2022-05-11T09:21:05.000Z</time>
      </trkpt>
      <trkpt lat="43.53867" lon="5.55733">
        <ele>564.2</ele>
        <time>2022-05-11T09:21:12.000Z</time>
      </trkpt>
      <trkpt lat="43.53866" lon="5.55739">
        <ele>564.8</ele>
        <time>2022-05-11T09:21:22.000Z</time>
      </trkpt>
      <trkpt lat="43.53866" lon="5.55745">
        <ele>566</ele>
        <time>2022-05-11T09:21:33.000Z</time>
      </trkpt>
      <trkpt lat="43.53866" lon="5.55746">
        <ele>566.1</ele>
        <time>2022-05-11T09:21:34.000Z</time>
      </trkpt>
      <trkpt lat="43.53868" lon="5.55756">
        <ele>567.8</ele>
        <time>2022-05-11T09:21:48.000Z</time>
      </trkpt>
      <trkpt lat="43.53869" lon="5.55762">
        <ele>568.1</ele>
        <time>2022-05-11T09:21:56.000Z</time>
      </trkpt>
      <trkpt lat="43.53872" lon="5.55766">
        <ele>568.5</ele>
        <time>2022-05-11T09:22:02.000Z</time>
      </trkpt>
      <trkpt lat="43.53874" lon="5.55771">
        <ele>568.5</ele>
        <time>2022-05-11T09:22:11.000Z</time>
      </trkpt>
      <trkpt lat="43.53875" lon="5.55776">
        <ele>568.5</ele>
        <time>2022-05-11T09:22:16.000Z</time>
      </trkpt>
      <trkpt lat="43.53876" lon="5.55782">
        <ele>568.6</ele>
        <time>2022-05-11T09:22:21.000Z</time>
      </trkpt>
      <trkpt lat="43.53875" lon="5.55788">
        <ele>569.3</ele>
        <time>2022-05-11T09:22:28.000Z</time>
      </trkpt>
      <trkpt lat="43.53875" lon="5.55794">
        <ele>570</ele>
        <time>2022-05-11T09:22:35.000Z</time>
      </trkpt>
      <trkpt lat="43.53875" lon="5.55795">
        <ele>570.1</ele>
        <time>2022-05-11T09:22:36.000Z</time>
      </trkpt>
      <trkpt lat="43.53873" lon="5.55806">
        <ele>572</ele>
        <time>2022-05-11T09:22:52.000Z</time>
      </trkpt>
      <trkpt lat="43.53873" lon="5.55811">
        <ele>573</ele>
        <time>2022-05-11T09:22:58.000Z</time>
      </trkpt>
      <trkpt lat="43.53872" lon="5.55816">
        <ele>573.8</ele>
        <time>2022-05-11T09:23:04.000Z</time>
      </trkpt>
      <trkpt lat="43.53871" lon="5.55822">
        <ele>574.7</ele>
        <time>2022-05-11T09:23:12.000Z</time>
      </trkpt>
      <trkpt lat="43.5387" lon="5.55828">
        <ele>575.4</ele>
        <time>2022-05-11T09:23:20.000Z</time>
      </trkpt>
      <trkpt lat="43.53869" lon="5.55834">
        <ele>576.8</ele>
        <time>2022-05-11T09:23:39.000Z</time>
      </trkpt>
      <trkpt lat="43.53869" lon="5.55835">
        <ele>576.9</ele>
        <time>2022-05-11T09:23:40.000Z</time>
      </trkpt>
      <trkpt lat="43.53868" lon="5.55846">
        <ele>578.3</ele>
        <time>2022-05-11T09:23:56.000Z</time>
      </trkpt>
      <trkpt lat="43.53868" lon="5.55852">
        <ele>579.1</ele>
        <time>2022-05-11T09:24:03.000Z</time>
      </trkpt>
      <trkpt lat="43.53869" lon="5.55858">
        <ele>579.5</ele>
        <time>2022-05-11T09:24:10.000Z</time>
      </trkpt>
      <trkpt lat="43.53869" lon="5.55863">
        <ele>580.2</ele>
        <time>2022-05-11T09:24:17.000Z</time>
      </trkpt>
      <trkpt lat="43.5387" lon="5.55869">
        <ele>580.1</ele>
        <time>2022-05-11T09:24:24.000Z</time>
      </trkpt>
      <trkpt lat="43.53868" lon="5.55874">
        <ele>581.3</ele>
        <time>2022-05-11T09:24:35.000Z</time>
      </trkpt>
      <trkpt lat="43.53868" lon="5.5588">
        <ele>581.8</ele>
        <time>2022-05-11T09:24:41.000Z</time>
      </trkpt>
      <trkpt lat="43.53868" lon="5.55881">
        <ele>581.9</ele>
        <time>2022-05-11T09:24:42.000Z</time>
      </trkpt>
      <trkpt lat="43.53869" lon="5.55891">
        <ele>583.1</ele>
        <time>2022-05-11T09:24:55.000Z</time>
      </trkpt>
      <trkpt lat="43.53869" lon="5.55896">
        <ele>583.9</ele>
        <time>2022-05-11T09:25:03.000Z</time>
      </trkpt>
      <trkpt lat="43.53869" lon="5.55903">
        <ele>584.5</ele>
        <time>2022-05-11T09:25:10.000Z</time>
      </trkpt>
      <trkpt lat="43.53868" lon="5.55908">
        <ele>585.5</ele>
        <time>2022-05-11T09:25:20.000Z</time>
      </trkpt>
      <trkpt lat="43.53868" lon="5.55914">
        <ele>586.3</ele>
        <time>2022-05-11T09:25:30.000Z</time>
      </trkpt>
      <trkpt lat="43.53868" lon="5.5592">
        <ele>587.3</ele>
        <time>2022-05-11T09:25:42.000Z</time>
      </trkpt>
      <trkpt lat="43.53868" lon="5.5592">
        <ele>587.4</ele>
        <time>2022-05-11T09:25:43.000Z</time>
      </trkpt>
      <trkpt lat="43.5387" lon="5.5593">
        <ele>588.5</ele>
        <time>2022-05-11T09:26:03.000Z</time>
      </trkpt>
      <trkpt lat="43.53872" lon="5.55935">
        <ele>588.3</ele>
        <time>2022-05-11T09:26:08.000Z</time>
      </trkpt>
      <trkpt lat="43.53873" lon="5.55941">
        <ele>588.2</ele>
        <time>2022-05-11T09:26:13.000Z</time>
      </trkpt>
      <trkpt lat="43.53874" lon="5.55946">
        <ele>588.3</ele>
        <time>2022-05-11T09:26:21.000Z</time>
      </trkpt>
      <trkpt lat="43.53873" lon="5.55952">
        <ele>588.4</ele>
        <time>2022-05-11T09:26:29.000Z</time>
      </trkpt>
      <trkpt lat="43.53873" lon="5.55958">
        <ele>588.6</ele>
        <time>2022-05-11T09:26:39.000Z</time>
      </trkpt>
      <trkpt lat="43.53872" lon="5.55964">
        <ele>589.5</ele>
        <time>2022-05-11T09:26:54.000Z</time>
      </trkpt>
      <trkpt lat="43.53872" lon="5.55964">
        <ele>589.6</ele>
        <time>2022-05-11T09:26:55.000Z</time>
      </trkpt>
      <trkpt lat="43.53873" lon="5.55975">
        <ele>589.8</ele>
        <time>2022-05-11T09:27:11.000Z</time>
      </trkpt>
      <trkpt lat="43.53873" lon="5.55981">
        <ele>590.3</ele>
        <time>2022-05-11T09:27:20.000Z</time>
      </trkpt>
      <trkpt lat="43.53873" lon="5.55987">
        <ele>590.9</ele>
        <time>2022-05-11T09:27:27.000Z</time>
      </trkpt>
      <trkpt lat="43.53874" lon="5.55992">
        <ele>591.7</ele>
        <time>2022-05-11T09:27:47.000Z</time>
      </trkpt>
      <trkpt lat="43.53877" lon="5.55997">
        <ele>591.9</ele>
        <time>2022-05-11T09:27:53.000Z</time>
      </trkpt>
      <trkpt lat="43.53878" lon="5.56003">
        <ele>591.8</ele>
        <time>2022-05-11T09:27:58.000Z</time>
      </trkpt>
      <trkpt lat="43.53878" lon="5.56004">
        <ele>591.8</ele>
        <time>2022-05-11T09:27:59.000Z</time>
      </trkpt>
      <trkpt lat="43.5388" lon="5.56014">
        <ele>592.8</ele>
        <time>2022-05-11T09:28:13.000Z</time>
      </trkpt>
      <trkpt lat="43.53882" lon="5.56019">
        <ele>593</ele>
        <time>2022-05-11T09:28:18.000Z</time>
      </trkpt>
      <trkpt lat="43.53884" lon="5.56024">
        <ele>593.1</ele>
        <time>2022-05-11T09:28:23.000Z</time>
      </trkpt>
      <trkpt lat="43.53885" lon="5.56029">
        <ele>593.5</ele>
        <time>2022-05-11T09:28:28.000Z</time>
      </trkpt>
      <trkpt lat="43.53887" lon="5.56034">
        <ele>593.2</ele>
        <time>2022-05-11T09:28:33.000Z</time>
      </trkpt>
      <trkpt lat="43.53889" lon="5.5604">
        <ele>593.3</ele>
        <time>2022-05-11T09:28:38.000Z</time>
      </trkpt>
      <trkpt lat="43.53891" lon="5.56045">
        <ele>593.5</ele>
        <time>2022-05-11T09:28:44.000Z</time>
      </trkpt>
      <trkpt lat="43.53893" lon="5.5605">
        <ele>593.9</ele>
        <time>2022-05-11T09:28:50.000Z</time>
      </trkpt>
      <trkpt lat="43.53894" lon="5.56056">
        <ele>593.6</ele>
        <time>2022-05-11T09:28:58.000Z</time>
      </trkpt>
      <trkpt lat="43.53895" lon="5.56062">
        <ele>593.5</ele>
        <time>2022-05-11T09:29:03.000Z</time>
      </trkpt>
      <trkpt lat="43.53896" lon="5.56063">
        <ele>593.5</ele>
        <time>2022-05-11T09:29:04.000Z</time>
      </trkpt>
      <trkpt lat="43.53897" lon="5.56073">
        <ele>593.3</ele>
        <time>2022-05-11T09:29:17.000Z</time>
      </trkpt>
      <trkpt lat="43.53897" lon="5.56079">
        <ele>593</ele>
        <time>2022-05-11T09:29:22.000Z</time>
      </trkpt>
      <trkpt lat="43.53898" lon="5.56085">
        <ele>592.9</ele>
        <time>2022-05-11T09:29:29.000Z</time>
      </trkpt>
      <trkpt lat="43.53897" lon="5.56089">
        <ele>592.8</ele>
        <time>2022-05-11T09:29:35.000Z</time>
      </trkpt>
      <trkpt lat="43.53895" lon="5.56095">
        <ele>592.9</ele>
        <time>2022-05-11T09:29:41.000Z</time>
      </trkpt>
      <trkpt lat="43.53892" lon="5.56099">
        <ele>593.3</ele>
        <time>2022-05-11T09:29:50.000Z</time>
      </trkpt>
      <trkpt lat="43.5389" lon="5.56103">
        <ele>594.4</ele>
        <time>2022-05-11T09:30:08.000Z</time>
      </trkpt>
      <trkpt lat="43.53889" lon="5.56104">
        <ele>594.4</ele>
        <time>2022-05-11T09:30:09.000Z</time>
      </trkpt>
      <trkpt lat="43.53884" lon="5.56113">
        <ele>594.5</ele>
        <time>2022-05-11T09:30:21.000Z</time>
      </trkpt>
      <trkpt lat="43.5388" lon="5.56115">
        <ele>594.6</ele>
        <time>2022-05-11T09:30:31.000Z</time>
      </trkpt>
      <trkpt lat="43.53878" lon="5.56119">
        <ele>594.8</ele>
        <time>2022-05-11T09:30:37.000Z</time>
      </trkpt>
      <trkpt lat="43.53874" lon="5.56121">
        <ele>595</ele>
        <time>2022-05-11T09:30:42.000Z</time>
      </trkpt>
      <trkpt lat="43.53871" lon="5.56125">
        <ele>595.7</ele>
        <time>2022-05-11T09:31:14.000Z</time>
      </trkpt>
      <trkpt lat="43.5387" lon="5.56125">
        <ele>595.7</ele>
        <time>2022-05-11T09:31:15.000Z</time>
      </trkpt>
      <trkpt lat="43.53865" lon="5.56132">
        <ele>594.3</ele>
        <time>2022-05-11T09:31:40.000Z</time>
      </trkpt>
      <trkpt lat="43.53862" lon="5.56134">
        <ele>593.9</ele>
        <time>2022-05-11T09:31:46.000Z</time>
      </trkpt>
      <trkpt lat="43.53859" lon="5.56138">
        <ele>593.5</ele>
        <time>2022-05-11T09:31:50.000Z</time>
      </trkpt>
      <trkpt lat="43.53858" lon="5.56143">
        <ele>593</ele>
        <time>2022-05-11T09:31:54.000Z</time>
      </trkpt>
      <trkpt lat="43.53855" lon="5.56146">
        <ele>592.8</ele>
        <time>2022-05-11T09:31:57.000Z</time>
      </trkpt>
      <trkpt lat="43.53852" lon="5.56149">
        <ele>592.7</ele>
        <time>2022-05-11T09:32:00.000Z</time>
      </trkpt>
      <trkpt lat="43.53849" lon="5.56153">
        <ele>592.6</ele>
        <time>2022-05-11T09:32:04.000Z</time>
      </trkpt>
      <trkpt lat="43.53846" lon="5.56157">
        <ele>592.4</ele>
        <time>2022-05-11T09:33:22.000Z</time>
      </trkpt>
      <trkpt lat="43.53845" lon="5.56157">
        <ele>592.4</ele>
        <time>2022-05-11T09:33:23.000Z</time>
      </trkpt>
      <trkpt lat="43.53843" lon="5.56168">
        <ele>592.2</ele>
        <time>2022-05-11T09:33:47.000Z</time>
      </trkpt>
      <trkpt lat="43.53841" lon="5.56173">
        <ele>592.3</ele>
        <time>2022-05-11T09:33:53.000Z</time>
      </trkpt>
      <trkpt lat="43.53839" lon="5.56177">
        <ele>592.3</ele>
        <time>2022-05-11T09:33:58.000Z</time>
      </trkpt>
      <trkpt lat="43.53836" lon="5.56181">
        <ele>592.8</ele>
        <time>2022-05-11T09:34:28.000Z</time>
      </trkpt>
      <trkpt lat="43.53836" lon="5.56182">
        <ele>592.8</ele>
        <time>2022-05-11T09:34:29.000Z</time>
      </trkpt>
      <trkpt lat="43.53834" lon="5.56192">
        <ele>592.6</ele>
        <time>2022-05-11T09:34:41.000Z</time>
      </trkpt>
      <trkpt lat="43.53834" lon="5.56197">
        <ele>592.2</ele>
        <time>2022-05-11T09:34:47.000Z</time>
      </trkpt>
      <trkpt lat="43.53831" lon="5.56202">
        <ele>592.1</ele>
        <time>2022-05-11T09:34:54.000Z</time>
      </trkpt>
      <trkpt lat="43.53831" lon="5.56208">
        <ele>592.4</ele>
        <time>2022-05-11T09:35:02.000Z</time>
      </trkpt>
      <trkpt lat="43.5383" lon="5.56214">
        <ele>592</ele>
        <time>2022-05-11T09:35:12.000Z</time>
      </trkpt>
      <trkpt lat="43.53828" lon="5.56219">
        <ele>592.1</ele>
        <time>2022-05-11T09:35:21.000Z</time>
      </trkpt>
      <trkpt lat="43.53827" lon="5.56225">
        <ele>592</ele>
        <time>2022-05-11T09:35:28.000Z</time>
      </trkpt>
      <trkpt lat="43.53826" lon="5.56231">
        <ele>591.8</ele>
        <time>2022-05-11T09:35:35.000Z</time>
      </trkpt>
      <trkpt lat="43.53826" lon="5.56232">
        <ele>591.8</ele>
        <time>2022-05-11T09:35:36.000Z</time>
      </trkpt>
      <trkpt lat="43.53827" lon="5.56243">
        <ele>591.8</ele>
        <time>2022-05-11T09:35:57.000Z</time>
      </trkpt>
      <trkpt lat="43.53828" lon="5.56248">
        <ele>591.6</ele>
        <time>2022-05-11T09:36:04.000Z</time>
      </trkpt>
      <trkpt lat="43.53828" lon="5.56255">
        <ele>591.5</ele>
        <time>2022-05-11T09:36:09.000Z</time>
      </trkpt>
      <trkpt lat="43.53828" lon="5.5626">
        <ele>591.3</ele>
        <time>2022-05-11T09:36:16.000Z</time>
      </trkpt>
      <trkpt lat="43.53827" lon="5.56266">
        <ele>590.9</ele>
        <time>2022-05-11T09:36:24.000Z</time>
      </trkpt>
      <trkpt lat="43.53828" lon="5.56272">
        <ele>590.7</ele>
        <time>2022-05-11T09:36:31.000Z</time>
      </trkpt>
      <trkpt lat="43.53829" lon="5.56278">
        <ele>590.6</ele>
        <time>2022-05-11T09:36:36.000Z</time>
      </trkpt>
      <trkpt lat="43.53829" lon="5.56278">
        <ele>590.6</ele>
        <time>2022-05-11T09:36:37.000Z</time>
      </trkpt>
      <trkpt lat="43.53831" lon="5.56289">
        <ele>590.2</ele>
        <time>2022-05-11T09:36:53.000Z</time>
      </trkpt>
      <trkpt lat="43.53833" lon="5.56295">
        <ele>589.9</ele>
        <time>2022-05-11T09:36:59.000Z</time>
      </trkpt>
      <trkpt lat="43.53833" lon="5.563">
        <ele>589.8</ele>
        <time>2022-05-11T09:37:04.000Z</time>
      </trkpt>
      <trkpt lat="43.53832" lon="5.56306">
        <ele>589.5</ele>
        <time>2022-05-11T09:37:10.000Z</time>
      </trkpt>
      <trkpt lat="43.53834" lon="5.56311">
        <ele>589.3</ele>
        <time>2022-05-11T09:37:38.000Z</time>
      </trkpt>
      <trkpt lat="43.53834" lon="5.56312">
        <ele>589.4</ele>
        <time>2022-05-11T09:37:39.000Z</time>
      </trkpt>
      <trkpt lat="43.5383" lon="5.56322">
        <ele>590</ele>
        <time>2022-05-11T09:37:55.000Z</time>
      </trkpt>
      <trkpt lat="43.53829" lon="5.56328">
        <ele>590.1</ele>
        <time>2022-05-11T09:38:01.000Z</time>
      </trkpt>
      <trkpt lat="43.53829" lon="5.56334">
        <ele>590.2</ele>
        <time>2022-05-11T09:38:06.000Z</time>
      </trkpt>
      <trkpt lat="43.53829" lon="5.5634">
        <ele>590.3</ele>
        <time>2022-05-11T09:38:11.000Z</time>
      </trkpt>
      <trkpt lat="43.5383" lon="5.56346">
        <ele>590.4</ele>
        <time>2022-05-11T09:38:18.000Z</time>
      </trkpt>
      <trkpt lat="43.5383" lon="5.56352">
        <ele>590.5</ele>
        <time>2022-05-11T09:38:23.000Z</time>
      </trkpt>
      <trkpt lat="43.53831" lon="5.56357">
        <ele>591</ele>
        <time>2022-05-11T09:38:35.000Z</time>
      </trkpt>
      <trkpt lat="43.53831" lon="5.56363">
        <ele>591.4</ele>
        <time>2022-05-11T09:38:41.000Z</time>
      </trkpt>
      <trkpt lat="43.53831" lon="5.56364">
        <ele>591.4</ele>
        <time>2022-05-11T09:38:42.000Z</time>
      </trkpt>
      <trkpt lat="43.53831" lon="5.56375">
        <ele>592.1</ele>
        <time>2022-05-11T09:38:51.000Z</time>
      </trkpt>
      <trkpt lat="43.53831" lon="5.56381">
        <ele>592.4</ele>
        <time>2022-05-11T09:38:57.000Z</time>
      </trkpt>
      <trkpt lat="43.53831" lon="5.56387">
        <ele>592.8</ele>
        <time>2022-05-11T09:39:04.000Z</time>
      </trkpt>
      <trkpt lat="43.53833" lon="5.56392">
        <ele>593.1</ele>
        <time>2022-05-11T09:39:15.000Z</time>
      </trkpt>
      <trkpt lat="43.53834" lon="5.56397">
        <ele>593.4</ele>
        <time>2022-05-11T09:39:20.000Z</time>
      </trkpt>
      <trkpt lat="43.53835" lon="5.56403">
        <ele>593.8</ele>
        <time>2022-05-11T09:39:25.000Z</time>
      </trkpt>
      <trkpt lat="43.53835" lon="5.56408">
        <ele>594.3</ele>
        <time>2022-05-11T09:39:30.000Z</time>
      </trkpt>
      <trkpt lat="43.53836" lon="5.56414">
        <ele>594.6</ele>
        <time>2022-05-11T09:39:36.000Z</time>
      </trkpt>
      <trkpt lat="43.53838" lon="5.56419">
        <ele>594.9</ele>
        <time>2022-05-11T09:39:41.000Z</time>
      </trkpt>
      <trkpt lat="43.5384" lon="5.56425">
        <ele>595.5</ele>
        <time>2022-05-11T09:39:47.000Z</time>
      </trkpt>
      <trkpt lat="43.5384" lon="5.56426">
        <ele>595.6</ele>
        <time>2022-05-11T09:39:48.000Z</time>
      </trkpt>
      <trkpt lat="43.53843" lon="5.56436">
        <ele>596.6</ele>
        <time>2022-05-11T09:40:04.000Z</time>
      </trkpt>
      <trkpt lat="43.53843" lon="5.56442">
        <ele>597.9</ele>
        <time>2022-05-11T09:40:14.000Z</time>
      </trkpt>
      <trkpt lat="43.53843" lon="5.56448">
        <ele>599</ele>
        <time>2022-05-11T09:40:23.000Z</time>
      </trkpt>
      <trkpt lat="43.53844" lon="5.56453">
        <ele>600</ele>
        <time>2022-05-11T09:40:31.000Z</time>
      </trkpt>
      <trkpt lat="43.53846" lon="5.56459">
        <ele>601.6</ele>
        <time>2022-05-11T09:40:43.000Z</time>
      </trkpt>
      <trkpt lat="43.53847" lon="5.56464">
        <ele>602.2</ele>
        <time>2022-05-11T09:40:50.000Z</time>
      </trkpt>
      <trkpt lat="43.53848" lon="5.56465">
        <ele>602.2</ele>
        <time>2022-05-11T09:40:51.000Z</time>
      </trkpt>
      <trkpt lat="43.53851" lon="5.56474">
        <ele>603.3</ele>
        <time>2022-05-11T09:41:02.000Z</time>
      </trkpt>
      <trkpt lat="43.53852" lon="5.5648">
        <ele>604.7</ele>
        <time>2022-05-11T09:41:14.000Z</time>
      </trkpt>
      <trkpt lat="43.53851" lon="5.56485">
        <ele>605.5</ele>
        <time>2022-05-11T09:41:20.000Z</time>
      </trkpt>
      <trkpt lat="43.53851" lon="5.56492">
        <ele>606.1</ele>
        <time>2022-05-11T09:41:27.000Z</time>
      </trkpt>
      <trkpt lat="43.53849" lon="5.56497">
        <ele>606.6</ele>
        <time>2022-05-11T09:41:35.000Z</time>
      </trkpt>
      <trkpt lat="43.53849" lon="5.56503">
        <ele>607.1</ele>
        <time>2022-05-11T09:41:42.000Z</time>
      </trkpt>
      <trkpt lat="43.53849" lon="5.56508">
        <ele>608</ele>
        <time>2022-05-11T09:41:48.000Z</time>
      </trkpt>
      <trkpt lat="43.5385" lon="5.56514">
        <ele>608.8</ele>
        <time>2022-05-11T09:41:56.000Z</time>
      </trkpt>
      <trkpt lat="43.5385" lon="5.56515">
        <ele>608.9</ele>
        <time>2022-05-11T09:41:57.000Z</time>
      </trkpt>
      <trkpt lat="43.53854" lon="5.56523">
        <ele>610.1</ele>
        <time>2022-05-11T09:42:11.000Z</time>
      </trkpt>
      <trkpt lat="43.53855" lon="5.56529">
        <ele>610.5</ele>
        <time>2022-05-11T09:42:17.000Z</time>
      </trkpt>
      <trkpt lat="43.53857" lon="5.56534">
        <ele>611.5</ele>
        <time>2022-05-11T09:42:24.000Z</time>
      </trkpt>
      <trkpt lat="43.5386" lon="5.56538">
        <ele>612.4</ele>
        <time>2022-05-11T09:42:32.000Z</time>
      </trkpt>
      <trkpt lat="43.53861" lon="5.56544">
        <ele>612.9</ele>
        <time>2022-05-11T09:42:39.000Z</time>
      </trkpt>
      <trkpt lat="43.53863" lon="5.56549">
        <ele>614</ele>
        <time>2022-05-11T09:42:52.000Z</time>
      </trkpt>
      <trkpt lat="43.53863" lon="5.56555">
        <ele>614.5</ele>
        <time>2022-05-11T09:43:04.000Z</time>
      </trkpt>
      <trkpt lat="43.53863" lon="5.56555">
        <ele>614.5</ele>
        <time>2022-05-11T09:43:05.000Z</time>
      </trkpt>
      <trkpt lat="43.53862" lon="5.56567">
        <ele>616.9</ele>
        <time>2022-05-11T09:43:25.000Z</time>
      </trkpt>
      <trkpt lat="43.5386" lon="5.56571">
        <ele>618.3</ele>
        <time>2022-05-11T09:43:35.000Z</time>
      </trkpt>
      <trkpt lat="43.5386" lon="5.56577">
        <ele>620.3</ele>
        <time>2022-05-11T09:43:46.000Z</time>
      </trkpt>
      <trkpt lat="43.53857" lon="5.56582">
        <ele>622</ele>
        <time>2022-05-11T09:44:00.000Z</time>
      </trkpt>
      <trkpt lat="43.53857" lon="5.56587">
        <ele>623.6</ele>
        <time>2022-05-11T09:44:13.000Z</time>
      </trkpt>
      <trkpt lat="43.53858" lon="5.56588">
        <ele>623.6</ele>
        <time>2022-05-11T09:44:14.000Z</time>
      </trkpt>
      <trkpt lat="43.53858" lon="5.56599">
        <ele>625.1</ele>
        <time>2022-05-11T09:44:26.000Z</time>
      </trkpt>
      <trkpt lat="43.53857" lon="5.56605">
        <ele>625.6</ele>
        <time>2022-05-11T09:44:34.000Z</time>
      </trkpt>
      <trkpt lat="43.53858" lon="5.5661">
        <ele>626.4</ele>
        <time>2022-05-11T09:44:40.000Z</time>
      </trkpt>
      <trkpt lat="43.53859" lon="5.56616">
        <ele>626.8</ele>
        <time>2022-05-11T09:44:46.000Z</time>
      </trkpt>
      <trkpt lat="43.53858" lon="5.56622">
        <ele>626.9</ele>
        <time>2022-05-11T09:44:53.000Z</time>
      </trkpt>
      <trkpt lat="43.53858" lon="5.56627">
        <ele>627.4</ele>
        <time>2022-05-11T09:45:01.000Z</time>
      </trkpt>
      <trkpt lat="43.53857" lon="5.56633">
        <ele>627.8</ele>
        <time>2022-05-11T09:45:09.000Z</time>
      </trkpt>
      <trkpt lat="43.53857" lon="5.56639">
        <ele>628.9</ele>
        <time>2022-05-11T09:45:22.000Z</time>
      </trkpt>
      <trkpt lat="43.53857" lon="5.56639">
        <ele>628.9</ele>
        <time>2022-05-11T09:45:23.000Z</time>
      </trkpt>
      <trkpt lat="43.53853" lon="5.56648">
        <ele>629.9</ele>
        <time>2022-05-11T09:45:32.000Z</time>
      </trkpt>
      <trkpt lat="43.5385" lon="5.56653">
        <ele>630.8</ele>
        <time>2022-05-11T09:45:46.000Z</time>
      </trkpt>
      <trkpt lat="43.53849" lon="5.56659">
        <ele>631.7</ele>
        <time>2022-05-11T09:46:27.000Z</time>
      </trkpt>
      <trkpt lat="43.53849" lon="5.56659">
        <ele>631.7</ele>
        <time>2022-05-11T09:46:28.000Z</time>
      </trkpt>
      <trkpt lat="43.5385" lon="5.56671">
        <ele>630.9</ele>
        <time>2022-05-11T09:47:16.000Z</time>
      </trkpt>
      <trkpt lat="43.53851" lon="5.56677">
        <ele>630.4</ele>
        <time>2022-05-11T09:47:27.000Z</time>
      </trkpt>
      <trkpt lat="43.5385" lon="5.56682">
        <ele>630</ele>
        <time>2022-05-11T09:47:37.000Z</time>
      </trkpt>
      <trkpt lat="43.53851" lon="5.56683">
        <ele>630</ele>
        <time>2022-05-11T09:47:38.000Z</time>
      </trkpt>
      <trkpt lat="43.53849" lon="5.56694">
        <ele>629.6</ele>
        <time>2022-05-11T09:47:54.000Z</time>
      </trkpt>
      <trkpt lat="43.53849" lon="5.567">
        <ele>629.6</ele>
        <time>2022-05-11T09:48:03.000Z</time>
      </trkpt>
      <trkpt lat="43.53847" lon="5.56705">
        <ele>629.6</ele>
        <time>2022-05-11T09:48:11.000Z</time>
      </trkpt>
      <trkpt lat="43.53845" lon="5.5671">
        <ele>629.2</ele>
        <time>2022-05-11T09:48:18.000Z</time>
      </trkpt>
      <trkpt lat="43.53843" lon="5.56715">
        <ele>629.4</ele>
        <time>2022-05-11T09:48:28.000Z</time>
      </trkpt>
      <trkpt lat="43.53842" lon="5.56721">
        <ele>629.8</ele>
        <time>2022-05-11T09:48:38.000Z</time>
      </trkpt>
      <trkpt lat="43.53841" lon="5.56722">
        <ele>629.8</ele>
        <time>2022-05-11T09:48:39.000Z</time>
      </trkpt>
      <trkpt lat="43.53838" lon="5.56731">
        <ele>629.8</ele>
        <time>2022-05-11T09:48:53.000Z</time>
      </trkpt>
      <trkpt lat="43.53836" lon="5.56736">
        <ele>629.8</ele>
        <time>2022-05-11T09:48:59.000Z</time>
      </trkpt>
      <trkpt lat="43.53834" lon="5.56741">
        <ele>630.1</ele>
        <time>2022-05-11T09:49:07.000Z</time>
      </trkpt>
      <trkpt lat="43.53832" lon="5.56746">
        <ele>630.2</ele>
        <time>2022-05-11T09:49:13.000Z</time>
      </trkpt>
      <trkpt lat="43.53831" lon="5.56751">
        <ele>630.5</ele>
        <time>2022-05-11T09:49:19.000Z</time>
      </trkpt>
      <trkpt lat="43.53831" lon="5.56757">
        <ele>631.2</ele>
        <time>2022-05-11T09:49:26.000Z</time>
      </trkpt>
      <trkpt lat="43.53829" lon="5.56762">
        <ele>632</ele>
        <time>2022-05-11T09:49:43.000Z</time>
      </trkpt>
      <trkpt lat="43.53828" lon="5.56762">
        <ele>632</ele>
        <time>2022-05-11T09:49:44.000Z</time>
      </trkpt>
      <trkpt lat="43.53825" lon="5.56771">
        <ele>633</ele>
        <time>2022-05-11T09:49:57.000Z</time>
      </trkpt>
      <trkpt lat="43.53824" lon="5.56777">
        <ele>633.2</ele>
        <time>2022-05-11T09:50:04.000Z</time>
      </trkpt>
      <trkpt lat="43.53824" lon="5.56782">
        <ele>633.2</ele>
        <time>2022-05-11T09:50:09.000Z</time>
      </trkpt>
      <trkpt lat="43.53823" lon="5.56787">
        <ele>633.3</ele>
        <time>2022-05-11T09:50:13.000Z</time>
      </trkpt>
      <trkpt lat="43.53822" lon="5.56793">
        <ele>633.7</ele>
        <time>2022-05-11T09:50:19.000Z</time>
      </trkpt>
      <trkpt lat="43.5382" lon="5.56798">
        <ele>633.3</ele>
        <time>2022-05-11T09:50:28.000Z</time>
      </trkpt>
      <trkpt lat="43.53818" lon="5.56804">
        <ele>633.8</ele>
        <time>2022-05-11T09:50:44.000Z</time>
      </trkpt>
      <trkpt lat="43.53818" lon="5.56804">
        <ele>633.8</ele>
        <time>2022-05-11T09:50:45.000Z</time>
      </trkpt>
      <trkpt lat="43.53814" lon="5.56814">
        <ele>634.5</ele>
        <time>2022-05-11T09:51:04.000Z</time>
      </trkpt>
      <trkpt lat="43.53812" lon="5.56818">
        <ele>634.6</ele>
        <time>2022-05-11T09:51:12.000Z</time>
      </trkpt>
      <trkpt lat="43.53809" lon="5.56823">
        <ele>634.8</ele>
        <time>2022-05-11T09:51:24.000Z</time>
      </trkpt>
      <trkpt lat="43.53807" lon="5.56828">
        <ele>635.1</ele>
        <time>2022-05-11T09:51:32.000Z</time>
      </trkpt>
      <trkpt lat="43.53804" lon="5.56831">
        <ele>635.3</ele>
        <time>2022-05-11T09:51:37.000Z</time>
      </trkpt>
      <trkpt lat="43.53802" lon="5.56837">
        <ele>636.1</ele>
        <time>2022-05-11T09:51:47.000Z</time>
      </trkpt>
      <trkpt lat="43.53802" lon="5.56837">
        <ele>636.2</ele>
        <time>2022-05-11T09:51:48.000Z</time>
      </trkpt>
      <trkpt lat="43.53798" lon="5.56847">
        <ele>636.4</ele>
        <time>2022-05-11T09:52:01.000Z</time>
      </trkpt>
      <trkpt lat="43.53796" lon="5.56852">
        <ele>636.9</ele>
        <time>2022-05-11T09:52:13.000Z</time>
      </trkpt>
      <trkpt lat="43.53794" lon="5.56857">
        <ele>637.1</ele>
        <time>2022-05-11T09:52:19.000Z</time>
      </trkpt>
      <trkpt lat="43.53791" lon="5.56862">
        <ele>637</ele>
        <time>2022-05-11T09:52:27.000Z</time>
      </trkpt>
      <trkpt lat="43.53788" lon="5.56866">
        <ele>637.4</ele>
        <time>2022-05-11T09:52:40.000Z</time>
      </trkpt>
      <trkpt lat="43.53785" lon="5.56869">
        <ele>637.4</ele>
        <time>2022-05-11T09:52:47.000Z</time>
      </trkpt>
      <trkpt lat="43.53782" lon="5.56873">
        <ele>637.2</ele>
        <time>2022-05-11T09:52:55.000Z</time>
      </trkpt>
      <trkpt lat="43.53782" lon="5.56874">
        <ele>637.2</ele>
        <time>2022-05-11T09:52:56.000Z</time>
      </trkpt>
      <trkpt lat="43.53777" lon="5.56882">
        <ele>637.5</ele>
        <time>2022-05-11T09:53:08.000Z</time>
      </trkpt>
      <trkpt lat="43.53777" lon="5.56888">
        <ele>637.2</ele>
        <time>2022-05-11T09:53:17.000Z</time>
      </trkpt>
      <trkpt lat="43.53775" lon="5.56892">
        <ele>637</ele>
        <time>2022-05-11T09:53:22.000Z</time>
      </trkpt>
      <trkpt lat="43.53771" lon="5.56895">
        <ele>636.4</ele>
        <time>2022-05-11T09:53:29.000Z</time>
      </trkpt>
      <trkpt lat="43.53768" lon="5.56899">
        <ele>635.9</ele>
        <time>2022-05-11T09:53:39.000Z</time>
      </trkpt>
      <trkpt lat="43.53766" lon="5.56904">
        <ele>635.8</ele>
        <time>2022-05-11T09:53:45.000Z</time>
      </trkpt>
      <trkpt lat="43.53766" lon="5.56909">
        <ele>635.8</ele>
        <time>2022-05-11T09:53:51.000Z</time>
      </trkpt>
      <trkpt lat="43.53765" lon="5.56915">
        <ele>636.1</ele>
        <time>2022-05-11T09:54:02.000Z</time>
      </trkpt>
      <trkpt lat="43.53765" lon="5.56916">
        <ele>636.1</ele>
        <time>2022-05-11T09:54:03.000Z</time>
      </trkpt>
      <trkpt lat="43.53761" lon="5.56919">
        <ele>636.7</ele>
        <time>2022-05-11T09:55:08.000Z</time>
      </trkpt>
      <trkpt lat="43.53756" lon="5.56926">
        <ele>637.4</ele>
        <time>2022-05-11T09:55:49.000Z</time>
      </trkpt>
      <trkpt lat="43.53754" lon="5.56931">
        <ele>637.8</ele>
        <time>2022-05-11T09:55:56.000Z</time>
      </trkpt>
      <trkpt lat="43.53752" lon="5.56936">
        <ele>638.1</ele>
        <time>2022-05-11T09:56:03.000Z</time>
      </trkpt>
      <trkpt lat="43.53749" lon="5.56941">
        <ele>638.5</ele>
        <time>2022-05-11T09:56:10.000Z</time>
      </trkpt>
      <trkpt lat="43.53749" lon="5.56941">
        <ele>638.6</ele>
        <time>2022-05-11T09:56:11.000Z</time>
      </trkpt>
      <trkpt lat="43.53749" lon="5.56953">
        <ele>640</ele>
        <time>2022-05-11T09:56:30.000Z</time>
      </trkpt>
      <trkpt lat="43.53748" lon="5.56958">
        <ele>640.3</ele>
        <time>2022-05-11T09:56:40.000Z</time>
      </trkpt>
      <trkpt lat="43.53747" lon="5.56963">
        <ele>641.2</ele>
        <time>2022-05-11T09:56:57.000Z</time>
      </trkpt>
      <trkpt lat="43.53745" lon="5.56968">
        <ele>641.2</ele>
        <time>2022-05-11T09:57:05.000Z</time>
      </trkpt>
      <trkpt lat="43.53744" lon="5.56974">
        <ele>641.4</ele>
        <time>2022-05-11T09:57:15.000Z</time>
      </trkpt>
      <trkpt lat="43.53744" lon="5.56974">
        <ele>641.4</ele>
        <time>2022-05-11T09:57:16.000Z</time>
      </trkpt>
      <trkpt lat="43.5374" lon="5.56983">
        <ele>641.9</ele>
        <time>2022-05-11T09:57:28.000Z</time>
      </trkpt>
      <trkpt lat="43.53738" lon="5.56987">
        <ele>642.2</ele>
        <time>2022-05-11T09:57:35.000Z</time>
      </trkpt>
      <trkpt lat="43.53735" lon="5.56992">
        <ele>642.3</ele>
        <time>2022-05-11T09:57:40.000Z</time>
      </trkpt>
      <trkpt lat="43.53732" lon="5.56996">
        <ele>643.1</ele>
        <time>2022-05-11T09:57:49.000Z</time>
      </trkpt>
      <trkpt lat="43.53729" lon="5.57">
        <ele>644.2</ele>
        <time>2022-05-11T09:57:58.000Z</time>
      </trkpt>
      <trkpt lat="43.53726" lon="5.57005">
        <ele>645.7</ele>
        <time>2022-05-11T09:58:10.000Z</time>
      </trkpt>
      <trkpt lat="43.53723" lon="5.57009">
        <ele>646.2</ele>
        <time>2022-05-11T09:58:18.000Z</time>
      </trkpt>
      <trkpt lat="43.53723" lon="5.57009">
        <ele>646.3</ele>
        <time>2022-05-11T09:58:19.000Z</time>
      </trkpt>
      <trkpt lat="43.53717" lon="5.57016">
        <ele>647.8</ele>
        <time>2022-05-11T09:58:37.000Z</time>
      </trkpt>
      <trkpt lat="43.53712" lon="5.57018">
        <ele>649.2</ele>
        <time>2022-05-11T09:58:49.000Z</time>
      </trkpt>
      <trkpt lat="43.53709" lon="5.57021">
        <ele>650.5</ele>
        <time>2022-05-11T09:59:14.000Z</time>
      </trkpt>
      <trkpt lat="43.53706" lon="5.57025">
        <ele>651.4</ele>
        <time>2022-05-11T09:59:25.000Z</time>
      </trkpt>
      <trkpt lat="43.53705" lon="5.57025">
        <ele>651.5</ele>
        <time>2022-05-11T09:59:26.000Z</time>
      </trkpt>
      <trkpt lat="43.53698" lon="5.57031">
        <ele>654.3</ele>
        <time>2022-05-11T09:59:47.000Z</time>
      </trkpt>
      <trkpt lat="43.53695" lon="5.57035">
        <ele>655.4</ele>
        <time>2022-05-11T10:00:00.000Z</time>
      </trkpt>
      <trkpt lat="43.53693" lon="5.5704">
        <ele>656.5</ele>
        <time>2022-05-11T10:00:09.000Z</time>
      </trkpt>
      <trkpt lat="43.53691" lon="5.57046">
        <ele>657.8</ele>
        <time>2022-05-11T10:00:26.000Z</time>
      </trkpt>
      <trkpt lat="43.53691" lon="5.57046">
        <ele>657.8</ele>
        <time>2022-05-11T10:00:27.000Z</time>
      </trkpt>
      <trkpt lat="43.53689" lon="5.57051">
        <ele>659.1</ele>
        <time>2022-05-11T10:01:52.000Z</time>
      </trkpt>
      <trkpt lat="43.53685" lon="5.57055">
        <ele>660.8</ele>
        <time>2022-05-11T10:02:57.000Z</time>
      </trkpt>
      <trkpt lat="43.53679" lon="5.57061">
        <ele>663.5</ele>
        <time>2022-05-11T10:03:17.000Z</time>
      </trkpt>
      <trkpt lat="43.53676" lon="5.57063">
        <ele>664.7</ele>
        <time>2022-05-11T10:03:26.000Z</time>
      </trkpt>
      <trkpt lat="43.53673" lon="5.57068">
        <ele>665.7</ele>
        <time>2022-05-11T10:03:32.000Z</time>
      </trkpt>
      <trkpt lat="43.53671" lon="5.57073">
        <ele>666.4</ele>
        <time>2022-05-11T10:03:40.000Z</time>
      </trkpt>
      <trkpt lat="43.53669" lon="5.57078">
        <ele>667.6</ele>
        <time>2022-05-11T10:03:50.000Z</time>
      </trkpt>
      <trkpt lat="43.53666" lon="5.57083">
        <ele>668.6</ele>
        <time>2022-05-11T10:03:59.000Z</time>
      </trkpt>
      <trkpt lat="43.53666" lon="5.57083">
        <ele>668.7</ele>
        <time>2022-05-11T10:04:00.000Z</time>
      </trkpt>
      <trkpt lat="43.53661" lon="5.57092">
        <ele>670.1</ele>
        <time>2022-05-11T10:04:16.000Z</time>
      </trkpt>
      <trkpt lat="43.53658" lon="5.57097">
        <ele>672.3</ele>
        <time>2022-05-11T10:04:38.000Z</time>
      </trkpt>
      <trkpt lat="43.53657" lon="5.57102">
        <ele>673.6</ele>
        <time>2022-05-11T10:04:47.000Z</time>
      </trkpt>
      <trkpt lat="43.53655" lon="5.57108">
        <ele>675.1</ele>
        <time>2022-05-11T10:04:58.000Z</time>
      </trkpt>
      <trkpt lat="43.53655" lon="5.57114">
        <ele>675.6</ele>
        <time>2022-05-11T10:05:04.000Z</time>
      </trkpt>
      <trkpt lat="43.53655" lon="5.57115">
        <ele>675.7</ele>
        <time>2022-05-11T10:05:05.000Z</time>
      </trkpt>
      <trkpt lat="43.53652" lon="5.57124">
        <ele>677.1</ele>
        <time>2022-05-11T10:05:19.000Z</time>
      </trkpt>
      <trkpt lat="43.53652" lon="5.5713">
        <ele>678.5</ele>
        <time>2022-05-11T10:05:31.000Z</time>
      </trkpt>
      <trkpt lat="43.53649" lon="5.57134">
        <ele>679.6</ele>
        <time>2022-05-11T10:05:45.000Z</time>
      </trkpt>
      <trkpt lat="43.53649" lon="5.5714">
        <ele>680.2</ele>
        <time>2022-05-11T10:05:50.000Z</time>
      </trkpt>
      <trkpt lat="43.53649" lon="5.57146">
        <ele>681</ele>
        <time>2022-05-11T10:06:06.000Z</time>
      </trkpt>
      <trkpt lat="43.5365" lon="5.57146">
        <ele>681.1</ele>
        <time>2022-05-11T10:06:07.000Z</time>
      </trkpt>
      <trkpt lat="43.53646" lon="5.57156">
        <ele>682.8</ele>
        <time>2022-05-11T10:06:36.000Z</time>
      </trkpt>
      <trkpt lat="43.53647" lon="5.57162">
        <ele>685.3</ele>
        <time>2022-05-11T10:07:07.000Z</time>
      </trkpt>
      <trkpt lat="43.53647" lon="5.57162">
        <ele>685.4</ele>
        <time>2022-05-11T10:07:08.000Z</time>
      </trkpt>
      <trkpt lat="43.5364" lon="5.57155">
        <ele>687.6</ele>
        <time>2022-05-11T10:07:30.000Z</time>
      </trkpt>
      <trkpt lat="43.53639" lon="5.57149">
        <ele>687.9</ele>
        <time>2022-05-11T10:07:40.000Z</time>
      </trkpt>
      <trkpt lat="43.53638" lon="5.57144">
        <ele>687.9</ele>
        <time>2022-05-11T10:07:44.000Z</time>
      </trkpt>
      <trkpt lat="43.53635" lon="5.57141">
        <ele>688.2</ele>
        <time>2022-05-11T10:07:47.000Z</time>
      </trkpt>
      <trkpt lat="43.53631" lon="5.57141">
        <ele>688.6</ele>
        <time>2022-05-11T10:07:51.000Z</time>
      </trkpt>
      <trkpt lat="43.53629" lon="5.57136">
        <ele>688.8</ele>
        <time>2022-05-11T10:08:04.000Z</time>
      </trkpt>
      <trkpt lat="43.53629" lon="5.57142">
        <ele>689.6</ele>
        <time>2022-05-11T10:08:49.000Z</time>
      </trkpt>
      <trkpt lat="43.53629" lon="5.57142">
        <ele>689.7</ele>
        <time>2022-05-11T10:08:50.000Z</time>
      </trkpt>
      <trkpt lat="43.53627" lon="5.57153">
        <ele>691.5</ele>
        <time>2022-05-11T10:09:12.000Z</time>
      </trkpt>
      <trkpt lat="43.53629" lon="5.57158">
        <ele>691.2</ele>
        <time>2022-05-11T10:09:27.000Z</time>
      </trkpt>
      <trkpt lat="43.53629" lon="5.57164">
        <ele>691.2</ele>
        <time>2022-05-11T10:09:42.000Z</time>
      </trkpt>
      <trkpt lat="43.53626" lon="5.57168">
        <ele>693.2</ele>
        <time>2022-05-11T10:10:12.000Z</time>
      </trkpt>
      <trkpt lat="43.53626" lon="5.57169">
        <ele>693.2</ele>
        <time>2022-05-11T10:10:13.000Z</time>
      </trkpt>
      <trkpt lat="43.53621" lon="5.57178">
        <ele>695.7</ele>
        <time>2022-05-11T10:13:12.000Z</time>
      </trkpt>
      <trkpt lat="43.53621" lon="5.57178">
        <ele>695.8</ele>
        <time>2022-05-11T10:13:13.000Z</time>
      </trkpt>
      <trkpt lat="43.53617" lon="5.57188">
        <ele>699</ele>
        <time>2022-05-11T10:14:02.000Z</time>
      </trkpt>
      <trkpt lat="43.53613" lon="5.57189">
        <ele>699.6</ele>
        <time>2022-05-11T10:14:11.000Z</time>
      </trkpt>
      <trkpt lat="43.5361" lon="5.57194">
        <ele>700.4</ele>
        <time>2022-05-11T10:14:19.000Z</time>
      </trkpt>
      <trkpt lat="43.5361" lon="5.57194">
        <ele>700.5</ele>
        <time>2022-05-11T10:14:20.000Z</time>
      </trkpt>
      <trkpt lat="43.53607" lon="5.57203">
        <ele>702.2</ele>
        <time>2022-05-11T10:14:39.000Z</time>
      </trkpt>
      <trkpt lat="43.53603" lon="5.57206">
        <ele>703.2</ele>
        <time>2022-05-11T10:14:52.000Z</time>
      </trkpt>
      <trkpt lat="43.53599" lon="5.57206">
        <ele>703.6</ele>
        <time>2022-05-11T10:15:00.000Z</time>
      </trkpt>
      <trkpt lat="43.53595" lon="5.57203">
        <ele>704.4</ele>
        <time>2022-05-11T10:15:07.000Z</time>
      </trkpt>
      <trkpt lat="43.53591" lon="5.57202">
        <ele>705.5</ele>
        <time>2022-05-11T10:15:27.000Z</time>
      </trkpt>
      <trkpt lat="43.53591" lon="5.57201">
        <ele>705.6</ele>
        <time>2022-05-11T10:15:28.000Z</time>
      </trkpt>
      <trkpt lat="43.53586" lon="5.5721">
        <ele>706.7</ele>
        <time>2022-05-11T10:15:57.000Z</time>
      </trkpt>
      <trkpt lat="43.53583" lon="5.57214">
        <ele>707.2</ele>
        <time>2022-05-11T10:16:03.000Z</time>
      </trkpt>
      <trkpt lat="43.53579" lon="5.57215">
        <ele>707.7</ele>
        <time>2022-05-11T10:16:10.000Z</time>
      </trkpt>
      <trkpt lat="43.53575" lon="5.57217">
        <ele>708.7</ele>
        <time>2022-05-11T10:16:24.000Z</time>
      </trkpt>
      <trkpt lat="43.53571" lon="5.57221">
        <ele>709.7</ele>
        <time>2022-05-11T10:16:48.000Z</time>
      </trkpt>
      <trkpt lat="43.53571" lon="5.57221">
        <ele>709.7</ele>
        <time>2022-05-11T10:16:49.000Z</time>
      </trkpt>
      <trkpt lat="43.53567" lon="5.57221">
        <ele>710.1</ele>
        <time>2022-05-11T10:18:22.000Z</time>
      </trkpt>
      <trkpt lat="43.53561" lon="5.5723">
        <ele>710.7</ele>
        <time>2022-05-11T10:19:19.000Z</time>
      </trkpt>
      <trkpt lat="43.53558" lon="5.57235">
        <ele>711.3</ele>
        <time>2022-05-11T10:19:29.000Z</time>
      </trkpt>
      <trkpt lat="43.53558" lon="5.57235">
        <ele>711.4</ele>
        <time>2022-05-11T10:19:30.000Z</time>
      </trkpt>
      <trkpt lat="43.53553" lon="5.57242">
        <ele>712</ele>
        <time>2022-05-11T10:19:46.000Z</time>
      </trkpt>
      <trkpt lat="43.5355" lon="5.57246">
        <ele>712.7</ele>
        <time>2022-05-11T10:19:52.000Z</time>
      </trkpt>
      <trkpt lat="43.53548" lon="5.57251">
        <ele>713.6</ele>
        <time>2022-05-11T10:19:59.000Z</time>
      </trkpt>
      <trkpt lat="43.53545" lon="5.57255">
        <ele>714</ele>
        <time>2022-05-11T10:20:06.000Z</time>
      </trkpt>
      <trkpt lat="43.53541" lon="5.57257">
        <ele>714.5</ele>
        <time>2022-05-11T10:20:12.000Z</time>
      </trkpt>
      <trkpt lat="43.53538" lon="5.57261">
        <ele>715</ele>
        <time>2022-05-11T10:20:17.000Z</time>
      </trkpt>
      <trkpt lat="43.53534" lon="5.57263">
        <ele>716</ele>
        <time>2022-05-11T10:20:24.000Z</time>
      </trkpt>
      <trkpt lat="43.53532" lon="5.57267">
        <ele>716.5</ele>
        <time>2022-05-11T10:20:31.000Z</time>
      </trkpt>
      <trkpt lat="43.53531" lon="5.57268">
        <ele>716.7</ele>
        <time>2022-05-11T10:20:32.000Z</time>
      </trkpt>
      <trkpt lat="43.53528" lon="5.57277">
        <ele>718.1</ele>
        <time>2022-05-11T10:20:44.000Z</time>
      </trkpt>
      <trkpt lat="43.53524" lon="5.57278">
        <ele>720</ele>
        <time>2022-05-11T10:21:07.000Z</time>
      </trkpt>
      <trkpt lat="43.53521" lon="5.57283">
        <ele>720.7</ele>
        <time>2022-05-11T10:21:13.000Z</time>
      </trkpt>
      <trkpt lat="43.53517" lon="5.57285">
        <ele>721.8</ele>
        <time>2022-05-11T10:21:23.000Z</time>
      </trkpt>
      <trkpt lat="43.53513" lon="5.57286">
        <ele>722.1</ele>
        <time>2022-05-11T10:21:27.000Z</time>
      </trkpt>
      <trkpt lat="43.53511" lon="5.57292">
        <ele>723.2</ele>
        <time>2022-05-11T10:21:38.000Z</time>
      </trkpt>
      <trkpt lat="43.53511" lon="5.57292">
        <ele>723.3</ele>
        <time>2022-05-11T10:21:39.000Z</time>
      </trkpt>
      <trkpt lat="43.53509" lon="5.57302">
        <ele>724.8</ele>
        <time>2022-05-11T10:21:54.000Z</time>
      </trkpt>
      <trkpt lat="43.53506" lon="5.57306">
        <ele>725.5</ele>
        <time>2022-05-11T10:22:01.000Z</time>
      </trkpt>
      <trkpt lat="43.53505" lon="5.57312">
        <ele>727.1</ele>
        <time>2022-05-11T10:22:18.000Z</time>
      </trkpt>
      <trkpt lat="43.53501" lon="5.57313">
        <ele>727.9</ele>
        <time>2022-05-11T10:22:29.000Z</time>
      </trkpt>
      <trkpt lat="43.53497" lon="5.57313">
        <ele>728.1</ele>
        <time>2022-05-11T10:22:32.000Z</time>
      </trkpt>
      <trkpt lat="43.53494" lon="5.57314">
        <ele>728.4</ele>
        <time>2022-05-11T10:22:37.000Z</time>
      </trkpt>
      <trkpt lat="43.53489" lon="5.57314">
        <ele>729.2</ele>
        <time>2022-05-11T10:22:47.000Z</time>
      </trkpt>
      <trkpt lat="43.53489" lon="5.57314">
        <ele>729.3</ele>
        <time>2022-05-11T10:22:48.000Z</time>
      </trkpt>
      <trkpt lat="43.53482" lon="5.57319">
        <ele>731.2</ele>
        <time>2022-05-11T10:23:02.000Z</time>
      </trkpt>
      <trkpt lat="43.53478" lon="5.5732">
        <ele>732.3</ele>
        <time>2022-05-11T10:23:13.000Z</time>
      </trkpt>
      <trkpt lat="43.53474" lon="5.57323">
        <ele>733.6</ele>
        <time>2022-05-11T10:23:27.000Z</time>
      </trkpt>
      <trkpt lat="43.53471" lon="5.57327">
        <ele>734.9</ele>
        <time>2022-05-11T10:23:40.000Z</time>
      </trkpt>
      <trkpt lat="43.53468" lon="5.57331">
        <ele>735.6</ele>
        <time>2022-05-11T10:23:47.000Z</time>
      </trkpt>
      <trkpt lat="43.53465" lon="5.57336">
        <ele>737.2</ele>
        <time>2022-05-11T10:24:06.000Z</time>
      </trkpt>
      <trkpt lat="43.53465" lon="5.57336">
        <ele>737.2</ele>
        <time>2022-05-11T10:24:07.000Z</time>
      </trkpt>
      <trkpt lat="43.5346" lon="5.57334">
        <ele>738.4</ele>
        <time>2022-05-11T10:25:57.000Z</time>
      </trkpt>
      <trkpt lat="43.5346" lon="5.57333">
        <ele>738.4</ele>
        <time>2022-05-11T10:25:58.000Z</time>
      </trkpt>
      <trkpt lat="43.53458" lon="5.57345">
        <ele>739</ele>
        <time>2022-05-11T10:26:27.000Z</time>
      </trkpt>
      <trkpt lat="43.53457" lon="5.57351">
        <ele>739.9</ele>
        <time>2022-05-11T10:26:36.000Z</time>
      </trkpt>
      <trkpt lat="43.53453" lon="5.57353">
        <ele>740.6</ele>
        <time>2022-05-11T10:26:48.000Z</time>
      </trkpt>
      <trkpt lat="43.5345" lon="5.57356">
        <ele>741.3</ele>
        <time>2022-05-11T10:26:57.000Z</time>
      </trkpt>
      <trkpt lat="43.53447" lon="5.57356">
        <ele>741.5</ele>
        <time>2022-05-11T10:27:00.000Z</time>
      </trkpt>
      <trkpt lat="43.53445" lon="5.57356">
        <ele>741.5</ele>
        <time>2022-05-11T10:27:01.000Z</time>
      </trkpt>
      <trkpt lat="43.53439" lon="5.5736">
        <ele>743.4</ele>
        <time>2022-05-11T10:27:20.000Z</time>
      </trkpt>
      <trkpt lat="43.53435" lon="5.57361">
        <ele>744.5</ele>
        <time>2022-05-11T10:27:31.000Z</time>
      </trkpt>
      <trkpt lat="43.53431" lon="5.57362">
        <ele>745.3</ele>
        <time>2022-05-11T10:27:39.000Z</time>
      </trkpt>
      <trkpt lat="43.53427" lon="5.57364">
        <ele>745.9</ele>
        <time>2022-05-11T10:27:48.000Z</time>
      </trkpt>
      <trkpt lat="43.53423" lon="5.57363">
        <ele>746.4</ele>
        <time>2022-05-11T10:27:55.000Z</time>
      </trkpt>
      <trkpt lat="43.53419" lon="5.57361">
        <ele>747</ele>
        <time>2022-05-11T10:28:00.000Z</time>
      </trkpt>
      <trkpt lat="43.53415" lon="5.57358">
        <ele>748.1</ele>
        <time>2022-05-11T10:28:08.000Z</time>
      </trkpt>
      <trkpt lat="43.53414" lon="5.57358">
        <ele>748.2</ele>
        <time>2022-05-11T10:28:09.000Z</time>
      </trkpt>
      <trkpt lat="43.53407" lon="5.57362">
        <ele>750.3</ele>
        <time>2022-05-11T10:28:29.000Z</time>
      </trkpt>
      <trkpt lat="43.53404" lon="5.57366">
        <ele>751</ele>
        <time>2022-05-11T10:28:38.000Z</time>
      </trkpt>
      <trkpt lat="43.534" lon="5.57368">
        <ele>752.6</ele>
        <time>2022-05-11T10:28:52.000Z</time>
      </trkpt>
      <trkpt lat="43.53399" lon="5.57374">
        <ele>754.9</ele>
        <time>2022-05-11T10:29:12.000Z</time>
      </trkpt>
      <trkpt lat="43.53399" lon="5.57374">
        <ele>755</ele>
        <time>2022-05-11T10:29:13.000Z</time>
      </trkpt>
      <trkpt lat="43.53396" lon="5.57385">
        <ele>757.2</ele>
        <time>2022-05-11T10:29:35.000Z</time>
      </trkpt>
      <trkpt lat="43.53395" lon="5.57391">
        <ele>758.5</ele>
        <time>2022-05-11T10:29:50.000Z</time>
      </trkpt>
      <trkpt lat="43.53395" lon="5.57397">
        <ele>759.8</ele>
        <time>2022-05-11T10:30:02.000Z</time>
      </trkpt>
      <trkpt lat="43.53392" lon="5.57401">
        <ele>760.9</ele>
        <time>2022-05-11T10:30:12.000Z</time>
      </trkpt>
      <trkpt lat="43.53388" lon="5.57404">
        <ele>764.2</ele>
        <time>2022-05-11T10:30:38.000Z</time>
      </trkpt>
      <trkpt lat="43.53388" lon="5.57404">
        <ele>764.3</ele>
        <time>2022-05-11T10:30:39.000Z</time>
      </trkpt>
      <trkpt lat="43.5338" lon="5.57405">
        <ele>766.7</ele>
        <time>2022-05-11T10:31:06.000Z</time>
      </trkpt>
      <trkpt lat="43.53376" lon="5.57408">
        <ele>767.5</ele>
        <time>2022-05-11T10:31:36.000Z</time>
      </trkpt>
      <trkpt lat="43.53372" lon="5.57407">
        <ele>767.5</ele>
        <time>2022-05-11T10:32:12.000Z</time>
      </trkpt>
      <trkpt lat="43.53372" lon="5.57407">
        <ele>767.5</ele>
        <time>2022-05-11T10:32:13.000Z</time>
      </trkpt>
      <trkpt lat="43.53374" lon="5.57407">
        <ele>767.9</ele>
        <time>2022-05-11T10:34:12.000Z</time>
      </trkpt>
      <trkpt lat="43.53374" lon="5.57408">
        <ele>768</ele>
        <time>2022-05-11T10:34:13.000Z</time>
      </trkpt>
      <trkpt lat="43.53371" lon="5.57417">
        <ele>769.1</ele>
        <time>2022-05-11T10:34:35.000Z</time>
      </trkpt>
      <trkpt lat="43.53371" lon="5.57422">
        <ele>770.1</ele>
        <time>2022-05-11T10:34:46.000Z</time>
      </trkpt>
      <trkpt lat="43.53373" lon="5.57428">
        <ele>770.6</ele>
        <time>2022-05-11T10:34:56.000Z</time>
      </trkpt>
      <trkpt lat="43.53372" lon="5.57434">
        <ele>770.9</ele>
        <time>2022-05-11T10:35:02.000Z</time>
      </trkpt>
      <trkpt lat="43.5337" lon="5.57439">
        <ele>771.7</ele>
        <time>2022-05-11T10:35:15.000Z</time>
      </trkpt>
      <trkpt lat="43.5337" lon="5.57439">
        <ele>771.7</ele>
        <time>2022-05-11T10:35:16.000Z</time>
      </trkpt>
      <trkpt lat="43.53362" lon="5.57441">
        <ele>775.5</ele>
        <time>2022-05-11T10:36:11.000Z</time>
      </trkpt>
      <trkpt lat="43.53359" lon="5.57445">
        <ele>776.8</ele>
        <time>2022-05-11T10:36:31.000Z</time>
      </trkpt>
      <trkpt lat="43.53358" lon="5.57445">
        <ele>776.9</ele>
        <time>2022-05-11T10:36:32.000Z</time>
      </trkpt>
      <trkpt lat="43.53356" lon="5.57455">
        <ele>779.4</ele>
        <time>2022-05-11T10:36:55.000Z</time>
      </trkpt>
      <trkpt lat="43.53358" lon="5.5746">
        <ele>779.8</ele>
        <time>2022-05-11T10:37:00.000Z</time>
      </trkpt>
      <trkpt lat="43.53358" lon="5.57466">
        <ele>780.1</ele>
        <time>2022-05-11T10:37:09.000Z</time>
      </trkpt>
      <trkpt lat="43.53357" lon="5.57472">
        <ele>781.3</ele>
        <time>2022-05-11T10:37:33.000Z</time>
      </trkpt>
      <trkpt lat="43.53357" lon="5.57472">
        <ele>781.3</ele>
        <time>2022-05-11T10:37:34.000Z</time>
      </trkpt>
      <trkpt lat="43.53356" lon="5.57466">
        <ele>781.2</ele>
        <time>2022-05-11T10:40:05.000Z</time>
      </trkpt>
      <trkpt lat="43.53356" lon="5.57465">
        <ele>781.3</ele>
        <time>2022-05-11T10:40:06.000Z</time>
      </trkpt>
      <trkpt lat="43.53353" lon="5.57455">
        <ele>781.7</ele>
        <time>2022-05-11T10:41:02.000Z</time>
      </trkpt>
      <trkpt lat="43.5335" lon="5.57451">
        <ele>782</ele>
        <time>2022-05-11T10:41:14.000Z</time>
      </trkpt>
      <trkpt lat="43.5335" lon="5.57451">
        <ele>782</ele>
        <time>2022-05-11T10:41:15.000Z</time>
      </trkpt>
      <trkpt lat="43.53345" lon="5.57442">
        <ele>782</ele>
        <time>2022-05-11T10:41:31.000Z</time>
      </trkpt>
      <trkpt lat="43.53343" lon="5.57437">
        <ele>782.1</ele>
        <time>2022-05-11T10:41:41.000Z</time>
      </trkpt>
      <trkpt lat="43.53339" lon="5.57436">
        <ele>782.8</ele>
        <time>2022-05-11T10:41:48.000Z</time>
      </trkpt>
      <trkpt lat="43.53335" lon="5.57436">
        <ele>783.4</ele>
        <time>2022-05-11T10:41:54.000Z</time>
      </trkpt>
      <trkpt lat="43.53331" lon="5.57437">
        <ele>784.1</ele>
        <time>2022-05-11T10:42:01.000Z</time>
      </trkpt>
      <trkpt lat="43.53328" lon="5.57441">
        <ele>784.9</ele>
        <time>2022-05-11T10:42:10.000Z</time>
      </trkpt>
      <trkpt lat="43.53327" lon="5.57447">
        <ele>787.2</ele>
        <time>2022-05-11T10:42:23.000Z</time>
      </trkpt>
      <trkpt lat="43.53327" lon="5.57448">
        <ele>787.4</ele>
        <time>2022-05-11T10:42:24.000Z</time>
      </trkpt>
      <trkpt lat="43.53332" lon="5.57456">
        <ele>789.6</ele>
        <time>2022-05-11T10:42:46.000Z</time>
      </trkpt>
      <trkpt lat="43.53332" lon="5.57462">
        <ele>790.6</ele>
        <time>2022-05-11T10:43:06.000Z</time>
      </trkpt>
      <trkpt lat="43.53329" lon="5.57465">
        <ele>792.1</ele>
        <time>2022-05-11T10:43:22.000Z</time>
      </trkpt>
      <trkpt lat="43.53325" lon="5.57468">
        <ele>793.9</ele>
        <time>2022-05-11T10:43:40.000Z</time>
      </trkpt>
      <trkpt lat="43.53325" lon="5.57468">
        <ele>794</ele>
        <time>2022-05-11T10:43:41.000Z</time>
      </trkpt>
      <trkpt lat="43.53317" lon="5.57472">
        <ele>798.2</ele>
        <time>2022-05-11T10:44:28.000Z</time>
      </trkpt>
      <trkpt lat="43.53314" lon="5.57476">
        <ele>800.3</ele>
        <time>2022-05-11T10:44:59.000Z</time>
      </trkpt>
      <trkpt lat="43.53314" lon="5.57476">
        <ele>800.4</ele>
        <time>2022-05-11T10:45:00.000Z</time>
      </trkpt>
      <trkpt lat="43.53306" lon="5.5748">
        <ele>803.8</ele>
        <time>2022-05-11T10:45:48.000Z</time>
      </trkpt>
      <trkpt lat="43.53303" lon="5.57483">
        <ele>805.9</ele>
        <time>2022-05-11T10:46:47.000Z</time>
      </trkpt>
      <trkpt lat="43.53302" lon="5.57484">
        <ele>805.9</ele>
        <time>2022-05-11T10:46:48.000Z</time>
      </trkpt>
      <trkpt lat="43.53304" lon="5.57486">
        <ele>806.6</ele>
        <time>2022-05-11T10:47:41.000Z</time>
      </trkpt>
      <trkpt lat="43.53301" lon="5.57489">
        <ele>807.6</ele>
        <time>2022-05-11T10:47:55.000Z</time>
      </trkpt>
      <trkpt lat="43.533" lon="5.5749">
        <ele>807.6</ele>
        <time>2022-05-11T10:47:56.000Z</time>
      </trkpt>
      <trkpt lat="43.53295" lon="5.57498">
        <ele>811</ele>
        <time>2022-05-11T10:48:22.000Z</time>
      </trkpt>
      <trkpt lat="43.53293" lon="5.57504">
        <ele>812.4</ele>
        <time>2022-05-11T10:48:32.000Z</time>
      </trkpt>
      <trkpt lat="43.53291" lon="5.57509">
        <ele>813.6</ele>
        <time>2022-05-11T10:48:42.000Z</time>
      </trkpt>
      <trkpt lat="43.53288" lon="5.57512">
        <ele>814.9</ele>
        <time>2022-05-11T10:48:55.000Z</time>
      </trkpt>
      <trkpt lat="43.53285" lon="5.57516">
        <ele>815.8</ele>
        <time>2022-05-11T10:49:06.000Z</time>
      </trkpt>
      <trkpt lat="43.53284" lon="5.57516">
        <ele>815.9</ele>
        <time>2022-05-11T10:49:07.000Z</time>
      </trkpt>
      <trkpt lat="43.53277" lon="5.57522">
        <ele>818.8</ele>
        <time>2022-05-11T10:49:34.000Z</time>
      </trkpt>
      <trkpt lat="43.53276" lon="5.57528">
        <ele>821.1</ele>
        <time>2022-05-11T10:50:26.000Z</time>
      </trkpt>
      <trkpt lat="43.53276" lon="5.57528">
        <ele>821</ele>
        <time>2022-05-11T10:50:27.000Z</time>
      </trkpt>
      <trkpt lat="43.53273" lon="5.57524">
        <ele>819.2</ele>
        <time>2022-05-11T10:53:01.000Z</time>
      </trkpt>
      <trkpt lat="43.53273" lon="5.57524">
        <ele>819.2</ele>
        <time>2022-05-11T10:53:02.000Z</time>
      </trkpt>
      <trkpt lat="43.53268" lon="5.57534">
        <ele>823</ele>
        <time>2022-05-11T10:54:05.000Z</time>
      </trkpt>
      <trkpt lat="43.53267" lon="5.57534">
        <ele>823.1</ele>
        <time>2022-05-11T10:54:06.000Z</time>
      </trkpt>
      <trkpt lat="43.53262" lon="5.57542">
        <ele>825.6</ele>
        <time>2022-05-11T10:54:47.000Z</time>
      </trkpt>
      <trkpt lat="43.53258" lon="5.57543">
        <ele>827.6</ele>
        <time>2022-05-11T10:55:19.000Z</time>
      </trkpt>
      <trkpt lat="43.53258" lon="5.57543">
        <ele>827.7</ele>
        <time>2022-05-11T10:55:20.000Z</time>
      </trkpt>
      <trkpt lat="43.53252" lon="5.57548">
        <ele>829.9</ele>
        <time>2022-05-11T10:55:53.000Z</time>
      </trkpt>
      <trkpt lat="43.5325" lon="5.57552">
        <ele>831.6</ele>
        <time>2022-05-11T10:56:05.000Z</time>
      </trkpt>
      <trkpt lat="43.53246" lon="5.57555">
        <ele>832.8</ele>
        <time>2022-05-11T10:56:12.000Z</time>
      </trkpt>
      <trkpt lat="43.53244" lon="5.5756">
        <ele>835</ele>
        <time>2022-05-11T10:56:29.000Z</time>
      </trkpt>
      <trkpt lat="43.53243" lon="5.5756">
        <ele>835.1</ele>
        <time>2022-05-11T10:56:30.000Z</time>
      </trkpt>
      <trkpt lat="43.5324" lon="5.57571">
        <ele>838.4</ele>
        <time>2022-05-11T10:57:19.000Z</time>
      </trkpt>
      <trkpt lat="43.53238" lon="5.57577">
        <ele>838.6</ele>
        <time>2022-05-11T10:57:35.000Z</time>
      </trkpt>
      <trkpt lat="43.53238" lon="5.57577">
        <ele>838.6</ele>
        <time>2022-05-11T10:57:36.000Z</time>
      </trkpt>
      <trkpt lat="43.53231" lon="5.57581">
        <ele>840</ele>
        <time>2022-05-11T10:58:07.000Z</time>
      </trkpt>
      <trkpt lat="43.53226" lon="5.57581">
        <ele>842.4</ele>
        <time>2022-05-11T10:58:36.000Z</time>
      </trkpt>
      <trkpt lat="43.53224" lon="5.57587">
        <ele>843.3</ele>
        <time>2022-05-11T10:58:48.000Z</time>
      </trkpt>
      <trkpt lat="43.53225" lon="5.57587">
        <ele>843.4</ele>
        <time>2022-05-11T10:58:49.000Z</time>
      </trkpt>
      <trkpt lat="43.5322" lon="5.57596">
        <ele>846.3</ele>
        <time>2022-05-11T10:59:23.000Z</time>
      </trkpt>
      <trkpt lat="43.53216" lon="5.57599">
        <ele>847.3</ele>
        <time>2022-05-11T10:59:37.000Z</time>
      </trkpt>
      <trkpt lat="43.53214" lon="5.57603">
        <ele>848.3</ele>
        <time>2022-05-11T10:59:51.000Z</time>
      </trkpt>
      <trkpt lat="43.53214" lon="5.57604">
        <ele>848.4</ele>
        <time>2022-05-11T10:59:52.000Z</time>
      </trkpt>
      <trkpt lat="43.53213" lon="5.57615">
        <ele>850.2</ele>
        <time>2022-05-11T11:00:09.000Z</time>
      </trkpt>
      <trkpt lat="43.53214" lon="5.57621">
        <ele>851.1</ele>
        <time>2022-05-11T11:00:18.000Z</time>
      </trkpt>
      <trkpt lat="43.53214" lon="5.57626">
        <ele>851.6</ele>
        <time>2022-05-11T11:00:24.000Z</time>
      </trkpt>
      <trkpt lat="43.53213" lon="5.57632">
        <ele>852.1</ele>
        <time>2022-05-11T11:00:32.000Z</time>
      </trkpt>
      <trkpt lat="43.5321" lon="5.57637">
        <ele>853.3</ele>
        <time>2022-05-11T11:00:45.000Z</time>
      </trkpt>
      <trkpt lat="43.53209" lon="5.57642">
        <ele>854.4</ele>
        <time>2022-05-11T11:00:55.000Z</time>
      </trkpt>
      <trkpt lat="43.53209" lon="5.57643">
        <ele>854.5</ele>
        <time>2022-05-11T11:00:56.000Z</time>
      </trkpt>
      <trkpt lat="43.53208" lon="5.57653">
        <ele>855.5</ele>
        <time>2022-05-11T11:01:09.000Z</time>
      </trkpt>
      <trkpt lat="43.53206" lon="5.57659">
        <ele>856.7</ele>
        <time>2022-05-11T11:01:28.000Z</time>
      </trkpt>
      <trkpt lat="43.53204" lon="5.57664">
        <ele>858.3</ele>
        <time>2022-05-11T11:01:51.000Z</time>
      </trkpt>
      <trkpt lat="43.53202" lon="5.57669">
        <ele>858.5</ele>
        <time>2022-05-11T11:01:58.000Z</time>
      </trkpt>
      <trkpt lat="43.53201" lon="5.5767">
        <ele>858.5</ele>
        <time>2022-05-11T11:01:59.000Z</time>
      </trkpt>
      <trkpt lat="43.53198" lon="5.57679">
        <ele>858.7</ele>
        <time>2022-05-11T11:02:10.000Z</time>
      </trkpt>
      <trkpt lat="43.53198" lon="5.57685">
        <ele>859</ele>
        <time>2022-05-11T11:02:19.000Z</time>
      </trkpt>
      <trkpt lat="43.53196" lon="5.5769">
        <ele>859.3</ele>
        <time>2022-05-11T11:02:25.000Z</time>
      </trkpt>
      <trkpt lat="43.53194" lon="5.57695">
        <ele>859.9</ele>
        <time>2022-05-11T11:02:32.000Z</time>
      </trkpt>
      <trkpt lat="43.53193" lon="5.57701">
        <ele>860.4</ele>
        <time>2022-05-11T11:02:38.000Z</time>
      </trkpt>
      <trkpt lat="43.53191" lon="5.57706">
        <ele>860.9</ele>
        <time>2022-05-11T11:02:47.000Z</time>
      </trkpt>
      <trkpt lat="43.53188" lon="5.57711">
        <ele>861.5</ele>
        <time>2022-05-11T11:02:55.000Z</time>
      </trkpt>
      <trkpt lat="43.53188" lon="5.57717">
        <ele>862</ele>
        <time>2022-05-11T11:03:01.000Z</time>
      </trkpt>
      <trkpt lat="43.53188" lon="5.57718">
        <ele>862.1</ele>
        <time>2022-05-11T11:03:02.000Z</time>
      </trkpt>
      <trkpt lat="43.53184" lon="5.57727">
        <ele>864.1</ele>
        <time>2022-05-11T11:03:18.000Z</time>
      </trkpt>
      <trkpt lat="43.53183" lon="5.57732">
        <ele>864.4</ele>
        <time>2022-05-11T11:03:22.000Z</time>
      </trkpt>
      <trkpt lat="43.53183" lon="5.57737">
        <ele>864.8</ele>
        <time>2022-05-11T11:03:27.000Z</time>
      </trkpt>
      <trkpt lat="43.53184" lon="5.57743">
        <ele>865</ele>
        <time>2022-05-11T11:03:35.000Z</time>
      </trkpt>
      <trkpt lat="43.53183" lon="5.57749">
        <ele>865.3</ele>
        <time>2022-05-11T11:03:44.000Z</time>
      </trkpt>
      <trkpt lat="43.53182" lon="5.57755">
        <ele>865.9</ele>
        <time>2022-05-11T11:03:55.000Z</time>
      </trkpt>
      <trkpt lat="43.53182" lon="5.5776">
        <ele>866.6</ele>
        <time>2022-05-11T11:04:03.000Z</time>
      </trkpt>
      <trkpt lat="43.53182" lon="5.57761">
        <ele>866.5</ele>
        <time>2022-05-11T11:04:04.000Z</time>
      </trkpt>
      <trkpt lat="43.53184" lon="5.57771">
        <ele>866.5</ele>
        <time>2022-05-11T11:04:14.000Z</time>
      </trkpt>
      <trkpt lat="43.53182" lon="5.57777">
        <ele>867</ele>
        <time>2022-05-11T11:04:23.000Z</time>
      </trkpt>
      <trkpt lat="43.53181" lon="5.57782">
        <ele>867.5</ele>
        <time>2022-05-11T11:04:29.000Z</time>
      </trkpt>
      <trkpt lat="43.5318" lon="5.57788">
        <ele>867.7</ele>
        <time>2022-05-11T11:04:34.000Z</time>
      </trkpt>
      <trkpt lat="43.53179" lon="5.57794">
        <ele>867.9</ele>
        <time>2022-05-11T11:04:42.000Z</time>
      </trkpt>
      <trkpt lat="43.53179" lon="5.578">
        <ele>868.8</ele>
        <time>2022-05-11T11:04:52.000Z</time>
      </trkpt>
      <trkpt lat="43.53177" lon="5.57805">
        <ele>869.8</ele>
        <time>2022-05-11T11:05:06.000Z</time>
      </trkpt>
      <trkpt lat="43.53176" lon="5.57806">
        <ele>869.8</ele>
        <time>2022-05-11T11:05:07.000Z</time>
      </trkpt>
      <trkpt lat="43.53171" lon="5.57813">
        <ele>871.1</ele>
        <time>2022-05-11T11:05:21.000Z</time>
      </trkpt>
      <trkpt lat="43.53168" lon="5.57815">
        <ele>871</ele>
        <time>2022-05-11T11:05:26.000Z</time>
      </trkpt>
      <trkpt lat="43.53166" lon="5.5782">
        <ele>872.5</ele>
        <time>2022-05-11T11:05:37.000Z</time>
      </trkpt>
      <trkpt lat="43.53168" lon="5.57825">
        <ele>872.4</ele>
        <time>2022-05-11T11:05:43.000Z</time>
      </trkpt>
      <trkpt lat="43.53167" lon="5.57829">
        <ele>872</ele>
        <time>2022-05-11T11:05:47.000Z</time>
      </trkpt>
      <trkpt lat="43.53165" lon="5.57834">
        <ele>872</ele>
        <time>2022-05-11T11:05:50.000Z</time>
      </trkpt>
      <trkpt lat="43.53162" lon="5.57837">
        <ele>872</ele>
        <time>2022-05-11T11:05:53.000Z</time>
      </trkpt>
      <trkpt lat="43.53159" lon="5.57839">
        <ele>871.9</ele>
        <time>2022-05-11T11:05:56.000Z</time>
      </trkpt>
      <trkpt lat="43.53155" lon="5.5784">
        <ele>871.9</ele>
        <time>2022-05-11T11:05:59.000Z</time>
      </trkpt>
      <trkpt lat="43.53156" lon="5.57846">
        <ele>871.9</ele>
        <time>2022-05-11T11:06:07.000Z</time>
      </trkpt>
      <trkpt lat="43.53156" lon="5.57847">
        <ele>871.9</ele>
        <time>2022-05-11T11:06:08.000Z</time>
      </trkpt>
      <trkpt lat="43.53176" lon="5.57831">
        <ele>875</ele>
        <time>2022-05-11T12:11:11.000Z</time>
      </trkpt>
      <trkpt lat="43.53181" lon="5.57831">
        <ele>875</ele>
        <time>2022-05-11T12:11:15.000Z</time>
      </trkpt>
      <trkpt lat="43.5317" lon="5.57832">
        <ele>875.5</ele>
        <time>2022-05-11T12:11:19.000Z</time>
      </trkpt>
      <trkpt lat="43.53169" lon="5.57831">
        <ele>875</ele>
        <time>2022-05-11T12:11:21.000Z</time>
      </trkpt>
      <trkpt lat="43.53163" lon="5.57832">
        <ele>875</ele>
        <time>2022-05-11T12:11:25.000Z</time>
      </trkpt>
      <trkpt lat="43.53165" lon="5.5783">
        <ele>875.5</ele>
        <time>2022-05-11T12:11:45.000Z</time>
      </trkpt>
      <trkpt lat="43.53166" lon="5.57836">
        <ele>875.3</ele>
        <time>2022-05-11T12:11:57.000Z</time>
      </trkpt>
      <trkpt lat="43.53168" lon="5.57832">
        <ele>875.1</ele>
        <time>2022-05-11T12:12:11.000Z</time>
      </trkpt>
      <trkpt lat="43.53167" lon="5.57825">
        <ele>875</ele>
        <time>2022-05-11T12:12:14.000Z</time>
      </trkpt>
      <trkpt lat="43.5317" lon="5.57822">
        <ele>875.1</ele>
        <time>2022-05-11T12:12:22.000Z</time>
      </trkpt>
      <trkpt lat="43.53169" lon="5.57818">
        <ele>875.2</ele>
        <time>2022-05-11T12:12:38.000Z</time>
      </trkpt>
      <trkpt lat="43.53167" lon="5.57816">
        <ele>875</ele>
        <time>2022-05-11T12:12:40.000Z</time>
      </trkpt>
      <trkpt lat="43.53166" lon="5.5781">
        <ele>875.2</ele>
        <time>2022-05-11T12:12:44.000Z</time>
      </trkpt>
      <trkpt lat="43.53167" lon="5.57805">
        <ele>875</ele>
        <time>2022-05-11T12:12:49.000Z</time>
      </trkpt>
      <trkpt lat="43.53171" lon="5.57806">
        <ele>875</ele>
        <time>2022-05-11T12:13:05.000Z</time>
      </trkpt>
      <trkpt lat="43.53181" lon="5.57813">
        <ele>875</ele>
        <time>2022-05-11T12:13:16.000Z</time>
      </trkpt>
      <trkpt lat="43.53179" lon="5.57811">
        <ele>875</ele>
        <time>2022-05-11T12:13:23.000Z</time>
      </trkpt>
      <trkpt lat="43.53179" lon="5.57816">
        <ele>875</ele>
        <time>2022-05-11T12:13:39.000Z</time>
      </trkpt>
      <trkpt lat="43.53182" lon="5.57812">
        <ele>874.8</ele>
        <time>2022-05-11T12:13:53.000Z</time>
      </trkpt>
      <trkpt lat="43.53182" lon="5.57808">
        <ele>874</ele>
        <time>2022-05-11T12:13:55.000Z</time>
      </trkpt>
      <trkpt lat="43.5318" lon="5.57806">
        <ele>873</ele>
        <time>2022-05-11T12:14:06.000Z</time>
      </trkpt>
      <trkpt lat="43.53183" lon="5.57804">
        <ele>872.2</ele>
        <time>2022-05-11T12:14:25.000Z</time>
      </trkpt>
      <trkpt lat="43.53185" lon="5.57799">
        <ele>871.5</ele>
        <time>2022-05-11T12:14:45.000Z</time>
      </trkpt>
      <trkpt lat="43.53185" lon="5.57799">
        <ele>871.5</ele>
        <time>2022-05-11T12:14:46.000Z</time>
      </trkpt>
      <trkpt lat="43.53185" lon="5.57788">
        <ele>871</ele>
        <time>2022-05-11T12:15:11.000Z</time>
      </trkpt>
      <trkpt lat="43.53185" lon="5.57782">
        <ele>871.6</ele>
        <time>2022-05-11T12:15:16.000Z</time>
      </trkpt>
      <trkpt lat="43.53186" lon="5.57776">
        <ele>871.5</ele>
        <time>2022-05-11T12:15:26.000Z</time>
      </trkpt>
      <trkpt lat="43.53185" lon="5.57772">
        <ele>871.4</ele>
        <time>2022-05-11T12:15:30.000Z</time>
      </trkpt>
      <trkpt lat="43.53184" lon="5.57766">
        <ele>871.1</ele>
        <time>2022-05-11T12:15:35.000Z</time>
      </trkpt>
      <trkpt lat="43.53185" lon="5.57764">
        <ele>870.6</ele>
        <time>2022-05-11T12:15:43.000Z</time>
      </trkpt>
      <trkpt lat="43.53186" lon="5.57759">
        <ele>870</ele>
        <time>2022-05-11T12:15:45.000Z</time>
      </trkpt>
      <trkpt lat="43.53186" lon="5.57753">
        <ele>870.2</ele>
        <time>2022-05-11T12:15:50.000Z</time>
      </trkpt>
      <trkpt lat="43.53187" lon="5.57748">
        <ele>870</ele>
        <time>2022-05-11T12:15:57.000Z</time>
      </trkpt>
      <trkpt lat="43.53187" lon="5.57742">
        <ele>869.6</ele>
        <time>2022-05-11T12:16:02.000Z</time>
      </trkpt>
      <trkpt lat="43.53186" lon="5.57737">
        <ele>869.2</ele>
        <time>2022-05-11T12:16:06.000Z</time>
      </trkpt>
      <trkpt lat="43.53188" lon="5.57732">
        <ele>867.2</ele>
        <time>2022-05-11T12:16:25.000Z</time>
      </trkpt>
      <trkpt lat="43.53186" lon="5.57727">
        <ele>866</ele>
        <time>2022-05-11T12:16:43.000Z</time>
      </trkpt>
      <trkpt lat="43.53188" lon="5.57722">
        <ele>866</ele>
        <time>2022-05-11T12:17:14.000Z</time>
      </trkpt>
      <trkpt lat="43.53189" lon="5.57722">
        <ele>866</ele>
        <time>2022-05-11T12:17:15.000Z</time>
      </trkpt>
      <trkpt lat="43.53194" lon="5.57716">
        <ele>865.5</ele>
        <time>2022-05-11T12:17:26.000Z</time>
      </trkpt>
      <trkpt lat="43.53197" lon="5.57712">
        <ele>865.3</ele>
        <time>2022-05-11T12:17:33.000Z</time>
      </trkpt>
      <trkpt lat="43.53198" lon="5.57708">
        <ele>865</ele>
        <time>2022-05-11T12:17:39.000Z</time>
      </trkpt>
      <trkpt lat="43.532" lon="5.57703">
        <ele>864.8</ele>
        <time>2022-05-11T12:17:44.000Z</time>
      </trkpt>
      <trkpt lat="43.53199" lon="5.57699">
        <ele>864.7</ele>
        <time>2022-05-11T12:17:46.000Z</time>
      </trkpt>
      <trkpt lat="43.53199" lon="5.57694">
        <ele>864.5</ele>
        <time>2022-05-11T12:17:49.000Z</time>
      </trkpt>
      <trkpt lat="43.53201" lon="5.57688">
        <ele>863.7</ele>
        <time>2022-05-11T12:17:54.000Z</time>
      </trkpt>
      <trkpt lat="43.532" lon="5.57682">
        <ele>862.9</ele>
        <time>2022-05-11T12:18:07.000Z</time>
      </trkpt>
      <trkpt lat="43.532" lon="5.57676">
        <ele>862.7</ele>
        <time>2022-05-11T12:18:15.000Z</time>
      </trkpt>
      <trkpt lat="43.53201" lon="5.5767">
        <ele>862.5</ele>
        <time>2022-05-11T12:18:25.000Z</time>
      </trkpt>
      <trkpt lat="43.53202" lon="5.5767">
        <ele>862.5</ele>
        <time>2022-05-11T12:18:26.000Z</time>
      </trkpt>
      <trkpt lat="43.53206" lon="5.57664">
        <ele>862.3</ele>
        <time>2022-05-11T12:18:35.000Z</time>
      </trkpt>
      <trkpt lat="43.53207" lon="5.57658">
        <ele>862.1</ele>
        <time>2022-05-11T12:18:41.000Z</time>
      </trkpt>
      <trkpt lat="43.53209" lon="5.57653">
        <ele>861.4</ele>
        <time>2022-05-11T12:18:50.000Z</time>
      </trkpt>
      <trkpt lat="43.53211" lon="5.57648">
        <ele>860.7</ele>
        <time>2022-05-11T12:18:59.000Z</time>
      </trkpt>
      <trkpt lat="43.53211" lon="5.57642">
        <ele>860.3</ele>
        <time>2022-05-11T12:19:06.000Z</time>
      </trkpt>
      <trkpt lat="43.53212" lon="5.57636">
        <ele>859</ele>
        <time>2022-05-11T12:19:21.000Z</time>
      </trkpt>
      <trkpt lat="43.53213" lon="5.5763">
        <ele>858.5</ele>
        <time>2022-05-11T12:19:27.000Z</time>
      </trkpt>
      <trkpt lat="43.53213" lon="5.57629">
        <ele>858.4</ele>
        <time>2022-05-11T12:19:28.000Z</time>
      </trkpt>
      <trkpt lat="43.53214" lon="5.57619">
        <ele>857.5</ele>
        <time>2022-05-11T12:19:38.000Z</time>
      </trkpt>
      <trkpt lat="43.53216" lon="5.57614">
        <ele>856.3</ele>
        <time>2022-05-11T12:19:50.000Z</time>
      </trkpt>
      <trkpt lat="43.53215" lon="5.57609">
        <ele>855.1</ele>
        <time>2022-05-11T12:19:59.000Z</time>
      </trkpt>
      <trkpt lat="43.53215" lon="5.57603">
        <ele>854.5</ele>
        <time>2022-05-11T12:20:03.000Z</time>
      </trkpt>
      <trkpt lat="43.53219" lon="5.57602">
        <ele>851.8</ele>
        <time>2022-05-11T12:20:18.000Z</time>
      </trkpt>
      <trkpt lat="43.53222" lon="5.57598">
        <ele>850.6</ele>
        <time>2022-05-11T12:20:39.000Z</time>
      </trkpt>
      <trkpt lat="43.53223" lon="5.57598">
        <ele>850.6</ele>
        <time>2022-05-11T12:20:40.000Z</time>
      </trkpt>
      <trkpt lat="43.53226" lon="5.57587">
        <ele>848.9</ele>
        <time>2022-05-11T12:21:11.000Z</time>
      </trkpt>
      <trkpt lat="43.53224" lon="5.57582">
        <ele>848.6</ele>
        <time>2022-05-11T12:21:18.000Z</time>
      </trkpt>
      <trkpt lat="43.53228" lon="5.57579">
        <ele>846.5</ele>
        <time>2022-05-11T12:21:50.000Z</time>
      </trkpt>
      <trkpt lat="43.53228" lon="5.57579">
        <ele>846.4</ele>
        <time>2022-05-11T12:21:51.000Z</time>
      </trkpt>
      <trkpt lat="43.53234" lon="5.57577">
        <ele>844.3</ele>
        <time>2022-05-11T12:22:15.000Z</time>
      </trkpt>
      <trkpt lat="43.53238" lon="5.57577">
        <ele>842.5</ele>
        <time>2022-05-11T12:22:32.000Z</time>
      </trkpt>
      <trkpt lat="43.53241" lon="5.57573">
        <ele>839.9</ele>
        <time>2022-05-11T12:22:59.000Z</time>
      </trkpt>
      <trkpt lat="43.53242" lon="5.57574">
        <ele>839.9</ele>
        <time>2022-05-11T12:23:00.000Z</time>
      </trkpt>
      <trkpt lat="43.53246" lon="5.57563">
        <ele>837.1</ele>
        <time>2022-05-11T12:23:52.000Z</time>
      </trkpt>
      <trkpt lat="43.53248" lon="5.57558">
        <ele>835.8</ele>
        <time>2022-05-11T12:25:21.000Z</time>
      </trkpt>
      <trkpt lat="43.53248" lon="5.57557">
        <ele>835.8</ele>
        <time>2022-05-11T12:25:22.000Z</time>
      </trkpt>
      <trkpt lat="43.53253" lon="5.5755">
        <ele>833</ele>
        <time>2022-05-11T12:26:15.000Z</time>
      </trkpt>
      <trkpt lat="43.53257" lon="5.57549">
        <ele>831.3</ele>
        <time>2022-05-11T12:26:48.000Z</time>
      </trkpt>
      <trkpt lat="43.53258" lon="5.57549">
        <ele>831.2</ele>
        <time>2022-05-11T12:26:49.000Z</time>
      </trkpt>
      <trkpt lat="43.53262" lon="5.5754">
        <ele>829.3</ele>
        <time>2022-05-11T12:27:45.000Z</time>
      </trkpt>
      <trkpt lat="43.53265" lon="5.57535">
        <ele>826.9</ele>
        <time>2022-05-11T12:28:27.000Z</time>
      </trkpt>
      <trkpt lat="43.53265" lon="5.57535">
        <ele>826.9</ele>
        <time>2022-05-11T12:28:28.000Z</time>
      </trkpt>
      <trkpt lat="43.53272" lon="5.57529">
        <ele>824.5</ele>
        <time>2022-05-11T12:29:00.000Z</time>
      </trkpt>
      <trkpt lat="43.53276" lon="5.57526">
        <ele>822.3</ele>
        <time>2022-05-11T12:29:24.000Z</time>
      </trkpt>
      <trkpt lat="43.5328" lon="5.57526">
        <ele>820.6</ele>
        <time>2022-05-11T12:29:43.000Z</time>
      </trkpt>
      <trkpt lat="43.5328" lon="5.57526">
        <ele>820.5</ele>
        <time>2022-05-11T12:29:44.000Z</time>
      </trkpt>
      <trkpt lat="43.53285" lon="5.57516">
        <ele>817.4</ele>
        <time>2022-05-11T12:30:31.000Z</time>
      </trkpt>
      <trkpt lat="43.53288" lon="5.57511">
        <ele>817</ele>
        <time>2022-05-11T12:30:42.000Z</time>
      </trkpt>
      <trkpt lat="43.53291" lon="5.57507">
        <ele>815.4</ele>
        <time>2022-05-11T12:30:57.000Z</time>
      </trkpt>
      <trkpt lat="43.53291" lon="5.57507">
        <ele>815.3</ele>
        <time>2022-05-11T12:30:58.000Z</time>
      </trkpt>
      <trkpt lat="43.53297" lon="5.57499">
        <ele>812.8</ele>
        <time>2022-05-11T12:31:18.000Z</time>
      </trkpt>
      <trkpt lat="43.53301" lon="5.57498">
        <ele>811.2</ele>
        <time>2022-05-11T12:31:31.000Z</time>
      </trkpt>
      <trkpt lat="43.53303" lon="5.57492">
        <ele>810</ele>
        <time>2022-05-11T12:31:45.000Z</time>
      </trkpt>
      <trkpt lat="43.53303" lon="5.57487">
        <ele>809.6</ele>
        <time>2022-05-11T12:31:52.000Z</time>
      </trkpt>
      <trkpt lat="43.53304" lon="5.57481">
        <ele>809</ele>
        <time>2022-05-11T12:32:10.000Z</time>
      </trkpt>
      <trkpt lat="43.53304" lon="5.57481">
        <ele>808.9</ele>
        <time>2022-05-11T12:32:11.000Z</time>
      </trkpt>
      <trkpt lat="43.5331" lon="5.57477">
        <ele>804.7</ele>
        <time>2022-05-11T12:33:12.000Z</time>
      </trkpt>
      <trkpt lat="43.5331" lon="5.57477">
        <ele>804.7</ele>
        <time>2022-05-11T12:33:13.000Z</time>
      </trkpt>
      <trkpt lat="43.53318" lon="5.57477">
        <ele>801</ele>
        <time>2022-05-11T12:33:53.000Z</time>
      </trkpt>
      <trkpt lat="43.5332" lon="5.57472">
        <ele>799.3</ele>
        <time>2022-05-11T12:34:23.000Z</time>
      </trkpt>
      <trkpt lat="43.5332" lon="5.57472">
        <ele>799.3</ele>
        <time>2022-05-11T12:34:24.000Z</time>
      </trkpt>
      <trkpt lat="43.53328" lon="5.57467">
        <ele>796.7</ele>
        <time>2022-05-11T12:35:25.000Z</time>
      </trkpt>
      <trkpt lat="43.53328" lon="5.57467">
        <ele>796.7</ele>
        <time>2022-05-11T12:35:26.000Z</time>
      </trkpt>
      <trkpt lat="43.53333" lon="5.5746">
        <ele>795.1</ele>
        <time>2022-05-11T12:36:05.000Z</time>
      </trkpt>
      <trkpt lat="43.53331" lon="5.57455">
        <ele>795</ele>
        <time>2022-05-11T12:36:12.000Z</time>
      </trkpt>
      <trkpt lat="43.53329" lon="5.5745">
        <ele>794.5</ele>
        <time>2022-05-11T12:36:31.000Z</time>
      </trkpt>
      <trkpt lat="43.53329" lon="5.57449">
        <ele>794.4</ele>
        <time>2022-05-11T12:36:32.000Z</time>
      </trkpt>
      <trkpt lat="43.53332" lon="5.57441">
        <ele>793.1</ele>
        <time>2022-05-11T12:36:48.000Z</time>
      </trkpt>
      <trkpt lat="43.53336" lon="5.57439">
        <ele>792.4</ele>
        <time>2022-05-11T12:36:55.000Z</time>
      </trkpt>
      <trkpt lat="43.5334" lon="5.5744">
        <ele>791.7</ele>
        <time>2022-05-11T12:37:01.000Z</time>
      </trkpt>
      <trkpt lat="43.53343" lon="5.57443">
        <ele>791</ele>
        <time>2022-05-11T12:37:07.000Z</time>
      </trkpt>
      <trkpt lat="43.53346" lon="5.57446">
        <ele>790.5</ele>
        <time>2022-05-11T12:37:12.000Z</time>
      </trkpt>
      <trkpt lat="43.53349" lon="5.57451">
        <ele>790</ele>
        <time>2022-05-11T12:37:18.000Z</time>
      </trkpt>
      <trkpt lat="43.53351" lon="5.57455">
        <ele>789.5</ele>
        <time>2022-05-11T12:37:23.000Z</time>
      </trkpt>
      <trkpt lat="43.53354" lon="5.5746">
        <ele>788.8</ele>
        <time>2022-05-11T12:37:31.000Z</time>
      </trkpt>
      <trkpt lat="43.53356" lon="5.57465">
        <ele>788.2</ele>
        <time>2022-05-11T12:37:38.000Z</time>
      </trkpt>
      <trkpt lat="43.53356" lon="5.57465">
        <ele>788.2</ele>
        <time>2022-05-11T12:37:39.000Z</time>
      </trkpt>
      <trkpt lat="43.53362" lon="5.57465">
        <ele>786.1</ele>
        <time>2022-05-11T12:38:02.000Z</time>
      </trkpt>
      <trkpt lat="43.53361" lon="5.57459">
        <ele>785</ele>
        <time>2022-05-11T12:38:14.000Z</time>
      </trkpt>
      <trkpt lat="43.5336" lon="5.57453">
        <ele>783.8</ele>
        <time>2022-05-11T12:38:34.000Z</time>
      </trkpt>
      <trkpt lat="43.53359" lon="5.57447">
        <ele>781.4</ele>
        <time>2022-05-11T12:39:03.000Z</time>
      </trkpt>
      <trkpt lat="43.53359" lon="5.57447">
        <ele>781.4</ele>
        <time>2022-05-11T12:39:04.000Z</time>
      </trkpt>
      <trkpt lat="43.53366" lon="5.57441">
        <ele>779.8</ele>
        <time>2022-05-11T12:39:59.000Z</time>
      </trkpt>
      <trkpt lat="43.5337" lon="5.57438">
        <ele>778.6</ele>
        <time>2022-05-11T12:40:10.000Z</time>
      </trkpt>
      <trkpt lat="43.53371" lon="5.57438">
        <ele>778.5</ele>
        <time>2022-05-11T12:40:11.000Z</time>
      </trkpt>
      <trkpt lat="43.53375" lon="5.57428">
        <ele>775.9</ele>
        <time>2022-05-11T12:40:37.000Z</time>
      </trkpt>
      <trkpt lat="43.53376" lon="5.57423">
        <ele>774.9</ele>
        <time>2022-05-11T12:40:50.000Z</time>
      </trkpt>
      <trkpt lat="43.53378" lon="5.57417">
        <ele>774.3</ele>
        <time>2022-05-11T12:40:58.000Z</time>
      </trkpt>
      <trkpt lat="43.53381" lon="5.57412">
        <ele>773</ele>
        <time>2022-05-11T12:41:13.000Z</time>
      </trkpt>
      <trkpt lat="43.53381" lon="5.57412">
        <ele>773</ele>
        <time>2022-05-11T12:41:14.000Z</time>
      </trkpt>
      <trkpt lat="43.53383" lon="5.57407">
        <ele>771.4</ele>
        <time>2022-05-11T12:42:28.000Z</time>
      </trkpt>
      <trkpt lat="43.53385" lon="5.57396">
        <ele>768.8</ele>
        <time>2022-05-11T12:43:08.000Z</time>
      </trkpt>
      <trkpt lat="43.53389" lon="5.57394">
        <ele>767.5</ele>
        <time>2022-05-11T12:43:26.000Z</time>
      </trkpt>
      <trkpt lat="43.53391" lon="5.57388">
        <ele>766.9</ele>
        <time>2022-05-11T12:43:43.000Z</time>
      </trkpt>
      <trkpt lat="43.53392" lon="5.57388">
        <ele>766.8</ele>
        <time>2022-05-11T12:43:44.000Z</time>
      </trkpt>
      <trkpt lat="43.53398" lon="5.5738">
        <ele>763.7</ele>
        <time>2022-05-11T12:44:08.000Z</time>
      </trkpt>
      <trkpt lat="43.534" lon="5.57376">
        <ele>760.9</ele>
        <time>2022-05-11T12:44:23.000Z</time>
      </trkpt>
      <trkpt lat="43.53403" lon="5.57371">
        <ele>759.2</ele>
        <time>2022-05-11T12:44:34.000Z</time>
      </trkpt>
      <trkpt lat="43.53405" lon="5.57366">
        <ele>757.9</ele>
        <time>2022-05-11T12:44:42.000Z</time>
      </trkpt>
      <trkpt lat="43.53409" lon="5.57363">
        <ele>756.2</ele>
        <time>2022-05-11T12:44:54.000Z</time>
      </trkpt>
      <trkpt lat="43.53409" lon="5.57363">
        <ele>756</ele>
        <time>2022-05-11T12:44:55.000Z</time>
      </trkpt>
      <trkpt lat="43.53417" lon="5.57361">
        <ele>752.9</ele>
        <time>2022-05-11T12:45:15.000Z</time>
      </trkpt>
      <trkpt lat="43.5342" lon="5.57363">
        <ele>752.1</ele>
        <time>2022-05-11T12:45:21.000Z</time>
      </trkpt>
      <trkpt lat="43.53424" lon="5.57365">
        <ele>751.6</ele>
        <time>2022-05-11T12:45:26.000Z</time>
      </trkpt>
      <trkpt lat="43.53428" lon="5.57366">
        <ele>751.2</ele>
        <time>2022-05-11T12:45:31.000Z</time>
      </trkpt>
      <trkpt lat="43.53433" lon="5.57367">
        <ele>750.4</ele>
        <time>2022-05-11T12:45:39.000Z</time>
      </trkpt>
      <trkpt lat="43.53437" lon="5.57367">
        <ele>749.3</ele>
        <time>2022-05-11T12:45:48.000Z</time>
      </trkpt>
      <trkpt lat="43.5344" lon="5.57363">
        <ele>748.5</ele>
        <time>2022-05-11T12:45:55.000Z</time>
      </trkpt>
      <trkpt lat="43.53444" lon="5.5736">
        <ele>747.8</ele>
        <time>2022-05-11T12:46:04.000Z</time>
      </trkpt>
      <trkpt lat="43.53445" lon="5.5736">
        <ele>747.6</ele>
        <time>2022-05-11T12:46:05.000Z</time>
      </trkpt>
      <trkpt lat="43.5345" lon="5.57353">
        <ele>745.5</ele>
        <time>2022-05-11T12:46:23.000Z</time>
      </trkpt>
      <trkpt lat="43.53455" lon="5.57355">
        <ele>745.2</ele>
        <time>2022-05-11T12:46:32.000Z</time>
      </trkpt>
      <trkpt lat="43.53457" lon="5.57349">
        <ele>744.2</ele>
        <time>2022-05-11T12:46:45.000Z</time>
      </trkpt>
      <trkpt lat="43.5346" lon="5.57347">
        <ele>743.1</ele>
        <time>2022-05-11T12:47:00.000Z</time>
      </trkpt>
      <trkpt lat="43.53464" lon="5.57344">
        <ele>741.6</ele>
        <time>2022-05-11T12:47:13.000Z</time>
      </trkpt>
      <trkpt lat="43.53465" lon="5.57345">
        <ele>741.5</ele>
        <time>2022-05-11T12:47:14.000Z</time>
      </trkpt>
      <trkpt lat="43.53469" lon="5.57336">
        <ele>739.6</ele>
        <time>2022-05-11T12:47:31.000Z</time>
      </trkpt>
      <trkpt lat="43.53473" lon="5.57332">
        <ele>738.9</ele>
        <time>2022-05-11T12:47:38.000Z</time>
      </trkpt>
      <trkpt lat="43.53475" lon="5.57328">
        <ele>738</ele>
        <time>2022-05-11T12:47:47.000Z</time>
      </trkpt>
      <trkpt lat="43.53478" lon="5.57325">
        <ele>736.6</ele>
        <time>2022-05-11T12:47:56.000Z</time>
      </trkpt>
      <trkpt lat="43.53482" lon="5.57323">
        <ele>735.6</ele>
        <time>2022-05-11T12:48:03.000Z</time>
      </trkpt>
      <trkpt lat="43.53485" lon="5.57319">
        <ele>734.1</ele>
        <time>2022-05-11T12:48:12.000Z</time>
      </trkpt>
      <trkpt lat="43.53489" lon="5.57318">
        <ele>733.4</ele>
        <time>2022-05-11T12:48:19.000Z</time>
      </trkpt>
      <trkpt lat="43.5349" lon="5.57318">
        <ele>733.3</ele>
        <time>2022-05-11T12:48:20.000Z</time>
      </trkpt>
      <trkpt lat="43.53497" lon="5.57316">
        <ele>731.7</ele>
        <time>2022-05-11T12:48:35.000Z</time>
      </trkpt>
      <trkpt lat="43.53502" lon="5.57316">
        <ele>731</ele>
        <time>2022-05-11T12:48:43.000Z</time>
      </trkpt>
      <trkpt lat="43.53506" lon="5.57314">
        <ele>730.4</ele>
        <time>2022-05-11T12:48:52.000Z</time>
      </trkpt>
      <trkpt lat="43.53509" lon="5.57309">
        <ele>729.3</ele>
        <time>2022-05-11T12:49:03.000Z</time>
      </trkpt>
      <trkpt lat="43.5351" lon="5.57304">
        <ele>728.5</ele>
        <time>2022-05-11T12:49:10.000Z</time>
      </trkpt>
      <trkpt lat="43.53513" lon="5.57299">
        <ele>727.3</ele>
        <time>2022-05-11T12:49:21.000Z</time>
      </trkpt>
      <trkpt lat="43.53513" lon="5.57299">
        <ele>727.3</ele>
        <time>2022-05-11T12:49:22.000Z</time>
      </trkpt>
      <trkpt lat="43.53517" lon="5.57289">
        <ele>726.4</ele>
        <time>2022-05-11T12:49:44.000Z</time>
      </trkpt>
      <trkpt lat="43.53521" lon="5.57286">
        <ele>725.8</ele>
        <time>2022-05-11T12:49:55.000Z</time>
      </trkpt>
      <trkpt lat="43.53525" lon="5.57285">
        <ele>724.9</ele>
        <time>2022-05-11T12:50:04.000Z</time>
      </trkpt>
      <trkpt lat="43.53528" lon="5.57281">
        <ele>723.9</ele>
        <time>2022-05-11T12:50:12.000Z</time>
      </trkpt>
      <trkpt lat="43.53529" lon="5.57275">
        <ele>722.6</ele>
        <time>2022-05-11T12:50:22.000Z</time>
      </trkpt>
      <trkpt lat="43.53529" lon="5.57275">
        <ele>722.5</ele>
        <time>2022-05-11T12:50:23.000Z</time>
      </trkpt>
      <trkpt lat="43.53533" lon="5.57265">
        <ele>720.5</ele>
        <time>2022-05-11T12:50:36.000Z</time>
      </trkpt>
      <trkpt lat="43.53536" lon="5.57261">
        <ele>719.4</ele>
        <time>2022-05-11T12:50:44.000Z</time>
      </trkpt>
      <trkpt lat="43.53539" lon="5.57257">
        <ele>718.8</ele>
        <time>2022-05-11T12:50:51.000Z</time>
      </trkpt>
      <trkpt lat="43.53543" lon="5.57256">
        <ele>718.4</ele>
        <time>2022-05-11T12:51:00.000Z</time>
      </trkpt>
      <trkpt lat="43.53546" lon="5.57251">
        <ele>717.9</ele>
        <time>2022-05-11T12:51:08.000Z</time>
      </trkpt>
      <trkpt lat="43.53549" lon="5.57247">
        <ele>717.1</ele>
        <time>2022-05-11T12:51:22.000Z</time>
      </trkpt>
      <trkpt lat="43.53552" lon="5.57243">
        <ele>716.7</ele>
        <time>2022-05-11T12:51:29.000Z</time>
      </trkpt>
      <trkpt lat="43.53553" lon="5.57243">
        <ele>716.6</ele>
        <time>2022-05-11T12:51:30.000Z</time>
      </trkpt>
      <trkpt lat="43.53558" lon="5.57235">
        <ele>715.6</ele>
        <time>2022-05-11T12:51:42.000Z</time>
      </trkpt>
      <trkpt lat="43.53561" lon="5.57231">
        <ele>715.1</ele>
        <time>2022-05-11T12:51:52.000Z</time>
      </trkpt>
      <trkpt lat="43.53564" lon="5.57227">
        <ele>714.4</ele>
        <time>2022-05-11T12:52:05.000Z</time>
      </trkpt>
      <trkpt lat="43.53566" lon="5.57222">
        <ele>714</ele>
        <time>2022-05-11T12:52:18.000Z</time>
      </trkpt>
      <trkpt lat="43.5357" lon="5.57219">
        <ele>713.6</ele>
        <time>2022-05-11T12:52:27.000Z</time>
      </trkpt>
      <trkpt lat="43.53573" lon="5.57215">
        <ele>713.3</ele>
        <time>2022-05-11T12:52:39.000Z</time>
      </trkpt>
      <trkpt lat="43.53574" lon="5.57215">
        <ele>713.3</ele>
        <time>2022-05-11T12:52:40.000Z</time>
      </trkpt>
      <trkpt lat="43.53581" lon="5.5721">
        <ele>712.6</ele>
        <time>2022-05-11T12:53:11.000Z</time>
      </trkpt>
      <trkpt lat="43.53585" lon="5.57208">
        <ele>712.1</ele>
        <time>2022-05-11T12:53:22.000Z</time>
      </trkpt>
      <trkpt lat="43.53588" lon="5.57203">
        <ele>710.9</ele>
        <time>2022-05-11T12:53:36.000Z</time>
      </trkpt>
      <trkpt lat="43.53592" lon="5.57205">
        <ele>709.9</ele>
        <time>2022-05-11T12:53:54.000Z</time>
      </trkpt>
      <trkpt lat="43.53592" lon="5.57205">
        <ele>709.9</ele>
        <time>2022-05-11T12:53:55.000Z</time>
      </trkpt>
      <trkpt lat="43.53601" lon="5.57208">
        <ele>708.1</ele>
        <time>2022-05-11T12:54:19.000Z</time>
      </trkpt>
      <trkpt lat="43.53604" lon="5.57205">
        <ele>707.5</ele>
        <time>2022-05-11T12:54:28.000Z</time>
      </trkpt>
      <trkpt lat="43.53608" lon="5.57203">
        <ele>706</ele>
        <time>2022-05-11T12:54:42.000Z</time>
      </trkpt>
      <trkpt lat="43.53609" lon="5.57197">
        <ele>704.1</ele>
        <time>2022-05-11T12:54:56.000Z</time>
      </trkpt>
      <trkpt lat="43.53609" lon="5.57196">
        <ele>704</ele>
        <time>2022-05-11T12:54:57.000Z</time>
      </trkpt>
      <trkpt lat="43.53614" lon="5.57187">
        <ele>701.9</ele>
        <time>2022-05-11T12:55:21.000Z</time>
      </trkpt>
      <trkpt lat="43.53618" lon="5.57184">
        <ele>700.5</ele>
        <time>2022-05-11T12:55:45.000Z</time>
      </trkpt>
      <trkpt lat="43.53622" lon="5.57183">
        <ele>699.2</ele>
        <time>2022-05-11T12:56:08.000Z</time>
      </trkpt>
      <trkpt lat="43.53623" lon="5.57183">
        <ele>699.1</ele>
        <time>2022-05-11T12:56:09.000Z</time>
      </trkpt>
      <trkpt lat="43.53627" lon="5.57174">
        <ele>696.7</ele>
        <time>2022-05-11T12:56:47.000Z</time>
      </trkpt>
      <trkpt lat="43.53628" lon="5.57168">
        <ele>696.2</ele>
        <time>2022-05-11T12:57:05.000Z</time>
      </trkpt>
      <trkpt lat="43.53633" lon="5.57167">
        <ele>695.1</ele>
        <time>2022-05-11T12:57:54.000Z</time>
      </trkpt>
      <trkpt lat="43.53633" lon="5.57167">
        <ele>695</ele>
        <time>2022-05-11T12:57:55.000Z</time>
      </trkpt>
      <trkpt lat="43.53641" lon="5.57165">
        <ele>692</ele>
        <time>2022-05-11T12:58:38.000Z</time>
      </trkpt>
      <trkpt lat="43.53645" lon="5.57166">
        <ele>691</ele>
        <time>2022-05-11T12:58:46.000Z</time>
      </trkpt>
      <trkpt lat="43.53649" lon="5.57168">
        <ele>689.9</ele>
        <time>2022-05-11T12:58:55.000Z</time>
      </trkpt>
      <trkpt lat="43.53652" lon="5.57173">
        <ele>688.5</ele>
        <time>2022-05-11T12:59:06.000Z</time>
      </trkpt>
      <trkpt lat="43.53652" lon="5.57173">
        <ele>688.3</ele>
        <time>2022-05-11T12:59:07.000Z</time>
      </trkpt>
      <trkpt lat="43.53656" lon="5.57165">
        <ele>685.4</ele>
        <time>2022-05-11T12:59:30.000Z</time>
      </trkpt>
      <trkpt lat="43.53656" lon="5.57159">
        <ele>684.9</ele>
        <time>2022-05-11T12:59:35.000Z</time>
      </trkpt>
      <trkpt lat="43.53656" lon="5.57153">
        <ele>684.6</ele>
        <time>2022-05-11T12:59:40.000Z</time>
      </trkpt>
      <trkpt lat="43.53656" lon="5.57147">
        <ele>684.4</ele>
        <time>2022-05-11T12:59:44.000Z</time>
      </trkpt>
      <trkpt lat="43.53657" lon="5.57142">
        <ele>684.2</ele>
        <time>2022-05-11T12:59:49.000Z</time>
      </trkpt>
      <trkpt lat="43.53658" lon="5.57137">
        <ele>683.9</ele>
        <time>2022-05-11T12:59:55.000Z</time>
      </trkpt>
      <trkpt lat="43.53659" lon="5.57131">
        <ele>683.4</ele>
        <time>2022-05-11T13:00:00.000Z</time>
      </trkpt>
      <trkpt lat="43.53658" lon="5.57126">
        <ele>682.8</ele>
        <time>2022-05-11T13:00:05.000Z</time>
      </trkpt>
      <trkpt lat="43.53657" lon="5.57121">
        <ele>682.3</ele>
        <time>2022-05-11T13:00:10.000Z</time>
      </trkpt>
      <trkpt lat="43.53657" lon="5.5712">
        <ele>682.3</ele>
        <time>2022-05-11T13:00:11.000Z</time>
      </trkpt>
      <trkpt lat="43.53658" lon="5.5711">
        <ele>681.4</ele>
        <time>2022-05-11T13:00:22.000Z</time>
      </trkpt>
      <trkpt lat="43.53659" lon="5.57104">
        <ele>680.3</ele>
        <time>2022-05-11T13:00:36.000Z</time>
      </trkpt>
      <trkpt lat="43.5366" lon="5.57098">
        <ele>678.7</ele>
        <time>2022-05-11T13:00:55.000Z</time>
      </trkpt>
      <trkpt lat="43.53661" lon="5.57093">
        <ele>677.7</ele>
        <time>2022-05-11T13:01:04.000Z</time>
      </trkpt>
      <trkpt lat="43.53663" lon="5.57087">
        <ele>677.3</ele>
        <time>2022-05-11T13:01:09.000Z</time>
      </trkpt>
      <trkpt lat="43.53664" lon="5.57082">
        <ele>675.6</ele>
        <time>2022-05-11T13:01:21.000Z</time>
      </trkpt>
      <trkpt lat="43.53664" lon="5.57081">
        <ele>675.4</ele>
        <time>2022-05-11T13:01:22.000Z</time>
      </trkpt>
      <trkpt lat="43.53665" lon="5.57075">
        <ele>672.7</ele>
        <time>2022-05-11T13:02:56.000Z</time>
      </trkpt>
      <trkpt lat="43.53663" lon="5.57068">
        <ele>672.1</ele>
        <time>2022-05-11T13:03:28.000Z</time>
      </trkpt>
      <trkpt lat="43.53659" lon="5.57066">
        <ele>671.3</ele>
        <time>2022-05-11T13:03:47.000Z</time>
      </trkpt>
      <trkpt lat="43.53655" lon="5.57069">
        <ele>670.5</ele>
        <time>2022-05-11T13:03:57.000Z</time>
      </trkpt>
      <trkpt lat="43.53654" lon="5.57069">
        <ele>670.5</ele>
        <time>2022-05-11T13:03:58.000Z</time>
      </trkpt>
      <trkpt lat="43.53647" lon="5.57071">
        <ele>669.5</ele>
        <time>2022-05-11T13:04:13.000Z</time>
      </trkpt>
      <trkpt lat="43.53644" lon="5.57076">
        <ele>668.9</ele>
        <time>2022-05-11T13:04:21.000Z</time>
      </trkpt>
      <trkpt lat="43.53643" lon="5.57082">
        <ele>667.7</ele>
        <time>2022-05-11T13:04:37.000Z</time>
      </trkpt>
      <trkpt lat="43.53641" lon="5.57087">
        <ele>667.3</ele>
        <time>2022-05-11T13:05:15.000Z</time>
      </trkpt>
      <trkpt lat="43.53641" lon="5.57087">
        <ele>667.3</ele>
        <time>2022-05-11T13:05:16.000Z</time>
      </trkpt>
      <trkpt lat="43.53637" lon="5.57085">
        <ele>661.8</ele>
        <time>2022-05-11T13:07:12.000Z</time>
      </trkpt>
      <trkpt lat="43.53636" lon="5.57085">
        <ele>661.8</ele>
        <time>2022-05-11T13:07:13.000Z</time>
      </trkpt>
      <trkpt lat="43.5363" lon="5.57082">
        <ele>658.5</ele>
        <time>2022-05-11T13:08:19.000Z</time>
      </trkpt>
      <trkpt lat="43.53629" lon="5.57082">
        <ele>658.5</ele>
        <time>2022-05-11T13:08:20.000Z</time>
      </trkpt>
      <trkpt lat="43.53621" lon="5.57081">
        <ele>655.8</ele>
        <time>2022-05-11T13:09:16.000Z</time>
      </trkpt>
      <trkpt lat="43.53617" lon="5.5708">
        <ele>652.7</ele>
        <time>2022-05-11T13:09:58.000Z</time>
      </trkpt>
      <trkpt lat="43.53617" lon="5.5708">
        <ele>652.7</ele>
        <time>2022-05-11T13:09:59.000Z</time>
      </trkpt>
      <trkpt lat="43.53609" lon="5.57077">
        <ele>649.6</ele>
        <time>2022-05-11T13:11:01.000Z</time>
      </trkpt>
      <trkpt lat="43.53608" lon="5.57077">
        <ele>649.5</ele>
        <time>2022-05-11T13:11:02.000Z</time>
      </trkpt>
      <trkpt lat="43.536" lon="5.57078">
        <ele>646.7</ele>
        <time>2022-05-11T13:12:24.000Z</time>
      </trkpt>
      <trkpt lat="43.536" lon="5.57077">
        <ele>646.7</ele>
        <time>2022-05-11T13:12:25.000Z</time>
      </trkpt>
      <trkpt lat="43.53595" lon="5.57079">
        <ele>645.3</ele>
        <time>2022-05-11T13:13:33.000Z</time>
      </trkpt>
      <trkpt lat="43.53591" lon="5.57079">
        <ele>643.2</ele>
        <time>2022-05-11T13:14:48.000Z</time>
      </trkpt>
      <trkpt lat="43.53583" lon="5.57076">
        <ele>640.3</ele>
        <time>2022-05-11T13:15:40.000Z</time>
      </trkpt>
      <trkpt lat="43.53579" lon="5.57073">
        <ele>637.7</ele>
        <time>2022-05-11T13:16:20.000Z</time>
      </trkpt>
      <trkpt lat="43.53579" lon="5.57073">
        <ele>637.7</ele>
        <time>2022-05-11T13:16:21.000Z</time>
      </trkpt>
      <trkpt lat="43.53571" lon="5.5707">
        <ele>635.3</ele>
        <time>2022-05-11T13:16:53.000Z</time>
      </trkpt>
      <trkpt lat="43.53567" lon="5.57072">
        <ele>634.5</ele>
        <time>2022-05-11T13:17:01.000Z</time>
      </trkpt>
      <trkpt lat="43.53562" lon="5.57072">
        <ele>632.7</ele>
        <time>2022-05-11T13:17:23.000Z</time>
      </trkpt>
      <trkpt lat="43.53562" lon="5.57073">
        <ele>632.6</ele>
        <time>2022-05-11T13:17:24.000Z</time>
      </trkpt>
      <trkpt lat="43.53554" lon="5.57074">
        <ele>630.1</ele>
        <time>2022-05-11T13:18:04.000Z</time>
      </trkpt>
      <trkpt lat="43.5355" lon="5.57072">
        <ele>629.8</ele>
        <time>2022-05-11T13:18:22.000Z</time>
      </trkpt>
      <trkpt lat="43.53546" lon="5.57073">
        <ele>627.3</ele>
        <time>2022-05-11T13:18:58.000Z</time>
      </trkpt>
      <trkpt lat="43.53545" lon="5.57073">
        <ele>627.3</ele>
        <time>2022-05-11T13:18:59.000Z</time>
      </trkpt>
      <trkpt lat="43.5354" lon="5.57066">
        <ele>623.7</ele>
        <time>2022-05-11T13:19:39.000Z</time>
      </trkpt>
      <trkpt lat="43.53542" lon="5.57061">
        <ele>621.7</ele>
        <time>2022-05-11T13:20:07.000Z</time>
      </trkpt>
      <trkpt lat="43.53542" lon="5.5706">
        <ele>621.6</ele>
        <time>2022-05-11T13:20:08.000Z</time>
      </trkpt>
      <trkpt lat="43.53535" lon="5.57056">
        <ele>617.7</ele>
        <time>2022-05-11T13:21:04.000Z</time>
      </trkpt>
      <trkpt lat="43.53531" lon="5.57056">
        <ele>616.3</ele>
        <time>2022-05-11T13:21:25.000Z</time>
      </trkpt>
      <trkpt lat="43.53531" lon="5.57055">
        <ele>616.3</ele>
        <time>2022-05-11T13:21:26.000Z</time>
      </trkpt>
      <trkpt lat="43.53523" lon="5.57055">
        <ele>613.2</ele>
        <time>2022-05-11T13:22:34.000Z</time>
      </trkpt>
      <trkpt lat="43.53523" lon="5.57055">
        <ele>613.1</ele>
        <time>2022-05-11T13:22:35.000Z</time>
      </trkpt>
      <trkpt lat="43.53515" lon="5.57055">
        <ele>609.5</ele>
        <time>2022-05-11T13:23:42.000Z</time>
      </trkpt>
      <trkpt lat="43.53515" lon="5.57054">
        <ele>609.4</ele>
        <time>2022-05-11T13:23:43.000Z</time>
      </trkpt>
      <trkpt lat="43.53507" lon="5.57056">
        <ele>606</ele>
        <time>2022-05-11T13:24:23.000Z</time>
      </trkpt>
      <trkpt lat="43.53502" lon="5.57057">
        <ele>604.5</ele>
        <time>2022-05-11T13:24:40.000Z</time>
      </trkpt>
      <trkpt lat="43.53498" lon="5.57057">
        <ele>602.6</ele>
        <time>2022-05-11T13:24:56.000Z</time>
      </trkpt>
      <trkpt lat="43.53498" lon="5.57056">
        <ele>602.5</ele>
        <time>2022-05-11T13:24:57.000Z</time>
      </trkpt>
      <trkpt lat="43.53495" lon="5.57046">
        <ele>597.1</ele>
        <time>2022-05-11T13:26:17.000Z</time>
      </trkpt>
      <trkpt lat="43.53494" lon="5.57045">
        <ele>597</ele>
        <time>2022-05-11T13:26:18.000Z</time>
      </trkpt>
      <trkpt lat="43.53486" lon="5.57045">
        <ele>595.5</ele>
        <time>2022-05-11T13:26:48.000Z</time>
      </trkpt>
      <trkpt lat="43.53482" lon="5.57047">
        <ele>594.5</ele>
        <time>2022-05-11T13:27:03.000Z</time>
      </trkpt>
      <trkpt lat="43.53478" lon="5.57049">
        <ele>594</ele>
        <time>2022-05-11T13:27:19.000Z</time>
      </trkpt>
      <trkpt lat="43.53478" lon="5.57049">
        <ele>594</ele>
        <time>2022-05-11T13:27:20.000Z</time>
      </trkpt>
      <trkpt lat="43.5347" lon="5.5705">
        <ele>592</ele>
        <time>2022-05-11T13:27:48.000Z</time>
      </trkpt>
      <trkpt lat="43.53466" lon="5.57051">
        <ele>591.3</ele>
        <time>2022-05-11T13:27:55.000Z</time>
      </trkpt>
      <trkpt lat="43.53462" lon="5.5705">
        <ele>588.3</ele>
        <time>2022-05-11T13:28:34.000Z</time>
      </trkpt>
      <trkpt lat="43.53462" lon="5.57049">
        <ele>588.2</ele>
        <time>2022-05-11T13:28:35.000Z</time>
      </trkpt>
      <trkpt lat="43.53454" lon="5.57046">
        <ele>587.1</ele>
        <time>2022-05-11T13:28:54.000Z</time>
      </trkpt>
      <trkpt lat="43.5345" lon="5.57044">
        <ele>585.9</ele>
        <time>2022-05-11T13:29:04.000Z</time>
      </trkpt>
      <trkpt lat="43.53447" lon="5.57041">
        <ele>585.3</ele>
        <time>2022-05-11T13:29:12.000Z</time>
      </trkpt>
      <trkpt lat="43.53443" lon="5.57041">
        <ele>584.9</ele>
        <time>2022-05-11T13:29:17.000Z</time>
      </trkpt>
      <trkpt lat="43.53439" lon="5.57041">
        <ele>584.5</ele>
        <time>2022-05-11T13:29:22.000Z</time>
      </trkpt>
      <trkpt lat="43.53435" lon="5.57039">
        <ele>583.3</ele>
        <time>2022-05-11T13:29:34.000Z</time>
      </trkpt>
      <trkpt lat="43.53431" lon="5.57036">
        <ele>581.8</ele>
        <time>2022-05-11T13:29:46.000Z</time>
      </trkpt>
      <trkpt lat="43.53431" lon="5.57036">
        <ele>581.7</ele>
        <time>2022-05-11T13:29:47.000Z</time>
      </trkpt>
      <trkpt lat="43.53424" lon="5.5703">
        <ele>579.2</ele>
        <time>2022-05-11T13:30:05.000Z</time>
      </trkpt>
      <trkpt lat="43.53422" lon="5.57026">
        <ele>577.4</ele>
        <time>2022-05-11T13:30:19.000Z</time>
      </trkpt>
      <trkpt lat="43.53419" lon="5.57022">
        <ele>576.2</ele>
        <time>2022-05-11T13:30:31.000Z</time>
      </trkpt>
      <trkpt lat="43.53415" lon="5.57024">
        <ele>575.3</ele>
        <time>2022-05-11T13:30:39.000Z</time>
      </trkpt>
      <trkpt lat="43.5341" lon="5.57023">
        <ele>574.6</ele>
        <time>2022-05-11T13:30:47.000Z</time>
      </trkpt>
      <trkpt lat="43.5341" lon="5.57023">
        <ele>574.5</ele>
        <time>2022-05-11T13:30:48.000Z</time>
      </trkpt>
      <trkpt lat="43.53402" lon="5.5702">
        <ele>571.9</ele>
        <time>2022-05-11T13:31:11.000Z</time>
      </trkpt>
      <trkpt lat="43.53398" lon="5.57021">
        <ele>569.9</ele>
        <time>2022-05-11T13:31:26.000Z</time>
      </trkpt>
      <trkpt lat="43.53394" lon="5.57023">
        <ele>568.3</ele>
        <time>2022-05-11T13:31:38.000Z</time>
      </trkpt>
      <trkpt lat="43.5339" lon="5.57023">
        <ele>566.9</ele>
        <time>2022-05-11T13:31:46.000Z</time>
      </trkpt>
      <trkpt lat="43.53386" lon="5.57021">
        <ele>566.1</ele>
        <time>2022-05-11T13:31:52.000Z</time>
      </trkpt>
      <trkpt lat="43.53385" lon="5.57021">
        <ele>565.9</ele>
        <time>2022-05-11T13:31:53.000Z</time>
      </trkpt>
      <trkpt lat="43.53378" lon="5.57019">
        <ele>564.9</ele>
        <time>2022-05-11T13:32:00.000Z</time>
      </trkpt>
      <trkpt lat="43.53374" lon="5.57019">
        <ele>564</ele>
        <time>2022-05-11T13:32:08.000Z</time>
      </trkpt>
      <trkpt lat="43.53371" lon="5.57015">
        <ele>563.6</ele>
        <time>2022-05-11T13:32:13.000Z</time>
      </trkpt>
      <trkpt lat="43.53368" lon="5.57011">
        <ele>563.3</ele>
        <time>2022-05-11T13:32:18.000Z</time>
      </trkpt>
      <trkpt lat="43.53365" lon="5.57007">
        <ele>562.9</ele>
        <time>2022-05-11T13:32:22.000Z</time>
      </trkpt>
      <trkpt lat="43.53362" lon="5.57003">
        <ele>562.4</ele>
        <time>2022-05-11T13:32:27.000Z</time>
      </trkpt>
      <trkpt lat="43.53358" lon="5.57001">
        <ele>562.2</ele>
        <time>2022-05-11T13:32:31.000Z</time>
      </trkpt>
      <trkpt lat="43.53354" lon="5.57001">
        <ele>561.9</ele>
        <time>2022-05-11T13:32:34.000Z</time>
      </trkpt>
      <trkpt lat="43.5335" lon="5.57001">
        <ele>561.4</ele>
        <time>2022-05-11T13:32:38.000Z</time>
      </trkpt>
      <trkpt lat="43.53346" lon="5.56999">
        <ele>560.6</ele>
        <time>2022-05-11T13:32:43.000Z</time>
      </trkpt>
      <trkpt lat="43.53343" lon="5.56997">
        <ele>560</ele>
        <time>2022-05-11T13:32:47.000Z</time>
      </trkpt>
      <trkpt lat="43.5334" lon="5.56994">
        <ele>559.2</ele>
        <time>2022-05-11T13:32:53.000Z</time>
      </trkpt>
      <trkpt lat="43.53337" lon="5.5699">
        <ele>558.8</ele>
        <time>2022-05-11T13:32:57.000Z</time>
      </trkpt>
      <trkpt lat="43.53336" lon="5.56989">
        <ele>558.7</ele>
        <time>2022-05-11T13:32:58.000Z</time>
      </trkpt>
      <trkpt lat="43.53331" lon="5.56982">
        <ele>558.2</ele>
        <time>2022-05-11T13:33:04.000Z</time>
      </trkpt>
      <trkpt lat="43.53328" lon="5.56978">
        <ele>557.9</ele>
        <time>2022-05-11T13:33:07.000Z</time>
      </trkpt>
      <trkpt lat="43.53325" lon="5.56974">
        <ele>557.4</ele>
        <time>2022-05-11T13:33:15.000Z</time>
      </trkpt>
      <trkpt lat="43.53321" lon="5.56972">
        <ele>556.8</ele>
        <time>2022-05-11T13:33:37.000Z</time>
      </trkpt>
      <trkpt lat="43.53323" lon="5.56967">
        <ele>557.1</ele>
        <time>2022-05-11T13:34:40.000Z</time>
      </trkpt>
      <trkpt lat="43.53323" lon="5.56967">
        <ele>557.1</ele>
        <time>2022-05-11T13:34:41.000Z</time>
      </trkpt>
      <trkpt lat="43.53315" lon="5.56968">
        <ele>557.1</ele>
        <time>2022-05-11T13:34:55.000Z</time>
      </trkpt>
      <trkpt lat="43.53311" lon="5.56971">
        <ele>556.8</ele>
        <time>2022-05-11T13:35:11.000Z</time>
      </trkpt>
      <trkpt lat="43.53307" lon="5.56971">
        <ele>555.7</ele>
        <time>2022-05-11T13:35:25.000Z</time>
      </trkpt>
      <trkpt lat="43.53305" lon="5.56966">
        <ele>554.6</ele>
        <time>2022-05-11T13:35:35.000Z</time>
      </trkpt>
      <trkpt lat="43.53303" lon="5.56961">
        <ele>553.7</ele>
        <time>2022-05-11T13:35:46.000Z</time>
      </trkpt>
      <trkpt lat="43.53303" lon="5.5696">
        <ele>553.6</ele>
        <time>2022-05-11T13:35:47.000Z</time>
      </trkpt>
      <trkpt lat="43.53295" lon="5.56956">
        <ele>551.4</ele>
        <time>2022-05-11T13:36:22.000Z</time>
      </trkpt>
      <trkpt lat="43.53292" lon="5.56952">
        <ele>550.6</ele>
        <time>2022-05-11T13:36:31.000Z</time>
      </trkpt>
      <trkpt lat="43.53289" lon="5.56948">
        <ele>549.7</ele>
        <time>2022-05-11T13:36:46.000Z</time>
      </trkpt>
      <trkpt lat="43.53285" lon="5.56946">
        <ele>548.8</ele>
        <time>2022-05-11T13:36:54.000Z</time>
      </trkpt>
      <trkpt lat="43.53284" lon="5.56946">
        <ele>548.7</ele>
        <time>2022-05-11T13:36:55.000Z</time>
      </trkpt>
      <trkpt lat="43.53277" lon="5.56941">
        <ele>546.9</ele>
        <time>2022-05-11T13:37:14.000Z</time>
      </trkpt>
      <trkpt lat="43.53273" lon="5.56939">
        <ele>546</ele>
        <time>2022-05-11T13:37:21.000Z</time>
      </trkpt>
      <trkpt lat="43.5327" lon="5.56937">
        <ele>545.5</ele>
        <time>2022-05-11T13:37:25.000Z</time>
      </trkpt>
      <trkpt lat="43.53266" lon="5.56935">
        <ele>545</ele>
        <time>2022-05-11T13:37:29.000Z</time>
      </trkpt>
      <trkpt lat="43.53263" lon="5.56931">
        <ele>544.5</ele>
        <time>2022-05-11T13:37:33.000Z</time>
      </trkpt>
      <trkpt lat="43.5326" lon="5.56926">
        <ele>544.2</ele>
        <time>2022-05-11T13:37:36.000Z</time>
      </trkpt>
      <trkpt lat="43.53257" lon="5.56923">
        <ele>544</ele>
        <time>2022-05-11T13:37:39.000Z</time>
      </trkpt>
      <trkpt lat="43.53254" lon="5.56919">
        <ele>543.3</ele>
        <time>2022-05-11T13:37:42.000Z</time>
      </trkpt>
      <trkpt lat="43.53251" lon="5.56914">
        <ele>542.8</ele>
        <time>2022-05-11T13:37:46.000Z</time>
      </trkpt>
      <trkpt lat="43.53249" lon="5.5691">
        <ele>542.5</ele>
        <time>2022-05-11T13:37:49.000Z</time>
      </trkpt>
      <trkpt lat="43.53247" lon="5.56906">
        <ele>542.2</ele>
        <time>2022-05-11T13:37:53.000Z</time>
      </trkpt>
      <trkpt lat="43.53245" lon="5.56902">
        <ele>542</ele>
        <time>2022-05-11T13:37:56.000Z</time>
      </trkpt>
      <trkpt lat="43.53244" lon="5.569">
        <ele>542</ele>
        <time>2022-05-11T13:37:57.000Z</time>
      </trkpt>
      <trkpt lat="43.53241" lon="5.56891">
        <ele>541.5</ele>
        <time>2022-05-11T13:38:04.000Z</time>
      </trkpt>
      <trkpt lat="43.53238" lon="5.56887">
        <ele>541.2</ele>
        <time>2022-05-11T13:38:08.000Z</time>
      </trkpt>
      <trkpt lat="43.53235" lon="5.56883">
        <ele>541</ele>
        <time>2022-05-11T13:38:13.000Z</time>
      </trkpt>
      <trkpt lat="43.53233" lon="5.56878">
        <ele>541.2</ele>
        <time>2022-05-11T13:38:25.000Z</time>
      </trkpt>
      <trkpt lat="43.5323" lon="5.56873">
        <ele>541.2</ele>
        <time>2022-05-11T13:38:35.000Z</time>
      </trkpt>
      <trkpt lat="43.53226" lon="5.56869">
        <ele>541</ele>
        <time>2022-05-11T13:38:43.000Z</time>
      </trkpt>
      <trkpt lat="43.53225" lon="5.56864">
        <ele>540.5</ele>
        <time>2022-05-11T13:39:09.000Z</time>
      </trkpt>
      <trkpt lat="43.53225" lon="5.56863">
        <ele>540.5</ele>
        <time>2022-05-11T13:39:10.000Z</time>
      </trkpt>
      <trkpt lat="43.53222" lon="5.56854">
        <ele>540.1</ele>
        <time>2022-05-11T13:39:23.000Z</time>
      </trkpt>
      <trkpt lat="43.53219" lon="5.56849">
        <ele>539.7</ele>
        <time>2022-05-11T13:39:30.000Z</time>
      </trkpt>
      <trkpt lat="43.53218" lon="5.56844">
        <ele>539.3</ele>
        <time>2022-05-11T13:39:37.000Z</time>
      </trkpt>
      <trkpt lat="43.53217" lon="5.56838">
        <ele>538.7</ele>
        <time>2022-05-11T13:39:43.000Z</time>
      </trkpt>
      <trkpt lat="43.53216" lon="5.56832">
        <ele>537.8</ele>
        <time>2022-05-11T13:39:49.000Z</time>
      </trkpt>
      <trkpt lat="43.53213" lon="5.56828">
        <ele>537.2</ele>
        <time>2022-05-11T13:39:54.000Z</time>
      </trkpt>
      <trkpt lat="43.53211" lon="5.56824">
        <ele>536.3</ele>
        <time>2022-05-11T13:40:00.000Z</time>
      </trkpt>
      <trkpt lat="43.5321" lon="5.56818">
        <ele>535.6</ele>
        <time>2022-05-11T13:40:07.000Z</time>
      </trkpt>
      <trkpt lat="43.53209" lon="5.56812">
        <ele>534.8</ele>
        <time>2022-05-11T13:40:14.000Z</time>
      </trkpt>
      <trkpt lat="43.53209" lon="5.56811">
        <ele>534.8</ele>
        <time>2022-05-11T13:40:15.000Z</time>
      </trkpt>
      <trkpt lat="43.53203" lon="5.56804">
        <ele>533.4</ele>
        <time>2022-05-11T13:40:29.000Z</time>
      </trkpt>
      <trkpt lat="43.532" lon="5.56801">
        <ele>532.6</ele>
        <time>2022-05-11T13:40:33.000Z</time>
      </trkpt>
      <trkpt lat="43.53198" lon="5.56796">
        <ele>532</ele>
        <time>2022-05-11T13:40:38.000Z</time>
      </trkpt>
      <trkpt lat="43.53195" lon="5.56792">
        <ele>531.3</ele>
        <time>2022-05-11T13:40:45.000Z</time>
      </trkpt>
      <trkpt lat="43.53194" lon="5.56787">
        <ele>529.8</ele>
        <time>2022-05-11T13:40:53.000Z</time>
      </trkpt>
      <trkpt lat="43.53189" lon="5.56788">
        <ele>529</ele>
        <time>2022-05-11T13:41:04.000Z</time>
      </trkpt>
      <trkpt lat="43.53185" lon="5.56787">
        <ele>528.8</ele>
        <time>2022-05-11T13:41:11.000Z</time>
      </trkpt>
      <trkpt lat="43.53181" lon="5.56786">
        <ele>528.5</ele>
        <time>2022-05-11T13:41:21.000Z</time>
      </trkpt>
      <trkpt lat="43.53181" lon="5.56785">
        <ele>528.4</ele>
        <time>2022-05-11T13:41:22.000Z</time>
      </trkpt>
      <trkpt lat="43.53174" lon="5.5678">
        <ele>527.4</ele>
        <time>2022-05-11T13:41:39.000Z</time>
      </trkpt>
      <trkpt lat="43.5317" lon="5.56777">
        <ele>526.5</ele>
        <time>2022-05-11T13:41:46.000Z</time>
      </trkpt>
      <trkpt lat="43.53167" lon="5.56773">
        <ele>525.6</ele>
        <time>2022-05-11T13:41:56.000Z</time>
      </trkpt>
      <trkpt lat="43.53164" lon="5.56769">
        <ele>524.7</ele>
        <time>2022-05-11T13:42:05.000Z</time>
      </trkpt>
      <trkpt lat="43.5316" lon="5.56769">
        <ele>523.8</ele>
        <time>2022-05-11T13:42:13.000Z</time>
      </trkpt>
      <trkpt lat="43.53157" lon="5.56764">
        <ele>521.5</ele>
        <time>2022-05-11T13:42:43.000Z</time>
      </trkpt>
      <trkpt lat="43.53157" lon="5.56763">
        <ele>521.4</ele>
        <time>2022-05-11T13:42:44.000Z</time>
      </trkpt>
      <trkpt lat="43.53153" lon="5.56755">
        <ele>519.8</ele>
        <time>2022-05-11T13:43:02.000Z</time>
      </trkpt>
      <trkpt lat="43.53151" lon="5.5675">
        <ele>519</ele>
        <time>2022-05-11T13:43:11.000Z</time>
      </trkpt>
      <trkpt lat="43.53152" lon="5.56745">
        <ele>518.2</ele>
        <time>2022-05-11T13:43:19.000Z</time>
      </trkpt>
      <trkpt lat="43.53151" lon="5.56739">
        <ele>515.5</ele>
        <time>2022-05-11T13:43:46.000Z</time>
      </trkpt>
      <trkpt lat="43.53151" lon="5.56738">
        <ele>515.5</ele>
        <time>2022-05-11T13:43:47.000Z</time>
      </trkpt>
      <trkpt lat="43.53151" lon="5.56727">
        <ele>512.8</ele>
        <time>2022-05-11T13:44:33.000Z</time>
      </trkpt>
      <trkpt lat="43.5315" lon="5.56721">
        <ele>511.5</ele>
        <time>2022-05-11T13:44:46.000Z</time>
      </trkpt>
      <trkpt lat="43.5315" lon="5.56715">
        <ele>510.8</ele>
        <time>2022-05-11T13:44:52.000Z</time>
      </trkpt>
      <trkpt lat="43.53151" lon="5.56714">
        <ele>510.7</ele>
        <time>2022-05-11T13:44:53.000Z</time>
      </trkpt>
      <trkpt lat="43.53144" lon="5.56708">
        <ele>509</ele>
        <time>2022-05-11T13:45:15.000Z</time>
      </trkpt>
      <trkpt lat="43.53141" lon="5.56711">
        <ele>508.4</ele>
        <time>2022-05-11T13:45:26.000Z</time>
      </trkpt>
      <trkpt lat="43.53137" lon="5.56714">
        <ele>507.8</ele>
        <time>2022-05-11T13:45:34.000Z</time>
      </trkpt>
      <trkpt lat="43.53134" lon="5.56718">
        <ele>506.2</ele>
        <time>2022-05-11T13:45:51.000Z</time>
      </trkpt>
      <trkpt lat="43.53131" lon="5.56723">
        <ele>504.9</ele>
        <time>2022-05-11T13:46:03.000Z</time>
      </trkpt>
      <trkpt lat="43.53131" lon="5.56723">
        <ele>504.8</ele>
        <time>2022-05-11T13:46:04.000Z</time>
      </trkpt>
      <trkpt lat="43.53125" lon="5.56719">
        <ele>502.4</ele>
        <time>2022-05-11T13:46:33.000Z</time>
      </trkpt>
      <trkpt lat="43.53124" lon="5.56713">
        <ele>500.9</ele>
        <time>2022-05-11T13:46:49.000Z</time>
      </trkpt>
      <trkpt lat="43.5312" lon="5.5671">
        <ele>499.7</ele>
        <time>2022-05-11T13:47:02.000Z</time>
      </trkpt>
      <trkpt lat="43.53116" lon="5.56711">
        <ele>498.5</ele>
        <time>2022-05-11T13:47:15.000Z</time>
      </trkpt>
      <trkpt lat="43.53116" lon="5.56711">
        <ele>498.4</ele>
        <time>2022-05-11T13:47:16.000Z</time>
      </trkpt>
      <trkpt lat="43.53108" lon="5.56707">
        <ele>496</ele>
        <time>2022-05-11T13:47:33.000Z</time>
      </trkpt>
      <trkpt lat="43.53105" lon="5.56704">
        <ele>494.5</ele>
        <time>2022-05-11T13:47:47.000Z</time>
      </trkpt>
      <trkpt lat="43.53102" lon="5.567">
        <ele>493.3</ele>
        <time>2022-05-11T13:48:00.000Z</time>
      </trkpt>
      <trkpt lat="43.53098" lon="5.56697">
        <ele>492.2</ele>
        <time>2022-05-11T13:48:09.000Z</time>
      </trkpt>
      <trkpt lat="43.53094" lon="5.56695">
        <ele>490.5</ele>
        <time>2022-05-11T13:48:17.000Z</time>
      </trkpt>
      <trkpt lat="43.53094" lon="5.56694">
        <ele>490.4</ele>
        <time>2022-05-11T13:48:18.000Z</time>
      </trkpt>
      <trkpt lat="43.53087" lon="5.5669">
        <ele>488.9</ele>
        <time>2022-05-11T13:48:29.000Z</time>
      </trkpt>
      <trkpt lat="43.53083" lon="5.56692">
        <ele>488.3</ele>
        <time>2022-05-11T13:48:35.000Z</time>
      </trkpt>
      <trkpt lat="43.53079" lon="5.56692">
        <ele>487.7</ele>
        <time>2022-05-11T13:48:39.000Z</time>
      </trkpt>
      <trkpt lat="43.53075" lon="5.56695">
        <ele>486.7</ele>
        <time>2022-05-11T13:48:45.000Z</time>
      </trkpt>
      <trkpt lat="43.53074" lon="5.567">
        <ele>485.9</ele>
        <time>2022-05-11T13:48:51.000Z</time>
      </trkpt>
      <trkpt lat="43.53073" lon="5.56706">
        <ele>484.9</ele>
        <time>2022-05-11T13:48:57.000Z</time>
      </trkpt>
      <trkpt lat="43.53072" lon="5.56711">
        <ele>484.3</ele>
        <time>2022-05-11T13:49:03.000Z</time>
      </trkpt>
      <trkpt lat="43.53068" lon="5.56712">
        <ele>483.7</ele>
        <time>2022-05-11T13:49:09.000Z</time>
      </trkpt>
      <trkpt lat="43.53064" lon="5.56712">
        <ele>482.8</ele>
        <time>2022-05-11T13:49:16.000Z</time>
      </trkpt>
      <trkpt lat="43.5306" lon="5.56714">
        <ele>482.3</ele>
        <time>2022-05-11T13:49:21.000Z</time>
      </trkpt>
      <trkpt lat="43.53059" lon="5.56715">
        <ele>482.3</ele>
        <time>2022-05-11T13:49:22.000Z</time>
      </trkpt>
      <trkpt lat="43.53053" lon="5.56722">
        <ele>481.5</ele>
        <time>2022-05-11T13:49:32.000Z</time>
      </trkpt>
      <trkpt lat="43.5305" lon="5.56725">
        <ele>480.7</ele>
        <time>2022-05-11T13:49:45.000Z</time>
      </trkpt>
      <trkpt lat="43.53047" lon="5.5673">
        <ele>480.4</ele>
        <time>2022-05-11T13:49:51.000Z</time>
      </trkpt>
      <trkpt lat="43.53044" lon="5.56733">
        <ele>480.1</ele>
        <time>2022-05-11T13:49:55.000Z</time>
      </trkpt>
      <trkpt lat="43.53042" lon="5.56738">
        <ele>479.7</ele>
        <time>2022-05-11T13:50:02.000Z</time>
      </trkpt>
      <trkpt lat="43.53042" lon="5.56744">
        <ele>479.1</ele>
        <time>2022-05-11T13:50:10.000Z</time>
      </trkpt>
      <trkpt lat="43.5304" lon="5.5675">
        <ele>477.8</ele>
        <time>2022-05-11T13:50:21.000Z</time>
      </trkpt>
      <trkpt lat="43.53041" lon="5.56755">
        <ele>476.4</ele>
        <time>2022-05-11T13:50:31.000Z</time>
      </trkpt>
      <trkpt lat="43.53042" lon="5.56756">
        <ele>476.3</ele>
        <time>2022-05-11T13:50:32.000Z</time>
      </trkpt>
      <trkpt lat="43.53046" lon="5.56765">
        <ele>475</ele>
        <time>2022-05-11T13:50:43.000Z</time>
      </trkpt>
      <trkpt lat="43.53048" lon="5.56769">
        <ele>474.6</ele>
        <time>2022-05-11T13:50:48.000Z</time>
      </trkpt>
      <trkpt lat="43.53051" lon="5.56773">
        <ele>473.9</ele>
        <time>2022-05-11T13:50:55.000Z</time>
      </trkpt>
      <trkpt lat="43.53054" lon="5.56778">
        <ele>472.3</ele>
        <time>2022-05-11T13:51:09.000Z</time>
      </trkpt>
      <trkpt lat="43.53056" lon="5.56783">
        <ele>471.4</ele>
        <time>2022-05-11T13:51:28.000Z</time>
      </trkpt>
      <trkpt lat="43.53058" lon="5.56788">
        <ele>470.9</ele>
        <time>2022-05-11T13:51:38.000Z</time>
      </trkpt>
      <trkpt lat="43.53058" lon="5.56788">
        <ele>470.8</ele>
        <time>2022-05-11T13:51:39.000Z</time>
      </trkpt>
      <trkpt lat="43.53058" lon="5.568">
        <ele>468.6</ele>
        <time>2022-05-11T13:52:03.000Z</time>
      </trkpt>
      <trkpt lat="43.53054" lon="5.56802">
        <ele>466.9</ele>
        <time>2022-05-11T13:52:20.000Z</time>
      </trkpt>
      <trkpt lat="43.5305" lon="5.56803">
        <ele>465.8</ele>
        <time>2022-05-11T13:52:28.000Z</time>
      </trkpt>
      <trkpt lat="43.53047" lon="5.56805">
        <ele>464.9</ele>
        <time>2022-05-11T13:52:36.000Z</time>
      </trkpt>
      <trkpt lat="43.53044" lon="5.56809">
        <ele>463.7</ele>
        <time>2022-05-11T13:52:48.000Z</time>
      </trkpt>
      <trkpt lat="43.53043" lon="5.56809">
        <ele>463.6</ele>
        <time>2022-05-11T13:52:49.000Z</time>
      </trkpt>
      <trkpt lat="43.53036" lon="5.56813">
        <ele>461.8</ele>
        <time>2022-05-11T13:53:09.000Z</time>
      </trkpt>
      <trkpt lat="43.53033" lon="5.56817">
        <ele>461.3</ele>
        <time>2022-05-11T13:53:17.000Z</time>
      </trkpt>
      <trkpt lat="43.53032" lon="5.56823">
        <ele>460.7</ele>
        <time>2022-05-11T13:53:24.000Z</time>
      </trkpt>
      <trkpt lat="43.53029" lon="5.56827">
        <ele>460.2</ele>
        <time>2022-05-11T13:53:30.000Z</time>
      </trkpt>
      <trkpt lat="43.53027" lon="5.56833">
        <ele>459.6</ele>
        <time>2022-05-11T13:53:35.000Z</time>
      </trkpt>
      <trkpt lat="43.53026" lon="5.56838">
        <ele>459.1</ele>
        <time>2022-05-11T13:53:39.000Z</time>
      </trkpt>
      <trkpt lat="43.53023" lon="5.56842">
        <ele>458.6</ele>
        <time>2022-05-11T13:53:44.000Z</time>
      </trkpt>
      <trkpt lat="43.53021" lon="5.56848">
        <ele>457.8</ele>
        <time>2022-05-11T13:53:49.000Z</time>
      </trkpt>
      <trkpt lat="43.5302" lon="5.56852">
        <ele>457</ele>
        <time>2022-05-11T13:53:53.000Z</time>
      </trkpt>
      <trkpt lat="43.5302" lon="5.56854">
        <ele>456.9</ele>
        <time>2022-05-11T13:53:54.000Z</time>
      </trkpt>
      <trkpt lat="43.53015" lon="5.56862">
        <ele>455.1</ele>
        <time>2022-05-11T13:54:12.000Z</time>
      </trkpt>
      <trkpt lat="43.53013" lon="5.56866">
        <ele>454.4</ele>
        <time>2022-05-11T13:54:20.000Z</time>
      </trkpt>
      <trkpt lat="43.53009" lon="5.56868">
        <ele>453.4</ele>
        <time>2022-05-11T13:54:30.000Z</time>
      </trkpt>
      <trkpt lat="43.53005" lon="5.5687">
        <ele>452.9</ele>
        <time>2022-05-11T13:54:35.000Z</time>
      </trkpt>
      <trkpt lat="43.53001" lon="5.56871">
        <ele>452.5</ele>
        <time>2022-05-11T13:54:39.000Z</time>
      </trkpt>
      <trkpt lat="43.52997" lon="5.56873">
        <ele>451.6</ele>
        <time>2022-05-11T13:54:47.000Z</time>
      </trkpt>
      <trkpt lat="43.52993" lon="5.56875">
        <ele>450.5</ele>
        <time>2022-05-11T13:54:54.000Z</time>
      </trkpt>
      <trkpt lat="43.52989" lon="5.56877">
        <ele>449.5</ele>
        <time>2022-05-11T13:55:00.000Z</time>
      </trkpt>
      <trkpt lat="43.52988" lon="5.56877">
        <ele>449.4</ele>
        <time>2022-05-11T13:55:01.000Z</time>
      </trkpt>
      <trkpt lat="43.52984" lon="5.56886">
        <ele>447.4</ele>
        <time>2022-05-11T13:55:15.000Z</time>
      </trkpt>
      <trkpt lat="43.52981" lon="5.5689">
        <ele>446.7</ele>
        <time>2022-05-11T13:55:20.000Z</time>
      </trkpt>
      <trkpt lat="43.52977" lon="5.56893">
        <ele>445.5</ele>
        <time>2022-05-11T13:55:32.000Z</time>
      </trkpt>
      <trkpt lat="43.52974" lon="5.56898">
        <ele>445</ele>
        <time>2022-05-11T13:55:45.000Z</time>
      </trkpt>
      <trkpt lat="43.52973" lon="5.56903">
        <ele>444.8</ele>
        <time>2022-05-11T13:55:50.000Z</time>
      </trkpt>
      <trkpt lat="43.5297" lon="5.56908">
        <ele>444.7</ele>
        <time>2022-05-11T13:55:56.000Z</time>
      </trkpt>
      <trkpt lat="43.52969" lon="5.56913">
        <ele>444.6</ele>
        <time>2022-05-11T13:56:00.000Z</time>
      </trkpt>
      <trkpt lat="43.52966" lon="5.56918">
        <ele>444.4</ele>
        <time>2022-05-11T13:56:07.000Z</time>
      </trkpt>
      <trkpt lat="43.52966" lon="5.56919">
        <ele>444.4</ele>
        <time>2022-05-11T13:56:08.000Z</time>
      </trkpt>
      <trkpt lat="43.52963" lon="5.56927">
        <ele>443.6</ele>
        <time>2022-05-11T13:56:22.000Z</time>
      </trkpt>
      <trkpt lat="43.5296" lon="5.56931">
        <ele>443.3</ele>
        <time>2022-05-11T13:56:30.000Z</time>
      </trkpt>
      <trkpt lat="43.52958" lon="5.56935">
        <ele>443.2</ele>
        <time>2022-05-11T13:56:34.000Z</time>
      </trkpt>
      <trkpt lat="43.52954" lon="5.56937">
        <ele>443.1</ele>
        <time>2022-05-11T13:56:38.000Z</time>
      </trkpt>
      <trkpt lat="43.52951" lon="5.56941">
        <ele>442.9</ele>
        <time>2022-05-11T13:56:42.000Z</time>
      </trkpt>
      <trkpt lat="43.52947" lon="5.56942">
        <ele>442.6</ele>
        <time>2022-05-11T13:56:47.000Z</time>
      </trkpt>
      <trkpt lat="43.52943" lon="5.56943">
        <ele>442.3</ele>
        <time>2022-05-11T13:56:52.000Z</time>
      </trkpt>
      <trkpt lat="43.5294" lon="5.56945">
        <ele>442.1</ele>
        <time>2022-05-11T13:56:56.000Z</time>
      </trkpt>
      <trkpt lat="43.52935" lon="5.56946">
        <ele>441.6</ele>
        <time>2022-05-11T13:57:00.000Z</time>
      </trkpt>
      <trkpt lat="43.52931" lon="5.56946">
        <ele>441.2</ele>
        <time>2022-05-11T13:57:05.000Z</time>
      </trkpt>
      <trkpt lat="43.52928" lon="5.56949">
        <ele>441</ele>
        <time>2022-05-11T13:57:11.000Z</time>
      </trkpt>
      <trkpt lat="43.52927" lon="5.5695">
        <ele>441</ele>
        <time>2022-05-11T13:57:12.000Z</time>
      </trkpt>
      <trkpt lat="43.52921" lon="5.56954">
        <ele>440.8</ele>
        <time>2022-05-11T13:57:21.000Z</time>
      </trkpt>
      <trkpt lat="43.52917" lon="5.56955">
        <ele>440.7</ele>
        <time>2022-05-11T13:57:25.000Z</time>
      </trkpt>
      <trkpt lat="43.52913" lon="5.56955">
        <ele>440.7</ele>
        <time>2022-05-11T13:57:30.000Z</time>
      </trkpt>
      <trkpt lat="43.52909" lon="5.56955">
        <ele>440.6</ele>
        <time>2022-05-11T13:57:36.000Z</time>
      </trkpt>
      <trkpt lat="43.52905" lon="5.56955">
        <ele>440.2</ele>
        <time>2022-05-11T13:57:51.000Z</time>
      </trkpt>
      <trkpt lat="43.52901" lon="5.56953">
        <ele>439.5</ele>
        <time>2022-05-11T13:58:05.000Z</time>
      </trkpt>
      <trkpt lat="43.52898" lon="5.56949">
        <ele>439.2</ele>
        <time>2022-05-11T13:58:10.000Z</time>
      </trkpt>
      <trkpt lat="43.52896" lon="5.56944">
        <ele>439</ele>
        <time>2022-05-11T13:58:17.000Z</time>
      </trkpt>
      <trkpt lat="43.52896" lon="5.56944">
        <ele>438.9</ele>
        <time>2022-05-11T13:58:18.000Z</time>
      </trkpt>
      <trkpt lat="43.52892" lon="5.56941">
        <ele>437.2</ele>
        <time>2022-05-11T13:59:26.000Z</time>
      </trkpt>
      <trkpt lat="43.52889" lon="5.56937">
        <ele>437.2</ele>
        <time>2022-05-11T14:01:26.000Z</time>
      </trkpt>
      <trkpt lat="43.52889" lon="5.56936">
        <ele>437.2</ele>
        <time>2022-05-11T14:01:27.000Z</time>
      </trkpt>
      <trkpt lat="43.52897" lon="5.56935">
        <ele>437.4</ele>
        <time>2022-05-11T14:02:33.000Z</time>
      </trkpt>
      <trkpt lat="43.52898" lon="5.56937">
        <ele>437.4</ele>
        <time>2022-05-11T14:02:34.000Z</time>
      </trkpt>
      <trkpt lat="43.52902" lon="5.56944">
        <ele>437.4</ele>
        <time>2022-05-11T14:02:40.000Z</time>
      </trkpt>
      <trkpt lat="43.52903" lon="5.5695">
        <ele>437.4</ele>
        <time>2022-05-11T14:02:55.000Z</time>
      </trkpt>
      <trkpt lat="43.52899" lon="5.56948">
        <ele>437.4</ele>
        <time>2022-05-11T14:03:00.000Z</time>
      </trkpt>
      <trkpt lat="43.52896" lon="5.56945">
        <ele>437.4</ele>
        <time>2022-05-11T14:03:02.000Z</time>
      </trkpt>
      <trkpt lat="43.52893" lon="5.56942">
        <ele>437.4</ele>
        <time>2022-05-11T14:03:04.000Z</time>
      </trkpt>
      <trkpt lat="43.5289" lon="5.56938">
        <ele>437.4</ele>
        <time>2022-05-11T14:03:05.000Z</time>
      </trkpt>
      <trkpt lat="43.52888" lon="5.56935">
        <ele>437.4</ele>
        <time>2022-05-11T14:03:06.000Z</time>
      </trkpt>
      <trkpt lat="43.52884" lon="5.56932">
        <ele>437.4</ele>
        <time>2022-05-11T14:03:10.000Z</time>
      </trkpt>
      <trkpt lat="43.52888" lon="5.56934">
        <ele>437.6</ele>
        <time>2022-05-11T14:04:17.000Z</time>
      </trkpt>
      <trkpt lat="43.52888" lon="5.56935">
        <ele>437.7</ele>
        <time>2022-05-11T14:04:18.000Z</time>
      </trkpt>
      <trkpt lat="43.52893" lon="5.56943">
        <ele>437.8</ele>
        <time>2022-05-11T14:04:35.000Z</time>
      </trkpt>
      <trkpt lat="43.52897" lon="5.56942">
        <ele>439.2</ele>
        <time>2022-05-11T14:15:21.000Z</time>
      </trkpt>
      <trkpt lat="43.52898" lon="5.56942">
        <ele>439.2</ele>
        <time>2022-05-11T14:15:22.000Z</time>
      </trkpt>
      <trkpt lat="43.52906" lon="5.56939">
        <ele>439.2</ele>
        <time>2022-05-11T14:15:36.000Z</time>
      </trkpt>
      <trkpt lat="43.5291" lon="5.56936">
        <ele>439.1</ele>
        <time>2022-05-11T14:15:42.000Z</time>
      </trkpt>
      <trkpt lat="43.52913" lon="5.56934">
        <ele>439</ele>
        <time>2022-05-11T14:15:48.000Z</time>
      </trkpt>
      <trkpt lat="43.52917" lon="5.56931">
        <ele>439</ele>
        <time>2022-05-11T14:15:53.000Z</time>
      </trkpt>
      <trkpt lat="43.5292" lon="5.56928">
        <ele>439</ele>
        <time>2022-05-11T14:15:58.000Z</time>
      </trkpt>
      <trkpt lat="43.52921" lon="5.56922">
        <ele>438.9</ele>
        <time>2022-05-11T14:16:05.000Z</time>
      </trkpt>
      <trkpt lat="43.52919" lon="5.56918">
        <ele>438.6</ele>
        <time>2022-05-11T14:16:12.000Z</time>
      </trkpt>
      <trkpt lat="43.52914" lon="5.56918">
        <ele>438.4</ele>
        <time>2022-05-11T14:16:18.000Z</time>
      </trkpt>
      <trkpt lat="43.5291" lon="5.56918">
        <ele>438</ele>
        <time>2022-05-11T14:16:24.000Z</time>
      </trkpt>
      <trkpt lat="43.5291" lon="5.56918">
        <ele>437.8</ele>
        <time>2022-05-11T14:16:25.000Z</time>
      </trkpt>
      <trkpt lat="43.52902" lon="5.56917">
        <ele>436.7</ele>
        <time>2022-05-11T14:16:35.000Z</time>
      </trkpt>
      <trkpt lat="43.52898" lon="5.56916">
        <ele>436.1</ele>
        <time>2022-05-11T14:16:40.000Z</time>
      </trkpt>
      <trkpt lat="43.52894" lon="5.56915">
        <ele>435.5</ele>
        <time>2022-05-11T14:16:46.000Z</time>
      </trkpt>
      <trkpt lat="43.5289" lon="5.56913">
        <ele>434.9</ele>
        <time>2022-05-11T14:16:51.000Z</time>
      </trkpt>
      <trkpt lat="43.52887" lon="5.5691">
        <ele>434.2</ele>
        <time>2022-05-11T14:16:57.000Z</time>
      </trkpt>
      <trkpt lat="43.52884" lon="5.56907">
        <ele>433.7</ele>
        <time>2022-05-11T14:17:02.000Z</time>
      </trkpt>
      <trkpt lat="43.52882" lon="5.56903">
        <ele>433</ele>
        <time>2022-05-11T14:17:07.000Z</time>
      </trkpt>
      <trkpt lat="43.52879" lon="5.56898">
        <ele>432.4</ele>
        <time>2022-05-11T14:17:12.000Z</time>
      </trkpt>
      <trkpt lat="43.52878" lon="5.56893">
        <ele>431.6</ele>
        <time>2022-05-11T14:17:16.000Z</time>
      </trkpt>
      <trkpt lat="43.52878" lon="5.56888">
        <ele>431.2</ele>
        <time>2022-05-11T14:17:21.000Z</time>
      </trkpt>
      <trkpt lat="43.52877" lon="5.56883">
        <ele>430.9</ele>
        <time>2022-05-11T14:17:25.000Z</time>
      </trkpt>
      <trkpt lat="43.52877" lon="5.56878">
        <ele>430.7</ele>
        <time>2022-05-11T14:17:29.000Z</time>
      </trkpt>
      <trkpt lat="43.52877" lon="5.56877">
        <ele>430.7</ele>
        <time>2022-05-11T14:17:30.000Z</time>
      </trkpt>
      <trkpt lat="43.52876" lon="5.56867">
        <ele>430.4</ele>
        <time>2022-05-11T14:17:36.000Z</time>
      </trkpt>
      <trkpt lat="43.52876" lon="5.56862">
        <ele>430.5</ele>
        <time>2022-05-11T14:17:39.000Z</time>
      </trkpt>
      <trkpt lat="43.52876" lon="5.56857">
        <ele>430.6</ele>
        <time>2022-05-11T14:17:42.000Z</time>
      </trkpt>
      <trkpt lat="43.52876" lon="5.56851">
        <ele>430.7</ele>
        <time>2022-05-11T14:17:46.000Z</time>
      </trkpt>
      <trkpt lat="43.52877" lon="5.56845">
        <ele>430.8</ele>
        <time>2022-05-11T14:17:49.000Z</time>
      </trkpt>
      <trkpt lat="43.52878" lon="5.5684">
        <ele>430.8</ele>
        <time>2022-05-11T14:17:53.000Z</time>
      </trkpt>
      <trkpt lat="43.52879" lon="5.56834">
        <ele>430.9</ele>
        <time>2022-05-11T14:17:57.000Z</time>
      </trkpt>
      <trkpt lat="43.5288" lon="5.56829">
        <ele>430.9</ele>
        <time>2022-05-11T14:18:01.000Z</time>
      </trkpt>
      <trkpt lat="43.52881" lon="5.56824">
        <ele>430.8</ele>
        <time>2022-05-11T14:18:05.000Z</time>
      </trkpt>
      <trkpt lat="43.52883" lon="5.5682">
        <ele>430.7</ele>
        <time>2022-05-11T14:18:08.000Z</time>
      </trkpt>
      <trkpt lat="43.52884" lon="5.56815">
        <ele>430.5</ele>
        <time>2022-05-11T14:18:12.000Z</time>
      </trkpt>
      <trkpt lat="43.52886" lon="5.5681">
        <ele>430.3</ele>
        <time>2022-05-11T14:18:16.000Z</time>
      </trkpt>
      <trkpt lat="43.52888" lon="5.56806">
        <ele>429.8</ele>
        <time>2022-05-11T14:18:21.000Z</time>
      </trkpt>
      <trkpt lat="43.52889" lon="5.568">
        <ele>429.4</ele>
        <time>2022-05-11T14:18:25.000Z</time>
      </trkpt>
      <trkpt lat="43.5289" lon="5.56795">
        <ele>429.2</ele>
        <time>2022-05-11T14:18:28.000Z</time>
      </trkpt>
      <trkpt lat="43.52891" lon="5.5679">
        <ele>428.9</ele>
        <time>2022-05-11T14:18:32.000Z</time>
      </trkpt>
      <trkpt lat="43.52891" lon="5.56789">
        <ele>428.9</ele>
        <time>2022-05-11T14:18:33.000Z</time>
      </trkpt>
      <trkpt lat="43.52891" lon="5.56781">
        <ele>428.7</ele>
        <time>2022-05-11T14:18:38.000Z</time>
      </trkpt>
      <trkpt lat="43.52891" lon="5.56775">
        <ele>428.5</ele>
        <time>2022-05-11T14:18:42.000Z</time>
      </trkpt>
      <trkpt lat="43.52891" lon="5.5677">
        <ele>428.4</ele>
        <time>2022-05-11T14:18:46.000Z</time>
      </trkpt>
      <trkpt lat="43.52891" lon="5.56765">
        <ele>428.3</ele>
        <time>2022-05-11T14:18:50.000Z</time>
      </trkpt>
      <trkpt lat="43.52891" lon="5.56759">
        <ele>427.9</ele>
        <time>2022-05-11T14:18:55.000Z</time>
      </trkpt>
      <trkpt lat="43.52891" lon="5.56753">
        <ele>427.7</ele>
        <time>2022-05-11T14:18:58.000Z</time>
      </trkpt>
      <trkpt lat="43.52891" lon="5.56747">
        <ele>427.5</ele>
        <time>2022-05-11T14:19:02.000Z</time>
      </trkpt>
      <trkpt lat="43.52891" lon="5.56741">
        <ele>427.3</ele>
        <time>2022-05-11T14:19:06.000Z</time>
      </trkpt>
      <trkpt lat="43.52891" lon="5.56735">
        <ele>427.1</ele>
        <time>2022-05-11T14:19:10.000Z</time>
      </trkpt>
      <trkpt lat="43.52891" lon="5.56729">
        <ele>426.9</ele>
        <time>2022-05-11T14:19:14.000Z</time>
      </trkpt>
      <trkpt lat="43.5289" lon="5.56724">
        <ele>426.9</ele>
        <time>2022-05-11T14:19:19.000Z</time>
      </trkpt>
      <trkpt lat="43.52889" lon="5.56718">
        <ele>427</ele>
        <time>2022-05-11T14:19:24.000Z</time>
      </trkpt>
      <trkpt lat="43.52888" lon="5.56714">
        <ele>427</ele>
        <time>2022-05-11T14:19:28.000Z</time>
      </trkpt>
      <trkpt lat="43.52888" lon="5.56708">
        <ele>427.1</ele>
        <time>2022-05-11T14:19:32.000Z</time>
      </trkpt>
      <trkpt lat="43.52888" lon="5.56702">
        <ele>427.1</ele>
        <time>2022-05-11T14:19:37.000Z</time>
      </trkpt>
      <trkpt lat="43.52888" lon="5.56701">
        <ele>427.1</ele>
        <time>2022-05-11T14:19:38.000Z</time>
      </trkpt>
      <trkpt lat="43.5289" lon="5.56691">
        <ele>427.3</ele>
        <time>2022-05-11T14:19:45.000Z</time>
      </trkpt>
      <trkpt lat="43.52891" lon="5.56686">
        <ele>427.3</ele>
        <time>2022-05-11T14:19:48.000Z</time>
      </trkpt>
      <trkpt lat="43.52891" lon="5.56681">
        <ele>426.7</ele>
        <time>2022-05-11T14:19:53.000Z</time>
      </trkpt>
      <trkpt lat="43.52891" lon="5.56674">
        <ele>426.1</ele>
        <time>2022-05-11T14:19:59.000Z</time>
      </trkpt>
      <trkpt lat="43.52892" lon="5.56669">
        <ele>425.6</ele>
        <time>2022-05-11T14:20:03.000Z</time>
      </trkpt>
      <trkpt lat="43.52893" lon="5.56663">
        <ele>424.9</ele>
        <time>2022-05-11T14:20:09.000Z</time>
      </trkpt>
      <trkpt lat="43.52893" lon="5.56658">
        <ele>424.5</ele>
        <time>2022-05-11T14:20:12.000Z</time>
      </trkpt>
      <trkpt lat="43.52894" lon="5.56652">
        <ele>423.7</ele>
        <time>2022-05-11T14:20:16.000Z</time>
      </trkpt>
      <trkpt lat="43.52895" lon="5.56646">
        <ele>423.1</ele>
        <time>2022-05-11T14:20:20.000Z</time>
      </trkpt>
      <trkpt lat="43.52897" lon="5.56641">
        <ele>422.6</ele>
        <time>2022-05-11T14:20:24.000Z</time>
      </trkpt>
      <trkpt lat="43.52898" lon="5.56636">
        <ele>422.3</ele>
        <time>2022-05-11T14:20:28.000Z</time>
      </trkpt>
      <trkpt lat="43.529" lon="5.5663">
        <ele>422</ele>
        <time>2022-05-11T14:20:32.000Z</time>
      </trkpt>
      <trkpt lat="43.52902" lon="5.56625">
        <ele>421.8</ele>
        <time>2022-05-11T14:20:35.000Z</time>
      </trkpt>
      <trkpt lat="43.52904" lon="5.5662">
        <ele>421.7</ele>
        <time>2022-05-11T14:20:38.000Z</time>
      </trkpt>
      <trkpt lat="43.52905" lon="5.56615">
        <ele>421.5</ele>
        <time>2022-05-11T14:20:42.000Z</time>
      </trkpt>
      <trkpt lat="43.52905" lon="5.56613">
        <ele>421.5</ele>
        <time>2022-05-11T14:20:43.000Z</time>
      </trkpt>
      <trkpt lat="43.52908" lon="5.56604">
        <ele>421.3</ele>
        <time>2022-05-11T14:20:50.000Z</time>
      </trkpt>
      <trkpt lat="43.52909" lon="5.56599">
        <ele>421.2</ele>
        <time>2022-05-11T14:20:53.000Z</time>
      </trkpt>
      <trkpt lat="43.5291" lon="5.56593">
        <ele>420.9</ele>
        <time>2022-05-11T14:20:58.000Z</time>
      </trkpt>
      <trkpt lat="43.52911" lon="5.56588">
        <ele>420.5</ele>
        <time>2022-05-11T14:21:03.000Z</time>
      </trkpt>
      <trkpt lat="43.52912" lon="5.56583">
        <ele>420.3</ele>
        <time>2022-05-11T14:21:07.000Z</time>
      </trkpt>
      <trkpt lat="43.52913" lon="5.56579">
        <ele>420.1</ele>
        <time>2022-05-11T14:21:10.000Z</time>
      </trkpt>
      <trkpt lat="43.52914" lon="5.56573">
        <ele>419.9</ele>
        <time>2022-05-11T14:21:14.000Z</time>
      </trkpt>
      <trkpt lat="43.52916" lon="5.56567">
        <ele>419.7</ele>
        <time>2022-05-11T14:21:19.000Z</time>
      </trkpt>
      <trkpt lat="43.52916" lon="5.56562">
        <ele>419.5</ele>
        <time>2022-05-11T14:21:23.000Z</time>
      </trkpt>
      <trkpt lat="43.52916" lon="5.56556">
        <ele>419</ele>
        <time>2022-05-11T14:21:27.000Z</time>
      </trkpt>
      <trkpt lat="43.52916" lon="5.56551">
        <ele>418.5</ele>
        <time>2022-05-11T14:21:30.000Z</time>
      </trkpt>
      <trkpt lat="43.52914" lon="5.56546">
        <ele>418</ele>
        <time>2022-05-11T14:21:34.000Z</time>
      </trkpt>
      <trkpt lat="43.52914" lon="5.5654">
        <ele>417.7</ele>
        <time>2022-05-11T14:21:37.000Z</time>
      </trkpt>
      <trkpt lat="43.52914" lon="5.56535">
        <ele>417.5</ele>
        <time>2022-05-11T14:21:40.000Z</time>
      </trkpt>
      <trkpt lat="43.52913" lon="5.5653">
        <ele>417.2</ele>
        <time>2022-05-11T14:21:43.000Z</time>
      </trkpt>
      <trkpt lat="43.52911" lon="5.56526">
        <ele>416.8</ele>
        <time>2022-05-11T14:21:46.000Z</time>
      </trkpt>
      <trkpt lat="43.5291" lon="5.56524">
        <ele>416.6</ele>
        <time>2022-05-11T14:21:47.000Z</time>
      </trkpt>
      <trkpt lat="43.52907" lon="5.56516">
        <ele>415.7</ele>
        <time>2022-05-11T14:21:54.000Z</time>
      </trkpt>
      <trkpt lat="43.52905" lon="5.56512">
        <ele>415.3</ele>
        <time>2022-05-11T14:21:58.000Z</time>
      </trkpt>
      <trkpt lat="43.52904" lon="5.56506">
        <ele>415</ele>
        <time>2022-05-11T14:22:02.000Z</time>
      </trkpt>
      <trkpt lat="43.52903" lon="5.56502">
        <ele>414.8</ele>
        <time>2022-05-11T14:22:05.000Z</time>
      </trkpt>
      <trkpt lat="43.52901" lon="5.56497">
        <ele>414.7</ele>
        <time>2022-05-11T14:22:08.000Z</time>
      </trkpt>
      <trkpt lat="43.52899" lon="5.56493">
        <ele>414.6</ele>
        <time>2022-05-11T14:22:11.000Z</time>
      </trkpt>
      <trkpt lat="43.52897" lon="5.56489">
        <ele>414.4</ele>
        <time>2022-05-11T14:22:14.000Z</time>
      </trkpt>
      <trkpt lat="43.52895" lon="5.56484">
        <ele>414.2</ele>
        <time>2022-05-11T14:22:17.000Z</time>
      </trkpt>
      <trkpt lat="43.52893" lon="5.5648">
        <ele>414</ele>
        <time>2022-05-11T14:22:20.000Z</time>
      </trkpt>
      <trkpt lat="43.52892" lon="5.56475">
        <ele>413.9</ele>
        <time>2022-05-11T14:22:23.000Z</time>
      </trkpt>
      <trkpt lat="43.5289" lon="5.5647">
        <ele>413.7</ele>
        <time>2022-05-11T14:22:27.000Z</time>
      </trkpt>
      <trkpt lat="43.52889" lon="5.56464">
        <ele>413.6</ele>
        <time>2022-05-11T14:22:31.000Z</time>
      </trkpt>
      <trkpt lat="43.52888" lon="5.5646">
        <ele>413.6</ele>
        <time>2022-05-11T14:22:34.000Z</time>
      </trkpt>
      <trkpt lat="43.52887" lon="5.56454">
        <ele>413.6</ele>
        <time>2022-05-11T14:22:38.000Z</time>
      </trkpt>
      <trkpt lat="43.52887" lon="5.56449">
        <ele>413.7</ele>
        <time>2022-05-11T14:22:41.000Z</time>
      </trkpt>
      <trkpt lat="43.52886" lon="5.56444">
        <ele>413.7</ele>
        <time>2022-05-11T14:22:45.000Z</time>
      </trkpt>
      <trkpt lat="43.52884" lon="5.56438">
        <ele>413.7</ele>
        <time>2022-05-11T14:22:49.000Z</time>
      </trkpt>
      <trkpt lat="43.52884" lon="5.56437">
        <ele>413.8</ele>
        <time>2022-05-11T14:22:50.000Z</time>
      </trkpt>
      <trkpt lat="43.52881" lon="5.56428">
        <ele>413.9</ele>
        <time>2022-05-11T14:22:57.000Z</time>
      </trkpt>
      <trkpt lat="43.5288" lon="5.56424">
        <ele>414</ele>
        <time>2022-05-11T14:23:00.000Z</time>
      </trkpt>
      <trkpt lat="43.52878" lon="5.56419">
        <ele>414.1</ele>
        <time>2022-05-11T14:23:03.000Z</time>
      </trkpt>
      <trkpt lat="43.52877" lon="5.56414">
        <ele>414.2</ele>
        <time>2022-05-11T14:23:06.000Z</time>
      </trkpt>
      <trkpt lat="43.52876" lon="5.5641">
        <ele>414.2</ele>
        <time>2022-05-11T14:23:09.000Z</time>
      </trkpt>
      <trkpt lat="43.52875" lon="5.56405">
        <ele>414.3</ele>
        <time>2022-05-11T14:23:12.000Z</time>
      </trkpt>
      <trkpt lat="43.52874" lon="5.564">
        <ele>414.3</ele>
        <time>2022-05-11T14:23:15.000Z</time>
      </trkpt>
      <trkpt lat="43.52873" lon="5.56394">
        <ele>414.3</ele>
        <time>2022-05-11T14:23:19.000Z</time>
      </trkpt>
      <trkpt lat="43.52873" lon="5.5639">
        <ele>414.4</ele>
        <time>2022-05-11T14:23:22.000Z</time>
      </trkpt>
      <trkpt lat="43.52872" lon="5.56385">
        <ele>414.4</ele>
        <time>2022-05-11T14:23:25.000Z</time>
      </trkpt>
      <trkpt lat="43.52871" lon="5.56379">
        <ele>414.2</ele>
        <time>2022-05-11T14:23:29.000Z</time>
      </trkpt>
      <trkpt lat="43.5287" lon="5.56374">
        <ele>414.1</ele>
        <time>2022-05-11T14:23:33.000Z</time>
      </trkpt>
      <trkpt lat="43.52869" lon="5.56369">
        <ele>413.9</ele>
        <time>2022-05-11T14:23:37.000Z</time>
      </trkpt>
      <trkpt lat="43.52869" lon="5.56365">
        <ele>413.8</ele>
        <time>2022-05-11T14:23:40.000Z</time>
      </trkpt>
      <trkpt lat="43.52868" lon="5.5636">
        <ele>413.7</ele>
        <time>2022-05-11T14:23:43.000Z</time>
      </trkpt>
      <trkpt lat="43.52867" lon="5.56355">
        <ele>413.6</ele>
        <time>2022-05-11T14:23:46.000Z</time>
      </trkpt>
      <trkpt lat="43.52867" lon="5.5635">
        <ele>413.4</ele>
        <time>2022-05-11T14:23:49.000Z</time>
      </trkpt>
      <trkpt lat="43.52866" lon="5.56345">
        <ele>413.2</ele>
        <time>2022-05-11T14:23:52.000Z</time>
      </trkpt>
      <trkpt lat="43.52866" lon="5.56344">
        <ele>413.1</ele>
        <time>2022-05-11T14:23:53.000Z</time>
      </trkpt>
      <trkpt lat="43.52864" lon="5.56335">
        <ele>412.8</ele>
        <time>2022-05-11T14:23:59.000Z</time>
      </trkpt>
      <trkpt lat="43.52862" lon="5.5633">
        <ele>412.7</ele>
        <time>2022-05-11T14:24:03.000Z</time>
      </trkpt>
      <trkpt lat="43.52861" lon="5.56325">
        <ele>412.7</ele>
        <time>2022-05-11T14:24:07.000Z</time>
      </trkpt>
      <trkpt lat="43.5286" lon="5.56319">
        <ele>412.7</ele>
        <time>2022-05-11T14:24:11.000Z</time>
      </trkpt>
      <trkpt lat="43.52859" lon="5.56314">
        <ele>412.7</ele>
        <time>2022-05-11T14:24:15.000Z</time>
      </trkpt>
      <trkpt lat="43.52858" lon="5.56308">
        <ele>412.7</ele>
        <time>2022-05-11T14:24:19.000Z</time>
      </trkpt>
      <trkpt lat="43.52859" lon="5.56303">
        <ele>412.7</ele>
        <time>2022-05-11T14:24:23.000Z</time>
      </trkpt>
      <trkpt lat="43.52859" lon="5.56297">
        <ele>412.6</ele>
        <time>2022-05-11T14:24:27.000Z</time>
      </trkpt>
      <trkpt lat="43.5286" lon="5.56292">
        <ele>412.1</ele>
        <time>2022-05-11T14:24:31.000Z</time>
      </trkpt>
      <trkpt lat="43.52861" lon="5.56287">
        <ele>411.8</ele>
        <time>2022-05-11T14:24:34.000Z</time>
      </trkpt>
      <trkpt lat="43.52862" lon="5.56282">
        <ele>411.7</ele>
        <time>2022-05-11T14:24:37.000Z</time>
      </trkpt>
      <trkpt lat="43.52862" lon="5.56276">
        <ele>411.5</ele>
        <time>2022-05-11T14:24:40.000Z</time>
      </trkpt>
      <trkpt lat="43.52863" lon="5.5627">
        <ele>411.3</ele>
        <time>2022-05-11T14:24:44.000Z</time>
      </trkpt>
      <trkpt lat="43.52863" lon="5.56265">
        <ele>411.1</ele>
        <time>2022-05-11T14:24:48.000Z</time>
      </trkpt>
      <trkpt lat="43.52862" lon="5.56259">
        <ele>411</ele>
        <time>2022-05-11T14:24:52.000Z</time>
      </trkpt>
      <trkpt lat="43.52862" lon="5.56254">
        <ele>410.6</ele>
        <time>2022-05-11T14:24:56.000Z</time>
      </trkpt>
      <trkpt lat="43.52861" lon="5.56252">
        <ele>410.6</ele>
        <time>2022-05-11T14:24:57.000Z</time>
      </trkpt>
      <trkpt lat="43.5286" lon="5.56243">
        <ele>410.2</ele>
        <time>2022-05-11T14:25:04.000Z</time>
      </trkpt>
      <trkpt lat="43.5286" lon="5.56238">
        <ele>410</ele>
        <time>2022-05-11T14:25:07.000Z</time>
      </trkpt>
      <trkpt lat="43.5286" lon="5.56232">
        <ele>409.8</ele>
        <time>2022-05-11T14:25:11.000Z</time>
      </trkpt>
      <trkpt lat="43.52858" lon="5.56226">
        <ele>409.4</ele>
        <time>2022-05-11T14:25:23.000Z</time>
      </trkpt>
      <trkpt lat="43.52857" lon="5.56221">
        <ele>409.3</ele>
        <time>2022-05-11T14:25:27.000Z</time>
      </trkpt>
      <trkpt lat="43.52856" lon="5.56215">
        <ele>409.3</ele>
        <time>2022-05-11T14:25:31.000Z</time>
      </trkpt>
      <trkpt lat="43.52855" lon="5.56211">
        <ele>409.1</ele>
        <time>2022-05-11T14:25:35.000Z</time>
      </trkpt>
      <trkpt lat="43.52853" lon="5.56206">
        <ele>408.7</ele>
        <time>2022-05-11T14:25:39.000Z</time>
      </trkpt>
      <trkpt lat="43.52851" lon="5.56202">
        <ele>408.2</ele>
        <time>2022-05-11T14:25:44.000Z</time>
      </trkpt>
      <trkpt lat="43.52849" lon="5.56197">
        <ele>407.6</ele>
        <time>2022-05-11T14:25:49.000Z</time>
      </trkpt>
      <trkpt lat="43.52846" lon="5.56193">
        <ele>406.8</ele>
        <time>2022-05-11T14:25:55.000Z</time>
      </trkpt>
      <trkpt lat="43.52844" lon="5.56189">
        <ele>406.1</ele>
        <time>2022-05-11T14:26:00.000Z</time>
      </trkpt>
      <trkpt lat="43.52843" lon="5.56188">
        <ele>406</ele>
        <time>2022-05-11T14:26:01.000Z</time>
      </trkpt>
      <trkpt lat="43.5284" lon="5.56179">
        <ele>404.4</ele>
        <time>2022-05-11T14:26:10.000Z</time>
      </trkpt>
      <trkpt lat="43.52838" lon="5.56174">
        <ele>403.5</ele>
        <time>2022-05-11T14:26:15.000Z</time>
      </trkpt>
      <trkpt lat="43.52836" lon="5.56169">
        <ele>402.9</ele>
        <time>2022-05-11T14:26:19.000Z</time>
      </trkpt>
      <trkpt lat="43.52835" lon="5.56164">
        <ele>402.3</ele>
        <time>2022-05-11T14:26:23.000Z</time>
      </trkpt>
      <trkpt lat="43.52833" lon="5.56158">
        <ele>401.8</ele>
        <time>2022-05-11T14:26:27.000Z</time>
      </trkpt>
      <trkpt lat="43.52832" lon="5.56153">
        <ele>401.2</ele>
        <time>2022-05-11T14:26:31.000Z</time>
      </trkpt>
      <trkpt lat="43.52831" lon="5.56148">
        <ele>400.6</ele>
        <time>2022-05-11T14:26:35.000Z</time>
      </trkpt>
      <trkpt lat="43.5283" lon="5.56143">
        <ele>399.8</ele>
        <time>2022-05-11T14:26:40.000Z</time>
      </trkpt>
      <trkpt lat="43.52828" lon="5.56138">
        <ele>398.7</ele>
        <time>2022-05-11T14:26:45.000Z</time>
      </trkpt>
      <trkpt lat="43.52827" lon="5.56133">
        <ele>397.9</ele>
        <time>2022-05-11T14:26:49.000Z</time>
      </trkpt>
      <trkpt lat="43.52826" lon="5.56127">
        <ele>397.1</ele>
        <time>2022-05-11T14:26:54.000Z</time>
      </trkpt>
      <trkpt lat="43.52824" lon="5.56122">
        <ele>396.5</ele>
        <time>2022-05-11T14:26:59.000Z</time>
      </trkpt>
      <trkpt lat="43.52822" lon="5.56117">
        <ele>395.8</ele>
        <time>2022-05-11T14:27:04.000Z</time>
      </trkpt>
      <trkpt lat="43.52822" lon="5.56115">
        <ele>395.6</ele>
        <time>2022-05-11T14:27:05.000Z</time>
      </trkpt>
      <trkpt lat="43.52819" lon="5.56106">
        <ele>394.3</ele>
        <time>2022-05-11T14:27:12.000Z</time>
      </trkpt>
      <trkpt lat="43.52818" lon="5.56101">
        <ele>393.8</ele>
        <time>2022-05-11T14:27:16.000Z</time>
      </trkpt>
      <trkpt lat="43.52817" lon="5.56097">
        <ele>393.3</ele>
        <time>2022-05-11T14:27:20.000Z</time>
      </trkpt>
      <trkpt lat="43.52816" lon="5.56091">
        <ele>393</ele>
        <time>2022-05-11T14:27:24.000Z</time>
      </trkpt>
      <trkpt lat="43.52815" lon="5.56086">
        <ele>392.6</ele>
        <time>2022-05-11T14:27:28.000Z</time>
      </trkpt>
      <trkpt lat="43.52814" lon="5.56081">
        <ele>391.7</ele>
        <time>2022-05-11T14:27:33.000Z</time>
      </trkpt>
      <trkpt lat="43.52814" lon="5.56075">
        <ele>391.2</ele>
        <time>2022-05-11T14:27:36.000Z</time>
      </trkpt>
      <trkpt lat="43.52814" lon="5.5607">
        <ele>390.8</ele>
        <time>2022-05-11T14:27:40.000Z</time>
      </trkpt>
      <trkpt lat="43.52813" lon="5.56064">
        <ele>390.4</ele>
        <time>2022-05-11T14:27:44.000Z</time>
      </trkpt>
      <trkpt lat="43.52813" lon="5.56058">
        <ele>390</ele>
        <time>2022-05-11T14:27:48.000Z</time>
      </trkpt>
      <trkpt lat="43.52813" lon="5.56054">
        <ele>389.6</ele>
        <time>2022-05-11T14:27:51.000Z</time>
      </trkpt>
      <trkpt lat="43.52812" lon="5.56048">
        <ele>389.1</ele>
        <time>2022-05-11T14:27:55.000Z</time>
      </trkpt>
      <trkpt lat="43.52811" lon="5.56043">
        <ele>388.7</ele>
        <time>2022-05-11T14:27:59.000Z</time>
      </trkpt>
      <trkpt lat="43.52811" lon="5.56037">
        <ele>388.1</ele>
        <time>2022-05-11T14:28:03.000Z</time>
      </trkpt>
      <trkpt lat="43.5281" lon="5.56031">
        <ele>387.7</ele>
        <time>2022-05-11T14:28:07.000Z</time>
      </trkpt>
      <trkpt lat="43.5281" lon="5.5603">
        <ele>387.6</ele>
        <time>2022-05-11T14:28:08.000Z</time>
      </trkpt>
      <trkpt lat="43.52808" lon="5.56021">
        <ele>386.9</ele>
        <time>2022-05-11T14:28:15.000Z</time>
      </trkpt>
      <trkpt lat="43.52808" lon="5.56015">
        <ele>386.4</ele>
        <time>2022-05-11T14:28:19.000Z</time>
      </trkpt>
      <trkpt lat="43.52807" lon="5.5601">
        <ele>385.9</ele>
        <time>2022-05-11T14:28:23.000Z</time>
      </trkpt>
      <trkpt lat="43.52807" lon="5.56004">
        <ele>385.6</ele>
        <time>2022-05-11T14:28:27.000Z</time>
      </trkpt>
      <trkpt lat="43.52805" lon="5.55999">
        <ele>385.4</ele>
        <time>2022-05-11T14:28:32.000Z</time>
      </trkpt>
      <trkpt lat="43.52805" lon="5.55995">
        <ele>385.2</ele>
        <time>2022-05-11T14:28:35.000Z</time>
      </trkpt>
      <trkpt lat="43.52804" lon="5.55989">
        <ele>385.1</ele>
        <time>2022-05-11T14:28:38.000Z</time>
      </trkpt>
      <trkpt lat="43.52804" lon="5.55984">
        <ele>384.7</ele>
        <time>2022-05-11T14:28:41.000Z</time>
      </trkpt>
      <trkpt lat="43.52804" lon="5.55979">
        <ele>384.4</ele>
        <time>2022-05-11T14:28:44.000Z</time>
      </trkpt>
      <trkpt lat="43.52803" lon="5.55975">
        <ele>384.1</ele>
        <time>2022-05-11T14:28:47.000Z</time>
      </trkpt>
      <trkpt lat="43.52803" lon="5.55969">
        <ele>383.7</ele>
        <time>2022-05-11T14:28:50.000Z</time>
      </trkpt>
      <trkpt lat="43.52803" lon="5.55965">
        <ele>383.3</ele>
        <time>2022-05-11T14:28:53.000Z</time>
      </trkpt>
      <trkpt lat="43.52802" lon="5.55959">
        <ele>383</ele>
        <time>2022-05-11T14:28:57.000Z</time>
      </trkpt>
      <trkpt lat="43.52802" lon="5.55954">
        <ele>382.8</ele>
        <time>2022-05-11T14:29:00.000Z</time>
      </trkpt>
      <trkpt lat="43.52802" lon="5.55949">
        <ele>382.6</ele>
        <time>2022-05-11T14:29:03.000Z</time>
      </trkpt>
      <trkpt lat="43.52801" lon="5.55944">
        <ele>382</ele>
        <time>2022-05-11T14:29:07.000Z</time>
      </trkpt>
      <trkpt lat="43.528" lon="5.55938">
        <ele>381.6</ele>
        <time>2022-05-11T14:29:11.000Z</time>
      </trkpt>
      <trkpt lat="43.528" lon="5.55937">
        <ele>381.5</ele>
        <time>2022-05-11T14:29:12.000Z</time>
      </trkpt>
      <trkpt lat="43.52799" lon="5.55927">
        <ele>380.9</ele>
        <time>2022-05-11T14:29:19.000Z</time>
      </trkpt>
      <trkpt lat="43.52798" lon="5.55921">
        <ele>380</ele>
        <time>2022-05-11T14:29:23.000Z</time>
      </trkpt>
      <trkpt lat="43.52798" lon="5.55916">
        <ele>379.6</ele>
        <time>2022-05-11T14:29:27.000Z</time>
      </trkpt>
      <trkpt lat="43.52797" lon="5.55911">
        <ele>379.2</ele>
        <time>2022-05-11T14:29:31.000Z</time>
      </trkpt>
      <trkpt lat="43.52796" lon="5.55906">
        <ele>378.8</ele>
        <time>2022-05-11T14:29:35.000Z</time>
      </trkpt>
      <trkpt lat="43.52795" lon="5.559">
        <ele>378.5</ele>
        <time>2022-05-11T14:29:39.000Z</time>
      </trkpt>
      <trkpt lat="43.52795" lon="5.55894">
        <ele>378.1</ele>
        <time>2022-05-11T14:29:43.000Z</time>
      </trkpt>
      <trkpt lat="43.52794" lon="5.55889">
        <ele>377.8</ele>
        <time>2022-05-11T14:29:47.000Z</time>
      </trkpt>
      <trkpt lat="43.52793" lon="5.55883">
        <ele>377.5</ele>
        <time>2022-05-11T14:29:51.000Z</time>
      </trkpt>
      <trkpt lat="43.52793" lon="5.55877">
        <ele>377.2</ele>
        <time>2022-05-11T14:29:55.000Z</time>
      </trkpt>
      <trkpt lat="43.52792" lon="5.55872">
        <ele>377</ele>
        <time>2022-05-11T14:30:00.000Z</time>
      </trkpt>
      <trkpt lat="43.52791" lon="5.55866">
        <ele>376.6</ele>
        <time>2022-05-11T14:30:05.000Z</time>
      </trkpt>
      <trkpt lat="43.52791" lon="5.5586">
        <ele>376.3</ele>
        <time>2022-05-11T14:30:08.000Z</time>
      </trkpt>
      <trkpt lat="43.52791" lon="5.55854">
        <ele>376</ele>
        <time>2022-05-11T14:30:12.000Z</time>
      </trkpt>
      <trkpt lat="43.52791" lon="5.55852">
        <ele>376</ele>
        <time>2022-05-11T14:30:13.000Z</time>
      </trkpt>
      <trkpt lat="43.52791" lon="5.55842">
        <ele>375</ele>
        <time>2022-05-11T14:30:19.000Z</time>
      </trkpt>
      <trkpt lat="43.5279" lon="5.55837">
        <ele>374.7</ele>
        <time>2022-05-11T14:30:22.000Z</time>
      </trkpt>
      <trkpt lat="43.5279" lon="5.55832">
        <ele>374.5</ele>
        <time>2022-05-11T14:30:25.000Z</time>
      </trkpt>
      <trkpt lat="43.52789" lon="5.55828">
        <ele>374.3</ele>
        <time>2022-05-11T14:30:28.000Z</time>
      </trkpt>
      <trkpt lat="43.52789" lon="5.55822">
        <ele>374.1</ele>
        <time>2022-05-11T14:30:32.000Z</time>
      </trkpt>
      <trkpt lat="43.52789" lon="5.55816">
        <ele>373.8</ele>
        <time>2022-05-11T14:30:36.000Z</time>
      </trkpt>
      <trkpt lat="43.5279" lon="5.5581">
        <ele>372.9</ele>
        <time>2022-05-11T14:30:48.000Z</time>
      </trkpt>
      <trkpt lat="43.52792" lon="5.55805">
        <ele>372.2</ele>
        <time>2022-05-11T14:31:23.000Z</time>
      </trkpt>
      <trkpt lat="43.52792" lon="5.55804">
        <ele>372.2</ele>
        <time>2022-05-11T14:31:24.000Z</time>
      </trkpt>
      <trkpt lat="43.52795" lon="5.55795">
        <ele>369.7</ele>
        <time>2022-05-11T14:32:24.000Z</time>
      </trkpt>
      <trkpt lat="43.52799" lon="5.55794">
        <ele>367.2</ele>
        <time>2022-05-11T14:33:04.000Z</time>
      </trkpt>
      <trkpt lat="43.528" lon="5.55794">
        <ele>367.2</ele>
        <time>2022-05-11T14:33:05.000Z</time>
      </trkpt>
      <trkpt lat="43.52803" lon="5.55804">
        <ele>366.2</ele>
        <time>2022-05-11T14:33:17.000Z</time>
      </trkpt>
      <trkpt lat="43.52805" lon="5.55809">
        <ele>365.9</ele>
        <time>2022-05-11T14:33:22.000Z</time>
      </trkpt>
      <trkpt lat="43.52805" lon="5.55815">
        <ele>365.7</ele>
        <time>2022-05-11T14:33:26.000Z</time>
      </trkpt>
      <trkpt lat="43.52806" lon="5.55821">
        <ele>365.4</ele>
        <time>2022-05-11T14:33:31.000Z</time>
      </trkpt>
      <trkpt lat="43.52807" lon="5.55826">
        <ele>365.3</ele>
        <time>2022-05-11T14:33:35.000Z</time>
      </trkpt>
      <trkpt lat="43.52808" lon="5.55832">
        <ele>365.2</ele>
        <time>2022-05-11T14:33:39.000Z</time>
      </trkpt>
      <trkpt lat="43.52809" lon="5.55836">
        <ele>365.1</ele>
        <time>2022-05-11T14:33:42.000Z</time>
      </trkpt>
      <trkpt lat="43.52811" lon="5.55842">
        <ele>365</ele>
        <time>2022-05-11T14:33:46.000Z</time>
      </trkpt>
      <trkpt lat="43.52812" lon="5.55847">
        <ele>365</ele>
        <time>2022-05-11T14:33:50.000Z</time>
      </trkpt>
      <trkpt lat="43.52814" lon="5.55852">
        <ele>364.9</ele>
        <time>2022-05-11T14:33:54.000Z</time>
      </trkpt>
      <trkpt lat="43.52816" lon="5.55857">
        <ele>364.8</ele>
        <time>2022-05-11T14:33:57.000Z</time>
      </trkpt>
      <trkpt lat="43.52818" lon="5.55861">
        <ele>364.5</ele>
        <time>2022-05-11T14:34:02.000Z</time>
      </trkpt>
      <trkpt lat="43.52821" lon="5.55866">
        <ele>364.2</ele>
        <time>2022-05-11T14:34:07.000Z</time>
      </trkpt>
      <trkpt lat="43.52821" lon="5.55867">
        <ele>364.2</ele>
        <time>2022-05-11T14:34:08.000Z</time>
      </trkpt>
      <trkpt lat="43.52824" lon="5.55874">
        <ele>363.9</ele>
        <time>2022-05-11T14:34:13.000Z</time>
      </trkpt>
      <trkpt lat="43.52825" lon="5.5588">
        <ele>363.6</ele>
        <time>2022-05-11T14:34:18.000Z</time>
      </trkpt>
      <trkpt lat="43.52827" lon="5.55884">
        <ele>363.4</ele>
        <time>2022-05-11T14:34:21.000Z</time>
      </trkpt>
      <trkpt lat="43.52829" lon="5.5589">
        <ele>363.2</ele>
        <time>2022-05-11T14:34:25.000Z</time>
      </trkpt>
      <trkpt lat="43.52831" lon="5.55894">
        <ele>363</ele>
        <time>2022-05-11T14:34:29.000Z</time>
      </trkpt>
      <trkpt lat="43.52834" lon="5.55897">
        <ele>362.8</ele>
        <time>2022-05-11T14:34:33.000Z</time>
      </trkpt>
      <trkpt lat="43.52837" lon="5.55901">
        <ele>362.7</ele>
        <time>2022-05-11T14:34:37.000Z</time>
      </trkpt>
      <trkpt lat="43.52839" lon="5.55905">
        <ele>362.3</ele>
        <time>2022-05-11T14:34:40.000Z</time>
      </trkpt>
      <trkpt lat="43.52842" lon="5.5591">
        <ele>361.8</ele>
        <time>2022-05-11T14:34:47.000Z</time>
      </trkpt>
      <trkpt lat="43.52844" lon="5.55915">
        <ele>361.6</ele>
        <time>2022-05-11T14:34:52.000Z</time>
      </trkpt>
      <trkpt lat="43.52847" lon="5.55919">
        <ele>361.5</ele>
        <time>2022-05-11T14:34:56.000Z</time>
      </trkpt>
      <trkpt lat="43.52849" lon="5.55925">
        <ele>361.4</ele>
        <time>2022-05-11T14:35:00.000Z</time>
      </trkpt>
      <trkpt lat="43.52851" lon="5.55929">
        <ele>361.4</ele>
        <time>2022-05-11T14:35:03.000Z</time>
      </trkpt>
      <trkpt lat="43.52853" lon="5.55934">
        <ele>361.3</ele>
        <time>2022-05-11T14:35:06.000Z</time>
      </trkpt>
      <trkpt lat="43.52855" lon="5.55939">
        <ele>361.3</ele>
        <time>2022-05-11T14:35:09.000Z</time>
      </trkpt>
      <trkpt lat="43.52855" lon="5.55941">
        <ele>361.3</ele>
        <time>2022-05-11T14:35:10.000Z</time>
      </trkpt>
      <trkpt lat="43.52857" lon="5.5595">
        <ele>361.1</ele>
        <time>2022-05-11T14:35:17.000Z</time>
      </trkpt>
      <trkpt lat="43.5286" lon="5.55954">
        <ele>361</ele>
        <time>2022-05-11T14:35:20.000Z</time>
      </trkpt>
      <trkpt lat="43.52862" lon="5.55959">
        <ele>361</ele>
        <time>2022-05-11T14:35:24.000Z</time>
      </trkpt>
      <trkpt lat="43.52864" lon="5.55962">
        <ele>361</ele>
        <time>2022-05-11T14:35:27.000Z</time>
      </trkpt>
      <trkpt lat="43.52866" lon="5.55967">
        <ele>361.1</ele>
        <time>2022-05-11T14:35:30.000Z</time>
      </trkpt>
      <trkpt lat="43.52868" lon="5.55972">
        <ele>361.1</ele>
        <time>2022-05-11T14:35:34.000Z</time>
      </trkpt>
      <trkpt lat="43.52871" lon="5.55976">
        <ele>361.1</ele>
        <time>2022-05-11T14:35:39.000Z</time>
      </trkpt>
      <trkpt lat="43.52875" lon="5.55979">
        <ele>360.7</ele>
        <time>2022-05-11T14:35:52.000Z</time>
      </trkpt>
      <trkpt lat="43.52875" lon="5.55985">
        <ele>360.5</ele>
        <time>2022-05-11T14:36:04.000Z</time>
      </trkpt>
      <trkpt lat="43.52875" lon="5.55991">
        <ele>360.7</ele>
        <time>2022-05-11T14:36:15.000Z</time>
      </trkpt>
      <trkpt lat="43.52875" lon="5.55992">
        <ele>360.7</ele>
        <time>2022-05-11T14:36:16.000Z</time>
      </trkpt>
      <trkpt lat="43.52878" lon="5.56">
        <ele>360.1</ele>
        <time>2022-05-11T14:36:25.000Z</time>
      </trkpt>
      <trkpt lat="43.52882" lon="5.56003">
        <ele>359.9</ele>
        <time>2022-05-11T14:36:29.000Z</time>
      </trkpt>
      <trkpt lat="43.52886" lon="5.56006">
        <ele>359.6</ele>
        <time>2022-05-11T14:36:33.000Z</time>
      </trkpt>
      <trkpt lat="43.52889" lon="5.56008">
        <ele>359.2</ele>
        <time>2022-05-11T14:36:37.000Z</time>
      </trkpt>
      <trkpt lat="43.52892" lon="5.5601">
        <ele>358.6</ele>
        <time>2022-05-11T14:36:40.000Z</time>
      </trkpt>
      <trkpt lat="43.52896" lon="5.56012">
        <ele>357.4</ele>
        <time>2022-05-11T14:36:50.000Z</time>
      </trkpt>
      <trkpt lat="43.529" lon="5.56008">
        <ele>355.9</ele>
        <time>2022-05-11T14:37:01.000Z</time>
      </trkpt>
      <trkpt lat="43.52902" lon="5.56003">
        <ele>355</ele>
        <time>2022-05-11T14:37:09.000Z</time>
      </trkpt>
      <trkpt lat="43.52904" lon="5.55998">
        <ele>354.5</ele>
        <time>2022-05-11T14:37:13.000Z</time>
      </trkpt>
      <trkpt lat="43.52906" lon="5.55992">
        <ele>353.5</ele>
        <time>2022-05-11T14:37:18.000Z</time>
      </trkpt>
      <trkpt lat="43.52906" lon="5.55991">
        <ele>353.2</ele>
        <time>2022-05-11T14:37:19.000Z</time>
      </trkpt>
      <trkpt lat="43.52911" lon="5.55984">
        <ele>351.9</ele>
        <time>2022-05-11T14:37:25.000Z</time>
      </trkpt>
      <trkpt lat="43.52914" lon="5.55981">
        <ele>351.3</ele>
        <time>2022-05-11T14:37:29.000Z</time>
      </trkpt>
      <trkpt lat="43.52917" lon="5.55976">
        <ele>350.7</ele>
        <time>2022-05-11T14:37:35.000Z</time>
      </trkpt>
      <trkpt lat="43.52917" lon="5.5597">
        <ele>350.3</ele>
        <time>2022-05-11T14:37:39.000Z</time>
      </trkpt>
      <trkpt lat="43.52919" lon="5.55965">
        <ele>350.1</ele>
        <time>2022-05-11T14:37:42.000Z</time>
      </trkpt>
      <trkpt lat="43.52921" lon="5.5596">
        <ele>349.9</ele>
        <time>2022-05-11T14:37:45.000Z</time>
      </trkpt>
      <trkpt lat="43.52922" lon="5.55955">
        <ele>349.2</ele>
        <time>2022-05-11T14:37:49.000Z</time>
      </trkpt>
      <trkpt lat="43.52922" lon="5.55949">
        <ele>348.5</ele>
        <time>2022-05-11T14:37:54.000Z</time>
      </trkpt>
      <trkpt lat="43.52923" lon="5.55944">
        <ele>348</ele>
        <time>2022-05-11T14:37:59.000Z</time>
      </trkpt>
      <trkpt lat="43.52922" lon="5.55938">
        <ele>347.5</ele>
        <time>2022-05-11T14:38:04.000Z</time>
      </trkpt>
      <trkpt lat="43.52921" lon="5.55932">
        <ele>346.9</ele>
        <time>2022-05-11T14:38:10.000Z</time>
      </trkpt>
      <trkpt lat="43.5292" lon="5.55928">
        <ele>346</ele>
        <time>2022-05-11T14:38:13.000Z</time>
      </trkpt>
      <trkpt lat="43.52917" lon="5.55924">
        <ele>345.5</ele>
        <time>2022-05-11T14:38:16.000Z</time>
      </trkpt>
      <trkpt lat="43.52915" lon="5.55919">
        <ele>345.1</ele>
        <time>2022-05-11T14:38:19.000Z</time>
      </trkpt>
      <trkpt lat="43.52911" lon="5.55915">
        <ele>344.6</ele>
        <time>2022-05-11T14:38:22.000Z</time>
      </trkpt>
      <trkpt lat="43.52911" lon="5.55914">
        <ele>344.5</ele>
        <time>2022-05-11T14:38:23.000Z</time>
      </trkpt>
      <trkpt lat="43.52906" lon="5.55909">
        <ele>344</ele>
        <time>2022-05-11T14:38:28.000Z</time>
      </trkpt>
      <trkpt lat="43.52904" lon="5.55904">
        <ele>343.4</ele>
        <time>2022-05-11T14:38:32.000Z</time>
      </trkpt>
      <trkpt lat="43.52903" lon="5.55899">
        <ele>342.9</ele>
        <time>2022-05-11T14:38:36.000Z</time>
      </trkpt>
      <trkpt lat="43.52902" lon="5.55893">
        <ele>342.5</ele>
        <time>2022-05-11T14:38:40.000Z</time>
      </trkpt>
      <trkpt lat="43.529" lon="5.55888">
        <ele>342.2</ele>
        <time>2022-05-11T14:38:44.000Z</time>
      </trkpt>
      <trkpt lat="43.529" lon="5.55884">
        <ele>341.9</ele>
        <time>2022-05-11T14:38:48.000Z</time>
      </trkpt>
      <trkpt lat="43.529" lon="5.55879">
        <ele>341.6</ele>
        <time>2022-05-11T14:38:51.000Z</time>
      </trkpt>
      <trkpt lat="43.52898" lon="5.55874">
        <ele>341.4</ele>
        <time>2022-05-11T14:38:54.000Z</time>
      </trkpt>
      <trkpt lat="43.52897" lon="5.55868">
        <ele>340.8</ele>
        <time>2022-05-11T14:38:58.000Z</time>
      </trkpt>
      <trkpt lat="43.52896" lon="5.55862">
        <ele>340.2</ele>
        <time>2022-05-11T14:39:02.000Z</time>
      </trkpt>
      <trkpt lat="43.52897" lon="5.55858">
        <ele>340.1</ele>
        <time>2022-05-11T14:39:05.000Z</time>
      </trkpt>
      <trkpt lat="43.52898" lon="5.55853">
        <ele>340</ele>
        <time>2022-05-11T14:39:07.000Z</time>
      </trkpt>
      <trkpt lat="43.52898" lon="5.55848">
        <ele>339.8</ele>
        <time>2022-05-11T14:39:10.000Z</time>
      </trkpt>
      <trkpt lat="43.52898" lon="5.55843">
        <ele>339.4</ele>
        <time>2022-05-11T14:39:13.000Z</time>
      </trkpt>
      <trkpt lat="43.52897" lon="5.55838">
        <ele>339.1</ele>
        <time>2022-05-11T14:39:16.000Z</time>
      </trkpt>
      <trkpt lat="43.52896" lon="5.55832">
        <ele>338.6</ele>
        <time>2022-05-11T14:39:21.000Z</time>
      </trkpt>
      <trkpt lat="43.52895" lon="5.55827">
        <ele>338.2</ele>
        <time>2022-05-11T14:39:24.000Z</time>
      </trkpt>
      <trkpt lat="43.52894" lon="5.55826">
        <ele>337.9</ele>
        <time>2022-05-11T14:39:25.000Z</time>
      </trkpt>
      <trkpt lat="43.5289" lon="5.55818">
        <ele>337</ele>
        <time>2022-05-11T14:39:31.000Z</time>
      </trkpt>
      <trkpt lat="43.52889" lon="5.55814">
        <ele>336.7</ele>
        <time>2022-05-11T14:39:34.000Z</time>
      </trkpt>
      <trkpt lat="43.52889" lon="5.55808">
        <ele>336.5</ele>
        <time>2022-05-11T14:39:38.000Z</time>
      </trkpt>
      <trkpt lat="43.52887" lon="5.55803">
        <ele>336.2</ele>
        <time>2022-05-11T14:39:42.000Z</time>
      </trkpt>
      <trkpt lat="43.52887" lon="5.55797">
        <ele>335.9</ele>
        <time>2022-05-11T14:39:46.000Z</time>
      </trkpt>
      <trkpt lat="43.52888" lon="5.55791">
        <ele>335.4</ele>
        <time>2022-05-11T14:39:49.000Z</time>
      </trkpt>
      <trkpt lat="43.52888" lon="5.55787">
        <ele>335.2</ele>
        <time>2022-05-11T14:39:51.000Z</time>
      </trkpt>
      <trkpt lat="43.5289" lon="5.55782">
        <ele>335.1</ele>
        <time>2022-05-11T14:39:53.000Z</time>
      </trkpt>
      <trkpt lat="43.5289" lon="5.55777">
        <ele>334.7</ele>
        <time>2022-05-11T14:40:00.000Z</time>
      </trkpt>
      <trkpt lat="43.52887" lon="5.55773">
        <ele>334.6</ele>
        <time>2022-05-11T14:40:05.000Z</time>
      </trkpt>
      <trkpt lat="43.52884" lon="5.55768">
        <ele>334.4</ele>
        <time>2022-05-11T14:40:10.000Z</time>
      </trkpt>
      <trkpt lat="43.52882" lon="5.55763">
        <ele>334.1</ele>
        <time>2022-05-11T14:40:41.000Z</time>
      </trkpt>
      <trkpt lat="43.52882" lon="5.55762">
        <ele>334.1</ele>
        <time>2022-05-11T14:40:42.000Z</time>
      </trkpt>
      <trkpt lat="43.52879" lon="5.55752">
        <ele>334</ele>
        <time>2022-05-11T14:40:56.000Z</time>
      </trkpt>
      <trkpt lat="43.5288" lon="5.55747">
        <ele>333.8</ele>
        <time>2022-05-11T14:40:59.000Z</time>
      </trkpt>
      <trkpt lat="43.52881" lon="5.55743">
        <ele>333.7</ele>
        <time>2022-05-11T14:41:02.000Z</time>
      </trkpt>
      <trkpt lat="43.52881" lon="5.55737">
        <ele>333.4</ele>
        <time>2022-05-11T14:41:06.000Z</time>
      </trkpt>
      <trkpt lat="43.52882" lon="5.55732">
        <ele>333</ele>
        <time>2022-05-11T14:41:10.000Z</time>
      </trkpt>
      <trkpt lat="43.52882" lon="5.55727">
        <ele>332.5</ele>
        <time>2022-05-11T14:41:13.000Z</time>
      </trkpt>
      <trkpt lat="43.52882" lon="5.55721">
        <ele>332.1</ele>
        <time>2022-05-11T14:41:17.000Z</time>
      </trkpt>
      <trkpt lat="43.52881" lon="5.55716">
        <ele>331.8</ele>
        <time>2022-05-11T14:41:20.000Z</time>
      </trkpt>
      <trkpt lat="43.5288" lon="5.5571">
        <ele>331.5</ele>
        <time>2022-05-11T14:41:25.000Z</time>
      </trkpt>
      <trkpt lat="43.52879" lon="5.55705">
        <ele>331.3</ele>
        <time>2022-05-11T14:41:28.000Z</time>
      </trkpt>
      <trkpt lat="43.52879" lon="5.557">
        <ele>330.9</ele>
        <time>2022-05-11T14:41:31.000Z</time>
      </trkpt>
      <trkpt lat="43.52877" lon="5.55695">
        <ele>330.6</ele>
        <time>2022-05-11T14:41:34.000Z</time>
      </trkpt>
      <trkpt lat="43.52876" lon="5.55689">
        <ele>330.2</ele>
        <time>2022-05-11T14:41:37.000Z</time>
      </trkpt>
      <trkpt lat="43.52875" lon="5.55685">
        <ele>329.9</ele>
        <time>2022-05-11T14:41:40.000Z</time>
      </trkpt>
      <trkpt lat="43.52873" lon="5.5568">
        <ele>329.6</ele>
        <time>2022-05-11T14:41:43.000Z</time>
      </trkpt>
      <trkpt lat="43.52873" lon="5.55679">
        <ele>329.4</ele>
        <time>2022-05-11T14:41:44.000Z</time>
      </trkpt>
      <trkpt lat="43.5287" lon="5.5567">
        <ele>328.5</ele>
        <time>2022-05-11T14:41:50.000Z</time>
      </trkpt>
      <trkpt lat="43.5287" lon="5.55666">
        <ele>328.3</ele>
        <time>2022-05-11T14:41:52.000Z</time>
      </trkpt>
      <trkpt lat="43.52871" lon="5.55661">
        <ele>328</ele>
        <time>2022-05-11T14:41:54.000Z</time>
      </trkpt>
      <trkpt lat="43.52871" lon="5.55656">
        <ele>327.7</ele>
        <time>2022-05-11T14:41:57.000Z</time>
      </trkpt>
      <trkpt lat="43.5287" lon="5.55651">
        <ele>327.4</ele>
        <time>2022-05-11T14:42:00.000Z</time>
      </trkpt>
      <trkpt lat="43.52871" lon="5.55646">
        <ele>327</ele>
        <time>2022-05-11T14:42:04.000Z</time>
      </trkpt>
      <trkpt lat="43.52871" lon="5.55641">
        <ele>326.6</ele>
        <time>2022-05-11T14:42:08.000Z</time>
      </trkpt>
      <trkpt lat="43.52869" lon="5.55637">
        <ele>326.5</ele>
        <time>2022-05-11T14:42:11.000Z</time>
      </trkpt>
      <trkpt lat="43.52869" lon="5.55632">
        <ele>326.3</ele>
        <time>2022-05-11T14:42:14.000Z</time>
      </trkpt>
      <trkpt lat="43.52868" lon="5.55626">
        <ele>326.1</ele>
        <time>2022-05-11T14:42:18.000Z</time>
      </trkpt>
      <trkpt lat="43.52867" lon="5.55622">
        <ele>326</ele>
        <time>2022-05-11T14:42:21.000Z</time>
      </trkpt>
      <trkpt lat="43.52867" lon="5.55617">
        <ele>325.6</ele>
        <time>2022-05-11T14:42:24.000Z</time>
      </trkpt>
      <trkpt lat="43.52865" lon="5.55612">
        <ele>325.1</ele>
        <time>2022-05-11T14:42:28.000Z</time>
      </trkpt>
      <trkpt lat="43.52862" lon="5.55608">
        <ele>324.4</ele>
        <time>2022-05-11T14:42:33.000Z</time>
      </trkpt>
      <trkpt lat="43.52861" lon="5.55602">
        <ele>324.1</ele>
        <time>2022-05-11T14:42:37.000Z</time>
      </trkpt>
      <trkpt lat="43.52861" lon="5.55596">
        <ele>323.7</ele>
        <time>2022-05-11T14:42:41.000Z</time>
      </trkpt>
      <trkpt lat="43.5286" lon="5.55591">
        <ele>323.4</ele>
        <time>2022-05-11T14:42:44.000Z</time>
      </trkpt>
      <trkpt lat="43.5286" lon="5.5559">
        <ele>323.3</ele>
        <time>2022-05-11T14:42:45.000Z</time>
      </trkpt>
      <trkpt lat="43.5286" lon="5.55582">
        <ele>322.5</ele>
        <time>2022-05-11T14:42:51.000Z</time>
      </trkpt>
      <trkpt lat="43.52859" lon="5.55576">
        <ele>322.1</ele>
        <time>2022-05-11T14:42:56.000Z</time>
      </trkpt>
      <trkpt lat="43.52859" lon="5.5557">
        <ele>321.9</ele>
        <time>2022-05-11T14:43:00.000Z</time>
      </trkpt>
      <trkpt lat="43.52859" lon="5.55566">
        <ele>321.8</ele>
        <time>2022-05-11T14:43:03.000Z</time>
      </trkpt>
      <trkpt lat="43.5286" lon="5.55562">
        <ele>321.7</ele>
        <time>2022-05-11T14:43:05.000Z</time>
      </trkpt>
      <trkpt lat="43.5286" lon="5.55555">
        <ele>321.6</ele>
        <time>2022-05-11T14:43:09.000Z</time>
      </trkpt>
      <trkpt lat="43.5286" lon="5.5555">
        <ele>321.5</ele>
        <time>2022-05-11T14:43:13.000Z</time>
      </trkpt>
      <trkpt lat="43.52861" lon="5.55545">
        <ele>321.4</ele>
        <time>2022-05-11T14:43:16.000Z</time>
      </trkpt>
      <trkpt lat="43.52862" lon="5.55539">
        <ele>321.4</ele>
        <time>2022-05-11T14:43:19.000Z</time>
      </trkpt>
      <trkpt lat="43.52863" lon="5.55534">
        <ele>321.3</ele>
        <time>2022-05-11T14:43:22.000Z</time>
      </trkpt>
      <trkpt lat="43.52864" lon="5.55529">
        <ele>321.3</ele>
        <time>2022-05-11T14:43:24.000Z</time>
      </trkpt>
      <trkpt lat="43.52865" lon="5.55524">
        <ele>321.2</ele>
        <time>2022-05-11T14:43:26.000Z</time>
      </trkpt>
      <trkpt lat="43.52865" lon="5.55519">
        <ele>321</ele>
        <time>2022-05-11T14:43:31.000Z</time>
      </trkpt>
      <trkpt lat="43.52866" lon="5.55514">
        <ele>321</ele>
        <time>2022-05-11T14:43:34.000Z</time>
      </trkpt>
      <trkpt lat="43.52865" lon="5.55508">
        <ele>320.8</ele>
        <time>2022-05-11T14:43:39.000Z</time>
      </trkpt>
      <trkpt lat="43.52865" lon="5.55502">
        <ele>320.5</ele>
        <time>2022-05-11T14:43:44.000Z</time>
      </trkpt>
      <trkpt lat="43.52866" lon="5.55497">
        <ele>320.4</ele>
        <time>2022-05-11T14:43:47.000Z</time>
      </trkpt>
      <trkpt lat="43.52866" lon="5.55494">
        <ele>320.4</ele>
        <time>2022-05-11T14:43:48.000Z</time>
      </trkpt>
      <trkpt lat="43.52866" lon="5.55486">
        <ele>320.3</ele>
        <time>2022-05-11T14:43:53.000Z</time>
      </trkpt>
      <trkpt lat="43.52867" lon="5.55481">
        <ele>320.1</ele>
        <time>2022-05-11T14:43:56.000Z</time>
      </trkpt>
      <trkpt lat="43.52867" lon="5.55475">
        <ele>319.9</ele>
        <time>2022-05-11T14:43:59.000Z</time>
      </trkpt>
      <trkpt lat="43.52867" lon="5.5547">
        <ele>319.7</ele>
        <time>2022-05-11T14:44:02.000Z</time>
      </trkpt>
      <trkpt lat="43.52867" lon="5.55465">
        <ele>319.5</ele>
        <time>2022-05-11T14:44:05.000Z</time>
      </trkpt>
      <trkpt lat="43.52868" lon="5.55459">
        <ele>319.3</ele>
        <time>2022-05-11T14:44:09.000Z</time>
      </trkpt>
      <trkpt lat="43.52869" lon="5.55453">
        <ele>319.3</ele>
        <time>2022-05-11T14:44:12.000Z</time>
      </trkpt>
      <trkpt lat="43.52869" lon="5.55449">
        <ele>319.1</ele>
        <time>2022-05-11T14:44:16.000Z</time>
      </trkpt>
      <trkpt lat="43.52868" lon="5.55444">
        <ele>319</ele>
        <time>2022-05-11T14:44:19.000Z</time>
      </trkpt>
      <trkpt lat="43.52868" lon="5.55438">
        <ele>318.9</ele>
        <time>2022-05-11T14:44:22.000Z</time>
      </trkpt>
      <trkpt lat="43.52868" lon="5.55433">
        <ele>318.7</ele>
        <time>2022-05-11T14:44:25.000Z</time>
      </trkpt>
      <trkpt lat="43.52866" lon="5.55427">
        <ele>318.2</ele>
        <time>2022-05-11T14:44:29.000Z</time>
      </trkpt>
      <trkpt lat="43.52866" lon="5.55422">
        <ele>317.6</ele>
        <time>2022-05-11T14:44:32.000Z</time>
      </trkpt>
      <trkpt lat="43.52864" lon="5.55418">
        <ele>317.4</ele>
        <time>2022-05-11T14:44:36.000Z</time>
      </trkpt>
      <trkpt lat="43.52863" lon="5.55412">
        <ele>317.2</ele>
        <time>2022-05-11T14:44:40.000Z</time>
      </trkpt>
      <trkpt lat="43.52863" lon="5.55406">
        <ele>316.9</ele>
        <time>2022-05-11T14:44:44.000Z</time>
      </trkpt>
      <trkpt lat="43.52863" lon="5.55401">
        <ele>316.7</ele>
        <time>2022-05-11T14:44:47.000Z</time>
      </trkpt>
      <trkpt lat="43.52859" lon="5.55399">
        <ele>316.6</ele>
        <time>2022-05-11T14:44:49.000Z</time>
      </trkpt>
      <trkpt lat="43.52858" lon="5.55398">
        <ele>316.5</ele>
        <time>2022-05-11T14:44:50.000Z</time>
      </trkpt>
      <trkpt lat="43.52856" lon="5.55389">
        <ele>315.8</ele>
        <time>2022-05-11T14:44:56.000Z</time>
      </trkpt>
      <trkpt lat="43.52855" lon="5.55384">
        <ele>315</ele>
        <time>2022-05-11T14:45:00.000Z</time>
      </trkpt>
      <trkpt lat="43.52856" lon="5.55379">
        <ele>314.4</ele>
        <time>2022-05-11T14:45:04.000Z</time>
      </trkpt>
      <trkpt lat="43.52856" lon="5.55373">
        <ele>314</ele>
        <time>2022-05-11T14:45:07.000Z</time>
      </trkpt>
      <trkpt lat="43.52856" lon="5.55367">
        <ele>313.2</ele>
        <time>2022-05-11T14:45:11.000Z</time>
      </trkpt>
      <trkpt lat="43.52855" lon="5.55362">
        <ele>312.6</ele>
        <time>2022-05-11T14:45:15.000Z</time>
      </trkpt>
      <trkpt lat="43.52855" lon="5.55356">
        <ele>312.2</ele>
        <time>2022-05-11T14:45:18.000Z</time>
      </trkpt>
      <trkpt lat="43.52854" lon="5.55351">
        <ele>311.9</ele>
        <time>2022-05-11T14:45:21.000Z</time>
      </trkpt>
      <trkpt lat="43.52852" lon="5.55346">
        <ele>311.5</ele>
        <time>2022-05-11T14:45:25.000Z</time>
      </trkpt>
      <trkpt lat="43.5285" lon="5.55341">
        <ele>311.2</ele>
        <time>2022-05-11T14:45:29.000Z</time>
      </trkpt>
      <trkpt lat="43.52847" lon="5.55338">
        <ele>311</ele>
        <time>2022-05-11T14:45:32.000Z</time>
      </trkpt>
      <trkpt lat="43.52845" lon="5.55333">
        <ele>310.7</ele>
        <time>2022-05-11T14:45:35.000Z</time>
      </trkpt>
      <trkpt lat="43.52843" lon="5.55327">
        <ele>310.5</ele>
        <time>2022-05-11T14:45:39.000Z</time>
      </trkpt>
      <trkpt lat="43.52842" lon="5.55322">
        <ele>310.2</ele>
        <time>2022-05-11T14:45:43.000Z</time>
      </trkpt>
      <trkpt lat="43.5284" lon="5.55316">
        <ele>309.9</ele>
        <time>2022-05-11T14:45:48.000Z</time>
      </trkpt>
      <trkpt lat="43.52839" lon="5.55312">
        <ele>309.7</ele>
        <time>2022-05-11T14:45:51.000Z</time>
      </trkpt>
      <trkpt lat="43.52838" lon="5.5531">
        <ele>309.5</ele>
        <time>2022-05-11T14:45:52.000Z</time>
      </trkpt>
      <trkpt lat="43.52834" lon="5.55306">
        <ele>309</ele>
        <time>2022-05-11T14:45:55.000Z</time>
      </trkpt>
      <trkpt lat="43.52831" lon="5.55301">
        <ele>308.6</ele>
        <time>2022-05-11T14:45:58.000Z</time>
      </trkpt>
      <trkpt lat="43.5283" lon="5.55296">
        <ele>308.3</ele>
        <time>2022-05-11T14:46:01.000Z</time>
      </trkpt>
      <trkpt lat="43.52828" lon="5.55292">
        <ele>307.9</ele>
        <time>2022-05-11T14:46:05.000Z</time>
      </trkpt>
      <trkpt lat="43.52825" lon="5.55287">
        <ele>307.5</ele>
        <time>2022-05-11T14:46:08.000Z</time>
      </trkpt>
      <trkpt lat="43.52823" lon="5.55282">
        <ele>306.9</ele>
        <time>2022-05-11T14:46:13.000Z</time>
      </trkpt>
      <trkpt lat="43.52822" lon="5.55278">
        <ele>306.7</ele>
        <time>2022-05-11T14:46:16.000Z</time>
      </trkpt>
      <trkpt lat="43.52819" lon="5.55275">
        <ele>306.2</ele>
        <time>2022-05-11T14:46:19.000Z</time>
      </trkpt>
      <trkpt lat="43.52818" lon="5.55269">
        <ele>305.8</ele>
        <time>2022-05-11T14:46:22.000Z</time>
      </trkpt>
      <trkpt lat="43.52817" lon="5.55265">
        <ele>305.5</ele>
        <time>2022-05-11T14:46:25.000Z</time>
      </trkpt>
      <trkpt lat="43.52815" lon="5.55261">
        <ele>305.2</ele>
        <time>2022-05-11T14:46:28.000Z</time>
      </trkpt>
      <trkpt lat="43.52813" lon="5.55256">
        <ele>304.5</ele>
        <time>2022-05-11T14:46:33.000Z</time>
      </trkpt>
      <trkpt lat="43.5281" lon="5.55251">
        <ele>303.8</ele>
        <time>2022-05-11T14:46:37.000Z</time>
      </trkpt>
      <trkpt lat="43.5281" lon="5.55247">
        <ele>303.5</ele>
        <time>2022-05-11T14:46:39.000Z</time>
      </trkpt>
      <trkpt lat="43.5281" lon="5.55241">
        <ele>303.1</ele>
        <time>2022-05-11T14:46:42.000Z</time>
      </trkpt>
      <trkpt lat="43.5281" lon="5.55236">
        <ele>302.8</ele>
        <time>2022-05-11T14:46:45.000Z</time>
      </trkpt>
      <trkpt lat="43.52807" lon="5.55232">
        <ele>302.5</ele>
        <time>2022-05-11T14:46:48.000Z</time>
      </trkpt>
      <trkpt lat="43.52804" lon="5.55227">
        <ele>302.3</ele>
        <time>2022-05-11T14:46:51.000Z</time>
      </trkpt>
      <trkpt lat="43.52804" lon="5.55221">
        <ele>302</ele>
        <time>2022-05-11T14:46:54.000Z</time>
      </trkpt>
      <trkpt lat="43.52804" lon="5.55219">
        <ele>301.9</ele>
        <time>2022-05-11T14:46:55.000Z</time>
      </trkpt>
      <trkpt lat="43.52803" lon="5.5521">
        <ele>301.1</ele>
        <time>2022-05-11T14:47:02.000Z</time>
      </trkpt>
      <trkpt lat="43.52802" lon="5.55204">
        <ele>300.6</ele>
        <time>2022-05-11T14:47:06.000Z</time>
      </trkpt>
      <trkpt lat="43.52802" lon="5.55199">
        <ele>300.2</ele>
        <time>2022-05-11T14:47:09.000Z</time>
      </trkpt>
      <trkpt lat="43.52803" lon="5.55194">
        <ele>300</ele>
        <time>2022-05-11T14:47:11.000Z</time>
      </trkpt>
      <trkpt lat="43.52804" lon="5.55189">
        <ele>299.6</ele>
        <time>2022-05-11T14:47:14.000Z</time>
      </trkpt>
      <trkpt lat="43.52804" lon="5.55184">
        <ele>299.2</ele>
        <time>2022-05-11T14:47:17.000Z</time>
      </trkpt>
      <trkpt lat="43.52806" lon="5.55178">
        <ele>298.6</ele>
        <time>2022-05-11T14:47:20.000Z</time>
      </trkpt>
      <trkpt lat="43.52805" lon="5.55174">
        <ele>298.1</ele>
        <time>2022-05-11T14:47:23.000Z</time>
      </trkpt>
      <trkpt lat="43.52804" lon="5.55169">
        <ele>297.6</ele>
        <time>2022-05-11T14:47:26.000Z</time>
      </trkpt>
      <trkpt lat="43.52802" lon="5.55164">
        <ele>297.2</ele>
        <time>2022-05-11T14:47:29.000Z</time>
      </trkpt>
      <trkpt lat="43.52801" lon="5.5516">
        <ele>296.9</ele>
        <time>2022-05-11T14:47:32.000Z</time>
      </trkpt>
      <trkpt lat="43.52799" lon="5.55154">
        <ele>296.3</ele>
        <time>2022-05-11T14:47:36.000Z</time>
      </trkpt>
      <trkpt lat="43.52798" lon="5.55149">
        <ele>296</ele>
        <time>2022-05-11T14:47:39.000Z</time>
      </trkpt>
      <trkpt lat="43.52796" lon="5.55145">
        <ele>295.4</ele>
        <time>2022-05-11T14:47:43.000Z</time>
      </trkpt>
      <trkpt lat="43.52793" lon="5.55141">
        <ele>294.8</ele>
        <time>2022-05-11T14:47:46.000Z</time>
      </trkpt>
      <trkpt lat="43.5279" lon="5.55138">
        <ele>294.4</ele>
        <time>2022-05-11T14:47:49.000Z</time>
      </trkpt>
      <trkpt lat="43.52787" lon="5.55134">
        <ele>293.8</ele>
        <time>2022-05-11T14:47:53.000Z</time>
      </trkpt>
      <trkpt lat="43.52784" lon="5.5513">
        <ele>293.4</ele>
        <time>2022-05-11T14:47:56.000Z</time>
      </trkpt>
      <trkpt lat="43.52783" lon="5.55129">
        <ele>293.3</ele>
        <time>2022-05-11T14:47:57.000Z</time>
      </trkpt>
      <trkpt lat="43.52782" lon="5.55118">
        <ele>292.7</ele>
        <time>2022-05-11T14:48:03.000Z</time>
      </trkpt>
      <trkpt lat="43.52782" lon="5.55113">
        <ele>292.3</ele>
        <time>2022-05-11T14:48:06.000Z</time>
      </trkpt>
      <trkpt lat="43.52781" lon="5.55107">
        <ele>292</ele>
        <time>2022-05-11T14:48:09.000Z</time>
      </trkpt>
      <trkpt lat="43.52781" lon="5.55102">
        <ele>291.8</ele>
        <time>2022-05-11T14:48:12.000Z</time>
      </trkpt>
      <trkpt lat="43.52781" lon="5.55097">
        <ele>291.5</ele>
        <time>2022-05-11T14:48:15.000Z</time>
      </trkpt>
      <trkpt lat="43.5278" lon="5.55092">
        <ele>291.1</ele>
        <time>2022-05-11T14:48:18.000Z</time>
      </trkpt>
      <trkpt lat="43.52779" lon="5.55087">
        <ele>290.6</ele>
        <time>2022-05-11T14:48:22.000Z</time>
      </trkpt>
      <trkpt lat="43.52778" lon="5.55081">
        <ele>290.2</ele>
        <time>2022-05-11T14:48:25.000Z</time>
      </trkpt>
      <trkpt lat="43.52777" lon="5.55076">
        <ele>289.9</ele>
        <time>2022-05-11T14:48:28.000Z</time>
      </trkpt>
      <trkpt lat="43.52776" lon="5.55071">
        <ele>289.6</ele>
        <time>2022-05-11T14:48:31.000Z</time>
      </trkpt>
      <trkpt lat="43.52775" lon="5.55065">
        <ele>289.3</ele>
        <time>2022-05-11T14:48:34.000Z</time>
      </trkpt>
      <trkpt lat="43.52773" lon="5.55059">
        <ele>288.9</ele>
        <time>2022-05-11T14:48:37.000Z</time>
      </trkpt>
      <trkpt lat="43.52772" lon="5.55054">
        <ele>288.4</ele>
        <time>2022-05-11T14:48:40.000Z</time>
      </trkpt>
      <trkpt lat="43.5277" lon="5.5505">
        <ele>288</ele>
        <time>2022-05-11T14:48:44.000Z</time>
      </trkpt>
      <trkpt lat="43.52768" lon="5.55045">
        <ele>287.7</ele>
        <time>2022-05-11T14:48:47.000Z</time>
      </trkpt>
      <trkpt lat="43.52766" lon="5.55041">
        <ele>287.2</ele>
        <time>2022-05-11T14:48:50.000Z</time>
      </trkpt>
      <trkpt lat="43.52765" lon="5.55036">
        <ele>286.6</ele>
        <time>2022-05-11T14:48:53.000Z</time>
      </trkpt>
      <trkpt lat="43.52764" lon="5.5503">
        <ele>286</ele>
        <time>2022-05-11T14:48:57.000Z</time>
      </trkpt>
      <trkpt lat="43.52764" lon="5.55029">
        <ele>285.8</ele>
        <time>2022-05-11T14:48:58.000Z</time>
      </trkpt>
      <trkpt lat="43.52762" lon="5.5502">
        <ele>284.7</ele>
        <time>2022-05-11T14:49:05.000Z</time>
      </trkpt>
      <trkpt lat="43.52762" lon="5.55015">
        <ele>284.1</ele>
        <time>2022-05-11T14:49:08.000Z</time>
      </trkpt>
      <trkpt lat="43.5276" lon="5.55011">
        <ele>283.4</ele>
        <time>2022-05-11T14:49:12.000Z</time>
      </trkpt>
      <trkpt lat="43.52759" lon="5.55006">
        <ele>282.9</ele>
        <time>2022-05-11T14:49:15.000Z</time>
      </trkpt>
      <trkpt lat="43.52759" lon="5.55001">
        <ele>282.5</ele>
        <time>2022-05-11T14:49:18.000Z</time>
      </trkpt>
      <trkpt lat="43.52757" lon="5.54997">
        <ele>281.9</ele>
        <time>2022-05-11T14:49:22.000Z</time>
      </trkpt>
      <trkpt lat="43.52754" lon="5.54994">
        <ele>281.3</ele>
        <time>2022-05-11T14:49:26.000Z</time>
      </trkpt>
      <trkpt lat="43.52752" lon="5.54988">
        <ele>280.7</ele>
        <time>2022-05-11T14:49:30.000Z</time>
      </trkpt>
      <trkpt lat="43.52749" lon="5.54984">
        <ele>280.1</ele>
        <time>2022-05-11T14:49:34.000Z</time>
      </trkpt>
      <trkpt lat="43.52748" lon="5.54979">
        <ele>279.5</ele>
        <time>2022-05-11T14:49:38.000Z</time>
      </trkpt>
      <trkpt lat="43.52745" lon="5.54975">
        <ele>278.6</ele>
        <time>2022-05-11T14:49:41.000Z</time>
      </trkpt>
      <trkpt lat="43.52743" lon="5.5497">
        <ele>277.9</ele>
        <time>2022-05-11T14:49:44.000Z</time>
      </trkpt>
      <trkpt lat="43.52741" lon="5.54965">
        <ele>277.1</ele>
        <time>2022-05-11T14:49:48.000Z</time>
      </trkpt>
      <trkpt lat="43.5274" lon="5.54961">
        <ele>276.2</ele>
        <time>2022-05-11T14:49:51.000Z</time>
      </trkpt>
      <trkpt lat="43.52739" lon="5.54956">
        <ele>275.8</ele>
        <time>2022-05-11T14:49:54.000Z</time>
      </trkpt>
      <trkpt lat="43.52738" lon="5.54951">
        <ele>275.4</ele>
        <time>2022-05-11T14:49:57.000Z</time>
      </trkpt>
      <trkpt lat="43.52736" lon="5.54946">
        <ele>275.1</ele>
        <time>2022-05-11T14:50:00.000Z</time>
      </trkpt>
      <trkpt lat="43.52736" lon="5.54944">
        <ele>275</ele>
        <time>2022-05-11T14:50:01.000Z</time>
      </trkpt>
      <trkpt lat="43.52732" lon="5.54938">
        <ele>274.4</ele>
        <time>2022-05-11T14:50:06.000Z</time>
      </trkpt>
      <trkpt lat="43.52732" lon="5.54933">
        <ele>274.1</ele>
        <time>2022-05-11T14:50:09.000Z</time>
      </trkpt>
      <trkpt lat="43.52731" lon="5.54927">
        <ele>273.8</ele>
        <time>2022-05-11T14:50:13.000Z</time>
      </trkpt>
      <trkpt lat="43.5273" lon="5.54923">
        <ele>273.5</ele>
        <time>2022-05-11T14:50:17.000Z</time>
      </trkpt>
      <trkpt lat="43.5273" lon="5.54918">
        <ele>273.2</ele>
        <time>2022-05-11T14:50:20.000Z</time>
      </trkpt>
      <trkpt lat="43.52729" lon="5.54913">
        <ele>273</ele>
        <time>2022-05-11T14:50:23.000Z</time>
      </trkpt>
      <trkpt lat="43.52729" lon="5.54907">
        <ele>272.3</ele>
        <time>2022-05-11T14:50:27.000Z</time>
      </trkpt>
      <trkpt lat="43.52728" lon="5.54901">
        <ele>271.9</ele>
        <time>2022-05-11T14:50:31.000Z</time>
      </trkpt>
      <trkpt lat="43.52728" lon="5.54896">
        <ele>271.7</ele>
        <time>2022-05-11T14:50:34.000Z</time>
      </trkpt>
      <trkpt lat="43.52728" lon="5.54891">
        <ele>271.4</ele>
        <time>2022-05-11T14:50:37.000Z</time>
      </trkpt>
      <trkpt lat="43.52728" lon="5.54885">
        <ele>271.2</ele>
        <time>2022-05-11T14:50:40.000Z</time>
      </trkpt>
      <trkpt lat="43.52728" lon="5.54879">
        <ele>270.9</ele>
        <time>2022-05-11T14:50:44.000Z</time>
      </trkpt>
      <trkpt lat="43.52727" lon="5.54873">
        <ele>270.6</ele>
        <time>2022-05-11T14:50:49.000Z</time>
      </trkpt>
      <trkpt lat="43.52727" lon="5.54867">
        <ele>270.3</ele>
        <time>2022-05-11T14:50:53.000Z</time>
      </trkpt>
      <trkpt lat="43.52728" lon="5.54862">
        <ele>270.1</ele>
        <time>2022-05-11T14:50:57.000Z</time>
      </trkpt>
      <trkpt lat="43.52727" lon="5.54856">
        <ele>269.8</ele>
        <time>2022-05-11T14:51:02.000Z</time>
      </trkpt>
      <trkpt lat="43.52727" lon="5.54854">
        <ele>269.8</ele>
        <time>2022-05-11T14:51:03.000Z</time>
      </trkpt>
      <trkpt lat="43.52728" lon="5.54845">
        <ele>269.3</ele>
        <time>2022-05-11T14:51:11.000Z</time>
      </trkpt>
      <trkpt lat="43.52729" lon="5.54841">
        <ele>268.9</ele>
        <time>2022-05-11T14:51:15.000Z</time>
      </trkpt>
      <trkpt lat="43.52731" lon="5.54835">
        <ele>268.6</ele>
        <time>2022-05-11T14:51:18.000Z</time>
      </trkpt>
      <trkpt lat="43.52734" lon="5.54836">
        <ele>268.1</ele>
        <time>2022-05-11T14:51:25.000Z</time>
      </trkpt>
      <trkpt lat="43.52739" lon="5.54836">
        <ele>267.9</ele>
        <time>2022-05-11T14:51:29.000Z</time>
      </trkpt>
      <trkpt lat="43.52743" lon="5.54837">
        <ele>267.6</ele>
        <time>2022-05-11T14:51:39.000Z</time>
      </trkpt>
      <trkpt lat="43.5274" lon="5.54841">
        <ele>267.4</ele>
        <time>2022-05-11T14:51:51.000Z</time>
      </trkpt>
      <trkpt lat="43.52737" lon="5.54839">
        <ele>267.3</ele>
        <time>2022-05-11T14:52:03.000Z</time>
      </trkpt>
      <trkpt lat="43.52736" lon="5.54839">
        <ele>267.3</ele>
        <time>2022-05-11T14:52:04.000Z</time>
      </trkpt>
      <trkpt lat="43.52733" lon="5.54831">
        <ele>267</ele>
        <time>2022-05-11T14:52:24.000Z</time>
      </trkpt>
      <trkpt lat="43.52731" lon="5.54825">
        <ele>267.2</ele>
        <time>2022-05-11T14:52:35.000Z</time>
      </trkpt>
      <trkpt lat="43.52731" lon="5.54819">
        <ele>267.2</ele>
        <time>2022-05-11T14:52:46.000Z</time>
      </trkpt>
      <trkpt lat="43.52734" lon="5.54815">
        <ele>267.2</ele>
        <time>2022-05-11T14:52:59.000Z</time>
      </trkpt>
      <trkpt lat="43.5273" lon="5.54815">
        <ele>267.2</ele>
        <time>2022-05-11T14:53:20.000Z</time>
      </trkpt>
      <trkpt lat="43.52729" lon="5.54816">
        <ele>267.2</ele>
        <time>2022-05-11T14:53:21.000Z</time>
      </trkpt>
      <trkpt lat="43.52723" lon="5.54818">
        <ele>267</ele>
        <time>2022-05-11T14:53:26.000Z</time>
      </trkpt>
      <trkpt lat="43.52725" lon="5.54813">
        <ele>267.2</ele>
        <time>2022-05-11T14:53:42.000Z</time>
      </trkpt>
      <trkpt lat="43.5273" lon="5.54813">
        <ele>267.2</ele>
        <time>2022-05-11T14:53:45.000Z</time>
      </trkpt>
      <trkpt lat="43.52732" lon="5.54813">
        <ele>267.2</ele>
        <time>2022-05-11T14:53:47.000Z</time>
      </trkpt>
      <trkpt lat="43.52734" lon="5.54813">
        <ele>267.2</ele>
        <time>2022-05-11T14:53:48.000Z</time>
      </trkpt>
      <trkpt lat="43.52737" lon="5.54814">
        <ele>267.2</ele>
        <time>2022-05-11T14:53:49.000Z</time>
      </trkpt>
      <trkpt lat="43.5274" lon="5.54815">
        <ele>267.2</ele>
        <time>2022-05-11T14:53:50.000Z</time>
      </trkpt>
      <trkpt lat="43.52743" lon="5.54816">
        <ele>267.2</ele>
        <time>2022-05-11T14:53:52.000Z</time>
      </trkpt>
      <trkpt lat="43.52747" lon="5.54819">
        <ele>267.1</ele>
        <time>2022-05-11T14:53:57.000Z</time>
      </trkpt>
      <trkpt lat="43.52751" lon="5.54819">
        <ele>267.1</ele>
        <time>2022-05-11T14:54:02.000Z</time>
      </trkpt>
      <trkpt lat="43.5275" lon="5.5482">
        <ele>267.1</ele>
        <time>2022-05-11T14:54:05.000Z</time>
      </trkpt>
      <trkpt lat="43.52745" lon="5.54818">
        <ele>267.1</ele>
        <time>2022-05-11T14:54:06.000Z</time>
      </trkpt>
      <trkpt lat="43.52742" lon="5.54818">
        <ele>267.1</ele>
        <time>2022-05-11T14:54:07.000Z</time>
      </trkpt>
      <trkpt lat="43.52739" lon="5.54817">
        <ele>267.1</ele>
        <time>2022-05-11T14:54:08.000Z</time>
      </trkpt>
      <trkpt lat="43.52736" lon="5.54817">
        <ele>267.1</ele>
        <time>2022-05-11T14:54:10.000Z</time>
      </trkpt>
      <trkpt lat="43.52733" lon="5.5482">
        <ele>267.1</ele>
        <time>2022-05-11T14:54:16.000Z</time>
      </trkpt>
      <trkpt lat="43.52737" lon="5.54819">
        <ele>267.1</ele>
        <time>2022-05-11T14:54:37.000Z</time>
      </trkpt>
      <trkpt lat="43.52737" lon="5.54819">
        <ele>267.1</ele>
        <time>2022-05-11T14:54:38.000Z</time>
      </trkpt>
      <trkpt lat="43.52742" lon="5.54815">
        <ele>267</ele>
        <time>2022-05-11T14:54:52.000Z</time>
      </trkpt>
      <trkpt lat="43.52745" lon="5.5481">
        <ele>267.1</ele>
        <time>2022-05-11T14:55:03.000Z</time>
      </trkpt>
      <trkpt lat="43.5274" lon="5.54811">
        <ele>266.6</ele>
        <time>2022-05-11T14:55:32.000Z</time>
      </trkpt>
      <trkpt lat="43.52745" lon="5.5481">
        <ele>266.5</ele>
        <time>2022-05-11T14:55:45.000Z</time>
      </trkpt>
      <trkpt lat="43.52746" lon="5.54809">
        <ele>266.5</ele>
        <time>2022-05-11T14:55:46.000Z</time>
      </trkpt>
      <trkpt lat="43.52745" lon="5.54808">
        <ele>266.7</ele>
        <time>2022-05-11T14:56:11.000Z</time>
      </trkpt>
      <trkpt lat="43.52741" lon="5.54805">
        <ele>266.8</ele>
        <time>2022-05-11T14:56:20.000Z</time>
      </trkpt>
      <trkpt lat="43.52737" lon="5.54804">
        <ele>266.9</ele>
        <time>2022-05-11T14:56:25.000Z</time>
      </trkpt>
      <trkpt lat="43.52736" lon="5.54798">
        <ele>267.2</ele>
        <time>2022-05-11T14:56:31.000Z</time>
      </trkpt>
      <trkpt lat="43.52737" lon="5.54793">
        <ele>267.4</ele>
        <time>2022-05-11T14:56:38.000Z</time>
      </trkpt>
      <trkpt lat="43.5274" lon="5.54791">
        <ele>267.6</ele>
        <time>2022-05-11T14:56:42.000Z</time>
      </trkpt>
      <trkpt lat="43.52744" lon="5.54789">
        <ele>267.7</ele>
        <time>2022-05-11T14:56:47.000Z</time>
      </trkpt>
      <trkpt lat="43.52744" lon="5.54789">
        <ele>267.7</ele>
        <time>2022-05-11T14:56:48.000Z</time>
      </trkpt>
      <trkpt lat="43.5275" lon="5.5478">
        <ele>267.9</ele>
        <time>2022-05-11T14:57:01.000Z</time>
      </trkpt>
      <trkpt lat="43.52754" lon="5.5478">
        <ele>268.2</ele>
        <time>2022-05-11T14:57:07.000Z</time>
      </trkpt>
      <trkpt lat="43.52758" lon="5.54781">
        <ele>268.3</ele>
        <time>2022-05-11T14:57:12.000Z</time>
      </trkpt>
      <trkpt lat="43.52762" lon="5.54782">
        <ele>268.3</ele>
        <time>2022-05-11T14:57:16.000Z</time>
      </trkpt>
      <trkpt lat="43.52766" lon="5.54783">
        <ele>268.4</ele>
        <time>2022-05-11T14:57:20.000Z</time>
      </trkpt>
      <trkpt lat="43.52769" lon="5.54785">
        <ele>268.4</ele>
        <time>2022-05-11T14:57:23.000Z</time>
      </trkpt>
      <trkpt lat="43.52773" lon="5.54788">
        <ele>268.5</ele>
        <time>2022-05-11T14:57:26.000Z</time>
      </trkpt>
      <trkpt lat="43.52776" lon="5.5479">
        <ele>268.5</ele>
        <time>2022-05-11T14:57:29.000Z</time>
      </trkpt>
      <trkpt lat="43.5278" lon="5.5479">
        <ele>268.5</ele>
        <time>2022-05-11T14:57:34.000Z</time>
      </trkpt>
      <trkpt lat="43.52783" lon="5.54794">
        <ele>268.5</ele>
        <time>2022-05-11T14:57:39.000Z</time>
      </trkpt>
      <trkpt lat="43.52786" lon="5.54798">
        <ele>268.6</ele>
        <time>2022-05-11T14:57:44.000Z</time>
      </trkpt>
      <trkpt lat="43.52789" lon="5.54801">
        <ele>268.6</ele>
        <time>2022-05-11T14:57:49.000Z</time>
      </trkpt>
      <trkpt lat="43.5279" lon="5.54801">
        <ele>268.6</ele>
        <time>2022-05-11T14:57:50.000Z</time>
      </trkpt>
      <trkpt lat="43.52798" lon="5.54804">
        <ele>268.6</ele>
        <time>2022-05-11T14:57:59.000Z</time>
      </trkpt>
      <trkpt lat="43.52801" lon="5.54808">
        <ele>268.7</ele>
        <time>2022-05-11T14:58:04.000Z</time>
      </trkpt>
      <trkpt lat="43.52805" lon="5.5481">
        <ele>268.8</ele>
        <time>2022-05-11T14:58:09.000Z</time>
      </trkpt>
      <trkpt lat="43.52808" lon="5.54813">
        <ele>269.1</ele>
        <time>2022-05-11T14:58:18.000Z</time>
      </trkpt>
      <trkpt lat="43.52812" lon="5.54816">
        <ele>269.6</ele>
        <time>2022-05-11T14:58:27.000Z</time>
      </trkpt>
      <trkpt lat="43.52814" lon="5.54821">
        <ele>269.9</ele>
        <time>2022-05-11T14:58:32.000Z</time>
      </trkpt>
      <trkpt lat="43.52816" lon="5.54825">
        <ele>270.1</ele>
        <time>2022-05-11T14:58:36.000Z</time>
      </trkpt>
      <trkpt lat="43.52819" lon="5.5483">
        <ele>270.3</ele>
        <time>2022-05-11T14:58:40.000Z</time>
      </trkpt>
      <trkpt lat="43.52822" lon="5.54834">
        <ele>270.6</ele>
        <time>2022-05-11T14:58:44.000Z</time>
      </trkpt>
      <trkpt lat="43.52825" lon="5.54838">
        <ele>270.8</ele>
        <time>2022-05-11T14:58:49.000Z</time>
      </trkpt>
      <trkpt lat="43.52827" lon="5.54842">
        <ele>270.9</ele>
        <time>2022-05-11T14:58:52.000Z</time>
      </trkpt>
      <trkpt lat="43.52828" lon="5.54844">
        <ele>271</ele>
        <time>2022-05-11T14:58:53.000Z</time>
      </trkpt>
      <trkpt lat="43.52832" lon="5.54851">
        <ele>271.4</ele>
        <time>2022-05-11T14:58:58.000Z</time>
      </trkpt>
      <trkpt lat="43.52834" lon="5.54854">
        <ele>271.7</ele>
        <time>2022-05-11T14:59:02.000Z</time>
      </trkpt>
      <trkpt lat="43.52838" lon="5.54857">
        <ele>272.1</ele>
        <time>2022-05-11T14:59:09.000Z</time>
      </trkpt>
      <trkpt lat="43.52841" lon="5.54861">
        <ele>272.4</ele>
        <time>2022-05-11T14:59:14.000Z</time>
      </trkpt>
      <trkpt lat="43.52844" lon="5.54866">
        <ele>272.5</ele>
        <time>2022-05-11T14:59:18.000Z</time>
      </trkpt>
      <trkpt lat="43.52846" lon="5.54871">
        <ele>272.6</ele>
        <time>2022-05-11T14:59:23.000Z</time>
      </trkpt>
      <trkpt lat="43.52848" lon="5.54875">
        <ele>272.9</ele>
        <time>2022-05-11T14:59:28.000Z</time>
      </trkpt>
      <trkpt lat="43.5285" lon="5.54879">
        <ele>273.1</ele>
        <time>2022-05-11T14:59:32.000Z</time>
      </trkpt>
      <trkpt lat="43.52853" lon="5.54884">
        <ele>273.4</ele>
        <time>2022-05-11T14:59:37.000Z</time>
      </trkpt>
      <trkpt lat="43.52856" lon="5.54887">
        <ele>273.7</ele>
        <time>2022-05-11T14:59:43.000Z</time>
      </trkpt>
      <trkpt lat="43.5286" lon="5.54889">
        <ele>273.9</ele>
        <time>2022-05-11T14:59:47.000Z</time>
      </trkpt>
      <trkpt lat="43.52863" lon="5.54891">
        <ele>274.1</ele>
        <time>2022-05-11T14:59:51.000Z</time>
      </trkpt>
      <trkpt lat="43.52867" lon="5.54894">
        <ele>274.2</ele>
        <time>2022-05-11T14:59:54.000Z</time>
      </trkpt>
      <trkpt lat="43.52868" lon="5.54895">
        <ele>274.2</ele>
        <time>2022-05-11T14:59:55.000Z</time>
      </trkpt>
      <trkpt lat="43.52873" lon="5.54901">
        <ele>274.4</ele>
        <time>2022-05-11T15:00:01.000Z</time>
      </trkpt>
      <trkpt lat="43.52876" lon="5.54904">
        <ele>274.4</ele>
        <time>2022-05-11T15:00:05.000Z</time>
      </trkpt>
      <trkpt lat="43.52879" lon="5.54908">
        <ele>274.2</ele>
        <time>2022-05-11T15:00:10.000Z</time>
      </trkpt>
      <trkpt lat="43.52882" lon="5.54912">
        <ele>274.2</ele>
        <time>2022-05-11T15:00:14.000Z</time>
      </trkpt>
      <trkpt lat="43.52884" lon="5.54915">
        <ele>274.3</ele>
        <time>2022-05-11T15:00:16.000Z</time>
      </trkpt>
      <trkpt lat="43.52887" lon="5.54918">
        <ele>274.3</ele>
        <time>2022-05-11T15:00:18.000Z</time>
      </trkpt>
      <trkpt lat="43.5289" lon="5.54921">
        <ele>274.1</ele>
        <time>2022-05-11T15:00:21.000Z</time>
      </trkpt>
      <trkpt lat="43.52893" lon="5.54923">
        <ele>273.9</ele>
        <time>2022-05-11T15:00:24.000Z</time>
      </trkpt>
      <trkpt lat="43.52896" lon="5.54926">
        <ele>273.8</ele>
        <time>2022-05-11T15:00:27.000Z</time>
      </trkpt>
      <trkpt lat="43.52899" lon="5.54929">
        <ele>273.7</ele>
        <time>2022-05-11T15:00:30.000Z</time>
      </trkpt>
      <trkpt lat="43.52902" lon="5.54934">
        <ele>273.6</ele>
        <time>2022-05-11T15:00:33.000Z</time>
      </trkpt>
      <trkpt lat="43.52905" lon="5.54937">
        <ele>273.5</ele>
        <time>2022-05-11T15:00:37.000Z</time>
      </trkpt>
      <trkpt lat="43.52908" lon="5.5494">
        <ele>273.5</ele>
        <time>2022-05-11T15:00:41.000Z</time>
      </trkpt>
      <trkpt lat="43.52912" lon="5.54942">
        <ele>273.6</ele>
        <time>2022-05-11T15:00:45.000Z</time>
      </trkpt>
      <trkpt lat="43.52916" lon="5.54942">
        <ele>273.7</ele>
        <time>2022-05-11T15:00:48.000Z</time>
      </trkpt>
      <trkpt lat="43.52919" lon="5.54946">
        <ele>273.7</ele>
        <time>2022-05-11T15:00:52.000Z</time>
      </trkpt>
      <trkpt lat="43.52922" lon="5.54949">
        <ele>273.7</ele>
        <time>2022-05-11T15:00:55.000Z</time>
      </trkpt>
      <trkpt lat="43.52924" lon="5.54953">
        <ele>273.7</ele>
        <time>2022-05-11T15:00:59.000Z</time>
      </trkpt>
      <trkpt lat="43.52924" lon="5.54954">
        <ele>273.7</ele>
        <time>2022-05-11T15:01:00.000Z</time>
      </trkpt>
      <trkpt lat="43.52931" lon="5.54959">
        <ele>273.8</ele>
        <time>2022-05-11T15:01:11.000Z</time>
      </trkpt>
      <trkpt lat="43.52935" lon="5.54959">
        <ele>274</ele>
        <time>2022-05-11T15:01:16.000Z</time>
      </trkpt>
      <trkpt lat="43.52939" lon="5.54959">
        <ele>274.2</ele>
        <time>2022-05-11T15:01:20.000Z</time>
      </trkpt>
      <trkpt lat="43.52943" lon="5.54957">
        <ele>274.3</ele>
        <time>2022-05-11T15:01:24.000Z</time>
      </trkpt>
      <trkpt lat="43.52947" lon="5.54954">
        <ele>274.5</ele>
        <time>2022-05-11T15:01:28.000Z</time>
      </trkpt>
      <trkpt lat="43.52949" lon="5.5495">
        <ele>274.6</ele>
        <time>2022-05-11T15:01:31.000Z</time>
      </trkpt>
      <trkpt lat="43.52952" lon="5.54947">
        <ele>274.8</ele>
        <time>2022-05-11T15:01:34.000Z</time>
      </trkpt>
      <trkpt lat="43.52955" lon="5.54944">
        <ele>274.9</ele>
        <time>2022-05-11T15:01:37.000Z</time>
      </trkpt>
      <trkpt lat="43.52959" lon="5.54942">
        <ele>275.1</ele>
        <time>2022-05-11T15:01:41.000Z</time>
      </trkpt>
      <trkpt lat="43.52963" lon="5.5494">
        <ele>275.2</ele>
        <time>2022-05-11T15:01:45.000Z</time>
      </trkpt>
      <trkpt lat="43.52967" lon="5.5494">
        <ele>275.3</ele>
        <time>2022-05-11T15:01:49.000Z</time>
      </trkpt>
      <trkpt lat="43.52971" lon="5.54939">
        <ele>275.3</ele>
        <time>2022-05-11T15:01:53.000Z</time>
      </trkpt>
      <trkpt lat="43.52974" lon="5.54939">
        <ele>275.4</ele>
        <time>2022-05-11T15:01:57.000Z</time>
      </trkpt>
      <trkpt lat="43.52978" lon="5.54939">
        <ele>275.4</ele>
        <time>2022-05-11T15:02:01.000Z</time>
      </trkpt>
      <trkpt lat="43.5298" lon="5.54939">
        <ele>275.4</ele>
        <time>2022-05-11T15:02:02.000Z</time>
      </trkpt>
      <trkpt lat="43.52987" lon="5.54941">
        <ele>275.7</ele>
        <time>2022-05-11T15:02:10.000Z</time>
      </trkpt>
      <trkpt lat="43.52991" lon="5.54942">
        <ele>275.9</ele>
        <time>2022-05-11T15:02:15.000Z</time>
      </trkpt>
      <trkpt lat="43.52995" lon="5.54941">
        <ele>276.1</ele>
        <time>2022-05-11T15:02:19.000Z</time>
      </trkpt>
      <trkpt lat="43.52998" lon="5.54938">
        <ele>276.4</ele>
        <time>2022-05-11T15:02:23.000Z</time>
      </trkpt>
      <trkpt lat="43.53002" lon="5.54935">
        <ele>276.6</ele>
        <time>2022-05-11T15:02:28.000Z</time>
      </trkpt>
      <trkpt lat="43.53005" lon="5.54933">
        <ele>276.9</ele>
        <time>2022-05-11T15:02:32.000Z</time>
      </trkpt>
      <trkpt lat="43.53008" lon="5.54929">
        <ele>277.1</ele>
        <time>2022-05-11T15:02:36.000Z</time>
      </trkpt>
      <trkpt lat="43.53011" lon="5.54924">
        <ele>277.3</ele>
        <time>2022-05-11T15:02:41.000Z</time>
      </trkpt>
      <trkpt lat="43.53013" lon="5.54919">
        <ele>277.6</ele>
        <time>2022-05-11T15:02:48.000Z</time>
      </trkpt>
      <trkpt lat="43.53009" lon="5.54919">
        <ele>277.8</ele>
        <time>2022-05-11T15:02:59.000Z</time>
      </trkpt>
      <trkpt lat="43.53009" lon="5.54912">
        <ele>277.9</ele>
        <time>2022-05-11T15:03:05.000Z</time>
      </trkpt>
      <trkpt lat="43.53009" lon="5.54911">
        <ele>277.9</ele>
        <time>2022-05-11T15:03:06.000Z</time>
      </trkpt>
      <trkpt lat="43.53012" lon="5.54902">
        <ele>277.9</ele>
        <time>2022-05-11T15:03:10.000Z</time>
      </trkpt>
      <trkpt lat="43.53014" lon="5.54896">
        <ele>278</ele>
        <time>2022-05-11T15:03:14.000Z</time>
      </trkpt>
      <trkpt lat="43.53015" lon="5.54891">
        <ele>278.1</ele>
        <time>2022-05-11T15:03:20.000Z</time>
      </trkpt>
      <trkpt lat="43.53018" lon="5.54887">
        <ele>278.2</ele>
        <time>2022-05-11T15:03:27.000Z</time>
      </trkpt>
      <trkpt lat="43.53019" lon="5.54881">
        <ele>278.3</ele>
        <time>2022-05-11T15:03:33.000Z</time>
      </trkpt>
      <trkpt lat="43.53023" lon="5.54879">
        <ele>278.4</ele>
        <time>2022-05-11T15:03:43.000Z</time>
      </trkpt>
      <trkpt lat="43.53019" lon="5.54881">
        <ele>278.6</ele>
        <time>2022-05-11T15:04:04.000Z</time>
      </trkpt>
      <trkpt lat="43.53015" lon="5.54884">
        <ele>278.7</ele>
        <time>2022-05-11T15:04:11.000Z</time>
      </trkpt>
      <trkpt lat="43.53015" lon="5.54884">
        <ele>278.7</ele>
        <time>2022-05-11T15:04:12.000Z</time>
      </trkpt>
      <trkpt lat="43.53023" lon="5.54882">
        <ele>279.4</ele>
        <time>2022-05-11T15:04:40.000Z</time>
      </trkpt>
      <trkpt lat="43.53027" lon="5.5488">
        <ele>279.8</ele>
        <time>2022-05-11T15:04:45.000Z</time>
      </trkpt>
      <trkpt lat="43.5303" lon="5.54878">
        <ele>280.2</ele>
        <time>2022-05-11T15:04:49.000Z</time>
      </trkpt>
      <trkpt lat="43.53035" lon="5.54877">
        <ele>280.5</ele>
        <time>2022-05-11T15:04:54.000Z</time>
      </trkpt>
      <trkpt lat="43.53039" lon="5.54878">
        <ele>281.5</ele>
        <time>2022-05-11T15:05:06.000Z</time>
      </trkpt>
      <trkpt lat="43.53042" lon="5.54875">
        <ele>282</ele>
        <time>2022-05-11T15:05:12.000Z</time>
      </trkpt>
      <trkpt lat="43.53043" lon="5.54872">
        <ele>282.1</ele>
        <time>2022-05-11T15:05:13.000Z</time>
      </trkpt>
      <trkpt lat="43.53045" lon="5.54867">
        <ele>282.3</ele>
        <time>2022-05-11T15:05:15.000Z</time>
      </trkpt>
      <trkpt lat="43.53047" lon="5.54864">
        <ele>282.7</ele>
        <time>2022-05-11T15:05:18.000Z</time>
      </trkpt>
      <trkpt lat="43.53049" lon="5.5486">
        <ele>283</ele>
        <time>2022-05-11T15:05:20.000Z</time>
      </trkpt>
      <trkpt lat="43.53051" lon="5.54857">
        <ele>283</ele>
        <time>2022-05-11T15:05:23.000Z</time>
      </trkpt>
      <trkpt lat="43.53055" lon="5.54853">
        <ele>284.8</ele>
        <time>2022-05-11T15:05:33.000Z</time>
      </trkpt>
      <trkpt lat="43.53057" lon="5.54849">
        <ele>285.3</ele>
        <time>2022-05-11T15:05:37.000Z</time>
      </trkpt>
      <trkpt lat="43.53059" lon="5.54845">
        <ele>285.6</ele>
        <time>2022-05-11T15:05:40.000Z</time>
      </trkpt>
      <trkpt lat="43.53062" lon="5.54841">
        <ele>285.9</ele>
        <time>2022-05-11T15:05:43.000Z</time>
      </trkpt>
      <trkpt lat="43.53065" lon="5.54837">
        <ele>286.8</ele>
        <time>2022-05-11T15:05:50.000Z</time>
      </trkpt>
      <trkpt lat="43.53069" lon="5.54836">
        <ele>287.4</ele>
        <time>2022-05-11T15:05:56.000Z</time>
      </trkpt>
      <trkpt lat="43.53072" lon="5.54833">
        <ele>287.8</ele>
        <time>2022-05-11T15:06:00.000Z</time>
      </trkpt>
      <trkpt lat="43.53076" lon="5.5483">
        <ele>288.3</ele>
        <time>2022-05-11T15:06:05.000Z</time>
      </trkpt>
      <trkpt lat="43.53078" lon="5.54826">
        <ele>289</ele>
        <time>2022-05-11T15:06:13.000Z</time>
      </trkpt>
      <trkpt lat="43.53082" lon="5.54822">
        <ele>289.3</ele>
        <time>2022-05-11T15:06:17.000Z</time>
      </trkpt>
      <trkpt lat="43.53083" lon="5.54821">
        <ele>289.3</ele>
        <time>2022-05-11T15:06:18.000Z</time>
      </trkpt>
      <trkpt lat="43.53089" lon="5.54818">
        <ele>290.1</ele>
        <time>2022-05-11T15:06:30.000Z</time>
      </trkpt>
      <trkpt lat="43.53093" lon="5.54817">
        <ele>290.3</ele>
        <time>2022-05-11T15:06:33.000Z</time>
      </trkpt>
      <trkpt lat="43.53096" lon="5.54815">
        <ele>290.8</ele>
        <time>2022-05-11T15:06:39.000Z</time>
      </trkpt>
      <trkpt lat="43.531" lon="5.54813">
        <ele>291.5</ele>
        <time>2022-05-11T15:06:45.000Z</time>
      </trkpt>
      <trkpt lat="43.53104" lon="5.54813">
        <ele>291.9</ele>
        <time>2022-05-11T15:06:50.000Z</time>
      </trkpt>
      <trkpt lat="43.53108" lon="5.54813">
        <ele>292.5</ele>
        <time>2022-05-11T15:06:57.000Z</time>
      </trkpt>
      <trkpt lat="43.53112" lon="5.5481">
        <ele>292.9</ele>
        <time>2022-05-11T15:07:01.000Z</time>
      </trkpt>
      <trkpt lat="43.53116" lon="5.54809">
        <ele>293.4</ele>
        <time>2022-05-11T15:07:06.000Z</time>
      </trkpt>
      <trkpt lat="43.53119" lon="5.54806">
        <ele>293.8</ele>
        <time>2022-05-11T15:07:11.000Z</time>
      </trkpt>
      <trkpt lat="43.53123" lon="5.54803">
        <ele>294.5</ele>
        <time>2022-05-11T15:07:17.000Z</time>
      </trkpt>
      <trkpt lat="43.53126" lon="5.54801">
        <ele>295.3</ele>
        <time>2022-05-11T15:07:23.000Z</time>
      </trkpt>
      <trkpt lat="43.53127" lon="5.548">
        <ele>295.5</ele>
        <time>2022-05-11T15:07:24.000Z</time>
      </trkpt>
      <trkpt lat="43.53134" lon="5.54797">
        <ele>297.1</ele>
        <time>2022-05-11T15:07:37.000Z</time>
      </trkpt>
      <trkpt lat="43.53138" lon="5.548">
        <ele>297.8</ele>
        <time>2022-05-11T15:07:42.000Z</time>
      </trkpt>
      <trkpt lat="43.53142" lon="5.54802">
        <ele>298.8</ele>
        <time>2022-05-11T15:07:48.000Z</time>
      </trkpt>
      <trkpt lat="43.53146" lon="5.54803">
        <ele>299.7</ele>
        <time>2022-05-11T15:07:55.000Z</time>
      </trkpt>
      <trkpt lat="43.5315" lon="5.54802">
        <ele>300.7</ele>
        <time>2022-05-11T15:08:06.000Z</time>
      </trkpt>
      <trkpt lat="43.53153" lon="5.54798">
        <ele>301.2</ele>
        <time>2022-05-11T15:08:11.000Z</time>
      </trkpt>
      <trkpt lat="43.53158" lon="5.54797">
        <ele>301.8</ele>
        <time>2022-05-11T15:08:20.000Z</time>
      </trkpt>
      <trkpt lat="43.53162" lon="5.54797">
        <ele>302.5</ele>
        <time>2022-05-11T15:08:30.000Z</time>
      </trkpt>
      <trkpt lat="43.53162" lon="5.54797">
        <ele>302.6</ele>
        <time>2022-05-11T15:08:31.000Z</time>
      </trkpt>
      <trkpt lat="43.5317" lon="5.54799">
        <ele>303.8</ele>
        <time>2022-05-11T15:08:44.000Z</time>
      </trkpt>
      <trkpt lat="43.53173" lon="5.54799">
        <ele>304.2</ele>
        <time>2022-05-11T15:08:48.000Z</time>
      </trkpt>
      <trkpt lat="43.53177" lon="5.54799">
        <ele>304.6</ele>
        <time>2022-05-11T15:08:52.000Z</time>
      </trkpt>
      <trkpt lat="43.53181" lon="5.548">
        <ele>305</ele>
        <time>2022-05-11T15:08:55.000Z</time>
      </trkpt>
      <trkpt lat="43.53185" lon="5.548">
        <ele>305.4</ele>
        <time>2022-05-11T15:08:59.000Z</time>
      </trkpt>
      <trkpt lat="43.5319" lon="5.54798">
        <ele>306.3</ele>
        <time>2022-05-11T15:09:06.000Z</time>
      </trkpt>
      <trkpt lat="43.53194" lon="5.54797">
        <ele>307.2</ele>
        <time>2022-05-11T15:09:12.000Z</time>
      </trkpt>
      <trkpt lat="43.53198" lon="5.54794">
        <ele>308.4</ele>
        <time>2022-05-11T15:09:24.000Z</time>
      </trkpt>
      <trkpt lat="43.532" lon="5.54789">
        <ele>309.6</ele>
        <time>2022-05-11T15:09:35.000Z</time>
      </trkpt>
      <trkpt lat="43.53201" lon="5.54789">
        <ele>309.6</ele>
        <time>2022-05-11T15:09:36.000Z</time>
      </trkpt>
      <trkpt lat="43.53204" lon="5.54779">
        <ele>311.4</ele>
        <time>2022-05-11T15:09:51.000Z</time>
      </trkpt>
      <trkpt lat="43.53206" lon="5.54773">
        <ele>312.4</ele>
        <time>2022-05-11T15:09:58.000Z</time>
      </trkpt>
      <trkpt lat="43.53207" lon="5.54768">
        <ele>313.2</ele>
        <time>2022-05-11T15:10:05.000Z</time>
      </trkpt>
      <trkpt lat="43.53208" lon="5.54762">
        <ele>313.8</ele>
        <time>2022-05-11T15:10:11.000Z</time>
      </trkpt>
      <trkpt lat="43.53206" lon="5.54756">
        <ele>315.5</ele>
        <time>2022-05-11T15:10:23.000Z</time>
      </trkpt>
      <trkpt lat="43.53204" lon="5.54751">
        <ele>317.1</ele>
        <time>2022-05-11T15:10:34.000Z</time>
      </trkpt>
      <trkpt lat="43.53202" lon="5.54746">
        <ele>318.2</ele>
        <time>2022-05-11T15:10:42.000Z</time>
      </trkpt>
      <trkpt lat="43.53201" lon="5.54745">
        <ele>318.4</ele>
        <time>2022-05-11T15:10:43.000Z</time>
      </trkpt>
      <trkpt lat="43.53198" lon="5.54736">
        <ele>319.6</ele>
        <time>2022-05-11T15:10:54.000Z</time>
      </trkpt>
      <trkpt lat="43.53196" lon="5.54731">
        <ele>320</ele>
        <time>2022-05-11T15:10:59.000Z</time>
      </trkpt>
      <trkpt lat="43.53194" lon="5.54726">
        <ele>320.4</ele>
        <time>2022-05-11T15:11:03.000Z</time>
      </trkpt>
      <trkpt lat="43.53193" lon="5.5472">
        <ele>320.9</ele>
        <time>2022-05-11T15:11:08.000Z</time>
      </trkpt>
      <trkpt lat="43.53191" lon="5.54715">
        <ele>321.3</ele>
        <time>2022-05-11T15:11:13.000Z</time>
      </trkpt>
      <trkpt lat="43.53189" lon="5.54711">
        <ele>321.7</ele>
        <time>2022-05-11T15:11:18.000Z</time>
      </trkpt>
      <trkpt lat="43.53188" lon="5.54706">
        <ele>322.1</ele>
        <time>2022-05-11T15:11:22.000Z</time>
      </trkpt>
      <trkpt lat="43.53187" lon="5.54701">
        <ele>322.5</ele>
        <time>2022-05-11T15:11:26.000Z</time>
      </trkpt>
      <trkpt lat="43.53187" lon="5.54695">
        <ele>322.8</ele>
        <time>2022-05-11T15:11:30.000Z</time>
      </trkpt>
      <trkpt lat="43.53187" lon="5.54689">
        <ele>323.3</ele>
        <time>2022-05-11T15:11:34.000Z</time>
      </trkpt>
      <trkpt lat="43.53187" lon="5.54683">
        <ele>323.9</ele>
        <time>2022-05-11T15:11:39.000Z</time>
      </trkpt>
      <trkpt lat="43.53188" lon="5.54677">
        <ele>324.3</ele>
        <time>2022-05-11T15:11:44.000Z</time>
      </trkpt>
      <trkpt lat="43.53188" lon="5.54676">
        <ele>324.4</ele>
        <time>2022-05-11T15:11:45.000Z</time>
      </trkpt>
      <trkpt lat="43.53189" lon="5.54666">
        <ele>325.1</ele>
        <time>2022-05-11T15:11:55.000Z</time>
      </trkpt>
      <trkpt lat="43.53188" lon="5.5466">
        <ele>325.8</ele>
        <time>2022-05-11T15:12:03.000Z</time>
      </trkpt>
      <trkpt lat="43.53187" lon="5.54655">
        <ele>326.4</ele>
        <time>2022-05-11T15:12:08.000Z</time>
      </trkpt>
      <trkpt lat="43.53188" lon="5.54649">
        <ele>327.1</ele>
        <time>2022-05-11T15:12:13.000Z</time>
      </trkpt>
      <trkpt lat="43.53188" lon="5.54643">
        <ele>327.8</ele>
        <time>2022-05-11T15:12:18.000Z</time>
      </trkpt>
      <trkpt lat="43.53188" lon="5.54637">
        <ele>328.3</ele>
        <time>2022-05-11T15:12:24.000Z</time>
      </trkpt>
      <trkpt lat="43.53187" lon="5.54632">
        <ele>329.1</ele>
        <time>2022-05-11T15:12:31.000Z</time>
      </trkpt>
      <trkpt lat="43.53185" lon="5.54626">
        <ele>329.9</ele>
        <time>2022-05-11T15:12:40.000Z</time>
      </trkpt>
      <trkpt lat="43.53184" lon="5.54621">
        <ele>330.7</ele>
        <time>2022-05-11T15:12:47.000Z</time>
      </trkpt>
      <trkpt lat="43.53184" lon="5.5462">
        <ele>330.8</ele>
        <time>2022-05-11T15:12:48.000Z</time>
      </trkpt>
      <trkpt lat="43.53184" lon="5.5461">
        <ele>331.4</ele>
        <time>2022-05-11T15:12:55.000Z</time>
      </trkpt>
      <trkpt lat="43.53184" lon="5.54604">
        <ele>331.7</ele>
        <time>2022-05-11T15:12:59.000Z</time>
      </trkpt>
      <trkpt lat="43.53184" lon="5.54599">
        <ele>332</ele>
        <time>2022-05-11T15:13:03.000Z</time>
      </trkpt>
      <trkpt lat="43.53184" lon="5.54593">
        <ele>332.4</ele>
        <time>2022-05-11T15:13:09.000Z</time>
      </trkpt>
      <trkpt lat="43.53183" lon="5.54587">
        <ele>332.9</ele>
        <time>2022-05-11T15:13:15.000Z</time>
      </trkpt>
      <trkpt lat="43.53183" lon="5.54582">
        <ele>333.4</ele>
        <time>2022-05-11T15:13:20.000Z</time>
      </trkpt>
      <trkpt lat="43.53182" lon="5.54576">
        <ele>333.9</ele>
        <time>2022-05-11T15:13:25.000Z</time>
      </trkpt>
      <trkpt lat="43.53182" lon="5.54571">
        <ele>334.3</ele>
        <time>2022-05-11T15:13:30.000Z</time>
      </trkpt>
      <trkpt lat="43.53182" lon="5.54565">
        <ele>335</ele>
        <time>2022-05-11T15:13:36.000Z</time>
      </trkpt>
      <trkpt lat="43.53182" lon="5.54559">
        <ele>335.5</ele>
        <time>2022-05-11T15:13:41.000Z</time>
      </trkpt>
      <trkpt lat="43.53182" lon="5.54553">
        <ele>335.9</ele>
        <time>2022-05-11T15:13:46.000Z</time>
      </trkpt>
      <trkpt lat="43.53181" lon="5.54547">
        <ele>336.3</ele>
        <time>2022-05-11T15:13:53.000Z</time>
      </trkpt>
      <trkpt lat="43.53181" lon="5.54546">
        <ele>336.4</ele>
        <time>2022-05-11T15:13:54.000Z</time>
      </trkpt>
      <trkpt lat="43.53178" lon="5.54536">
        <ele>337.4</ele>
        <time>2022-05-11T15:14:06.000Z</time>
      </trkpt>
      <trkpt lat="43.53178" lon="5.5453">
        <ele>337.9</ele>
        <time>2022-05-11T15:14:11.000Z</time>
      </trkpt>
      <trkpt lat="43.53177" lon="5.54525">
        <ele>338.4</ele>
        <time>2022-05-11T15:14:16.000Z</time>
      </trkpt>
      <trkpt lat="43.53176" lon="5.54519">
        <ele>338.7</ele>
        <time>2022-05-11T15:14:22.000Z</time>
      </trkpt>
      <trkpt lat="43.53175" lon="5.54514">
        <ele>338.9</ele>
        <time>2022-05-11T15:14:27.000Z</time>
      </trkpt>
      <trkpt lat="43.53175" lon="5.54508">
        <ele>339.1</ele>
        <time>2022-05-11T15:14:32.000Z</time>
      </trkpt>
      <trkpt lat="43.53174" lon="5.54503">
        <ele>339.4</ele>
        <time>2022-05-11T15:14:38.000Z</time>
      </trkpt>
      <trkpt lat="43.53173" lon="5.54498">
        <ele>339.6</ele>
        <time>2022-05-11T15:14:43.000Z</time>
      </trkpt>
      <trkpt lat="43.53173" lon="5.54492">
        <ele>339.7</ele>
        <time>2022-05-11T15:14:47.000Z</time>
      </trkpt>
      <trkpt lat="43.53173" lon="5.54487">
        <ele>339.8</ele>
        <time>2022-05-11T15:14:51.000Z</time>
      </trkpt>
      <trkpt lat="43.53173" lon="5.54481">
        <ele>339.8</ele>
        <time>2022-05-11T15:14:55.000Z</time>
      </trkpt>
      <trkpt lat="43.53173" lon="5.5448">
        <ele>339.9</ele>
        <time>2022-05-11T15:14:56.000Z</time>
      </trkpt>
      <trkpt lat="43.53175" lon="5.5447">
        <ele>340</ele>
        <time>2022-05-11T15:15:05.000Z</time>
      </trkpt>
      <trkpt lat="43.53178" lon="5.54466">
        <ele>340</ele>
        <time>2022-05-11T15:15:10.000Z</time>
      </trkpt>
      <trkpt lat="43.53182" lon="5.54463">
        <ele>340</ele>
        <time>2022-05-11T15:15:15.000Z</time>
      </trkpt>
      <trkpt lat="43.53185" lon="5.54459">
        <ele>340</ele>
        <time>2022-05-11T15:15:19.000Z</time>
      </trkpt>
      <trkpt lat="43.53188" lon="5.54455">
        <ele>339.8</ele>
        <time>2022-05-11T15:15:23.000Z</time>
      </trkpt>
      <trkpt lat="43.5319" lon="5.54451">
        <ele>339.8</ele>
        <time>2022-05-11T15:15:26.000Z</time>
      </trkpt>
      <trkpt lat="43.53193" lon="5.54447">
        <ele>339.8</ele>
        <time>2022-05-11T15:15:30.000Z</time>
      </trkpt>
      <trkpt lat="43.53195" lon="5.54442">
        <ele>339.8</ele>
        <time>2022-05-11T15:15:35.000Z</time>
      </trkpt>
      <trkpt lat="43.53198" lon="5.54438">
        <ele>339.8</ele>
        <time>2022-05-11T15:15:41.000Z</time>
      </trkpt>
      <trkpt lat="43.53203" lon="5.54438">
        <ele>340</ele>
        <time>2022-05-11T15:15:47.000Z</time>
      </trkpt>
      <trkpt lat="43.53206" lon="5.54438">
        <ele>340.2</ele>
        <time>2022-05-11T15:15:53.000Z</time>
      </trkpt>
      <trkpt lat="43.53209" lon="5.54435">
        <ele>340.6</ele>
        <time>2022-05-11T15:16:03.000Z</time>
      </trkpt>
      <trkpt lat="43.5321" lon="5.54434">
        <ele>340.6</ele>
        <time>2022-05-11T15:16:04.000Z</time>
      </trkpt>
      <trkpt lat="43.53215" lon="5.54427">
        <ele>341.1</ele>
        <time>2022-05-11T15:16:12.000Z</time>
      </trkpt>
      <trkpt lat="43.53218" lon="5.54422">
        <ele>341.6</ele>
        <time>2022-05-11T15:16:17.000Z</time>
      </trkpt>
      <trkpt lat="43.53221" lon="5.54417">
        <ele>342</ele>
        <time>2022-05-11T15:16:22.000Z</time>
      </trkpt>
      <trkpt lat="43.53223" lon="5.54414">
        <ele>342.2</ele>
        <time>2022-05-11T15:16:26.000Z</time>
      </trkpt>
      <trkpt lat="43.53226" lon="5.5441">
        <ele>342.5</ele>
        <time>2022-05-11T15:16:31.000Z</time>
      </trkpt>
      <trkpt lat="43.53228" lon="5.54405">
        <ele>342.8</ele>
        <time>2022-05-11T15:16:36.000Z</time>
      </trkpt>
      <trkpt lat="43.53232" lon="5.54402">
        <ele>343.1</ele>
        <time>2022-05-11T15:16:41.000Z</time>
      </trkpt>
      <trkpt lat="43.53235" lon="5.54399">
        <ele>343.6</ele>
        <time>2022-05-11T15:16:46.000Z</time>
      </trkpt>
      <trkpt lat="43.53238" lon="5.54395">
        <ele>343.9</ele>
        <time>2022-05-11T15:16:51.000Z</time>
      </trkpt>
      <trkpt lat="43.53242" lon="5.54392">
        <ele>344.3</ele>
        <time>2022-05-11T15:16:57.000Z</time>
      </trkpt>
      <trkpt lat="43.53245" lon="5.54389">
        <ele>344.6</ele>
        <time>2022-05-11T15:17:01.000Z</time>
      </trkpt>
      <trkpt lat="43.53248" lon="5.54385">
        <ele>344.8</ele>
        <time>2022-05-11T15:17:05.000Z</time>
      </trkpt>
      <trkpt lat="43.53248" lon="5.54384">
        <ele>344.9</ele>
        <time>2022-05-11T15:17:06.000Z</time>
      </trkpt>
      <trkpt lat="43.53254" lon="5.54379">
        <ele>345.6</ele>
        <time>2022-05-11T15:17:14.000Z</time>
      </trkpt>
      <trkpt lat="43.53257" lon="5.54375">
        <ele>346.1</ele>
        <time>2022-05-11T15:17:20.000Z</time>
      </trkpt>
      <trkpt lat="43.53259" lon="5.54371">
        <ele>346.4</ele>
        <time>2022-05-11T15:17:25.000Z</time>
      </trkpt>
      <trkpt lat="43.53262" lon="5.54366">
        <ele>346.7</ele>
        <time>2022-05-11T15:17:30.000Z</time>
      </trkpt>
      <trkpt lat="43.53264" lon="5.54363">
        <ele>346.9</ele>
        <time>2022-05-11T15:17:35.000Z</time>
      </trkpt>
      <trkpt lat="43.53266" lon="5.54358">
        <ele>347.2</ele>
        <time>2022-05-11T15:17:40.000Z</time>
      </trkpt>
      <trkpt lat="43.53269" lon="5.54354">
        <ele>347.5</ele>
        <time>2022-05-11T15:17:45.000Z</time>
      </trkpt>
      <trkpt lat="43.53272" lon="5.5435">
        <ele>347.9</ele>
        <time>2022-05-11T15:17:50.000Z</time>
      </trkpt>
      <trkpt lat="43.53273" lon="5.54346">
        <ele>348.2</ele>
        <time>2022-05-11T15:17:54.000Z</time>
      </trkpt>
      <trkpt lat="43.53274" lon="5.54341">
        <ele>348.7</ele>
        <time>2022-05-11T15:17:59.000Z</time>
      </trkpt>
      <trkpt lat="43.53276" lon="5.54335">
        <ele>349.2</ele>
        <time>2022-05-11T15:18:05.000Z</time>
      </trkpt>
      <trkpt lat="43.53277" lon="5.5433">
        <ele>349.6</ele>
        <time>2022-05-11T15:18:11.000Z</time>
      </trkpt>
      <trkpt lat="43.53278" lon="5.54329">
        <ele>349.6</ele>
        <time>2022-05-11T15:18:12.000Z</time>
      </trkpt>
      <trkpt lat="43.53281" lon="5.5432">
        <ele>350</ele>
        <time>2022-05-11T15:18:22.000Z</time>
      </trkpt>
      <trkpt lat="43.53282" lon="5.54314">
        <ele>350.3</ele>
        <time>2022-05-11T15:18:30.000Z</time>
      </trkpt>
      <trkpt lat="43.53284" lon="5.54309">
        <ele>350.6</ele>
        <time>2022-05-11T15:18:37.000Z</time>
      </trkpt>
      <trkpt lat="43.53283" lon="5.54303">
        <ele>351.2</ele>
        <time>2022-05-11T15:18:44.000Z</time>
      </trkpt>
      <trkpt lat="43.53285" lon="5.54298">
        <ele>351.8</ele>
        <time>2022-05-11T15:18:50.000Z</time>
      </trkpt>
      <trkpt lat="43.53287" lon="5.54293">
        <ele>352.1</ele>
        <time>2022-05-11T15:18:54.000Z</time>
      </trkpt>
      <trkpt lat="43.53289" lon="5.54288">
        <ele>352.5</ele>
        <time>2022-05-11T15:18:59.000Z</time>
      </trkpt>
      <trkpt lat="43.53291" lon="5.54284">
        <ele>352.8</ele>
        <time>2022-05-11T15:19:03.000Z</time>
      </trkpt>
      <trkpt lat="43.53292" lon="5.54278">
        <ele>353.1</ele>
        <time>2022-05-11T15:19:07.000Z</time>
      </trkpt>
      <trkpt lat="43.53293" lon="5.54273">
        <ele>353.5</ele>
        <time>2022-05-11T15:19:12.000Z</time>
      </trkpt>
      <trkpt lat="43.53293" lon="5.54272">
        <ele>353.6</ele>
        <time>2022-05-11T15:19:13.000Z</time>
      </trkpt>
      <trkpt lat="43.53298" lon="5.54264">
        <ele>355.1</ele>
        <time>2022-05-11T15:19:27.000Z</time>
      </trkpt>
      <trkpt lat="43.53302" lon="5.5426">
        <ele>356.2</ele>
        <time>2022-05-11T15:19:35.000Z</time>
      </trkpt>
      <trkpt lat="43.53304" lon="5.54256">
        <ele>357</ele>
        <time>2022-05-11T15:19:41.000Z</time>
      </trkpt>
      <trkpt lat="43.53306" lon="5.54251">
        <ele>357.6</ele>
        <time>2022-05-11T15:19:46.000Z</time>
      </trkpt>
      <trkpt lat="43.53308" lon="5.54246">
        <ele>357.9</ele>
        <time>2022-05-11T15:19:50.000Z</time>
      </trkpt>
      <trkpt lat="43.53308" lon="5.5424">
        <ele>358.3</ele>
        <time>2022-05-11T15:19:55.000Z</time>
      </trkpt>
      <trkpt lat="43.5331" lon="5.54235">
        <ele>358.8</ele>
        <time>2022-05-11T15:20:00.000Z</time>
      </trkpt>
      <trkpt lat="43.53312" lon="5.5423">
        <ele>359.1</ele>
        <time>2022-05-11T15:20:05.000Z</time>
      </trkpt>
      <trkpt lat="43.53314" lon="5.54225">
        <ele>359.6</ele>
        <time>2022-05-11T15:20:11.000Z</time>
      </trkpt>
      <trkpt lat="43.53317" lon="5.54222">
        <ele>360</ele>
        <time>2022-05-11T15:20:18.000Z</time>
      </trkpt>
      <trkpt lat="43.53318" lon="5.54221">
        <ele>360.1</ele>
        <time>2022-05-11T15:20:19.000Z</time>
      </trkpt>
      <trkpt lat="43.53325" lon="5.54216">
        <ele>360.8</ele>
        <time>2022-05-11T15:20:28.000Z</time>
      </trkpt>
      <trkpt lat="43.53329" lon="5.54213">
        <ele>361.3</ele>
        <time>2022-05-11T15:20:34.000Z</time>
      </trkpt>
      <trkpt lat="43.53333" lon="5.54211">
        <ele>361.7</ele>
        <time>2022-05-11T15:20:40.000Z</time>
      </trkpt>
      <trkpt lat="43.53337" lon="5.5421">
        <ele>362.1</ele>
        <time>2022-05-11T15:20:45.000Z</time>
      </trkpt>
      <trkpt lat="43.5334" lon="5.54207">
        <ele>362.4</ele>
        <time>2022-05-11T15:20:51.000Z</time>
      </trkpt>
      <trkpt lat="43.53342" lon="5.54202">
        <ele>363.2</ele>
        <time>2022-05-11T15:21:03.000Z</time>
      </trkpt>
      <trkpt lat="43.53345" lon="5.54197">
        <ele>363.7</ele>
        <time>2022-05-11T15:21:09.000Z</time>
      </trkpt>
      <trkpt lat="43.53347" lon="5.54192">
        <ele>364.1</ele>
        <time>2022-05-11T15:21:14.000Z</time>
      </trkpt>
      <trkpt lat="43.53349" lon="5.54187">
        <ele>364.7</ele>
        <time>2022-05-11T15:21:19.000Z</time>
      </trkpt>
      <trkpt lat="43.53349" lon="5.54186">
        <ele>364.8</ele>
        <time>2022-05-11T15:21:20.000Z</time>
      </trkpt>
      <trkpt lat="43.53347" lon="5.54176">
        <ele>366.8</ele>
        <time>2022-05-11T15:21:39.000Z</time>
      </trkpt>
      <trkpt lat="43.53347" lon="5.54171">
        <ele>367.1</ele>
        <time>2022-05-11T15:21:43.000Z</time>
      </trkpt>
      <trkpt lat="43.53346" lon="5.54165">
        <ele>367.4</ele>
        <time>2022-05-11T15:21:47.000Z</time>
      </trkpt>
      <trkpt lat="43.53347" lon="5.54159">
        <ele>367.6</ele>
        <time>2022-05-11T15:21:51.000Z</time>
      </trkpt>
      <trkpt lat="43.53347" lon="5.54154">
        <ele>367.8</ele>
        <time>2022-05-11T15:21:56.000Z</time>
      </trkpt>
      <trkpt lat="43.53346" lon="5.54148">
        <ele>368.3</ele>
        <time>2022-05-11T15:22:03.000Z</time>
      </trkpt>
      <trkpt lat="43.53346" lon="5.54143">
        <ele>368.6</ele>
        <time>2022-05-11T15:22:08.000Z</time>
      </trkpt>
      <trkpt lat="43.53347" lon="5.54137">
        <ele>369.1</ele>
        <time>2022-05-11T15:22:13.000Z</time>
      </trkpt>
      <trkpt lat="43.53348" lon="5.54131">
        <ele>369.5</ele>
        <time>2022-05-11T15:22:18.000Z</time>
      </trkpt>
      <trkpt lat="43.5335" lon="5.54126">
        <ele>370</ele>
        <time>2022-05-11T15:22:23.000Z</time>
      </trkpt>
      <trkpt lat="43.5335" lon="5.54125">
        <ele>370.1</ele>
        <time>2022-05-11T15:22:24.000Z</time>
      </trkpt>
      <trkpt lat="43.53355" lon="5.54117">
        <ele>370.5</ele>
        <time>2022-05-11T15:22:33.000Z</time>
      </trkpt>
      <trkpt lat="43.53358" lon="5.54113">
        <ele>370.6</ele>
        <time>2022-05-11T15:22:37.000Z</time>
      </trkpt>
      <trkpt lat="43.5336" lon="5.54109">
        <ele>370.8</ele>
        <time>2022-05-11T15:22:41.000Z</time>
      </trkpt>
      <trkpt lat="43.53363" lon="5.54106">
        <ele>371</ele>
        <time>2022-05-11T15:22:45.000Z</time>
      </trkpt>
      <trkpt lat="43.53367" lon="5.54103">
        <ele>371.2</ele>
        <time>2022-05-11T15:22:50.000Z</time>
      </trkpt>
      <trkpt lat="43.53371" lon="5.541">
        <ele>371.4</ele>
        <time>2022-05-11T15:22:55.000Z</time>
      </trkpt>
      <trkpt lat="43.53374" lon="5.54098">
        <ele>371.4</ele>
        <time>2022-05-11T15:22:59.000Z</time>
      </trkpt>
      <trkpt lat="43.53379" lon="5.54097">
        <ele>371.5</ele>
        <time>2022-05-11T15:23:04.000Z</time>
      </trkpt>
      <trkpt lat="43.53382" lon="5.54096">
        <ele>371.6</ele>
        <time>2022-05-11T15:23:08.000Z</time>
      </trkpt>
      <trkpt lat="43.53386" lon="5.54095">
        <ele>371.6</ele>
        <time>2022-05-11T15:23:12.000Z</time>
      </trkpt>
      <trkpt lat="43.5339" lon="5.54095">
        <ele>371.6</ele>
        <time>2022-05-11T15:23:16.000Z</time>
      </trkpt>
      <trkpt lat="43.53394" lon="5.54093">
        <ele>371.8</ele>
        <time>2022-05-11T15:23:22.000Z</time>
      </trkpt>
      <trkpt lat="43.53398" lon="5.54091">
        <ele>371.9</ele>
        <time>2022-05-11T15:23:27.000Z</time>
      </trkpt>
      <trkpt lat="43.53399" lon="5.54091">
        <ele>372</ele>
        <time>2022-05-11T15:23:28.000Z</time>
      </trkpt>
      <trkpt lat="43.53406" lon="5.54089">
        <ele>372.3</ele>
        <time>2022-05-11T15:23:35.000Z</time>
      </trkpt>
      <trkpt lat="43.53409" lon="5.54087">
        <ele>372.5</ele>
        <time>2022-05-11T15:23:39.000Z</time>
      </trkpt>
      <trkpt lat="43.53413" lon="5.54085">
        <ele>372.8</ele>
        <time>2022-05-11T15:23:44.000Z</time>
      </trkpt>
      <trkpt lat="43.53417" lon="5.54082">
        <ele>373.2</ele>
        <time>2022-05-11T15:23:50.000Z</time>
      </trkpt>
      <trkpt lat="43.53421" lon="5.5408">
        <ele>373.5</ele>
        <time>2022-05-11T15:23:55.000Z</time>
      </trkpt>
      <trkpt lat="43.53424" lon="5.54076">
        <ele>373.9</ele>
        <time>2022-05-11T15:24:00.000Z</time>
      </trkpt>
      <trkpt lat="43.53426" lon="5.54072">
        <ele>374.1</ele>
        <time>2022-05-11T15:24:05.000Z</time>
      </trkpt>
      <trkpt lat="43.53428" lon="5.54068">
        <ele>374.4</ele>
        <time>2022-05-11T15:24:10.000Z</time>
      </trkpt>
      <trkpt lat="43.53431" lon="5.54064">
        <ele>374.7</ele>
        <time>2022-05-11T15:24:15.000Z</time>
      </trkpt>
      <trkpt lat="43.53433" lon="5.5406">
        <ele>375</ele>
        <time>2022-05-11T15:24:19.000Z</time>
      </trkpt>
      <trkpt lat="43.53436" lon="5.54055">
        <ele>375.5</ele>
        <time>2022-05-11T15:24:24.000Z</time>
      </trkpt>
      <trkpt lat="43.53439" lon="5.54051">
        <ele>375.9</ele>
        <time>2022-05-11T15:24:29.000Z</time>
      </trkpt>
      <trkpt lat="43.53439" lon="5.5405">
        <ele>375.9</ele>
        <time>2022-05-11T15:24:30.000Z</time>
      </trkpt>
      <trkpt lat="43.53442" lon="5.54039">
        <ele>376.3</ele>
        <time>2022-05-11T15:24:37.000Z</time>
      </trkpt>
      <trkpt lat="43.53442" lon="5.54034">
        <ele>376.4</ele>
        <time>2022-05-11T15:24:41.000Z</time>
      </trkpt>
      <trkpt lat="43.53443" lon="5.54029">
        <ele>376.5</ele>
        <time>2022-05-11T15:24:45.000Z</time>
      </trkpt>
      <trkpt lat="43.53445" lon="5.54023">
        <ele>376.6</ele>
        <time>2022-05-11T15:24:50.000Z</time>
      </trkpt>
      <trkpt lat="43.53446" lon="5.54018">
        <ele>376.6</ele>
        <time>2022-05-11T15:24:56.000Z</time>
      </trkpt>
      <trkpt lat="43.53449" lon="5.54013">
        <ele>376.6</ele>
        <time>2022-05-11T15:25:02.000Z</time>
      </trkpt>
      <trkpt lat="43.53452" lon="5.54009">
        <ele>376.6</ele>
        <time>2022-05-11T15:25:06.000Z</time>
      </trkpt>
      <trkpt lat="43.53454" lon="5.54005">
        <ele>376.5</ele>
        <time>2022-05-11T15:25:10.000Z</time>
      </trkpt>
      <trkpt lat="43.53457" lon="5.54">
        <ele>376.4</ele>
        <time>2022-05-11T15:25:15.000Z</time>
      </trkpt>
      <trkpt lat="43.53458" lon="5.53996">
        <ele>376.3</ele>
        <time>2022-05-11T15:25:19.000Z</time>
      </trkpt>
      <trkpt lat="43.5346" lon="5.5399">
        <ele>376.3</ele>
        <time>2022-05-11T15:25:24.000Z</time>
      </trkpt>
      <trkpt lat="43.53462" lon="5.53985">
        <ele>376.3</ele>
        <time>2022-05-11T15:25:29.000Z</time>
      </trkpt>
      <trkpt lat="43.53465" lon="5.53982">
        <ele>376.3</ele>
        <time>2022-05-11T15:25:33.000Z</time>
      </trkpt>
      <trkpt lat="43.53465" lon="5.5398">
        <ele>376.2</ele>
        <time>2022-05-11T15:25:34.000Z</time>
      </trkpt>
      <trkpt lat="43.53471" lon="5.53974">
        <ele>375.9</ele>
        <time>2022-05-11T15:25:44.000Z</time>
      </trkpt>
      <trkpt lat="43.53475" lon="5.53971">
        <ele>375.6</ele>
        <time>2022-05-11T15:25:49.000Z</time>
      </trkpt>
      <trkpt lat="43.53477" lon="5.53967">
        <ele>375.5</ele>
        <time>2022-05-11T15:25:53.000Z</time>
      </trkpt>
      <trkpt lat="43.5348" lon="5.53964">
        <ele>375.4</ele>
        <time>2022-05-11T15:25:57.000Z</time>
      </trkpt>
      <trkpt lat="43.53483" lon="5.5396">
        <ele>375.4</ele>
        <time>2022-05-11T15:26:01.000Z</time>
      </trkpt>
      <trkpt lat="43.53486" lon="5.53958">
        <ele>375.4</ele>
        <time>2022-05-11T15:26:04.000Z</time>
      </trkpt>
      <trkpt lat="43.53489" lon="5.53956">
        <ele>375.5</ele>
        <time>2022-05-11T15:26:07.000Z</time>
      </trkpt>
      <trkpt lat="43.53493" lon="5.53953">
        <ele>375.5</ele>
        <time>2022-05-11T15:26:10.000Z</time>
      </trkpt>
      <trkpt lat="43.53496" lon="5.53951">
        <ele>375.6</ele>
        <time>2022-05-11T15:26:14.000Z</time>
      </trkpt>
      <trkpt lat="43.535" lon="5.53948">
        <ele>375.6</ele>
        <time>2022-05-11T15:26:18.000Z</time>
      </trkpt>
      <trkpt lat="43.53503" lon="5.53946">
        <ele>375.6</ele>
        <time>2022-05-11T15:26:21.000Z</time>
      </trkpt>
      <trkpt lat="43.53506" lon="5.53944">
        <ele>375.6</ele>
        <time>2022-05-11T15:26:24.000Z</time>
      </trkpt>
      <trkpt lat="43.5351" lon="5.53941">
        <ele>375.6</ele>
        <time>2022-05-11T15:26:27.000Z</time>
      </trkpt>
      <trkpt lat="43.53514" lon="5.53938">
        <ele>375.5</ele>
        <time>2022-05-11T15:26:30.000Z</time>
      </trkpt>
      <trkpt lat="43.53517" lon="5.53936">
        <ele>375.5</ele>
        <time>2022-05-11T15:26:33.000Z</time>
      </trkpt>
      <trkpt lat="43.5352" lon="5.53934">
        <ele>375.5</ele>
        <time>2022-05-11T15:26:35.000Z</time>
      </trkpt>
      <trkpt lat="43.53521" lon="5.53934">
        <ele>375.5</ele>
        <time>2022-05-11T15:26:36.000Z</time>
      </trkpt>
      <trkpt lat="43.53527" lon="5.5393">
        <ele>375.6</ele>
        <time>2022-05-11T15:26:42.000Z</time>
      </trkpt>
      <trkpt lat="43.53531" lon="5.53928">
        <ele>375.5</ele>
        <time>2022-05-11T15:26:46.000Z</time>
      </trkpt>
      <trkpt lat="43.53535" lon="5.53927">
        <ele>375.4</ele>
        <time>2022-05-11T15:26:49.000Z</time>
      </trkpt>
      <trkpt lat="43.53539" lon="5.53925">
        <ele>375.5</ele>
        <time>2022-05-11T15:26:53.000Z</time>
      </trkpt>
      <trkpt lat="43.53543" lon="5.53924">
        <ele>375.5</ele>
        <time>2022-05-11T15:26:57.000Z</time>
      </trkpt>
      <trkpt lat="43.53547" lon="5.53924">
        <ele>375.6</ele>
        <time>2022-05-11T15:27:00.000Z</time>
      </trkpt>
      <trkpt lat="43.53551" lon="5.53922">
        <ele>375.6</ele>
        <time>2022-05-11T15:27:05.000Z</time>
      </trkpt>
      <trkpt lat="43.53555" lon="5.53922">
        <ele>375.7</ele>
        <time>2022-05-11T15:27:08.000Z</time>
      </trkpt>
      <trkpt lat="43.53559" lon="5.53922">
        <ele>375.7</ele>
        <time>2022-05-11T15:27:11.000Z</time>
      </trkpt>
      <trkpt lat="43.53562" lon="5.53921">
        <ele>375.7</ele>
        <time>2022-05-11T15:27:14.000Z</time>
      </trkpt>
      <trkpt lat="43.53566" lon="5.5392">
        <ele>375.8</ele>
        <time>2022-05-11T15:27:18.000Z</time>
      </trkpt>
      <trkpt lat="43.5357" lon="5.53918">
        <ele>375.8</ele>
        <time>2022-05-11T15:27:21.000Z</time>
      </trkpt>
      <trkpt lat="43.53574" lon="5.53917">
        <ele>375.9</ele>
        <time>2022-05-11T15:27:25.000Z</time>
      </trkpt>
      <trkpt lat="43.53577" lon="5.53915">
        <ele>375.9</ele>
        <time>2022-05-11T15:27:28.000Z</time>
      </trkpt>
      <trkpt lat="43.5358" lon="5.53912">
        <ele>376</ele>
        <time>2022-05-11T15:27:31.000Z</time>
      </trkpt>
      <trkpt lat="43.53584" lon="5.5391">
        <ele>376</ele>
        <time>2022-05-11T15:27:35.000Z</time>
      </trkpt>
      <trkpt lat="43.53588" lon="5.53907">
        <ele>375.9</ele>
        <time>2022-05-11T15:27:39.000Z</time>
      </trkpt>
      <trkpt lat="43.53589" lon="5.53907">
        <ele>375.8</ele>
        <time>2022-05-11T15:27:40.000Z</time>
      </trkpt>
      <trkpt lat="43.53596" lon="5.53905">
        <ele>375.5</ele>
        <time>2022-05-11T15:27:47.000Z</time>
      </trkpt>
      <trkpt lat="43.536" lon="5.53904">
        <ele>375.5</ele>
        <time>2022-05-11T15:27:51.000Z</time>
      </trkpt>
      <trkpt lat="43.53604" lon="5.53903">
        <ele>375.3</ele>
        <time>2022-05-11T15:27:56.000Z</time>
      </trkpt>
      <trkpt lat="43.53608" lon="5.53903">
        <ele>375.1</ele>
        <time>2022-05-11T15:27:59.000Z</time>
      </trkpt>
      <trkpt lat="43.53611" lon="5.53903">
        <ele>375</ele>
        <time>2022-05-11T15:28:02.000Z</time>
      </trkpt>
      <trkpt lat="43.53615" lon="5.53903">
        <ele>374.9</ele>
        <time>2022-05-11T15:28:06.000Z</time>
      </trkpt>
      <trkpt lat="43.53619" lon="5.53901">
        <ele>374.9</ele>
        <time>2022-05-11T15:28:12.000Z</time>
      </trkpt>
      <trkpt lat="43.53622" lon="5.539">
        <ele>374.9</ele>
        <time>2022-05-11T15:28:16.000Z</time>
      </trkpt>
      <trkpt lat="43.53626" lon="5.53899">
        <ele>374.9</ele>
        <time>2022-05-11T15:28:18.000Z</time>
      </trkpt>
      <trkpt lat="43.5363" lon="5.53899">
        <ele>374.9</ele>
        <time>2022-05-11T15:28:21.000Z</time>
      </trkpt>
      <trkpt lat="43.53634" lon="5.53899">
        <ele>375</ele>
        <time>2022-05-11T15:28:25.000Z</time>
      </trkpt>
      <trkpt lat="43.53639" lon="5.53899">
        <ele>375</ele>
        <time>2022-05-11T15:28:29.000Z</time>
      </trkpt>
      <trkpt lat="43.53643" lon="5.53899">
        <ele>374.9</ele>
        <time>2022-05-11T15:28:33.000Z</time>
      </trkpt>
      <trkpt lat="43.53646" lon="5.53899">
        <ele>375</ele>
        <time>2022-05-11T15:28:36.000Z</time>
      </trkpt>
      <trkpt lat="43.53651" lon="5.539">
        <ele>375</ele>
        <time>2022-05-11T15:28:40.000Z</time>
      </trkpt>
      <trkpt lat="43.53655" lon="5.539">
        <ele>375</ele>
        <time>2022-05-11T15:28:45.000Z</time>
      </trkpt>
      <trkpt lat="43.53656" lon="5.539">
        <ele>375</ele>
        <time>2022-05-11T15:28:46.000Z</time>
      </trkpt>
      <trkpt lat="43.53664" lon="5.53899">
        <ele>375.1</ele>
        <time>2022-05-11T15:28:59.000Z</time>
      </trkpt>
      <trkpt lat="43.53668" lon="5.53899">
        <ele>375.2</ele>
        <time>2022-05-11T15:29:04.000Z</time>
      </trkpt>
      <trkpt lat="43.53672" lon="5.53899">
        <ele>375.1</ele>
        <time>2022-05-11T15:29:08.000Z</time>
      </trkpt>
      <trkpt lat="43.53675" lon="5.539">
        <ele>375</ele>
        <time>2022-05-11T15:29:11.000Z</time>
      </trkpt>
      <trkpt lat="43.53679" lon="5.539">
        <ele>374.9</ele>
        <time>2022-05-11T15:29:19.000Z</time>
      </trkpt>
      <trkpt lat="43.53684" lon="5.53899">
        <ele>374.7</ele>
        <time>2022-05-11T15:29:26.000Z</time>
      </trkpt>
      <trkpt lat="43.53688" lon="5.53899">
        <ele>374.6</ele>
        <time>2022-05-11T15:29:29.000Z</time>
      </trkpt>
      <trkpt lat="43.53692" lon="5.53899">
        <ele>374.5</ele>
        <time>2022-05-11T15:29:33.000Z</time>
      </trkpt>
      <trkpt lat="43.53697" lon="5.539">
        <ele>374.3</ele>
        <time>2022-05-11T15:29:38.000Z</time>
      </trkpt>
      <trkpt lat="43.53701" lon="5.539">
        <ele>374.1</ele>
        <time>2022-05-11T15:29:43.000Z</time>
      </trkpt>
      <trkpt lat="43.53705" lon="5.53897">
        <ele>374</ele>
        <time>2022-05-11T15:29:50.000Z</time>
      </trkpt>
      <trkpt lat="43.53706" lon="5.53897">
        <ele>374</ele>
        <time>2022-05-11T15:29:51.000Z</time>
      </trkpt>
      <trkpt lat="43.53712" lon="5.53895">
        <ele>373.9</ele>
        <time>2022-05-11T15:29:58.000Z</time>
      </trkpt>
      <trkpt lat="43.53716" lon="5.53896">
        <ele>373.7</ele>
        <time>2022-05-11T15:30:03.000Z</time>
      </trkpt>
      <trkpt lat="43.5372" lon="5.53897">
        <ele>373.7</ele>
        <time>2022-05-11T15:30:05.000Z</time>
      </trkpt>
      <trkpt lat="43.53723" lon="5.53898">
        <ele>373.6</ele>
        <time>2022-05-11T15:30:07.000Z</time>
      </trkpt>
      <trkpt lat="43.53727" lon="5.53901">
        <ele>373.6</ele>
        <time>2022-05-11T15:30:10.000Z</time>
      </trkpt>
      <trkpt lat="43.53731" lon="5.53902">
        <ele>373.5</ele>
        <time>2022-05-11T15:30:13.000Z</time>
      </trkpt>
      <trkpt lat="43.53735" lon="5.53903">
        <ele>373.3</ele>
        <time>2022-05-11T15:30:16.000Z</time>
      </trkpt>
      <trkpt lat="43.53738" lon="5.53903">
        <ele>372.8</ele>
        <time>2022-05-11T15:30:20.000Z</time>
      </trkpt>
      <trkpt lat="43.53742" lon="5.53902">
        <ele>372.4</ele>
        <time>2022-05-11T15:30:24.000Z</time>
      </trkpt>
      <trkpt lat="43.53746" lon="5.53903">
        <ele>372.2</ele>
        <time>2022-05-11T15:30:27.000Z</time>
      </trkpt>
      <trkpt lat="43.53751" lon="5.53903">
        <ele>372.1</ele>
        <time>2022-05-11T15:30:31.000Z</time>
      </trkpt>
      <trkpt lat="43.53755" lon="5.53903">
        <ele>372.1</ele>
        <time>2022-05-11T15:30:35.000Z</time>
      </trkpt>
      <trkpt lat="43.53759" lon="5.53901">
        <ele>372.1</ele>
        <time>2022-05-11T15:30:39.000Z</time>
      </trkpt>
      <trkpt lat="43.53762" lon="5.53897">
        <ele>372.1</ele>
        <time>2022-05-11T15:30:44.000Z</time>
      </trkpt>
      <trkpt lat="43.53766" lon="5.53895">
        <ele>372.1</ele>
        <time>2022-05-11T15:30:48.000Z</time>
      </trkpt>
      <trkpt lat="43.53769" lon="5.53892">
        <ele>372</ele>
        <time>2022-05-11T15:30:53.000Z</time>
      </trkpt>
      <trkpt lat="43.5377" lon="5.53891">
        <ele>372</ele>
        <time>2022-05-11T15:30:54.000Z</time>
      </trkpt>
      <trkpt lat="43.53775" lon="5.53883">
        <ele>371.8</ele>
        <time>2022-05-11T15:31:02.000Z</time>
      </trkpt>
      <trkpt lat="43.53776" lon="5.53879">
        <ele>371.7</ele>
        <time>2022-05-11T15:31:06.000Z</time>
      </trkpt>
      <trkpt lat="43.53778" lon="5.53873">
        <ele>371.5</ele>
        <time>2022-05-11T15:31:11.000Z</time>
      </trkpt>
      <trkpt lat="43.5378" lon="5.53869">
        <ele>371.4</ele>
        <time>2022-05-11T15:31:14.000Z</time>
      </trkpt>
      <trkpt lat="43.53782" lon="5.53865">
        <ele>371.2</ele>
        <time>2022-05-11T15:31:18.000Z</time>
      </trkpt>
      <trkpt lat="43.53784" lon="5.5386">
        <ele>371.1</ele>
        <time>2022-05-11T15:31:22.000Z</time>
      </trkpt>
      <trkpt lat="43.53787" lon="5.53857">
        <ele>370.9</ele>
        <time>2022-05-11T15:31:28.000Z</time>
      </trkpt>
      <trkpt lat="43.5379" lon="5.53853">
        <ele>370.9</ele>
        <time>2022-05-11T15:31:32.000Z</time>
      </trkpt>
      <trkpt lat="43.53792" lon="5.53849">
        <ele>370.8</ele>
        <time>2022-05-11T15:31:36.000Z</time>
      </trkpt>
      <trkpt lat="43.53793" lon="5.53843">
        <ele>370.8</ele>
        <time>2022-05-11T15:31:40.000Z</time>
      </trkpt>
      <trkpt lat="43.53793" lon="5.53838">
        <ele>370.8</ele>
        <time>2022-05-11T15:31:43.000Z</time>
      </trkpt>
      <trkpt lat="43.53794" lon="5.53833">
        <ele>370.8</ele>
        <time>2022-05-11T15:31:49.000Z</time>
      </trkpt>
      <trkpt lat="43.53796" lon="5.53829">
        <ele>370.7</ele>
        <time>2022-05-11T15:31:53.000Z</time>
      </trkpt>
      <trkpt lat="43.538" lon="5.53827">
        <ele>370.7</ele>
        <time>2022-05-11T15:31:58.000Z</time>
      </trkpt>
      <trkpt lat="43.53801" lon="5.53827">
        <ele>370.7</ele>
        <time>2022-05-11T15:31:59.000Z</time>
      </trkpt>
      <trkpt lat="43.53807" lon="5.53821">
        <ele>370.7</ele>
        <time>2022-05-11T15:32:11.000Z</time>
      </trkpt>
      <trkpt lat="43.5381" lon="5.53818">
        <ele>370.7</ele>
        <time>2022-05-11T15:32:16.000Z</time>
      </trkpt>
      <trkpt lat="43.53814" lon="5.53815">
        <ele>370.6</ele>
        <time>2022-05-11T15:32:22.000Z</time>
      </trkpt>
      <trkpt lat="43.53818" lon="5.53815">
        <ele>370.5</ele>
        <time>2022-05-11T15:32:28.000Z</time>
      </trkpt>
      <trkpt lat="43.53821" lon="5.53817">
        <ele>370.2</ele>
        <time>2022-05-11T15:32:37.000Z</time>
      </trkpt>
      <trkpt lat="43.53825" lon="5.53817">
        <ele>370.2</ele>
        <time>2022-05-11T15:32:41.000Z</time>
      </trkpt>
      <trkpt lat="43.53829" lon="5.53816">
        <ele>370.1</ele>
        <time>2022-05-11T15:32:45.000Z</time>
      </trkpt>
      <trkpt lat="43.53833" lon="5.53814">
        <ele>370.1</ele>
        <time>2022-05-11T15:32:49.000Z</time>
      </trkpt>
      <trkpt lat="43.53836" lon="5.5381">
        <ele>370</ele>
        <time>2022-05-11T15:32:53.000Z</time>
      </trkpt>
      <trkpt lat="43.53839" lon="5.53808">
        <ele>369.9</ele>
        <time>2022-05-11T15:32:56.000Z</time>
      </trkpt>
      <trkpt lat="43.53842" lon="5.53805">
        <ele>369.9</ele>
        <time>2022-05-11T15:32:59.000Z</time>
      </trkpt>
      <trkpt lat="43.53845" lon="5.53804">
        <ele>369.8</ele>
        <time>2022-05-11T15:33:02.000Z</time>
      </trkpt>
      <trkpt lat="43.53846" lon="5.53803">
        <ele>369.8</ele>
        <time>2022-05-11T15:33:03.000Z</time>
      </trkpt>
      <trkpt lat="43.53853" lon="5.538">
        <ele>369.8</ele>
        <time>2022-05-11T15:33:10.000Z</time>
      </trkpt>
      <trkpt lat="43.53856" lon="5.53796">
        <ele>369.8</ele>
        <time>2022-05-11T15:33:14.000Z</time>
      </trkpt>
      <trkpt lat="43.53859" lon="5.53791">
        <ele>369.8</ele>
        <time>2022-05-11T15:33:18.000Z</time>
      </trkpt>
      <trkpt lat="43.53861" lon="5.53788">
        <ele>369.8</ele>
        <time>2022-05-11T15:33:21.000Z</time>
      </trkpt>
      <trkpt lat="43.53864" lon="5.53783">
        <ele>369.8</ele>
        <time>2022-05-11T15:33:25.000Z</time>
      </trkpt>
      <trkpt lat="43.53867" lon="5.53779">
        <ele>369.8</ele>
        <time>2022-05-11T15:33:28.000Z</time>
      </trkpt>
      <trkpt lat="43.5387" lon="5.53775">
        <ele>369.5</ele>
        <time>2022-05-11T15:33:32.000Z</time>
      </trkpt>
      <trkpt lat="43.53872" lon="5.5377">
        <ele>369.3</ele>
        <time>2022-05-11T15:33:36.000Z</time>
      </trkpt>
      <trkpt lat="43.53875" lon="5.53766">
        <ele>369</ele>
        <time>2022-05-11T15:33:39.000Z</time>
      </trkpt>
      <trkpt lat="43.53876" lon="5.53761">
        <ele>368.9</ele>
        <time>2022-05-11T15:33:43.000Z</time>
      </trkpt>
      <trkpt lat="43.53877" lon="5.53756">
        <ele>368.8</ele>
        <time>2022-05-11T15:33:47.000Z</time>
      </trkpt>
      <trkpt lat="43.53878" lon="5.53751">
        <ele>368.7</ele>
        <time>2022-05-11T15:33:51.000Z</time>
      </trkpt>
      <trkpt lat="43.53879" lon="5.53746">
        <ele>368.7</ele>
        <time>2022-05-11T15:33:56.000Z</time>
      </trkpt>
      <trkpt lat="43.5388" lon="5.5374">
        <ele>368.6</ele>
        <time>2022-05-11T15:34:00.000Z</time>
      </trkpt>
      <trkpt lat="43.53881" lon="5.53735">
        <ele>368.6</ele>
        <time>2022-05-11T15:34:04.000Z</time>
      </trkpt>
      <trkpt lat="43.53881" lon="5.53734">
        <ele>368.6</ele>
        <time>2022-05-11T15:34:05.000Z</time>
      </trkpt>
      <trkpt lat="43.53883" lon="5.53724">
        <ele>368.5</ele>
        <time>2022-05-11T15:34:12.000Z</time>
      </trkpt>
      <trkpt lat="43.53885" lon="5.53718">
        <ele>368.3</ele>
        <time>2022-05-11T15:34:17.000Z</time>
      </trkpt>
      <trkpt lat="43.53885" lon="5.53713">
        <ele>368.1</ele>
        <time>2022-05-11T15:34:21.000Z</time>
      </trkpt>
      <trkpt lat="43.53884" lon="5.53708">
        <ele>367.8</ele>
        <time>2022-05-11T15:34:26.000Z</time>
      </trkpt>
      <trkpt lat="43.53882" lon="5.53703">
        <ele>367.5</ele>
        <time>2022-05-11T15:34:32.000Z</time>
      </trkpt>
      <trkpt lat="43.53884" lon="5.53698">
        <ele>367.3</ele>
        <time>2022-05-11T15:34:36.000Z</time>
      </trkpt>
      <trkpt lat="43.53885" lon="5.53693">
        <ele>367</ele>
        <time>2022-05-11T15:34:39.000Z</time>
      </trkpt>
      <trkpt lat="43.53887" lon="5.53688">
        <ele>366.7</ele>
        <time>2022-05-11T15:34:43.000Z</time>
      </trkpt>
      <trkpt lat="43.53888" lon="5.53682">
        <ele>366.4</ele>
        <time>2022-05-11T15:34:50.000Z</time>
      </trkpt>
      <trkpt lat="43.53889" lon="5.53676">
        <ele>366</ele>
        <time>2022-05-11T15:35:02.000Z</time>
      </trkpt>
      <trkpt lat="43.53891" lon="5.53673">
        <ele>365.7</ele>
        <time>2022-05-11T15:35:06.000Z</time>
      </trkpt>
      <trkpt lat="43.53892" lon="5.53671">
        <ele>365.6</ele>
        <time>2022-05-11T15:35:07.000Z</time>
      </trkpt>
      <trkpt lat="43.53895" lon="5.53664">
        <ele>365.2</ele>
        <time>2022-05-11T15:35:16.000Z</time>
      </trkpt>
      <trkpt lat="43.53898" lon="5.5366">
        <ele>364.9</ele>
        <time>2022-05-11T15:35:22.000Z</time>
      </trkpt>
      <trkpt lat="43.53899" lon="5.53654">
        <ele>364.7</ele>
        <time>2022-05-11T15:35:26.000Z</time>
      </trkpt>
      <trkpt lat="43.53899" lon="5.53648">
        <ele>364.5</ele>
        <time>2022-05-11T15:35:32.000Z</time>
      </trkpt>
      <trkpt lat="43.53899" lon="5.53642">
        <ele>364.1</ele>
        <time>2022-05-11T15:35:38.000Z</time>
      </trkpt>
      <trkpt lat="43.539" lon="5.53636">
        <ele>363.9</ele>
        <time>2022-05-11T15:35:43.000Z</time>
      </trkpt>
      <trkpt lat="43.539" lon="5.53631">
        <ele>363.5</ele>
        <time>2022-05-11T15:35:48.000Z</time>
      </trkpt>
      <trkpt lat="43.53903" lon="5.53626">
        <ele>362.6</ele>
        <time>2022-05-11T15:36:10.000Z</time>
      </trkpt>
      <trkpt lat="43.53903" lon="5.53625">
        <ele>362.6</ele>
        <time>2022-05-11T15:36:11.000Z</time>
      </trkpt>
      <trkpt lat="43.53903" lon="5.53615">
        <ele>362.4</ele>
        <time>2022-05-11T15:36:20.000Z</time>
      </trkpt>
      <trkpt lat="43.53903" lon="5.5361">
        <ele>362.2</ele>
        <time>2022-05-11T15:36:24.000Z</time>
      </trkpt>
      <trkpt lat="43.53903" lon="5.53604">
        <ele>361.6</ele>
        <time>2022-05-11T15:36:29.000Z</time>
      </trkpt>
      <trkpt lat="43.53904" lon="5.53599">
        <ele>361.2</ele>
        <time>2022-05-11T15:36:32.000Z</time>
      </trkpt>
      <trkpt lat="43.53904" lon="5.53593">
        <ele>360.9</ele>
        <time>2022-05-11T15:36:36.000Z</time>
      </trkpt>
      <trkpt lat="43.53904" lon="5.53587">
        <ele>360.1</ele>
        <time>2022-05-11T15:36:42.000Z</time>
      </trkpt>
      <trkpt lat="43.53905" lon="5.53581">
        <ele>359.4</ele>
        <time>2022-05-11T15:36:49.000Z</time>
      </trkpt>
      <trkpt lat="43.53905" lon="5.53575">
        <ele>359.1</ele>
        <time>2022-05-11T15:36:55.000Z</time>
      </trkpt>
      <trkpt lat="43.53907" lon="5.5357">
        <ele>358.9</ele>
        <time>2022-05-11T15:37:01.000Z</time>
      </trkpt>
      <trkpt lat="43.53911" lon="5.53567">
        <ele>358.5</ele>
        <time>2022-05-11T15:37:08.000Z</time>
      </trkpt>
      <trkpt lat="43.53915" lon="5.53569">
        <ele>358</ele>
        <time>2022-05-11T15:37:15.000Z</time>
      </trkpt>
      <trkpt lat="43.53915" lon="5.5357">
        <ele>358</ele>
        <time>2022-05-11T15:37:16.000Z</time>
      </trkpt>
      <trkpt lat="43.5392" lon="5.53578">
        <ele>357.4</ele>
        <time>2022-05-11T15:37:25.000Z</time>
      </trkpt>
      <trkpt lat="43.53922" lon="5.53582">
        <ele>356.9</ele>
        <time>2022-05-11T15:37:30.000Z</time>
      </trkpt>
      <trkpt lat="43.53924" lon="5.53586">
        <ele>356.5</ele>
        <time>2022-05-11T15:37:34.000Z</time>
      </trkpt>
      <trkpt lat="43.53926" lon="5.5359">
        <ele>356.1</ele>
        <time>2022-05-11T15:37:37.000Z</time>
      </trkpt>
      <trkpt lat="43.53929" lon="5.53593">
        <ele>355.6</ele>
        <time>2022-05-11T15:37:40.000Z</time>
      </trkpt>
      <trkpt lat="43.53933" lon="5.53597">
        <ele>354.9</ele>
        <time>2022-05-11T15:37:44.000Z</time>
      </trkpt>
      <trkpt lat="43.53936" lon="5.536">
        <ele>354.5</ele>
        <time>2022-05-11T15:37:47.000Z</time>
      </trkpt>
      <trkpt lat="43.53939" lon="5.53603">
        <ele>354</ele>
        <time>2022-05-11T15:37:50.000Z</time>
      </trkpt>
      <trkpt lat="43.53943" lon="5.53605">
        <ele>353.7</ele>
        <time>2022-05-11T15:37:53.000Z</time>
      </trkpt>
      <trkpt lat="43.53946" lon="5.53608">
        <ele>353.5</ele>
        <time>2022-05-11T15:37:56.000Z</time>
      </trkpt>
      <trkpt lat="43.5395" lon="5.5361">
        <ele>353.3</ele>
        <time>2022-05-11T15:37:59.000Z</time>
      </trkpt>
      <trkpt lat="43.53954" lon="5.53612">
        <ele>353.4</ele>
        <time>2022-05-11T15:38:03.000Z</time>
      </trkpt>
      <trkpt lat="43.53958" lon="5.53614">
        <ele>353.4</ele>
        <time>2022-05-11T15:38:07.000Z</time>
      </trkpt>
      <trkpt lat="43.53962" lon="5.53617">
        <ele>353.5</ele>
        <time>2022-05-11T15:38:11.000Z</time>
      </trkpt>
      <trkpt lat="43.53966" lon="5.5362">
        <ele>353.5</ele>
        <time>2022-05-11T15:38:17.000Z</time>
      </trkpt>
      <trkpt lat="43.53966" lon="5.5362">
        <ele>353.5</ele>
        <time>2022-05-11T15:38:18.000Z</time>
      </trkpt>
      <trkpt lat="43.5397" lon="5.53629">
        <ele>353.9</ele>
        <time>2022-05-11T15:38:34.000Z</time>
      </trkpt>
      <trkpt lat="43.53974" lon="5.53632">
        <ele>353.9</ele>
        <time>2022-05-11T15:38:38.000Z</time>
      </trkpt>
      <trkpt lat="43.53977" lon="5.53634">
        <ele>353.9</ele>
        <time>2022-05-11T15:38:42.000Z</time>
      </trkpt>
      <trkpt lat="43.53981" lon="5.53637">
        <ele>353.9</ele>
        <time>2022-05-11T15:38:46.000Z</time>
      </trkpt>
      <trkpt lat="43.53984" lon="5.53639">
        <ele>353.9</ele>
        <time>2022-05-11T15:38:50.000Z</time>
      </trkpt>
      <trkpt lat="43.53988" lon="5.5364">
        <ele>353.9</ele>
        <time>2022-05-11T15:38:53.000Z</time>
      </trkpt>
      <trkpt lat="43.53992" lon="5.53642">
        <ele>353.9</ele>
        <time>2022-05-11T15:38:57.000Z</time>
      </trkpt>
      <trkpt lat="43.53995" lon="5.53643">
        <ele>353.8</ele>
        <time>2022-05-11T15:39:00.000Z</time>
      </trkpt>
      <trkpt lat="43.53999" lon="5.53645">
        <ele>353.9</ele>
        <time>2022-05-11T15:39:03.000Z</time>
      </trkpt>
      <trkpt lat="43.54003" lon="5.53646">
        <ele>353.9</ele>
        <time>2022-05-11T15:39:06.000Z</time>
      </trkpt>
      <trkpt lat="43.54006" lon="5.53647">
        <ele>354</ele>
        <time>2022-05-11T15:39:09.000Z</time>
      </trkpt>
      <trkpt lat="43.5401" lon="5.53649">
        <ele>354.1</ele>
        <time>2022-05-11T15:39:13.000Z</time>
      </trkpt>
      <trkpt lat="43.54014" lon="5.5365">
        <ele>354.1</ele>
        <time>2022-05-11T15:39:17.000Z</time>
      </trkpt>
      <trkpt lat="43.54019" lon="5.53651">
        <ele>354.2</ele>
        <time>2022-05-11T15:39:21.000Z</time>
      </trkpt>
      <trkpt lat="43.5402" lon="5.53651">
        <ele>354.2</ele>
        <time>2022-05-11T15:39:22.000Z</time>
      </trkpt>
      <trkpt lat="43.54025" lon="5.53652">
        <ele>354.2</ele>
        <time>2022-05-11T15:39:27.000Z</time>
      </trkpt>
      <trkpt lat="43.5403" lon="5.53652">
        <ele>354.2</ele>
        <time>2022-05-11T15:39:30.000Z</time>
      </trkpt>
      <trkpt lat="43.54034" lon="5.53654">
        <ele>354.3</ele>
        <time>2022-05-11T15:39:35.000Z</time>
      </trkpt>
      <trkpt lat="43.54038" lon="5.53655">
        <ele>354.2</ele>
        <time>2022-05-11T15:39:39.000Z</time>
      </trkpt>
      <trkpt lat="43.54042" lon="5.53656">
        <ele>354.1</ele>
        <time>2022-05-11T15:39:43.000Z</time>
      </trkpt>
      <trkpt lat="43.54046" lon="5.53655">
        <ele>354.1</ele>
        <time>2022-05-11T15:39:47.000Z</time>
      </trkpt>
      <trkpt lat="43.54049" lon="5.53655">
        <ele>354</ele>
        <time>2022-05-11T15:39:50.000Z</time>
      </trkpt>
      <trkpt lat="43.54053" lon="5.53654">
        <ele>353.8</ele>
        <time>2022-05-11T15:39:53.000Z</time>
      </trkpt>
      <trkpt lat="43.54057" lon="5.53653">
        <ele>353.6</ele>
        <time>2022-05-11T15:39:57.000Z</time>
      </trkpt>
      <trkpt lat="43.54061" lon="5.53652">
        <ele>353.5</ele>
        <time>2022-05-11T15:40:01.000Z</time>
      </trkpt>
      <trkpt lat="43.54066" lon="5.53651">
        <ele>353.5</ele>
        <time>2022-05-11T15:40:05.000Z</time>
      </trkpt>
      <trkpt lat="43.54069" lon="5.53649">
        <ele>353.4</ele>
        <time>2022-05-11T15:40:08.000Z</time>
      </trkpt>
      <trkpt lat="43.54073" lon="5.53647">
        <ele>353.4</ele>
        <time>2022-05-11T15:40:12.000Z</time>
      </trkpt>
      <trkpt lat="43.54077" lon="5.53645">
        <ele>353.4</ele>
        <time>2022-05-11T15:40:16.000Z</time>
      </trkpt>
      <trkpt lat="43.54081" lon="5.53643">
        <ele>353.4</ele>
        <time>2022-05-11T15:40:20.000Z</time>
      </trkpt>
      <trkpt lat="43.54085" lon="5.53641">
        <ele>353.4</ele>
        <time>2022-05-11T15:40:23.000Z</time>
      </trkpt>
      <trkpt lat="43.54086" lon="5.5364">
        <ele>353.5</ele>
        <time>2022-05-11T15:40:24.000Z</time>
      </trkpt>
      <trkpt lat="43.54092" lon="5.53635">
        <ele>353.2</ele>
        <time>2022-05-11T15:40:31.000Z</time>
      </trkpt>
      <trkpt lat="43.54096" lon="5.53633">
        <ele>353</ele>
        <time>2022-05-11T15:40:35.000Z</time>
      </trkpt>
      <trkpt lat="43.54099" lon="5.5363">
        <ele>353.2</ele>
        <time>2022-05-11T15:40:44.000Z</time>
      </trkpt>
      <trkpt lat="43.54103" lon="5.53627">
        <ele>353.2</ele>
        <time>2022-05-11T15:40:48.000Z</time>
      </trkpt>
      <trkpt lat="43.54106" lon="5.53624">
        <ele>353.2</ele>
        <time>2022-05-11T15:40:52.000Z</time>
      </trkpt>
      <trkpt lat="43.5411" lon="5.5362">
        <ele>353.2</ele>
        <time>2022-05-11T15:40:56.000Z</time>
      </trkpt>
      <trkpt lat="43.54113" lon="5.53617">
        <ele>353.2</ele>
        <time>2022-05-11T15:41:00.000Z</time>
      </trkpt>
      <trkpt lat="43.54116" lon="5.53613">
        <ele>353.2</ele>
        <time>2022-05-11T15:41:04.000Z</time>
      </trkpt>
      <trkpt lat="43.5412" lon="5.5361">
        <ele>353.2</ele>
        <time>2022-05-11T15:41:08.000Z</time>
      </trkpt>
      <trkpt lat="43.54123" lon="5.53605">
        <ele>353.1</ele>
        <time>2022-05-11T15:41:12.000Z</time>
      </trkpt>
      <trkpt lat="43.54126" lon="5.53601">
        <ele>353</ele>
        <time>2022-05-11T15:41:16.000Z</time>
      </trkpt>
      <trkpt lat="43.54129" lon="5.53597">
        <ele>353</ele>
        <time>2022-05-11T15:41:20.000Z</time>
      </trkpt>
      <trkpt lat="43.54131" lon="5.53593">
        <ele>352.7</ele>
        <time>2022-05-11T15:41:29.000Z</time>
      </trkpt>
      <trkpt lat="43.54132" lon="5.53592">
        <ele>352.7</ele>
        <time>2022-05-11T15:41:30.000Z</time>
      </trkpt>
      <trkpt lat="43.54138" lon="5.53586">
        <ele>352.9</ele>
        <time>2022-05-11T15:41:37.000Z</time>
      </trkpt>
      <trkpt lat="43.54141" lon="5.53583">
        <ele>353</ele>
        <time>2022-05-11T15:41:41.000Z</time>
      </trkpt>
      <trkpt lat="43.54144" lon="5.53579">
        <ele>353.1</ele>
        <time>2022-05-11T15:41:45.000Z</time>
      </trkpt>
      <trkpt lat="43.54146" lon="5.53574">
        <ele>353.2</ele>
        <time>2022-05-11T15:41:49.000Z</time>
      </trkpt>
      <trkpt lat="43.54148" lon="5.53569">
        <ele>353.3</ele>
        <time>2022-05-11T15:41:53.000Z</time>
      </trkpt>
      <trkpt lat="43.5415" lon="5.53564">
        <ele>353.3</ele>
        <time>2022-05-11T15:41:57.000Z</time>
      </trkpt>
      <trkpt lat="43.54151" lon="5.53558">
        <ele>353.4</ele>
        <time>2022-05-11T15:42:01.000Z</time>
      </trkpt>
      <trkpt lat="43.54152" lon="5.53553">
        <ele>353.5</ele>
        <time>2022-05-11T15:42:05.000Z</time>
      </trkpt>
      <trkpt lat="43.54152" lon="5.53547">
        <ele>353.6</ele>
        <time>2022-05-11T15:42:09.000Z</time>
      </trkpt>
      <trkpt lat="43.54152" lon="5.53541">
        <ele>353.7</ele>
        <time>2022-05-11T15:42:13.000Z</time>
      </trkpt>
      <trkpt lat="43.54151" lon="5.53535">
        <ele>354</ele>
        <time>2022-05-11T15:42:17.000Z</time>
      </trkpt>
      <trkpt lat="43.5415" lon="5.5353">
        <ele>354.2</ele>
        <time>2022-05-11T15:42:21.000Z</time>
      </trkpt>
      <trkpt lat="43.54149" lon="5.53525">
        <ele>354.5</ele>
        <time>2022-05-11T15:42:25.000Z</time>
      </trkpt>
      <trkpt lat="43.54148" lon="5.5352">
        <ele>354.8</ele>
        <time>2022-05-11T15:42:29.000Z</time>
      </trkpt>
      <trkpt lat="43.54147" lon="5.53515">
        <ele>355.1</ele>
        <time>2022-05-11T15:42:33.000Z</time>
      </trkpt>
      <trkpt lat="43.54146" lon="5.53514">
        <ele>355.2</ele>
        <time>2022-05-11T15:42:34.000Z</time>
      </trkpt>
      <trkpt lat="43.54144" lon="5.53505">
        <ele>355.8</ele>
        <time>2022-05-11T15:42:41.000Z</time>
      </trkpt>
      <trkpt lat="43.54143" lon="5.535">
        <ele>356.1</ele>
        <time>2022-05-11T15:42:45.000Z</time>
      </trkpt>
      <trkpt lat="43.54142" lon="5.53494">
        <ele>356.4</ele>
        <time>2022-05-11T15:42:49.000Z</time>
      </trkpt>
      <trkpt lat="43.5414" lon="5.53488">
        <ele>356.6</ele>
        <time>2022-05-11T15:42:53.000Z</time>
      </trkpt>
      <trkpt lat="43.54139" lon="5.53483">
        <ele>356.8</ele>
        <time>2022-05-11T15:42:57.000Z</time>
      </trkpt>
      <trkpt lat="43.54139" lon="5.53478">
        <ele>357.1</ele>
        <time>2022-05-11T15:43:01.000Z</time>
      </trkpt>
      <trkpt lat="43.54138" lon="5.53472">
        <ele>357.3</ele>
        <time>2022-05-11T15:43:05.000Z</time>
      </trkpt>
      <trkpt lat="43.54139" lon="5.53466">
        <ele>357.5</ele>
        <time>2022-05-11T15:43:09.000Z</time>
      </trkpt>
      <trkpt lat="43.54139" lon="5.53461">
        <ele>357.8</ele>
        <time>2022-05-11T15:43:13.000Z</time>
      </trkpt>
      <trkpt lat="43.5414" lon="5.53455">
        <ele>358</ele>
        <time>2022-05-11T15:43:17.000Z</time>
      </trkpt>
      <trkpt lat="43.5414" lon="5.53449">
        <ele>358.2</ele>
        <time>2022-05-11T15:43:22.000Z</time>
      </trkpt>
      <trkpt lat="43.54141" lon="5.53444">
        <ele>358.4</ele>
        <time>2022-05-11T15:43:26.000Z</time>
      </trkpt>
      <trkpt lat="43.54141" lon="5.53438">
        <ele>358.5</ele>
        <time>2022-05-11T15:43:30.000Z</time>
      </trkpt>
      <trkpt lat="43.54142" lon="5.53434">
        <ele>358.5</ele>
        <time>2022-05-11T15:43:33.000Z</time>
      </trkpt>
      <trkpt lat="43.54144" lon="5.53429">
        <ele>358.6</ele>
        <time>2022-05-11T15:43:36.000Z</time>
      </trkpt>
      <trkpt lat="43.54145" lon="5.53428">
        <ele>358.7</ele>
        <time>2022-05-11T15:43:37.000Z</time>
      </trkpt>
      <trkpt lat="43.54149" lon="5.53421">
        <ele>358.9</ele>
        <time>2022-05-11T15:43:43.000Z</time>
      </trkpt>
      <trkpt lat="43.5415" lon="5.53416">
        <ele>358.9</ele>
        <time>2022-05-11T15:43:46.000Z</time>
      </trkpt>
      <trkpt lat="43.54152" lon="5.53411">
        <ele>358.9</ele>
        <time>2022-05-11T15:43:50.000Z</time>
      </trkpt>
      <trkpt lat="43.54154" lon="5.53407">
        <ele>358.8</ele>
        <time>2022-05-11T15:43:53.000Z</time>
      </trkpt>
      <trkpt lat="43.54155" lon="5.53403">
        <ele>358.6</ele>
        <time>2022-05-11T15:43:56.000Z</time>
      </trkpt>
      <trkpt lat="43.54157" lon="5.53397">
        <ele>358.3</ele>
        <time>2022-05-11T15:44:00.000Z</time>
      </trkpt>
      <trkpt lat="43.54158" lon="5.53392">
        <ele>358</ele>
        <time>2022-05-11T15:44:04.000Z</time>
      </trkpt>
      <trkpt lat="43.54159" lon="5.53387">
        <ele>357.9</ele>
        <time>2022-05-11T15:44:08.000Z</time>
      </trkpt>
      <trkpt lat="43.54161" lon="5.53382">
        <ele>357.7</ele>
        <time>2022-05-11T15:44:13.000Z</time>
      </trkpt>
      <trkpt lat="43.54161" lon="5.53376">
        <ele>357.7</ele>
        <time>2022-05-11T15:44:17.000Z</time>
      </trkpt>
      <trkpt lat="43.54162" lon="5.53371">
        <ele>357.6</ele>
        <time>2022-05-11T15:44:20.000Z</time>
      </trkpt>
      <trkpt lat="43.54162" lon="5.53366">
        <ele>357.6</ele>
        <time>2022-05-11T15:44:24.000Z</time>
      </trkpt>
      <trkpt lat="43.54162" lon="5.53362">
        <ele>357.6</ele>
        <time>2022-05-11T15:44:27.000Z</time>
      </trkpt>
      <trkpt lat="43.54162" lon="5.53356">
        <ele>357.6</ele>
        <time>2022-05-11T15:44:31.000Z</time>
      </trkpt>
      <trkpt lat="43.54162" lon="5.53351">
        <ele>357.6</ele>
        <time>2022-05-11T15:44:35.000Z</time>
      </trkpt>
      <trkpt lat="43.54162" lon="5.53345">
        <ele>357.7</ele>
        <time>2022-05-11T15:44:39.000Z</time>
      </trkpt>
      <trkpt lat="43.54162" lon="5.53343">
        <ele>357.7</ele>
        <time>2022-05-11T15:44:40.000Z</time>
      </trkpt>
      <trkpt lat="43.54162" lon="5.53334">
        <ele>357.8</ele>
        <time>2022-05-11T15:44:46.000Z</time>
      </trkpt>
      <trkpt lat="43.54162" lon="5.53329">
        <ele>357.7</ele>
        <time>2022-05-11T15:44:50.000Z</time>
      </trkpt>
      <trkpt lat="43.54162" lon="5.53324">
        <ele>357.5</ele>
        <time>2022-05-11T15:44:53.000Z</time>
      </trkpt>
      <trkpt lat="43.54163" lon="5.5332">
        <ele>357.4</ele>
        <time>2022-05-11T15:44:56.000Z</time>
      </trkpt>
      <trkpt lat="43.54163" lon="5.53314">
        <ele>357.2</ele>
        <time>2022-05-11T15:45:00.000Z</time>
      </trkpt>
      <trkpt lat="43.54162" lon="5.53309">
        <ele>357.2</ele>
        <time>2022-05-11T15:45:03.000Z</time>
      </trkpt>
      <trkpt lat="43.54161" lon="5.53304">
        <ele>357.1</ele>
        <time>2022-05-11T15:45:07.000Z</time>
      </trkpt>
      <trkpt lat="43.54159" lon="5.53299">
        <ele>357</ele>
        <time>2022-05-11T15:45:11.000Z</time>
      </trkpt>
      <trkpt lat="43.54159" lon="5.53293">
        <ele>356.9</ele>
        <time>2022-05-11T15:45:15.000Z</time>
      </trkpt>
      <trkpt lat="43.54158" lon="5.53288">
        <ele>356.7</ele>
        <time>2022-05-11T15:45:18.000Z</time>
      </trkpt>
      <trkpt lat="43.54157" lon="5.53284">
        <ele>356.6</ele>
        <time>2022-05-11T15:45:21.000Z</time>
      </trkpt>
      <trkpt lat="43.54156" lon="5.53279">
        <ele>356.6</ele>
        <time>2022-05-11T15:45:24.000Z</time>
      </trkpt>
      <trkpt lat="43.54154" lon="5.53273">
        <ele>356.5</ele>
        <time>2022-05-11T15:45:28.000Z</time>
      </trkpt>
      <trkpt lat="43.54154" lon="5.53268">
        <ele>356.4</ele>
        <time>2022-05-11T15:45:32.000Z</time>
      </trkpt>
      <trkpt lat="43.54154" lon="5.53262">
        <ele>356.4</ele>
        <time>2022-05-11T15:45:36.000Z</time>
      </trkpt>
      <trkpt lat="43.54154" lon="5.53257">
        <ele>356.5</ele>
        <time>2022-05-11T15:45:39.000Z</time>
      </trkpt>
      <trkpt lat="43.54152" lon="5.53252">
        <ele>356.5</ele>
        <time>2022-05-11T15:45:44.000Z</time>
      </trkpt>
      <trkpt lat="43.54152" lon="5.5325">
        <ele>356.6</ele>
        <time>2022-05-11T15:45:45.000Z</time>
      </trkpt>
      <trkpt lat="43.54148" lon="5.53242">
        <ele>356.7</ele>
        <time>2022-05-11T15:45:54.000Z</time>
      </trkpt>
      <trkpt lat="43.54147" lon="5.53238">
        <ele>356.7</ele>
        <time>2022-05-11T15:45:57.000Z</time>
      </trkpt>
      <trkpt lat="43.54146" lon="5.53233">
        <ele>356.6</ele>
        <time>2022-05-11T15:46:00.000Z</time>
      </trkpt>
      <trkpt lat="43.54143" lon="5.53229">
        <ele>356.4</ele>
        <time>2022-05-11T15:46:07.000Z</time>
      </trkpt>
      <trkpt lat="43.54141" lon="5.53224">
        <ele>356.3</ele>
        <time>2022-05-11T15:46:15.000Z</time>
      </trkpt>
      <trkpt lat="43.54141" lon="5.53219">
        <ele>356.3</ele>
        <time>2022-05-11T15:46:19.000Z</time>
      </trkpt>
      <trkpt lat="43.54139" lon="5.53213">
        <ele>356.4</ele>
        <time>2022-05-11T15:46:26.000Z</time>
      </trkpt>
      <trkpt lat="43.54139" lon="5.53207">
        <ele>356.3</ele>
        <time>2022-05-11T15:46:47.000Z</time>
      </trkpt>
      <trkpt lat="43.54139" lon="5.53207">
        <ele>356.3</ele>
        <time>2022-05-11T15:46:48.000Z</time>
      </trkpt>
      <trkpt lat="43.54139" lon="5.53207">
        <ele>356.4</ele>
        <time>2022-05-11T15:47:46.000Z</time>
      </trkpt>
    </trkseg>
  </trk>
</gpx>